<?xml version='1.0' encoding='UTF-8'?><gpx version="1.1" creator="JPX - https://github.com/jenetics/jpx" xmlns="http://www.topografix.com/GPX/1/1"><trk><trkseg><trkpt lat="43.2819509" lon="13.6527093"><ele>33.0</ele><time>2026-04-25T07:07:20.137Z</time></trkpt><trkpt lat="43.2818999" lon="13.6526544"><ele>33.0</ele><time>2026-04-25T07:08:26.148Z</time></trkpt><trkpt lat="43.2818227" lon="13.652677"><ele>33.0</ele><time>2026-04-25T07:08:29.143Z</time></trkpt><trkpt lat="43.2817066" lon="13.652696"><ele>33.0</ele><time>2026-04-25T07:08:31.155Z</time></trkpt><trkpt lat="43.2816016" lon="13.6527396"><ele>33.0</ele><time>2026-04-25T07:08:33.155Z</time></trkpt><trkpt lat="43.2815428" lon="13.652783"><ele>33.0</ele><time>2026-04-25T07:08:38.138Z</time></trkpt><trkpt lat="43.2815228" lon="13.6528865"><ele>33.0</ele><time>2026-04-25T07:08:51.148Z</time></trkpt><trkpt lat="43.2815229" lon="13.6529776"><ele>33.0</ele><time>2026-04-25T07:08:54.146Z</time></trkpt><trkpt lat="43.2814878" lon="13.6530596"><ele>33.0</ele><time>2026-04-25T07:08:57.141Z</time></trkpt><trkpt lat="43.2813621" lon="13.6531073"><ele>33.0</ele><time>2026-04-25T07:08:59.138Z</time></trkpt><trkpt lat="43.2812765" lon="13.6531238"><ele>33.0</ele><time>2026-04-25T07:09:00.15Z</time></trkpt><trkpt lat="43.2811919" lon="13.6531526"><ele>33.0</ele><time>2026-04-25T07:09:01.142Z</time></trkpt><trkpt lat="43.2811075" lon="13.6531811"><ele>33.0</ele><time>2026-04-25T07:09:02.152Z</time></trkpt><trkpt lat="43.2810236" lon="13.6532131"><ele>33.0</ele><time>2026-04-25T07:09:03.143Z</time></trkpt><trkpt lat="43.2809317" lon="13.6532465"><ele>33.0</ele><time>2026-04-25T07:09:04.14Z</time></trkpt><trkpt lat="43.2808361" lon="13.6532724"><ele>33.0</ele><time>2026-04-25T07:09:05.143Z</time></trkpt><trkpt lat="43.2807379" lon="13.6533057"><ele>33.0</ele><time>2026-04-25T07:09:06.143Z</time></trkpt><trkpt lat="43.2806353" lon="13.6533374"><ele>32.333333333333336</ele><time>2026-04-25T07:09:07.164Z</time></trkpt><trkpt lat="43.2805223" lon="13.6533757"><ele>31.666666666666668</ele><time>2026-04-25T07:09:08.136Z</time></trkpt><trkpt lat="43.2804092" lon="13.6534147"><ele>31.0</ele><time>2026-04-25T07:09:09.15Z</time></trkpt><trkpt lat="43.2801222" lon="13.6535301"><ele>31.0</ele><time>2026-04-25T07:09:11.156Z</time></trkpt><trkpt lat="43.2799376" lon="13.6536016"><ele>31.0</ele><time>2026-04-25T07:09:12.145Z</time></trkpt><trkpt lat="43.279738" lon="13.6536764"><ele>31.0</ele><time>2026-04-25T07:09:13.145Z</time></trkpt><trkpt lat="43.2795301" lon="13.6537511"><ele>30.666666666666668</ele><time>2026-04-25T07:09:14.153Z</time></trkpt><trkpt lat="43.2793275" lon="13.6538201"><ele>30.333333333333336</ele><time>2026-04-25T07:09:15.14Z</time></trkpt><trkpt lat="43.2791496" lon="13.6538829"><ele>30.0</ele><time>2026-04-25T07:09:16.146Z</time></trkpt><trkpt lat="43.2789949" lon="13.6539437"><ele>30.2</ele><time>2026-04-25T07:09:17.147Z</time></trkpt><trkpt lat="43.27886" lon="13.6539897"><ele>30.4</ele><time>2026-04-25T07:09:18.141Z</time></trkpt><trkpt lat="43.2787396" lon="13.6540157"><ele>30.6</ele><time>2026-04-25T07:09:19.145Z</time></trkpt><trkpt lat="43.2786379" lon="13.6540156"><ele>30.8</ele><time>2026-04-25T07:09:20.144Z</time></trkpt><trkpt lat="43.2785654" lon="13.6539676"><ele>31.0</ele><time>2026-04-25T07:09:21.141Z</time></trkpt><trkpt lat="43.2784933" lon="13.6538901"><ele>31.0</ele><time>2026-04-25T07:09:22.142Z</time></trkpt><trkpt lat="43.2784397" lon="13.6537746"><ele>31.0</ele><time>2026-04-25T07:09:23.146Z</time></trkpt><trkpt lat="43.2783999" lon="13.6536376"><ele>31.0</ele><time>2026-04-25T07:09:24.146Z</time></trkpt><trkpt lat="43.2783594" lon="13.6534923"><ele>31.0</ele><time>2026-04-25T07:09:25.147Z</time></trkpt><trkpt lat="43.278296" lon="13.6533584"><ele>31.0</ele><time>2026-04-25T07:09:26.145Z</time></trkpt><trkpt lat="43.2782107" lon="13.6532444"><ele>31.0</ele><time>2026-04-25T07:09:27.149Z</time></trkpt><trkpt lat="43.2781088" lon="13.6531711"><ele>31.0</ele><time>2026-04-25T07:09:28.144Z</time></trkpt><trkpt lat="43.2779913" lon="13.653132"><ele>31.0</ele><time>2026-04-25T07:09:29.154Z</time></trkpt><trkpt lat="43.2778707" lon="13.6531353"><ele>31.0</ele><time>2026-04-25T07:09:30.141Z</time></trkpt><trkpt lat="43.2777494" lon="13.6531429"><ele>31.0</ele><time>2026-04-25T07:09:31.147Z</time></trkpt><trkpt lat="43.2776344" lon="13.6530995"><ele>31.0</ele><time>2026-04-25T07:09:32.149Z</time></trkpt><trkpt lat="43.2775463" lon="13.6529654"><ele>31.0</ele><time>2026-04-25T07:09:33.142Z</time></trkpt><trkpt lat="43.2774688" lon="13.6528278"><ele>31.0</ele><time>2026-04-25T07:09:34.148Z</time></trkpt><trkpt lat="43.2774384" lon="13.6526549"><ele>31.0</ele><time>2026-04-25T07:09:35.14Z</time></trkpt><trkpt lat="43.2774192" lon="13.6524646"><ele>31.0</ele><time>2026-04-25T07:09:36.142Z</time></trkpt><trkpt lat="43.277388" lon="13.6522706"><ele>31.0</ele><time>2026-04-25T07:09:37.141Z</time></trkpt><trkpt lat="43.2773545" lon="13.6520594"><ele>31.0</ele><time>2026-04-25T07:09:38.15Z</time></trkpt><trkpt lat="43.2773179" lon="13.6518142"><ele>29.5</ele><time>2026-04-25T07:09:39.145Z</time></trkpt><trkpt lat="43.2772617" lon="13.6515276"><ele>28.0</ele><time>2026-04-25T07:09:40.137Z</time></trkpt><trkpt lat="43.277205" lon="13.6511915"><ele>28.0</ele><time>2026-04-25T07:09:41.14Z</time></trkpt><trkpt lat="43.2771472" lon="13.65083"><ele>28.0</ele><time>2026-04-25T07:09:42.15Z</time></trkpt><trkpt lat="43.2770881" lon="13.6504388"><ele>28.0</ele><time>2026-04-25T07:09:43.144Z</time></trkpt><trkpt lat="43.277012" lon="13.6500043"><ele>28.0</ele><time>2026-04-25T07:09:44.137Z</time></trkpt><trkpt lat="43.2769391" lon="13.6495356"><ele>29.0</ele><time>2026-04-25T07:09:45.139Z</time></trkpt><trkpt lat="43.2768699" lon="13.6490404"><ele>30.0</ele><time>2026-04-25T07:09:46.136Z</time></trkpt><trkpt lat="43.2768075" lon="13.6485611"><ele>30.5</ele><time>2026-04-25T07:09:47.14Z</time></trkpt><trkpt lat="43.2767418" lon="13.6480985"><ele>31.0</ele><time>2026-04-25T07:09:48.131Z</time></trkpt><trkpt lat="43.2766816" lon="13.6476312"><ele>30.5</ele><time>2026-04-25T07:09:49.151Z</time></trkpt><trkpt lat="43.2766172" lon="13.6471651"><ele>30.0</ele><time>2026-04-25T07:09:50.149Z</time></trkpt><trkpt lat="43.27655" lon="13.6467031"><ele>30.0</ele><time>2026-04-25T07:09:51.143Z</time></trkpt><trkpt lat="43.2764865" lon="13.6462422"><ele>30.0</ele><time>2026-04-25T07:09:52.144Z</time></trkpt><trkpt lat="43.2764261" lon="13.6457855"><ele>30.5</ele><time>2026-04-25T07:09:53.149Z</time></trkpt><trkpt lat="43.2763676" lon="13.6453255"><ele>31.0</ele><time>2026-04-25T07:09:54.151Z</time></trkpt><trkpt lat="43.276309" lon="13.6448736"><ele>32.0</ele><time>2026-04-25T07:09:55.179Z</time></trkpt><trkpt lat="43.2762453" lon="13.644419"><ele>33.0</ele><time>2026-04-25T07:09:56.134Z</time></trkpt><trkpt lat="43.2761839" lon="13.6439671"><ele>33.0</ele><time>2026-04-25T07:09:57.139Z</time></trkpt><trkpt lat="43.27612" lon="13.6435143"><ele>33.0</ele><time>2026-04-25T07:09:58.146Z</time></trkpt><trkpt lat="43.2760626" lon="13.6430666"><ele>33.5</ele><time>2026-04-25T07:09:59.145Z</time></trkpt><trkpt lat="43.2760016" lon="13.6426136"><ele>34.0</ele><time>2026-04-25T07:10:00.141Z</time></trkpt><trkpt lat="43.2759365" lon="13.6421579"><ele>34.0</ele><time>2026-04-25T07:10:01.136Z</time></trkpt><trkpt lat="43.2758734" lon="13.6416972"><ele>34.0</ele><time>2026-04-25T07:10:02.139Z</time></trkpt><trkpt lat="43.2758111" lon="13.6412186"><ele>34.0</ele><time>2026-04-25T07:10:03.178Z</time></trkpt><trkpt lat="43.2757486" lon="13.6407376"><ele>34.0</ele><time>2026-04-25T07:10:04.143Z</time></trkpt><trkpt lat="43.2756833" lon="13.6402542"><ele>34.0</ele><time>2026-04-25T07:10:05.14Z</time></trkpt><trkpt lat="43.2756172" lon="13.6397725"><ele>34.0</ele><time>2026-04-25T07:10:06.142Z</time></trkpt><trkpt lat="43.2755522" lon="13.6392874"><ele>34.0</ele><time>2026-04-25T07:10:07.143Z</time></trkpt><trkpt lat="43.2754854" lon="13.638801"><ele>34.0</ele><time>2026-04-25T07:10:08.139Z</time></trkpt><trkpt lat="43.2754186" lon="13.6383166"><ele>35.0</ele><time>2026-04-25T07:10:09.142Z</time></trkpt><trkpt lat="43.2753499" lon="13.6378302"><ele>36.0</ele><time>2026-04-25T07:10:10.14Z</time></trkpt><trkpt lat="43.2752839" lon="13.6373509"><ele>35.5</ele><time>2026-04-25T07:10:11.16Z</time></trkpt><trkpt lat="43.2752144" lon="13.6368687"><ele>35.0</ele><time>2026-04-25T07:10:12.139Z</time></trkpt><trkpt lat="43.2751498" lon="13.6363911"><ele>35.0</ele><time>2026-04-25T07:10:13.149Z</time></trkpt><trkpt lat="43.2750863" lon="13.635905"><ele>35.0</ele><time>2026-04-25T07:10:14.139Z</time></trkpt><trkpt lat="43.2750216" lon="13.6354251"><ele>35.0</ele><time>2026-04-25T07:10:15.14Z</time></trkpt><trkpt lat="43.274959" lon="13.6349441"><ele>35.0</ele><time>2026-04-25T07:10:16.144Z</time></trkpt><trkpt lat="43.2748925" lon="13.6344634"><ele>35.0</ele><time>2026-04-25T07:10:17.147Z</time></trkpt><trkpt lat="43.2748255" lon="13.6339834"><ele>35.0</ele><time>2026-04-25T07:10:18.138Z</time></trkpt><trkpt lat="43.2747625" lon="13.6335041"><ele>36.0</ele><time>2026-04-25T07:10:19.144Z</time></trkpt><trkpt lat="43.2747002" lon="13.6330348"><ele>37.0</ele><time>2026-04-25T07:10:20.141Z</time></trkpt><trkpt lat="43.2746373" lon="13.6325705"><ele>37.0</ele><time>2026-04-25T07:10:21.174Z</time></trkpt><trkpt lat="43.2745746" lon="13.632105"><ele>37.0</ele><time>2026-04-25T07:10:22.142Z</time></trkpt><trkpt lat="43.2745126" lon="13.6316422"><ele>37.0</ele><time>2026-04-25T07:10:23.143Z</time></trkpt><trkpt lat="43.2744504" lon="13.6311855"><ele>37.0</ele><time>2026-04-25T07:10:24.14Z</time></trkpt><trkpt lat="43.2743906" lon="13.6307275"><ele>36.0</ele><time>2026-04-25T07:10:25.139Z</time></trkpt><trkpt lat="43.2743271" lon="13.6302738"><ele>35.0</ele><time>2026-04-25T07:10:26.144Z</time></trkpt><trkpt lat="43.2742663" lon="13.6298141"><ele>35.5</ele><time>2026-04-25T07:10:27.146Z</time></trkpt><trkpt lat="43.2742022" lon="13.6293414"><ele>36.0</ele><time>2026-04-25T07:10:28.14Z</time></trkpt><trkpt lat="43.2741374" lon="13.6288725"><ele>35.5</ele><time>2026-04-25T07:10:29.137Z</time></trkpt><trkpt lat="43.2740757" lon="13.6283905"><ele>35.0</ele><time>2026-04-25T07:10:30.135Z</time></trkpt><trkpt lat="43.2740117" lon="13.6279213"><ele>35.0</ele><time>2026-04-25T07:10:31.143Z</time></trkpt><trkpt lat="43.2739444" lon="13.6274589"><ele>35.0</ele><time>2026-04-25T07:10:32.164Z</time></trkpt><trkpt lat="43.2738832" lon="13.627001"><ele>35.0</ele><time>2026-04-25T07:10:33.146Z</time></trkpt><trkpt lat="43.2738239" lon="13.6265478"><ele>35.0</ele><time>2026-04-25T07:10:34.142Z</time></trkpt><trkpt lat="43.2737613" lon="13.6261002"><ele>35.5</ele><time>2026-04-25T07:10:35.149Z</time></trkpt><trkpt lat="43.2737002" lon="13.6256516"><ele>36.0</ele><time>2026-04-25T07:10:36.137Z</time></trkpt><trkpt lat="43.2736381" lon="13.625209"><ele>36.0</ele><time>2026-04-25T07:10:37.146Z</time></trkpt><trkpt lat="43.2735777" lon="13.6247699"><ele>36.0</ele><time>2026-04-25T07:10:38.14Z</time></trkpt><trkpt lat="43.2735179" lon="13.6243237"><ele>36.5</ele><time>2026-04-25T07:10:39.147Z</time></trkpt><trkpt lat="43.2734591" lon="13.6238754"><ele>37.0</ele><time>2026-04-25T07:10:40.145Z</time></trkpt><trkpt lat="43.2734007" lon="13.6234234"><ele>37.5</ele><time>2026-04-25T07:10:41.144Z</time></trkpt><trkpt lat="43.2733392" lon="13.6229695"><ele>38.0</ele><time>2026-04-25T07:10:42.148Z</time></trkpt><trkpt lat="43.27328" lon="13.6225137"><ele>38.0</ele><time>2026-04-25T07:10:43.141Z</time></trkpt><trkpt lat="43.2732264" lon="13.6220674"><ele>38.0</ele><time>2026-04-25T07:10:44.148Z</time></trkpt><trkpt lat="43.2731624" lon="13.6215919"><ele>37.5</ele><time>2026-04-25T07:10:45.145Z</time></trkpt><trkpt lat="43.2731041" lon="13.6210719"><ele>37.0</ele><time>2026-04-25T07:10:46.156Z</time></trkpt><trkpt lat="43.2730559" lon="13.6205198"><ele>37.0</ele><time>2026-04-25T07:10:47.14Z</time></trkpt><trkpt lat="43.2730217" lon="13.6199466"><ele>37.0</ele><time>2026-04-25T07:10:48.14Z</time></trkpt><trkpt lat="43.2729902" lon="13.6193888"><ele>37.0</ele><time>2026-04-25T07:10:49.145Z</time></trkpt><trkpt lat="43.2729731" lon="13.6188844"><ele>37.0</ele><time>2026-04-25T07:10:50.141Z</time></trkpt><trkpt lat="43.2729666" lon="13.6183962"><ele>37.0</ele><time>2026-04-25T07:10:51.154Z</time></trkpt><trkpt lat="43.2729742" lon="13.6179058"><ele>37.0</ele><time>2026-04-25T07:10:52.14Z</time></trkpt><trkpt lat="43.2729842" lon="13.6174245"><ele>37.0</ele><time>2026-04-25T07:10:53.14Z</time></trkpt><trkpt lat="43.2730021" lon="13.6169412"><ele>37.0</ele><time>2026-04-25T07:10:54.142Z</time></trkpt><trkpt lat="43.2730244" lon="13.6164665"><ele>37.5</ele><time>2026-04-25T07:10:55.138Z</time></trkpt><trkpt lat="43.2730512" lon="13.6159908"><ele>38.0</ele><time>2026-04-25T07:10:56.147Z</time></trkpt><trkpt lat="43.2730794" lon="13.6155176"><ele>38.5</ele><time>2026-04-25T07:10:57.141Z</time></trkpt><trkpt lat="43.2731062" lon="13.6150524"><ele>39.0</ele><time>2026-04-25T07:10:58.142Z</time></trkpt><trkpt lat="43.2731368" lon="13.614591"><ele>39.5</ele><time>2026-04-25T07:10:59.141Z</time></trkpt><trkpt lat="43.2731663" lon="13.6141369"><ele>40.0</ele><time>2026-04-25T07:11:00.139Z</time></trkpt><trkpt lat="43.2731997" lon="13.6136924"><ele>40.5</ele><time>2026-04-25T07:11:01.147Z</time></trkpt><trkpt lat="43.2732259" lon="13.6132488"><ele>41.0</ele><time>2026-04-25T07:11:02.145Z</time></trkpt><trkpt lat="43.2732537" lon="13.6128089"><ele>41.5</ele><time>2026-04-25T07:11:03.147Z</time></trkpt><trkpt lat="43.2732804" lon="13.6123705"><ele>42.0</ele><time>2026-04-25T07:11:04.152Z</time></trkpt><trkpt lat="43.2733041" lon="13.611936"><ele>42.5</ele><time>2026-04-25T07:11:05.151Z</time></trkpt><trkpt lat="43.2733202" lon="13.6115047"><ele>43.0</ele><time>2026-04-25T07:11:06.14Z</time></trkpt><trkpt lat="43.2733235" lon="13.6110717"><ele>43.0</ele><time>2026-04-25T07:11:07.145Z</time></trkpt><trkpt lat="43.2733054" lon="13.6106272"><ele>43.0</ele><time>2026-04-25T07:11:08.149Z</time></trkpt><trkpt lat="43.2732792" lon="13.6101705"><ele>43.5</ele><time>2026-04-25T07:11:09.147Z</time></trkpt><trkpt lat="43.2732459" lon="13.609699"><ele>44.0</ele><time>2026-04-25T07:11:10.151Z</time></trkpt><trkpt lat="43.2731901" lon="13.6092264"><ele>44.0</ele><time>2026-04-25T07:11:11.142Z</time></trkpt><trkpt lat="43.2731216" lon="13.6087522"><ele>44.0</ele><time>2026-04-25T07:11:12.138Z</time></trkpt><trkpt lat="43.273038" lon="13.6082768"><ele>43.5</ele><time>2026-04-25T07:11:13.14Z</time></trkpt><trkpt lat="43.2729395" lon="13.6078123"><ele>43.0</ele><time>2026-04-25T07:11:14.151Z</time></trkpt><trkpt lat="43.2728284" lon="13.6073406"><ele>44.0</ele><time>2026-04-25T07:11:15.139Z</time></trkpt><trkpt lat="43.2727061" lon="13.6068764"><ele>45.0</ele><time>2026-04-25T07:11:16.165Z</time></trkpt><trkpt lat="43.2725658" lon="13.6064183"><ele>45.5</ele><time>2026-04-25T07:11:17.138Z</time></trkpt><trkpt lat="43.2724187" lon="13.6059712"><ele>46.0</ele><time>2026-04-25T07:11:18.137Z</time></trkpt><trkpt lat="43.2722617" lon="13.6055348"><ele>45.5</ele><time>2026-04-25T07:11:19.146Z</time></trkpt><trkpt lat="43.2721028" lon="13.6051366"><ele>45.0</ele><time>2026-04-25T07:11:20.147Z</time></trkpt><trkpt lat="43.2719372" lon="13.6047587"><ele>45.0</ele><time>2026-04-25T07:11:21.14Z</time></trkpt><trkpt lat="43.2717604" lon="13.6043867"><ele>45.0</ele><time>2026-04-25T07:11:22.147Z</time></trkpt><trkpt lat="43.271581" lon="13.6040245"><ele>45.5</ele><time>2026-04-25T07:11:23.141Z</time></trkpt><trkpt lat="43.2713737" lon="13.6036449"><ele>46.0</ele><time>2026-04-25T07:11:24.14Z</time></trkpt><trkpt lat="43.2711507" lon="13.603243"><ele>46.5</ele><time>2026-04-25T07:11:25.147Z</time></trkpt><trkpt lat="43.2709174" lon="13.6028246"><ele>47.0</ele><time>2026-04-25T07:11:26.155Z</time></trkpt><trkpt lat="43.2706742" lon="13.6023891"><ele>47.0</ele><time>2026-04-25T07:11:27.136Z</time></trkpt><trkpt lat="43.2704404" lon="13.6019634"><ele>47.0</ele><time>2026-04-25T07:11:28.144Z</time></trkpt><trkpt lat="43.2702166" lon="13.6015538"><ele>47.0</ele><time>2026-04-25T07:11:29.145Z</time></trkpt><trkpt lat="43.2700065" lon="13.6011791"><ele>47.0</ele><time>2026-04-25T07:11:30.139Z</time></trkpt><trkpt lat="43.2698074" lon="13.600827"><ele>47.0</ele><time>2026-04-25T07:11:31.143Z</time></trkpt><trkpt lat="43.2696124" lon="13.6004833"><ele>47.0</ele><time>2026-04-25T07:11:32.138Z</time></trkpt><trkpt lat="43.2694183" lon="13.6001346"><ele>47.0</ele><time>2026-04-25T07:11:33.137Z</time></trkpt><trkpt lat="43.2692232" lon="13.5997776"><ele>47.0</ele><time>2026-04-25T07:11:34.147Z</time></trkpt><trkpt lat="43.2690248" lon="13.5994197"><ele>47.5</ele><time>2026-04-25T07:11:35.143Z</time></trkpt><trkpt lat="43.2688273" lon="13.5990559"><ele>48.0</ele><time>2026-04-25T07:11:36.138Z</time></trkpt><trkpt lat="43.2686334" lon="13.5986854"><ele>48.0</ele><time>2026-04-25T07:11:37.141Z</time></trkpt><trkpt lat="43.2684445" lon="13.5983152"><ele>48.0</ele><time>2026-04-25T07:11:38.134Z</time></trkpt><trkpt lat="43.26827" lon="13.5979345"><ele>48.0</ele><time>2026-04-25T07:11:39.136Z</time></trkpt><trkpt lat="43.2680989" lon="13.5975526"><ele>48.0</ele><time>2026-04-25T07:11:40.151Z</time></trkpt><trkpt lat="43.2679398" lon="13.5971623"><ele>49.0</ele><time>2026-04-25T07:11:41.139Z</time></trkpt><trkpt lat="43.2677862" lon="13.5967722"><ele>50.0</ele><time>2026-04-25T07:11:42.146Z</time></trkpt><trkpt lat="43.2676289" lon="13.5963786"><ele>50.0</ele><time>2026-04-25T07:11:43.145Z</time></trkpt><trkpt lat="43.2674711" lon="13.5959789"><ele>50.0</ele><time>2026-04-25T07:11:44.145Z</time></trkpt><trkpt lat="43.2673169" lon="13.5955694"><ele>49.5</ele><time>2026-04-25T07:11:45.136Z</time></trkpt><trkpt lat="43.2671643" lon="13.595151"><ele>49.0</ele><time>2026-04-25T07:11:46.135Z</time></trkpt><trkpt lat="43.2670229" lon="13.594726"><ele>50.0</ele><time>2026-04-25T07:11:47.158Z</time></trkpt><trkpt lat="43.2668853" lon="13.5942921"><ele>51.0</ele><time>2026-04-25T07:11:48.149Z</time></trkpt><trkpt lat="43.2667506" lon="13.5938493"><ele>51.5</ele><time>2026-04-25T07:11:49.157Z</time></trkpt><trkpt lat="43.266618" lon="13.5933963"><ele>52.0</ele><time>2026-04-25T07:11:50.143Z</time></trkpt><trkpt lat="43.2664943" lon="13.5929402"><ele>51.5</ele><time>2026-04-25T07:11:51.138Z</time></trkpt><trkpt lat="43.2663729" lon="13.5924819"><ele>51.0</ele><time>2026-04-25T07:11:52.163Z</time></trkpt><trkpt lat="43.2662519" lon="13.5920285"><ele>51.5</ele><time>2026-04-25T07:11:53.141Z</time></trkpt><trkpt lat="43.2661405" lon="13.5915771"><ele>52.0</ele><time>2026-04-25T07:11:54.146Z</time></trkpt><trkpt lat="43.2660302" lon="13.5911342"><ele>52.0</ele><time>2026-04-25T07:11:55.144Z</time></trkpt><trkpt lat="43.2659195" lon="13.5906921"><ele>52.0</ele><time>2026-04-25T07:11:56.147Z</time></trkpt><trkpt lat="43.2658115" lon="13.5902549"><ele>52.0</ele><time>2026-04-25T07:11:57.144Z</time></trkpt><trkpt lat="43.2657022" lon="13.5898212"><ele>52.0</ele><time>2026-04-25T07:11:58.142Z</time></trkpt><trkpt lat="43.2655879" lon="13.5893872"><ele>52.0</ele><time>2026-04-25T07:11:59.132Z</time></trkpt><trkpt lat="43.2654746" lon="13.5889584"><ele>52.0</ele><time>2026-04-25T07:12:00.146Z</time></trkpt><trkpt lat="43.2653593" lon="13.5885314"><ele>52.0</ele><time>2026-04-25T07:12:01.145Z</time></trkpt><trkpt lat="43.2652362" lon="13.5880973"><ele>52.0</ele><time>2026-04-25T07:12:02.147Z</time></trkpt><trkpt lat="43.2651123" lon="13.587656"><ele>52.5</ele><time>2026-04-25T07:12:03.137Z</time></trkpt><trkpt lat="43.2649928" lon="13.5872092"><ele>53.0</ele><time>2026-04-25T07:12:04.14Z</time></trkpt><trkpt lat="43.2648771" lon="13.5867458"><ele>54.0</ele><time>2026-04-25T07:12:05.143Z</time></trkpt><trkpt lat="43.2647571" lon="13.5862537"><ele>55.0</ele><time>2026-04-25T07:12:06.152Z</time></trkpt><trkpt lat="43.2646376" lon="13.5857457"><ele>55.0</ele><time>2026-04-25T07:12:07.143Z</time></trkpt><trkpt lat="43.2645137" lon="13.5852344"><ele>55.0</ele><time>2026-04-25T07:12:08.143Z</time></trkpt><trkpt lat="43.2643993" lon="13.5847226"><ele>55.5</ele><time>2026-04-25T07:12:09.139Z</time></trkpt><trkpt lat="43.2642972" lon="13.5842154"><ele>56.0</ele><time>2026-04-25T07:12:10.146Z</time></trkpt><trkpt lat="43.2642056" lon="13.5837088"><ele>56.0</ele><time>2026-04-25T07:12:11.14Z</time></trkpt><trkpt lat="43.2641167" lon="13.5832198"><ele>56.0</ele><time>2026-04-25T07:12:12.154Z</time></trkpt><trkpt lat="43.2640399" lon="13.5827621"><ele>56.0</ele><time>2026-04-25T07:12:13.14Z</time></trkpt><trkpt lat="43.2639675" lon="13.582319"><ele>56.0</ele><time>2026-04-25T07:12:14.141Z</time></trkpt><trkpt lat="43.263896" lon="13.5818785"><ele>54.5</ele><time>2026-04-25T07:12:15.144Z</time></trkpt><trkpt lat="43.2638277" lon="13.5814381"><ele>53.0</ele><time>2026-04-25T07:12:16.144Z</time></trkpt><trkpt lat="43.2637689" lon="13.5809943"><ele>53.0</ele><time>2026-04-25T07:12:17.146Z</time></trkpt><trkpt lat="43.2637133" lon="13.5805495"><ele>53.0</ele><time>2026-04-25T07:12:18.142Z</time></trkpt><trkpt lat="43.2636608" lon="13.5800962"><ele>54.0</ele><time>2026-04-25T07:12:19.15Z</time></trkpt><trkpt lat="43.2636057" lon="13.5796401"><ele>55.0</ele><time>2026-04-25T07:12:20.153Z</time></trkpt><trkpt lat="43.263554" lon="13.5791809"><ele>55.5</ele><time>2026-04-25T07:12:21.159Z</time></trkpt><trkpt lat="43.2635089" lon="13.5787115"><ele>56.0</ele><time>2026-04-25T07:12:22.147Z</time></trkpt><trkpt lat="43.2634676" lon="13.5782346"><ele>57.0</ele><time>2026-04-25T07:12:23.143Z</time></trkpt><trkpt lat="43.2634241" lon="13.5777563"><ele>58.0</ele><time>2026-04-25T07:12:24.15Z</time></trkpt><trkpt lat="43.2633781" lon="13.577276"><ele>57.0</ele><time>2026-04-25T07:12:25.152Z</time></trkpt><trkpt lat="43.263328" lon="13.5767921"><ele>56.0</ele><time>2026-04-25T07:12:26.148Z</time></trkpt><trkpt lat="43.2632755" lon="13.5763036"><ele>56.5</ele><time>2026-04-25T07:12:27.145Z</time></trkpt><trkpt lat="43.2632248" lon="13.5758139"><ele>57.0</ele><time>2026-04-25T07:12:28.154Z</time></trkpt><trkpt lat="43.2631809" lon="13.5753185"><ele>57.5</ele><time>2026-04-25T07:12:29.153Z</time></trkpt><trkpt lat="43.2631472" lon="13.5748189"><ele>58.0</ele><time>2026-04-25T07:12:30.148Z</time></trkpt><trkpt lat="43.2631175" lon="13.5743236"><ele>57.0</ele><time>2026-04-25T07:12:31.151Z</time></trkpt><trkpt lat="43.2630744" lon="13.5738301"><ele>56.0</ele><time>2026-04-25T07:12:32.141Z</time></trkpt><trkpt lat="43.2630213" lon="13.5733346"><ele>56.0</ele><time>2026-04-25T07:12:33.15Z</time></trkpt><trkpt lat="43.2629621" lon="13.5728304"><ele>56.0</ele><time>2026-04-25T07:12:34.14Z</time></trkpt><trkpt lat="43.262904" lon="13.5723251"><ele>56.5</ele><time>2026-04-25T07:12:35.15Z</time></trkpt><trkpt lat="43.2628512" lon="13.5718197"><ele>57.0</ele><time>2026-04-25T07:12:36.142Z</time></trkpt><trkpt lat="43.2628043" lon="13.5713148"><ele>57.5</ele><time>2026-04-25T07:12:37.148Z</time></trkpt><trkpt lat="43.262762" lon="13.5708098"><ele>58.0</ele><time>2026-04-25T07:12:38.151Z</time></trkpt><trkpt lat="43.262718" lon="13.5703044"><ele>58.5</ele><time>2026-04-25T07:12:39.133Z</time></trkpt><trkpt lat="43.2626793" lon="13.569805"><ele>59.0</ele><time>2026-04-25T07:12:40.149Z</time></trkpt><trkpt lat="43.2626422" lon="13.5693093"><ele>59.0</ele><time>2026-04-25T07:12:41.152Z</time></trkpt><trkpt lat="43.2626186" lon="13.5688548"><ele>59.0</ele><time>2026-04-25T07:12:42.145Z</time></trkpt><trkpt lat="43.2626001" lon="13.5684277"><ele>59.5</ele><time>2026-04-25T07:12:43.148Z</time></trkpt><trkpt lat="43.2625824" lon="13.568009"><ele>60.0</ele><time>2026-04-25T07:12:44.147Z</time></trkpt><trkpt lat="43.2625631" lon="13.5675702"><ele>60.5</ele><time>2026-04-25T07:12:45.145Z</time></trkpt><trkpt lat="43.262549" lon="13.5671113"><ele>61.0</ele><time>2026-04-25T07:12:46.135Z</time></trkpt><trkpt lat="43.2625344" lon="13.5666397"><ele>60.0</ele><time>2026-04-25T07:12:47.15Z</time></trkpt><trkpt lat="43.2625281" lon="13.5661612"><ele>59.0</ele><time>2026-04-25T07:12:48.148Z</time></trkpt><trkpt lat="43.2625284" lon="13.5656742"><ele>59.5</ele><time>2026-04-25T07:12:49.147Z</time></trkpt><trkpt lat="43.2625345" lon="13.565181"><ele>60.0</ele><time>2026-04-25T07:12:50.137Z</time></trkpt><trkpt lat="43.2625388" lon="13.5646829"><ele>60.5</ele><time>2026-04-25T07:12:51.138Z</time></trkpt><trkpt lat="43.2625573" lon="13.5641857"><ele>61.0</ele><time>2026-04-25T07:12:52.145Z</time></trkpt><trkpt lat="43.2625802" lon="13.563688"><ele>61.0</ele><time>2026-04-25T07:12:53.147Z</time></trkpt><trkpt lat="43.2626032" lon="13.5631837"><ele>61.0</ele><time>2026-04-25T07:12:54.156Z</time></trkpt><trkpt lat="43.2626331" lon="13.5626834"><ele>61.0</ele><time>2026-04-25T07:12:55.136Z</time></trkpt><trkpt lat="43.2626663" lon="13.5621816"><ele>61.0</ele><time>2026-04-25T07:12:56.14Z</time></trkpt><trkpt lat="43.2627047" lon="13.5616831"><ele>60.5</ele><time>2026-04-25T07:12:57.135Z</time></trkpt><trkpt lat="43.262747" lon="13.5611863"><ele>60.0</ele><time>2026-04-25T07:12:58.137Z</time></trkpt><trkpt lat="43.2627961" lon="13.5606899"><ele>60.0</ele><time>2026-04-25T07:12:59.142Z</time></trkpt><trkpt lat="43.2628496" lon="13.5601941"><ele>60.0</ele><time>2026-04-25T07:13:00.136Z</time></trkpt><trkpt lat="43.2629044" lon="13.5597018"><ele>60.5</ele><time>2026-04-25T07:13:01.136Z</time></trkpt><trkpt lat="43.2629639" lon="13.5592132"><ele>61.0</ele><time>2026-04-25T07:13:02.14Z</time></trkpt><trkpt lat="43.2630302" lon="13.5587291"><ele>61.0</ele><time>2026-04-25T07:13:03.135Z</time></trkpt><trkpt lat="43.2631024" lon="13.5582488"><ele>61.0</ele><time>2026-04-25T07:13:04.139Z</time></trkpt><trkpt lat="43.2631751" lon="13.557765"><ele>62.0</ele><time>2026-04-25T07:13:05.159Z</time></trkpt><trkpt lat="43.2632541" lon="13.557301"><ele>63.0</ele><time>2026-04-25T07:13:06.146Z</time></trkpt><trkpt lat="43.263329" lon="13.5568635"><ele>63.0</ele><time>2026-04-25T07:13:07.139Z</time></trkpt><trkpt lat="43.2634102" lon="13.5564514"><ele>63.0</ele><time>2026-04-25T07:13:08.152Z</time></trkpt><trkpt lat="43.2634916" lon="13.5560255"><ele>63.0</ele><time>2026-04-25T07:13:09.152Z</time></trkpt><trkpt lat="43.2635735" lon="13.5556016"><ele>63.0</ele><time>2026-04-25T07:13:10.142Z</time></trkpt><trkpt lat="43.2636593" lon="13.5551713"><ele>62.5</ele><time>2026-04-25T07:13:11.16Z</time></trkpt><trkpt lat="43.2637428" lon="13.5547406"><ele>62.0</ele><time>2026-04-25T07:13:12.137Z</time></trkpt><trkpt lat="43.2638229" lon="13.5543071"><ele>62.0</ele><time>2026-04-25T07:13:13.146Z</time></trkpt><trkpt lat="43.2639041" lon="13.5538716"><ele>62.0</ele><time>2026-04-25T07:13:14.138Z</time></trkpt><trkpt lat="43.2639862" lon="13.5534404"><ele>63.0</ele><time>2026-04-25T07:13:15.143Z</time></trkpt><trkpt lat="43.264066" lon="13.5530112"><ele>64.0</ele><time>2026-04-25T07:13:16.141Z</time></trkpt><trkpt lat="43.2641474" lon="13.5525847"><ele>64.0</ele><time>2026-04-25T07:13:17.13Z</time></trkpt><trkpt lat="43.2642305" lon="13.5521671"><ele>64.0</ele><time>2026-04-25T07:13:18.134Z</time></trkpt><trkpt lat="43.2643076" lon="13.5517463"><ele>64.0</ele><time>2026-04-25T07:13:19.149Z</time></trkpt><trkpt lat="43.264386" lon="13.5513309"><ele>64.0</ele><time>2026-04-25T07:13:20.141Z</time></trkpt><trkpt lat="43.2644676" lon="13.5509121"><ele>65.0</ele><time>2026-04-25T07:13:21.142Z</time></trkpt><trkpt lat="43.2645471" lon="13.5504968"><ele>66.0</ele><time>2026-04-25T07:13:22.14Z</time></trkpt><trkpt lat="43.2646303" lon="13.5500806"><ele>66.5</ele><time>2026-04-25T07:13:23.141Z</time></trkpt><trkpt lat="43.2647156" lon="13.5496642"><ele>67.0</ele><time>2026-04-25T07:13:24.145Z</time></trkpt><trkpt lat="43.2647914" lon="13.5492767"><ele>67.0</ele><time>2026-04-25T07:13:25.144Z</time></trkpt><trkpt lat="43.2648613" lon="13.5489101"><ele>67.0</ele><time>2026-04-25T07:13:26.142Z</time></trkpt><trkpt lat="43.2649325" lon="13.5485386"><ele>67.0</ele><time>2026-04-25T07:13:27.142Z</time></trkpt><trkpt lat="43.2650066" lon="13.5481474"><ele>67.0</ele><time>2026-04-25T07:13:28.141Z</time></trkpt><trkpt lat="43.2650854" lon="13.5477324"><ele>67.0</ele><time>2026-04-25T07:13:29.151Z</time></trkpt><trkpt lat="43.2651674" lon="13.5473014"><ele>67.0</ele><time>2026-04-25T07:13:30.14Z</time></trkpt><trkpt lat="43.2652558" lon="13.5468556"><ele>67.0</ele><time>2026-04-25T07:13:31.147Z</time></trkpt><trkpt lat="43.2653454" lon="13.5463956"><ele>67.0</ele><time>2026-04-25T07:13:32.154Z</time></trkpt><trkpt lat="43.2654314" lon="13.5459284"><ele>67.5</ele><time>2026-04-25T07:13:33.141Z</time></trkpt><trkpt lat="43.2655171" lon="13.5454544"><ele>68.0</ele><time>2026-04-25T07:13:34.158Z</time></trkpt><trkpt lat="43.2655878" lon="13.5449813"><ele>69.0</ele><time>2026-04-25T07:13:35.147Z</time></trkpt><trkpt lat="43.2656434" lon="13.5445136"><ele>70.0</ele><time>2026-04-25T07:13:36.138Z</time></trkpt><trkpt lat="43.2656716" lon="13.5440324"><ele>69.5</ele><time>2026-04-25T07:13:37.156Z</time></trkpt><trkpt lat="43.2656902" lon="13.5435297"><ele>69.0</ele><time>2026-04-25T07:13:38.141Z</time></trkpt><trkpt lat="43.2656894" lon="13.54303"><ele>69.5</ele><time>2026-04-25T07:13:39.14Z</time></trkpt><trkpt lat="43.2656733" lon="13.5425249"><ele>70.0</ele><time>2026-04-25T07:13:40.148Z</time></trkpt><trkpt lat="43.2656394" lon="13.542022"><ele>70.0</ele><time>2026-04-25T07:13:41.142Z</time></trkpt><trkpt lat="43.2655788" lon="13.5415226"><ele>70.0</ele><time>2026-04-25T07:13:42.145Z</time></trkpt><trkpt lat="43.2655066" lon="13.541031"><ele>70.0</ele><time>2026-04-25T07:13:43.148Z</time></trkpt><trkpt lat="43.2654166" lon="13.5405427"><ele>70.0</ele><time>2026-04-25T07:13:44.138Z</time></trkpt><trkpt lat="43.2653208" lon="13.540068"><ele>70.0</ele><time>2026-04-25T07:13:45.143Z</time></trkpt><trkpt lat="43.2652237" lon="13.5396067"><ele>70.0</ele><time>2026-04-25T07:13:46.141Z</time></trkpt><trkpt lat="43.2651294" lon="13.5391558"><ele>70.0</ele><time>2026-04-25T07:13:47.136Z</time></trkpt><trkpt lat="43.2650413" lon="13.5387153"><ele>70.0</ele><time>2026-04-25T07:13:48.15Z</time></trkpt><trkpt lat="43.2649545" lon="13.538284"><ele>72.0</ele><time>2026-04-25T07:13:49.139Z</time></trkpt><trkpt lat="43.2648661" lon="13.5378521"><ele>74.0</ele><time>2026-04-25T07:13:50.14Z</time></trkpt><trkpt lat="43.2647745" lon="13.5374214"><ele>74.0</ele><time>2026-04-25T07:13:51.147Z</time></trkpt><trkpt lat="43.2646836" lon="13.5369811"><ele>74.0</ele><time>2026-04-25T07:13:52.151Z</time></trkpt><trkpt lat="43.2645961" lon="13.5365155"><ele>74.5</ele><time>2026-04-25T07:13:53.141Z</time></trkpt><trkpt lat="43.264522" lon="13.5360265"><ele>75.0</ele><time>2026-04-25T07:13:54.15Z</time></trkpt><trkpt lat="43.2644617" lon="13.5355227"><ele>75.5</ele><time>2026-04-25T07:13:55.142Z</time></trkpt><trkpt lat="43.2644233" lon="13.5350115"><ele>76.0</ele><time>2026-04-25T07:13:56.148Z</time></trkpt><trkpt lat="43.2644" lon="13.5344922"><ele>76.5</ele><time>2026-04-25T07:13:57.141Z</time></trkpt><trkpt lat="43.2643866" lon="13.533969"><ele>77.0</ele><time>2026-04-25T07:13:58.152Z</time></trkpt><trkpt lat="43.2644007" lon="13.5334453"><ele>77.0</ele><time>2026-04-25T07:13:59.135Z</time></trkpt><trkpt lat="43.2644314" lon="13.53292"><ele>77.0</ele><time>2026-04-25T07:14:00.137Z</time></trkpt><trkpt lat="43.2644751" lon="13.5323977"><ele>84.5</ele><time>2026-04-25T07:14:01.138Z</time></trkpt><trkpt lat="43.2645265" lon="13.5318762"><ele>92.0</ele><time>2026-04-25T07:14:02.128Z</time></trkpt><trkpt lat="43.2645985" lon="13.5313744"><ele>92.5</ele><time>2026-04-25T07:14:03.15Z</time></trkpt><trkpt lat="43.264681" lon="13.5308806"><ele>93.0</ele><time>2026-04-25T07:14:04.145Z</time></trkpt><trkpt lat="43.2647814" lon="13.5303918"><ele>84.0</ele><time>2026-04-25T07:14:05.141Z</time></trkpt><trkpt lat="43.2648916" lon="13.5299165"><ele>75.0</ele><time>2026-04-25T07:14:06.132Z</time></trkpt><trkpt lat="43.2650195" lon="13.5294804"><ele>75.0</ele><time>2026-04-25T07:14:07.142Z</time></trkpt><trkpt lat="43.2651467" lon="13.5290582"><ele>75.0</ele><time>2026-04-25T07:14:08.15Z</time></trkpt><trkpt lat="43.2652897" lon="13.528626"><ele>75.0</ele><time>2026-04-25T07:14:09.136Z</time></trkpt><trkpt lat="43.2654424" lon="13.5281973"><ele>75.0</ele><time>2026-04-25T07:14:10.139Z</time></trkpt><trkpt lat="43.2656102" lon="13.527775"><ele>74.5</ele><time>2026-04-25T07:14:11.144Z</time></trkpt><trkpt lat="43.2657871" lon="13.5273487"><ele>74.0</ele><time>2026-04-25T07:14:12.139Z</time></trkpt><trkpt lat="43.2659625" lon="13.5269385"><ele>75.0</ele><time>2026-04-25T07:14:13.141Z</time></trkpt><trkpt lat="43.2661216" lon="13.5265541"><ele>76.0</ele><time>2026-04-25T07:14:14.148Z</time></trkpt><trkpt lat="43.2662704" lon="13.5261962"><ele>75.5</ele><time>2026-04-25T07:14:15.144Z</time></trkpt><trkpt lat="43.2664107" lon="13.5258464"><ele>75.0</ele><time>2026-04-25T07:14:16.141Z</time></trkpt><trkpt lat="43.2665541" lon="13.5255052"><ele>75.0</ele><time>2026-04-25T07:14:17.144Z</time></trkpt><trkpt lat="43.2666955" lon="13.5251584"><ele>75.0</ele><time>2026-04-25T07:14:18.143Z</time></trkpt><trkpt lat="43.2668391" lon="13.5248108"><ele>76.5</ele><time>2026-04-25T07:14:19.15Z</time></trkpt><trkpt lat="43.2669819" lon="13.5244681"><ele>78.0</ele><time>2026-04-25T07:14:20.14Z</time></trkpt><trkpt lat="43.2671232" lon="13.5241216"><ele>78.0</ele><time>2026-04-25T07:14:21.149Z</time></trkpt><trkpt lat="43.2672626" lon="13.5237766"><ele>78.0</ele><time>2026-04-25T07:14:22.135Z</time></trkpt><trkpt lat="43.267405" lon="13.523412"><ele>77.0</ele><time>2026-04-25T07:14:23.137Z</time></trkpt><trkpt lat="43.2675417" lon="13.523032"><ele>76.0</ele><time>2026-04-25T07:14:24.137Z</time></trkpt><trkpt lat="43.2676735" lon="13.5226522"><ele>76.0</ele><time>2026-04-25T07:14:25.141Z</time></trkpt><trkpt lat="43.2677944" lon="13.5222723"><ele>76.0</ele><time>2026-04-25T07:14:26.145Z</time></trkpt><trkpt lat="43.2679038" lon="13.5219032"><ele>77.0</ele><time>2026-04-25T07:14:27.142Z</time></trkpt><trkpt lat="43.2680027" lon="13.5215179"><ele>78.0</ele><time>2026-04-25T07:14:28.133Z</time></trkpt><trkpt lat="43.2681006" lon="13.5211168"><ele>77.5</ele><time>2026-04-25T07:14:29.138Z</time></trkpt><trkpt lat="43.2681907" lon="13.5206976"><ele>77.0</ele><time>2026-04-25T07:14:30.136Z</time></trkpt><trkpt lat="43.2682685" lon="13.5202627"><ele>79.0</ele><time>2026-04-25T07:14:31.146Z</time></trkpt><trkpt lat="43.2683456" lon="13.5198186"><ele>81.0</ele><time>2026-04-25T07:14:32.134Z</time></trkpt><trkpt lat="43.2684028" lon="13.5193528"><ele>81.5</ele><time>2026-04-25T07:14:33.144Z</time></trkpt><trkpt lat="43.2684473" lon="13.5188597"><ele>82.0</ele><time>2026-04-25T07:14:34.137Z</time></trkpt><trkpt lat="43.2684865" lon="13.5183411"><ele>82.5</ele><time>2026-04-25T07:14:35.134Z</time></trkpt><trkpt lat="43.2685229" lon="13.517784"><ele>83.0</ele><time>2026-04-25T07:14:36.141Z</time></trkpt><trkpt lat="43.2685673" lon="13.5172084"><ele>83.0</ele><time>2026-04-25T07:14:37.145Z</time></trkpt><trkpt lat="43.2686153" lon="13.5166232"><ele>83.0</ele><time>2026-04-25T07:14:38.138Z</time></trkpt><trkpt lat="43.2686608" lon="13.5160348"><ele>83.5</ele><time>2026-04-25T07:14:39.145Z</time></trkpt><trkpt lat="43.2686986" lon="13.5154817"><ele>84.0</ele><time>2026-04-25T07:14:40.133Z</time></trkpt><trkpt lat="43.268728" lon="13.5149643"><ele>86.5</ele><time>2026-04-25T07:14:41.14Z</time></trkpt><trkpt lat="43.2687666" lon="13.5144621"><ele>89.0</ele><time>2026-04-25T07:14:42.132Z</time></trkpt><trkpt lat="43.268804" lon="13.5139555"><ele>89.5</ele><time>2026-04-25T07:14:43.139Z</time></trkpt><trkpt lat="43.26884" lon="13.5134319"><ele>90.0</ele><time>2026-04-25T07:14:44.135Z</time></trkpt><trkpt lat="43.2688804" lon="13.5129098"><ele>91.5</ele><time>2026-04-25T07:14:45.156Z</time></trkpt><trkpt lat="43.2689207" lon="13.5124137"><ele>93.0</ele><time>2026-04-25T07:14:46.135Z</time></trkpt><trkpt lat="43.2689532" lon="13.5119328"><ele>89.5</ele><time>2026-04-25T07:14:47.147Z</time></trkpt><trkpt lat="43.2689935" lon="13.5114407"><ele>86.0</ele><time>2026-04-25T07:14:48.182Z</time></trkpt><trkpt lat="43.2690381" lon="13.5109446"><ele>86.0</ele><time>2026-04-25T07:14:49.138Z</time></trkpt><trkpt lat="43.2690852" lon="13.5104523"><ele>86.0</ele><time>2026-04-25T07:14:50.138Z</time></trkpt><trkpt lat="43.2691234" lon="13.5099634"><ele>86.0</ele><time>2026-04-25T07:14:51.136Z</time></trkpt><trkpt lat="43.2691602" lon="13.5094811"><ele>86.0</ele><time>2026-04-25T07:14:52.136Z</time></trkpt><trkpt lat="43.2691902" lon="13.5090059"><ele>86.5</ele><time>2026-04-25T07:14:53.156Z</time></trkpt><trkpt lat="43.2692205" lon="13.5085243"><ele>87.0</ele><time>2026-04-25T07:14:54.139Z</time></trkpt><trkpt lat="43.2692466" lon="13.5080509"><ele>87.5</ele><time>2026-04-25T07:14:55.142Z</time></trkpt><trkpt lat="43.2692744" lon="13.50757"><ele>88.0</ele><time>2026-04-25T07:14:56.142Z</time></trkpt><trkpt lat="43.2693032" lon="13.5070839"><ele>89.0</ele><time>2026-04-25T07:14:57.147Z</time></trkpt><trkpt lat="43.2693369" lon="13.5065944"><ele>90.0</ele><time>2026-04-25T07:14:58.137Z</time></trkpt><trkpt lat="43.2693686" lon="13.5061136"><ele>90.5</ele><time>2026-04-25T07:14:59.184Z</time></trkpt><trkpt lat="43.2693935" lon="13.5056349"><ele>91.0</ele><time>2026-04-25T07:15:00.14Z</time></trkpt><trkpt lat="43.2694066" lon="13.5051598"><ele>91.0</ele><time>2026-04-25T07:15:01.138Z</time></trkpt><trkpt lat="43.269408" lon="13.504688"><ele>91.0</ele><time>2026-04-25T07:15:02.138Z</time></trkpt><trkpt lat="43.2693989" lon="13.5042266"><ele>90.5</ele><time>2026-04-25T07:15:03.139Z</time></trkpt><trkpt lat="43.2693822" lon="13.5037568"><ele>90.0</ele><time>2026-04-25T07:15:04.136Z</time></trkpt><trkpt lat="43.2693599" lon="13.5032841"><ele>89.0</ele><time>2026-04-25T07:15:05.135Z</time></trkpt><trkpt lat="43.269326" lon="13.5028117"><ele>88.0</ele><time>2026-04-25T07:15:06.138Z</time></trkpt><trkpt lat="43.2692891" lon="13.5023388"><ele>88.5</ele><time>2026-04-25T07:15:07.147Z</time></trkpt><trkpt lat="43.2692384" lon="13.5018686"><ele>89.0</ele><time>2026-04-25T07:15:08.143Z</time></trkpt><trkpt lat="43.2691829" lon="13.501402"><ele>90.0</ele><time>2026-04-25T07:15:09.147Z</time></trkpt><trkpt lat="43.2691149" lon="13.500965"><ele>91.0</ele><time>2026-04-25T07:15:10.141Z</time></trkpt><trkpt lat="43.269044" lon="13.5005398"><ele>91.5</ele><time>2026-04-25T07:15:11.141Z</time></trkpt><trkpt lat="43.2689657" lon="13.500096"><ele>92.0</ele><time>2026-04-25T07:15:12.145Z</time></trkpt><trkpt lat="43.2688741" lon="13.4996228"><ele>92.0</ele><time>2026-04-25T07:15:13.14Z</time></trkpt><trkpt lat="43.2687632" lon="13.4991339"><ele>92.0</ele><time>2026-04-25T07:15:14.143Z</time></trkpt><trkpt lat="43.2686443" lon="13.4986308"><ele>92.0</ele><time>2026-04-25T07:15:15.145Z</time></trkpt><trkpt lat="43.2685127" lon="13.4981207"><ele>92.0</ele><time>2026-04-25T07:15:16.149Z</time></trkpt><trkpt lat="43.2683784" lon="13.4976317"><ele>92.0</ele><time>2026-04-25T07:15:17.138Z</time></trkpt><trkpt lat="43.2682515" lon="13.497164"><ele>92.0</ele><time>2026-04-25T07:15:18.138Z</time></trkpt><trkpt lat="43.2681331" lon="13.496711"><ele>92.0</ele><time>2026-04-25T07:15:19.141Z</time></trkpt><trkpt lat="43.2680144" lon="13.4962657"><ele>92.0</ele><time>2026-04-25T07:15:20.142Z</time></trkpt><trkpt lat="43.2678943" lon="13.4958258"><ele>93.5</ele><time>2026-04-25T07:15:21.146Z</time></trkpt><trkpt lat="43.267779" lon="13.4953927"><ele>95.0</ele><time>2026-04-25T07:15:22.15Z</time></trkpt><trkpt lat="43.2676722" lon="13.494968"><ele>95.5</ele><time>2026-04-25T07:15:23.141Z</time></trkpt><trkpt lat="43.2675663" lon="13.4945512"><ele>96.0</ele><time>2026-04-25T07:15:24.14Z</time></trkpt><trkpt lat="43.2674597" lon="13.4941306"><ele>95.5</ele><time>2026-04-25T07:15:25.139Z</time></trkpt><trkpt lat="43.2673491" lon="13.4937082"><ele>95.0</ele><time>2026-04-25T07:15:26.139Z</time></trkpt><trkpt lat="43.2672382" lon="13.4932857"><ele>96.0</ele><time>2026-04-25T07:15:27.151Z</time></trkpt><trkpt lat="43.2671279" lon="13.4928499"><ele>97.0</ele><time>2026-04-25T07:15:28.14Z</time></trkpt><trkpt lat="43.2669989" lon="13.4923849"><ele>98.0</ele><time>2026-04-25T07:15:29.145Z</time></trkpt><trkpt lat="43.2668685" lon="13.4918966"><ele>99.0</ele><time>2026-04-25T07:15:30.145Z</time></trkpt><trkpt lat="43.2667316" lon="13.491387"><ele>99.0</ele><time>2026-04-25T07:15:31.135Z</time></trkpt><trkpt lat="43.2665954" lon="13.4908736"><ele>99.0</ele><time>2026-04-25T07:15:32.144Z</time></trkpt><trkpt lat="43.2664595" lon="13.4903567"><ele>100.0</ele><time>2026-04-25T07:15:33.149Z</time></trkpt><trkpt lat="43.2663199" lon="13.4898438"><ele>101.0</ele><time>2026-04-25T07:15:34.145Z</time></trkpt><trkpt lat="43.2661881" lon="13.4893433"><ele>101.5</ele><time>2026-04-25T07:15:35.144Z</time></trkpt><trkpt lat="43.2660652" lon="13.4888653"><ele>102.0</ele><time>2026-04-25T07:15:36.161Z</time></trkpt><trkpt lat="43.2659394" lon="13.4883805"><ele>102.0</ele><time>2026-04-25T07:15:37.145Z</time></trkpt><trkpt lat="43.2658122" lon="13.4879005"><ele>102.0</ele><time>2026-04-25T07:15:38.139Z</time></trkpt><trkpt lat="43.2656629" lon="13.4874008"><ele>103.0</ele><time>2026-04-25T07:15:39.137Z</time></trkpt><trkpt lat="43.2655255" lon="13.4868558"><ele>104.0</ele><time>2026-04-25T07:15:40.145Z</time></trkpt><trkpt lat="43.2653909" lon="13.4863093"><ele>104.0</ele><time>2026-04-25T07:15:41.152Z</time></trkpt><trkpt lat="43.2652421" lon="13.4857571"><ele>104.0</ele><time>2026-04-25T07:15:42.142Z</time></trkpt><trkpt lat="43.2651005" lon="13.485245"><ele>104.5</ele><time>2026-04-25T07:15:43.13Z</time></trkpt><trkpt lat="43.2649724" lon="13.4847819"><ele>105.0</ele><time>2026-04-25T07:15:44.152Z</time></trkpt><trkpt lat="43.2648616" lon="13.4843366"><ele>105.0</ele><time>2026-04-25T07:15:45.147Z</time></trkpt><trkpt lat="43.2647455" lon="13.483894"><ele>105.0</ele><time>2026-04-25T07:15:46.139Z</time></trkpt><trkpt lat="43.2646318" lon="13.4834556"><ele>105.0</ele><time>2026-04-25T07:15:47.143Z</time></trkpt><trkpt lat="43.2645281" lon="13.4830299"><ele>105.0</ele><time>2026-04-25T07:15:48.145Z</time></trkpt><trkpt lat="43.2644338" lon="13.4826176"><ele>105.0</ele><time>2026-04-25T07:15:49.138Z</time></trkpt><trkpt lat="43.2643333" lon="13.4822217"><ele>105.0</ele><time>2026-04-25T07:15:50.139Z</time></trkpt><trkpt lat="43.2642265" lon="13.4818376"><ele>105.0</ele><time>2026-04-25T07:15:51.147Z</time></trkpt><trkpt lat="43.2641275" lon="13.4814581"><ele>105.0</ele><time>2026-04-25T07:15:52.142Z</time></trkpt><trkpt lat="43.2640223" lon="13.4810815"><ele>105.0</ele><time>2026-04-25T07:15:53.16Z</time></trkpt><trkpt lat="43.2639267" lon="13.4807088"><ele>105.0</ele><time>2026-04-25T07:15:54.138Z</time></trkpt><trkpt lat="43.2638286" lon="13.4803321"><ele>105.0</ele><time>2026-04-25T07:15:55.144Z</time></trkpt><trkpt lat="43.263733" lon="13.4799604"><ele>105.0</ele><time>2026-04-25T07:15:56.148Z</time></trkpt><trkpt lat="43.2636394" lon="13.47959"><ele>105.0</ele><time>2026-04-25T07:15:57.15Z</time></trkpt><trkpt lat="43.2635396" lon="13.4792207"><ele>105.0</ele><time>2026-04-25T07:15:58.139Z</time></trkpt><trkpt lat="43.2634417" lon="13.4788517"><ele>104.0</ele><time>2026-04-25T07:15:59.144Z</time></trkpt><trkpt lat="43.2633441" lon="13.4784926"><ele>103.0</ele><time>2026-04-25T07:16:00.14Z</time></trkpt><trkpt lat="43.2632555" lon="13.4781416"><ele>103.0</ele><time>2026-04-25T07:16:01.148Z</time></trkpt><trkpt lat="43.2631618" lon="13.4777939"><ele>103.0</ele><time>2026-04-25T07:16:02.14Z</time></trkpt><trkpt lat="43.2630671" lon="13.4774332"><ele>103.0</ele><time>2026-04-25T07:16:03.141Z</time></trkpt><trkpt lat="43.2629715" lon="13.4770567"><ele>103.0</ele><time>2026-04-25T07:16:04.151Z</time></trkpt><trkpt lat="43.2628677" lon="13.4766723"><ele>103.0</ele><time>2026-04-25T07:16:05.142Z</time></trkpt><trkpt lat="43.2627601" lon="13.4762756"><ele>103.0</ele><time>2026-04-25T07:16:06.158Z</time></trkpt><trkpt lat="43.2626457" lon="13.475865"><ele>102.5</ele><time>2026-04-25T07:16:07.138Z</time></trkpt><trkpt lat="43.2625247" lon="13.4754344"><ele>102.0</ele><time>2026-04-25T07:16:08.141Z</time></trkpt><trkpt lat="43.2624001" lon="13.4750002"><ele>103.0</ele><time>2026-04-25T07:16:09.153Z</time></trkpt><trkpt lat="43.2622689" lon="13.4745801"><ele>104.0</ele><time>2026-04-25T07:16:10.128Z</time></trkpt><trkpt lat="43.2621331" lon="13.4741748"><ele>104.0</ele><time>2026-04-25T07:16:11.15Z</time></trkpt><trkpt lat="43.2619929" lon="13.4737849"><ele>104.0</ele><time>2026-04-25T07:16:12.144Z</time></trkpt><trkpt lat="43.2618454" lon="13.4734013"><ele>104.0</ele><time>2026-04-25T07:16:13.148Z</time></trkpt><trkpt lat="43.2616864" lon="13.4730119"><ele>104.0</ele><time>2026-04-25T07:16:14.139Z</time></trkpt><trkpt lat="43.2615233" lon="13.4726245"><ele>104.0</ele><time>2026-04-25T07:16:15.142Z</time></trkpt><trkpt lat="43.2613541" lon="13.4722416"><ele>104.0</ele><time>2026-04-25T07:16:16.138Z</time></trkpt><trkpt lat="43.2611796" lon="13.471855"><ele>104.0</ele><time>2026-04-25T07:16:17.143Z</time></trkpt><trkpt lat="43.2609899" lon="13.4714493"><ele>104.0</ele><time>2026-04-25T07:16:18.135Z</time></trkpt><trkpt lat="43.2607859" lon="13.4710165"><ele>104.5</ele><time>2026-04-25T07:16:19.135Z</time></trkpt><trkpt lat="43.2605708" lon="13.4705457"><ele>105.0</ele><time>2026-04-25T07:16:20.148Z</time></trkpt><trkpt lat="43.2603484" lon="13.4700669"><ele>106.0</ele><time>2026-04-25T07:16:21.139Z</time></trkpt><trkpt lat="43.2601317" lon="13.4695859"><ele>107.0</ele><time>2026-04-25T07:16:22.15Z</time></trkpt><trkpt lat="43.2599257" lon="13.4691083"><ele>106.5</ele><time>2026-04-25T07:16:23.147Z</time></trkpt><trkpt lat="43.2597248" lon="13.4686282"><ele>106.0</ele><time>2026-04-25T07:16:24.147Z</time></trkpt><trkpt lat="43.2595348" lon="13.4681396"><ele>105.5</ele><time>2026-04-25T07:16:25.144Z</time></trkpt><trkpt lat="43.2593705" lon="13.4676854"><ele>105.0</ele><time>2026-04-25T07:16:26.145Z</time></trkpt><trkpt lat="43.2592246" lon="13.4672462"><ele>104.5</ele><time>2026-04-25T07:16:27.15Z</time></trkpt><trkpt lat="43.2590932" lon="13.4668058"><ele>104.0</ele><time>2026-04-25T07:16:28.137Z</time></trkpt><trkpt lat="43.2589745" lon="13.4663873"><ele>104.5</ele><time>2026-04-25T07:16:29.142Z</time></trkpt><trkpt lat="43.2588604" lon="13.4659757"><ele>105.0</ele><time>2026-04-25T07:16:30.146Z</time></trkpt><trkpt lat="43.2587575" lon="13.4655572"><ele>105.5</ele><time>2026-04-25T07:16:31.144Z</time></trkpt><trkpt lat="43.258656" lon="13.4651156"><ele>106.0</ele><time>2026-04-25T07:16:32.156Z</time></trkpt><trkpt lat="43.2585484" lon="13.4646534"><ele>107.0</ele><time>2026-04-25T07:16:33.144Z</time></trkpt><trkpt lat="43.2584517" lon="13.4641634"><ele>108.0</ele><time>2026-04-25T07:16:34.145Z</time></trkpt><trkpt lat="43.2583383" lon="13.4636278"><ele>108.0</ele><time>2026-04-25T07:16:35.143Z</time></trkpt><trkpt lat="43.2582204" lon="13.4630891"><ele>108.0</ele><time>2026-04-25T07:16:36.145Z</time></trkpt><trkpt lat="43.2581046" lon="13.4625489"><ele>108.0</ele><time>2026-04-25T07:16:37.131Z</time></trkpt><trkpt lat="43.2579874" lon="13.4620326"><ele>108.0</ele><time>2026-04-25T07:16:38.138Z</time></trkpt><trkpt lat="43.2578788" lon="13.4615418"><ele>108.0</ele><time>2026-04-25T07:16:39.136Z</time></trkpt><trkpt lat="43.2577782" lon="13.4610833"><ele>108.0</ele><time>2026-04-25T07:16:40.142Z</time></trkpt><trkpt lat="43.257686" lon="13.4606457"><ele>108.0</ele><time>2026-04-25T07:16:41.143Z</time></trkpt><trkpt lat="43.2575903" lon="13.4602276"><ele>108.0</ele><time>2026-04-25T07:16:42.139Z</time></trkpt><trkpt lat="43.2575049" lon="13.4598219"><ele>108.5</ele><time>2026-04-25T07:16:43.142Z</time></trkpt><trkpt lat="43.2574183" lon="13.4594397"><ele>109.0</ele><time>2026-04-25T07:16:44.134Z</time></trkpt><trkpt lat="43.2573383" lon="13.4590752"><ele>109.0</ele><time>2026-04-25T07:16:45.143Z</time></trkpt><trkpt lat="43.2572627" lon="13.4587244"><ele>109.0</ele><time>2026-04-25T07:16:46.138Z</time></trkpt><trkpt lat="43.2571948" lon="13.4584026"><ele>109.0</ele><time>2026-04-25T07:16:47.133Z</time></trkpt><trkpt lat="43.2571308" lon="13.4580954"><ele>109.0</ele><time>2026-04-25T07:16:48.15Z</time></trkpt><trkpt lat="43.2570649" lon="13.4577869"><ele>108.5</ele><time>2026-04-25T07:16:49.142Z</time></trkpt><trkpt lat="43.256998" lon="13.4574786"><ele>108.0</ele><time>2026-04-25T07:16:50.131Z</time></trkpt><trkpt lat="43.256935" lon="13.4571752"><ele>108.0</ele><time>2026-04-25T07:16:51.15Z</time></trkpt><trkpt lat="43.256867" lon="13.4568769"><ele>108.0</ele><time>2026-04-25T07:16:52.139Z</time></trkpt><trkpt lat="43.2567993" lon="13.4565705"><ele>108.5</ele><time>2026-04-25T07:16:53.138Z</time></trkpt><trkpt lat="43.256725" lon="13.456228"><ele>109.0</ele><time>2026-04-25T07:16:54.144Z</time></trkpt><trkpt lat="43.2566469" lon="13.455848"><ele>109.0</ele><time>2026-04-25T07:16:55.149Z</time></trkpt><trkpt lat="43.2565548" lon="13.4554469"><ele>109.0</ele><time>2026-04-25T07:16:56.146Z</time></trkpt><trkpt lat="43.2564595" lon="13.4550089"><ele>111.0</ele><time>2026-04-25T07:16:57.137Z</time></trkpt><trkpt lat="43.2563553" lon="13.4545622"><ele>113.0</ele><time>2026-04-25T07:16:58.142Z</time></trkpt><trkpt lat="43.2562577" lon="13.4541298"><ele>113.5</ele><time>2026-04-25T07:16:59.138Z</time></trkpt><trkpt lat="43.2561729" lon="13.4537054"><ele>114.0</ele><time>2026-04-25T07:17:00.148Z</time></trkpt><trkpt lat="43.2560827" lon="13.4532775"><ele>114.0</ele><time>2026-04-25T07:17:01.144Z</time></trkpt><trkpt lat="43.2559883" lon="13.4528446"><ele>114.0</ele><time>2026-04-25T07:17:02.146Z</time></trkpt><trkpt lat="43.2558894" lon="13.4524142"><ele>113.5</ele><time>2026-04-25T07:17:03.138Z</time></trkpt><trkpt lat="43.2557839" lon="13.4519829"><ele>113.0</ele><time>2026-04-25T07:17:04.144Z</time></trkpt><trkpt lat="43.255678" lon="13.4515587"><ele>114.0</ele><time>2026-04-25T07:17:05.14Z</time></trkpt><trkpt lat="43.2555625" lon="13.4511263"><ele>115.0</ele><time>2026-04-25T07:17:06.147Z</time></trkpt><trkpt lat="43.2554404" lon="13.4506612"><ele>115.5</ele><time>2026-04-25T07:17:07.147Z</time></trkpt><trkpt lat="43.2553106" lon="13.4501976"><ele>116.0</ele><time>2026-04-25T07:17:08.14Z</time></trkpt><trkpt lat="43.2551766" lon="13.4497404"><ele>116.5</ele><time>2026-04-25T07:17:09.147Z</time></trkpt><trkpt lat="43.2550483" lon="13.449307"><ele>117.0</ele><time>2026-04-25T07:17:10.144Z</time></trkpt><trkpt lat="43.2549125" lon="13.4488863"><ele>116.5</ele><time>2026-04-25T07:17:11.151Z</time></trkpt><trkpt lat="43.2547745" lon="13.4484598"><ele>116.0</ele><time>2026-04-25T07:17:12.139Z</time></trkpt><trkpt lat="43.2546261" lon="13.4480236"><ele>115.5</ele><time>2026-04-25T07:17:13.14Z</time></trkpt><trkpt lat="43.2544687" lon="13.4475534"><ele>115.0</ele><time>2026-04-25T07:17:14.151Z</time></trkpt><trkpt lat="43.2543" lon="13.4470663"><ele>115.0</ele><time>2026-04-25T07:17:15.147Z</time></trkpt><trkpt lat="43.2541188" lon="13.4465591"><ele>115.0</ele><time>2026-04-25T07:17:16.129Z</time></trkpt><trkpt lat="43.2539178" lon="13.4460413"><ele>115.0</ele><time>2026-04-25T07:17:17.14Z</time></trkpt><trkpt lat="43.2537069" lon="13.4455146"><ele>115.0</ele><time>2026-04-25T07:17:18.137Z</time></trkpt><trkpt lat="43.2534893" lon="13.4449987"><ele>116.0</ele><time>2026-04-25T07:17:19.135Z</time></trkpt><trkpt lat="43.2532799" lon="13.4445112"><ele>117.0</ele><time>2026-04-25T07:17:20.151Z</time></trkpt><trkpt lat="43.2530753" lon="13.4440399"><ele>118.0</ele><time>2026-04-25T07:17:21.139Z</time></trkpt><trkpt lat="43.2528766" lon="13.4435841"><ele>119.0</ele><time>2026-04-25T07:17:22.143Z</time></trkpt><trkpt lat="43.2526904" lon="13.4431359"><ele>119.0</ele><time>2026-04-25T07:17:23.139Z</time></trkpt><trkpt lat="43.2525063" lon="13.442702"><ele>119.0</ele><time>2026-04-25T07:17:24.135Z</time></trkpt><trkpt lat="43.2523255" lon="13.4422781"><ele>119.5</ele><time>2026-04-25T07:17:25.137Z</time></trkpt><trkpt lat="43.2521534" lon="13.4418606"><ele>120.0</ele><time>2026-04-25T07:17:26.13Z</time></trkpt><trkpt lat="43.2519819" lon="13.4414531"><ele>119.5</ele><time>2026-04-25T07:17:27.14Z</time></trkpt><trkpt lat="43.2518116" lon="13.4410516"><ele>119.0</ele><time>2026-04-25T07:17:28.139Z</time></trkpt><trkpt lat="43.2516438" lon="13.4406585"><ele>118.5</ele><time>2026-04-25T07:17:29.16Z</time></trkpt><trkpt lat="43.2514756" lon="13.4402677"><ele>118.0</ele><time>2026-04-25T07:17:30.144Z</time></trkpt><trkpt lat="43.2513081" lon="13.4398858"><ele>119.0</ele><time>2026-04-25T07:17:31.142Z</time></trkpt><trkpt lat="43.2511467" lon="13.4395087"><ele>120.0</ele><time>2026-04-25T07:17:32.14Z</time></trkpt><trkpt lat="43.2509801" lon="13.4391306"><ele>120.0</ele><time>2026-04-25T07:17:33.144Z</time></trkpt><trkpt lat="43.2508218" lon="13.438756"><ele>120.0</ele><time>2026-04-25T07:17:34.143Z</time></trkpt><trkpt lat="43.2506585" lon="13.4383899"><ele>120.5</ele><time>2026-04-25T07:17:35.147Z</time></trkpt><trkpt lat="43.2504961" lon="13.4380235"><ele>121.0</ele><time>2026-04-25T07:17:36.142Z</time></trkpt><trkpt lat="43.2503349" lon="13.4376525"><ele>121.5</ele><time>2026-04-25T07:17:37.137Z</time></trkpt><trkpt lat="43.2501715" lon="13.4372808"><ele>122.0</ele><time>2026-04-25T07:17:38.139Z</time></trkpt><trkpt lat="43.2500113" lon="13.4369098"><ele>122.5</ele><time>2026-04-25T07:17:39.134Z</time></trkpt><trkpt lat="43.2498483" lon="13.4365442"><ele>123.0</ele><time>2026-04-25T07:17:40.141Z</time></trkpt><trkpt lat="43.2496913" lon="13.4361826"><ele>126.0</ele><time>2026-04-25T07:17:41.141Z</time></trkpt><trkpt lat="43.2495492" lon="13.435848"><ele>129.0</ele><time>2026-04-25T07:17:42.141Z</time></trkpt><trkpt lat="43.2494121" lon="13.4355353"><ele>129.5</ele><time>2026-04-25T07:17:43.141Z</time></trkpt><trkpt lat="43.2492816" lon="13.4352368"><ele>130.0</ele><time>2026-04-25T07:17:44.138Z</time></trkpt><trkpt lat="43.2491449" lon="13.4349277"><ele>130.0</ele><time>2026-04-25T07:17:45.126Z</time></trkpt><trkpt lat="43.248998" lon="13.4345918"><ele>130.0</ele><time>2026-04-25T07:17:46.133Z</time></trkpt><trkpt lat="43.2488493" lon="13.4342412"><ele>132.0</ele><time>2026-04-25T07:17:47.129Z</time></trkpt><trkpt lat="43.2486929" lon="13.4338771"><ele>134.0</ele><time>2026-04-25T07:17:48.144Z</time></trkpt><trkpt lat="43.2485339" lon="13.4335072"><ele>134.0</ele><time>2026-04-25T07:17:49.147Z</time></trkpt><trkpt lat="43.2483787" lon="13.4331381"><ele>134.0</ele><time>2026-04-25T07:17:50.137Z</time></trkpt><trkpt lat="43.2482284" lon="13.4327602"><ele>137.5</ele><time>2026-04-25T07:17:51.15Z</time></trkpt><trkpt lat="43.2480812" lon="13.4323775"><ele>141.0</ele><time>2026-04-25T07:17:52.136Z</time></trkpt><trkpt lat="43.2479368" lon="13.4319976"><ele>141.0</ele><time>2026-04-25T07:17:53.135Z</time></trkpt><trkpt lat="43.2477979" lon="13.4316096"><ele>141.0</ele><time>2026-04-25T07:17:54.138Z</time></trkpt><trkpt lat="43.2476616" lon="13.4312249"><ele>140.5</ele><time>2026-04-25T07:17:55.141Z</time></trkpt><trkpt lat="43.2475388" lon="13.4308372"><ele>140.0</ele><time>2026-04-25T07:17:56.142Z</time></trkpt><trkpt lat="43.2474142" lon="13.4304511"><ele>143.5</ele><time>2026-04-25T07:17:57.144Z</time></trkpt><trkpt lat="43.2472937" lon="13.4300725"><ele>147.0</ele><time>2026-04-25T07:17:58.141Z</time></trkpt><trkpt lat="43.2471755" lon="13.4296836"><ele>146.0</ele><time>2026-04-25T07:17:59.151Z</time></trkpt><trkpt lat="43.2470621" lon="13.4292913"><ele>145.0</ele><time>2026-04-25T07:18:00.135Z</time></trkpt><trkpt lat="43.2469528" lon="13.4289082"><ele>144.0</ele><time>2026-04-25T07:18:01.149Z</time></trkpt><trkpt lat="43.2468414" lon="13.4285209"><ele>143.0</ele><time>2026-04-25T07:18:02.146Z</time></trkpt><trkpt lat="43.2467282" lon="13.4281352"><ele>143.0</ele><time>2026-04-25T07:18:03.135Z</time></trkpt><trkpt lat="43.2466171" lon="13.4277519"><ele>143.0</ele><time>2026-04-25T07:18:04.154Z</time></trkpt><trkpt lat="43.246503" lon="13.4273576"><ele>144.0</ele><time>2026-04-25T07:18:05.149Z</time></trkpt><trkpt lat="43.2463827" lon="13.4269405"><ele>145.0</ele><time>2026-04-25T07:18:06.151Z</time></trkpt><trkpt lat="43.2462595" lon="13.4265134"><ele>142.5</ele><time>2026-04-25T07:18:07.138Z</time></trkpt><trkpt lat="43.2461348" lon="13.4260722"><ele>140.0</ele><time>2026-04-25T07:18:08.146Z</time></trkpt><trkpt lat="43.246004" lon="13.4256236"><ele>138.5</ele><time>2026-04-25T07:18:09.139Z</time></trkpt><trkpt lat="43.2458762" lon="13.4251711"><ele>137.0</ele><time>2026-04-25T07:18:10.144Z</time></trkpt><trkpt lat="43.2457439" lon="13.424715"><ele>138.0</ele><time>2026-04-25T07:18:11.143Z</time></trkpt><trkpt lat="43.245615" lon="13.4242533"><ele>139.0</ele><time>2026-04-25T07:18:12.141Z</time></trkpt><trkpt lat="43.2454826" lon="13.4237907"><ele>139.0</ele><time>2026-04-25T07:18:13.137Z</time></trkpt><trkpt lat="43.2453516" lon="13.4233262"><ele>139.0</ele><time>2026-04-25T07:18:14.142Z</time></trkpt><trkpt lat="43.2452162" lon="13.422859"><ele>139.0</ele><time>2026-04-25T07:18:15.135Z</time></trkpt><trkpt lat="43.2450816" lon="13.4223995"><ele>139.0</ele><time>2026-04-25T07:18:16.142Z</time></trkpt><trkpt lat="43.2449517" lon="13.4219402"><ele>137.0</ele><time>2026-04-25T07:18:17.139Z</time></trkpt><trkpt lat="43.2448169" lon="13.4214859"><ele>135.0</ele><time>2026-04-25T07:18:18.136Z</time></trkpt><trkpt lat="43.2446754" lon="13.4210393"><ele>137.5</ele><time>2026-04-25T07:18:19.148Z</time></trkpt><trkpt lat="43.2445337" lon="13.4206008"><ele>140.0</ele><time>2026-04-25T07:18:20.138Z</time></trkpt><trkpt lat="43.2443899" lon="13.4201706"><ele>140.0</ele><time>2026-04-25T07:18:21.142Z</time></trkpt><trkpt lat="43.2442446" lon="13.4197369"><ele>140.0</ele><time>2026-04-25T07:18:22.139Z</time></trkpt><trkpt lat="43.2440981" lon="13.4193018"><ele>140.0</ele><time>2026-04-25T07:18:23.145Z</time></trkpt><trkpt lat="43.2439506" lon="13.4188891"><ele>140.0</ele><time>2026-04-25T07:18:24.154Z</time></trkpt><trkpt lat="43.2438004" lon="13.4185039"><ele>140.0</ele><time>2026-04-25T07:18:25.149Z</time></trkpt><trkpt lat="43.2436435" lon="13.4181089"><ele>140.0</ele><time>2026-04-25T07:18:26.132Z</time></trkpt><trkpt lat="43.2434774" lon="13.417708"><ele>138.0</ele><time>2026-04-25T07:18:27.164Z</time></trkpt><trkpt lat="43.2433064" lon="13.4173071"><ele>136.0</ele><time>2026-04-25T07:18:28.136Z</time></trkpt><trkpt lat="43.2431309" lon="13.4169052"><ele>138.0</ele><time>2026-04-25T07:18:29.137Z</time></trkpt><trkpt lat="43.2429547" lon="13.4165034"><ele>140.0</ele><time>2026-04-25T07:18:30.142Z</time></trkpt><trkpt lat="43.2427761" lon="13.4161078"><ele>140.0</ele><time>2026-04-25T07:18:31.139Z</time></trkpt><trkpt lat="43.2425936" lon="13.4157202"><ele>140.0</ele><time>2026-04-25T07:18:32.139Z</time></trkpt><trkpt lat="43.2424161" lon="13.4153425"><ele>140.0</ele><time>2026-04-25T07:18:33.151Z</time></trkpt><trkpt lat="43.2422343" lon="13.4149581"><ele>140.0</ele><time>2026-04-25T07:18:34.144Z</time></trkpt><trkpt lat="43.2420583" lon="13.4145731"><ele>140.0</ele><time>2026-04-25T07:18:35.139Z</time></trkpt><trkpt lat="43.2418899" lon="13.414189"><ele>140.0</ele><time>2026-04-25T07:18:36.153Z</time></trkpt><trkpt lat="43.2417216" lon="13.4138099"><ele>140.5</ele><time>2026-04-25T07:18:37.138Z</time></trkpt><trkpt lat="43.2415531" lon="13.4134379"><ele>141.0</ele><time>2026-04-25T07:18:38.129Z</time></trkpt><trkpt lat="43.2413815" lon="13.4130587"><ele>139.5</ele><time>2026-04-25T07:18:39.135Z</time></trkpt><trkpt lat="43.2412093" lon="13.4126755"><ele>138.0</ele><time>2026-04-25T07:18:40.136Z</time></trkpt><trkpt lat="43.241038" lon="13.412298"><ele>139.0</ele><time>2026-04-25T07:18:41.139Z</time></trkpt><trkpt lat="43.2408782" lon="13.4119288"><ele>140.0</ele><time>2026-04-25T07:18:42.125Z</time></trkpt><trkpt lat="43.2407204" lon="13.4115638"><ele>140.0</ele><time>2026-04-25T07:18:43.136Z</time></trkpt><trkpt lat="43.2405548" lon="13.4111854"><ele>140.0</ele><time>2026-04-25T07:18:44.131Z</time></trkpt><trkpt lat="43.2403864" lon="13.4108107"><ele>140.5</ele><time>2026-04-25T07:18:45.143Z</time></trkpt><trkpt lat="43.2402148" lon="13.4104275"><ele>141.0</ele><time>2026-04-25T07:18:46.14Z</time></trkpt><trkpt lat="43.2400443" lon="13.4100481"><ele>141.0</ele><time>2026-04-25T07:18:47.143Z</time></trkpt><trkpt lat="43.239879" lon="13.4096783"><ele>141.0</ele><time>2026-04-25T07:18:48.146Z</time></trkpt><trkpt lat="43.2397091" lon="13.4093021"><ele>141.0</ele><time>2026-04-25T07:18:49.143Z</time></trkpt><trkpt lat="43.2395389" lon="13.408922"><ele>141.0</ele><time>2026-04-25T07:18:50.144Z</time></trkpt><trkpt lat="43.2393694" lon="13.4085407"><ele>141.5</ele><time>2026-04-25T07:18:51.144Z</time></trkpt><trkpt lat="43.2391964" lon="13.4081548"><ele>142.0</ele><time>2026-04-25T07:18:52.144Z</time></trkpt><trkpt lat="43.2390328" lon="13.4077664"><ele>142.0</ele><time>2026-04-25T07:18:53.137Z</time></trkpt><trkpt lat="43.2388822" lon="13.4073684"><ele>142.0</ele><time>2026-04-25T07:18:54.138Z</time></trkpt><trkpt lat="43.2387417" lon="13.4069586"><ele>142.5</ele><time>2026-04-25T07:18:55.14Z</time></trkpt><trkpt lat="43.2386044" lon="13.4065356"><ele>143.0</ele><time>2026-04-25T07:18:56.141Z</time></trkpt><trkpt lat="43.2384685" lon="13.406106"><ele>143.0</ele><time>2026-04-25T07:18:57.149Z</time></trkpt><trkpt lat="43.23834" lon="13.4056725"><ele>143.0</ele><time>2026-04-25T07:18:58.139Z</time></trkpt><trkpt lat="43.2382206" lon="13.4052348"><ele>143.0</ele><time>2026-04-25T07:18:59.138Z</time></trkpt><trkpt lat="43.2381144" lon="13.4047904"><ele>143.0</ele><time>2026-04-25T07:19:00.141Z</time></trkpt><trkpt lat="43.2380219" lon="13.4043432"><ele>143.0</ele><time>2026-04-25T07:19:01.145Z</time></trkpt><trkpt lat="43.2379301" lon="13.4038951"><ele>143.0</ele><time>2026-04-25T07:19:02.137Z</time></trkpt><trkpt lat="43.2378513" lon="13.4034537"><ele>143.0</ele><time>2026-04-25T07:19:03.147Z</time></trkpt><trkpt lat="43.2377806" lon="13.4030199"><ele>143.0</ele><time>2026-04-25T07:19:04.153Z</time></trkpt><trkpt lat="43.2377153" lon="13.4025944"><ele>144.0</ele><time>2026-04-25T07:19:05.141Z</time></trkpt><trkpt lat="43.2376571" lon="13.4021653"><ele>145.0</ele><time>2026-04-25T07:19:06.14Z</time></trkpt><trkpt lat="43.2376084" lon="13.4017478"><ele>145.0</ele><time>2026-04-25T07:19:07.143Z</time></trkpt><trkpt lat="43.2375651" lon="13.4013304"><ele>145.0</ele><time>2026-04-25T07:19:08.149Z</time></trkpt><trkpt lat="43.2375203" lon="13.4009072"><ele>144.5</ele><time>2026-04-25T07:19:09.153Z</time></trkpt><trkpt lat="43.2374727" lon="13.4004843"><ele>144.0</ele><time>2026-04-25T07:19:10.139Z</time></trkpt><trkpt lat="43.2374258" lon="13.4000606"><ele>143.5</ele><time>2026-04-25T07:19:11.136Z</time></trkpt><trkpt lat="43.2373767" lon="13.399636"><ele>143.0</ele><time>2026-04-25T07:19:12.153Z</time></trkpt><trkpt lat="43.2373295" lon="13.3992193"><ele>145.0</ele><time>2026-04-25T07:19:13.144Z</time></trkpt><trkpt lat="43.2372787" lon="13.3987939"><ele>147.0</ele><time>2026-04-25T07:19:14.141Z</time></trkpt><trkpt lat="43.2372283" lon="13.3983703"><ele>147.0</ele><time>2026-04-25T07:19:15.148Z</time></trkpt><trkpt lat="43.2371804" lon="13.3979494"><ele>147.0</ele><time>2026-04-25T07:19:16.133Z</time></trkpt><trkpt lat="43.2371373" lon="13.3975187"><ele>147.5</ele><time>2026-04-25T07:19:17.141Z</time></trkpt><trkpt lat="43.2370871" lon="13.397091"><ele>148.0</ele><time>2026-04-25T07:19:18.148Z</time></trkpt><trkpt lat="43.237037" lon="13.3966609"><ele>147.0</ele><time>2026-04-25T07:19:19.137Z</time></trkpt><trkpt lat="43.2369878" lon="13.3962292"><ele>146.0</ele><time>2026-04-25T07:19:20.142Z</time></trkpt><trkpt lat="43.2369377" lon="13.3957999"><ele>145.0</ele><time>2026-04-25T07:19:21.137Z</time></trkpt><trkpt lat="43.236896" lon="13.395384"><ele>144.0</ele><time>2026-04-25T07:19:22.139Z</time></trkpt><trkpt lat="43.2368532" lon="13.394975"><ele>144.0</ele><time>2026-04-25T07:19:23.142Z</time></trkpt><trkpt lat="43.2368019" lon="13.3945472"><ele>144.0</ele><time>2026-04-25T07:19:24.139Z</time></trkpt><trkpt lat="43.2367504" lon="13.3940981"><ele>143.5</ele><time>2026-04-25T07:19:25.153Z</time></trkpt><trkpt lat="43.2366989" lon="13.3936351"><ele>143.0</ele><time>2026-04-25T07:19:26.141Z</time></trkpt><trkpt lat="43.2366502" lon="13.3931613"><ele>145.0</ele><time>2026-04-25T07:19:27.145Z</time></trkpt><trkpt lat="43.2365938" lon="13.3926908"><ele>147.0</ele><time>2026-04-25T07:19:28.137Z</time></trkpt><trkpt lat="43.2365444" lon="13.3922178"><ele>147.0</ele><time>2026-04-25T07:19:29.146Z</time></trkpt><trkpt lat="43.2364935" lon="13.391768"><ele>147.0</ele><time>2026-04-25T07:19:30.143Z</time></trkpt><trkpt lat="43.236442" lon="13.3913287"><ele>147.5</ele><time>2026-04-25T07:19:31.136Z</time></trkpt><trkpt lat="43.236386" lon="13.3908962"><ele>148.0</ele><time>2026-04-25T07:19:32.17Z</time></trkpt><trkpt lat="43.2363358" lon="13.3904785"><ele>148.0</ele><time>2026-04-25T07:19:33.138Z</time></trkpt><trkpt lat="43.2362907" lon="13.3900868"><ele>148.0</ele><time>2026-04-25T07:19:34.141Z</time></trkpt><trkpt lat="43.2362475" lon="13.3897009"><ele>147.5</ele><time>2026-04-25T07:19:35.136Z</time></trkpt><trkpt lat="43.2362117" lon="13.3893226"><ele>147.0</ele><time>2026-04-25T07:19:36.139Z</time></trkpt><trkpt lat="43.2361701" lon="13.3889443"><ele>147.0</ele><time>2026-04-25T07:19:37.141Z</time></trkpt><trkpt lat="43.2361264" lon="13.3885682"><ele>147.0</ele><time>2026-04-25T07:19:38.133Z</time></trkpt><trkpt lat="43.2360795" lon="13.38819"><ele>146.5</ele><time>2026-04-25T07:19:39.139Z</time></trkpt><trkpt lat="43.2360396" lon="13.3878087"><ele>146.0</ele><time>2026-04-25T07:19:40.146Z</time></trkpt><trkpt lat="43.2359976" lon="13.3874142"><ele>145.5</ele><time>2026-04-25T07:19:41.137Z</time></trkpt><trkpt lat="43.2359535" lon="13.3870121"><ele>145.0</ele><time>2026-04-25T07:19:42.136Z</time></trkpt><trkpt lat="43.2359101" lon="13.3865852"><ele>144.5</ele><time>2026-04-25T07:19:43.138Z</time></trkpt><trkpt lat="43.2358566" lon="13.3861305"><ele>144.0</ele><time>2026-04-25T07:19:44.132Z</time></trkpt><trkpt lat="43.2358031" lon="13.385642"><ele>143.5</ele><time>2026-04-25T07:19:45.143Z</time></trkpt><trkpt lat="43.2357457" lon="13.385118"><ele>143.0</ele><time>2026-04-25T07:19:46.137Z</time></trkpt><trkpt lat="43.2356864" lon="13.3845765"><ele>144.0</ele><time>2026-04-25T07:19:47.133Z</time></trkpt><trkpt lat="43.2356208" lon="13.3840146"><ele>145.0</ele><time>2026-04-25T07:19:48.153Z</time></trkpt><trkpt lat="43.235559" lon="13.38346"><ele>146.5</ele><time>2026-04-25T07:19:49.142Z</time></trkpt><trkpt lat="43.2355004" lon="13.3829302"><ele>148.0</ele><time>2026-04-25T07:19:50.144Z</time></trkpt><trkpt lat="43.2354426" lon="13.3824149"><ele>148.5</ele><time>2026-04-25T07:19:51.146Z</time></trkpt><trkpt lat="43.2353814" lon="13.3819026"><ele>149.0</ele><time>2026-04-25T07:19:52.136Z</time></trkpt><trkpt lat="43.2353152" lon="13.3813798"><ele>149.0</ele><time>2026-04-25T07:19:53.142Z</time></trkpt><trkpt lat="43.2352591" lon="13.3808488"><ele>149.0</ele><time>2026-04-25T07:19:54.152Z</time></trkpt><trkpt lat="43.2351975" lon="13.3803131"><ele>149.0</ele><time>2026-04-25T07:19:55.143Z</time></trkpt><trkpt lat="43.2351379" lon="13.3797696"><ele>149.0</ele><time>2026-04-25T07:19:56.143Z</time></trkpt><trkpt lat="43.2350719" lon="13.3792194"><ele>148.5</ele><time>2026-04-25T07:19:57.142Z</time></trkpt><trkpt lat="43.2350081" lon="13.3786565"><ele>148.0</ele><time>2026-04-25T07:19:58.144Z</time></trkpt><trkpt lat="43.2349425" lon="13.3780813"><ele>148.0</ele><time>2026-04-25T07:19:59.14Z</time></trkpt><trkpt lat="43.234877" lon="13.3774884"><ele>148.0</ele><time>2026-04-25T07:20:00.133Z</time></trkpt><trkpt lat="43.234811" lon="13.3768884"><ele>148.5</ele><time>2026-04-25T07:20:01.152Z</time></trkpt><trkpt lat="43.2347429" lon="13.3762802"><ele>149.0</ele><time>2026-04-25T07:20:02.139Z</time></trkpt><trkpt lat="43.2346745" lon="13.3756634"><ele>150.0</ele><time>2026-04-25T07:20:03.143Z</time></trkpt><trkpt lat="43.234608" lon="13.3750522"><ele>149.5</ele><time>2026-04-25T07:20:04.167Z</time></trkpt><trkpt lat="43.2345417" lon="13.3744521"><ele>149.0</ele><time>2026-04-25T07:20:05.142Z</time></trkpt><trkpt lat="43.2344769" lon="13.3738583"><ele>150.0</ele><time>2026-04-25T07:20:06.144Z</time></trkpt><trkpt lat="43.2344121" lon="13.3733071"><ele>151.0</ele><time>2026-04-25T07:20:07.145Z</time></trkpt><trkpt lat="43.2343436" lon="13.3727852"><ele>151.5</ele><time>2026-04-25T07:20:08.152Z</time></trkpt><trkpt lat="43.2342895" lon="13.3722803"><ele>152.0</ele><time>2026-04-25T07:20:09.14Z</time></trkpt><trkpt lat="43.2342374" lon="13.3717969"><ele>153.5</ele><time>2026-04-25T07:20:10.145Z</time></trkpt><trkpt lat="43.234193" lon="13.3713367"><ele>155.0</ele><time>2026-04-25T07:20:11.146Z</time></trkpt><trkpt lat="43.2341488" lon="13.3708803"><ele>156.0</ele><time>2026-04-25T07:20:12.144Z</time></trkpt><trkpt lat="43.2341075" lon="13.3704643"><ele>157.0</ele><time>2026-04-25T07:20:13.139Z</time></trkpt><trkpt lat="43.2340726" lon="13.3700761"><ele>157.0</ele><time>2026-04-25T07:20:14.137Z</time></trkpt><trkpt lat="43.2340436" lon="13.3697328"><ele>157.0</ele><time>2026-04-25T07:20:15.143Z</time></trkpt><trkpt lat="43.2340099" lon="13.3693939"><ele>157.0</ele><time>2026-04-25T07:20:16.139Z</time></trkpt><trkpt lat="43.2339733" lon="13.3690467"><ele>157.0</ele><time>2026-04-25T07:20:17.149Z</time></trkpt><trkpt lat="43.2339363" lon="13.3686857"><ele>156.0</ele><time>2026-04-25T07:20:18.145Z</time></trkpt><trkpt lat="43.2338992" lon="13.3683197"><ele>155.0</ele><time>2026-04-25T07:20:19.144Z</time></trkpt><trkpt lat="43.2338634" lon="13.3679516"><ele>155.0</ele><time>2026-04-25T07:20:20.137Z</time></trkpt><trkpt lat="43.2338294" lon="13.3675797"><ele>155.0</ele><time>2026-04-25T07:20:21.132Z</time></trkpt><trkpt lat="43.2337957" lon="13.3672037"><ele>155.0</ele><time>2026-04-25T07:20:22.14Z</time></trkpt><trkpt lat="43.2337602" lon="13.3668229"><ele>155.0</ele><time>2026-04-25T07:20:23.138Z</time></trkpt><trkpt lat="43.2337229" lon="13.366431"><ele>155.5</ele><time>2026-04-25T07:20:24.149Z</time></trkpt><trkpt lat="43.2336886" lon="13.3660363"><ele>156.0</ele><time>2026-04-25T07:20:25.149Z</time></trkpt><trkpt lat="43.2336488" lon="13.3656477"><ele>156.5</ele><time>2026-04-25T07:20:26.139Z</time></trkpt><trkpt lat="43.2336087" lon="13.3652538"><ele>157.0</ele><time>2026-04-25T07:20:27.145Z</time></trkpt><trkpt lat="43.2335723" lon="13.3648628"><ele>157.5</ele><time>2026-04-25T07:20:28.141Z</time></trkpt><trkpt lat="43.2335354" lon="13.3644668"><ele>158.0</ele><time>2026-04-25T07:20:29.138Z</time></trkpt><trkpt lat="43.233497" lon="13.3640638"><ele>159.0</ele><time>2026-04-25T07:20:30.164Z</time></trkpt><trkpt lat="43.2334574" lon="13.3636574"><ele>160.0</ele><time>2026-04-25T07:20:31.141Z</time></trkpt><trkpt lat="43.2334212" lon="13.3632536"><ele>161.5</ele><time>2026-04-25T07:20:32.148Z</time></trkpt><trkpt lat="43.2333808" lon="13.3628444"><ele>163.0</ele><time>2026-04-25T07:20:33.133Z</time></trkpt><trkpt lat="43.2333389" lon="13.362442"><ele>164.0</ele><time>2026-04-25T07:20:34.139Z</time></trkpt><trkpt lat="43.233301" lon="13.3620398"><ele>165.0</ele><time>2026-04-25T07:20:35.145Z</time></trkpt><trkpt lat="43.2332604" lon="13.3616363"><ele>164.0</ele><time>2026-04-25T07:20:36.145Z</time></trkpt><trkpt lat="43.2332206" lon="13.3612335"><ele>163.0</ele><time>2026-04-25T07:20:37.144Z</time></trkpt><trkpt lat="43.2331827" lon="13.3608384"><ele>162.0</ele><time>2026-04-25T07:20:38.143Z</time></trkpt><trkpt lat="43.2331487" lon="13.3604475"><ele>161.0</ele><time>2026-04-25T07:20:39.144Z</time></trkpt><trkpt lat="43.2331137" lon="13.3600627"><ele>159.5</ele><time>2026-04-25T07:20:40.137Z</time></trkpt><trkpt lat="43.2330794" lon="13.3596828"><ele>158.0</ele><time>2026-04-25T07:20:41.141Z</time></trkpt><trkpt lat="43.2330471" lon="13.359309"><ele>158.0</ele><time>2026-04-25T07:20:42.154Z</time></trkpt><trkpt lat="43.2330111" lon="13.3589392"><ele>158.0</ele><time>2026-04-25T07:20:43.145Z</time></trkpt><trkpt lat="43.2329742" lon="13.3585599"><ele>159.0</ele><time>2026-04-25T07:20:44.137Z</time></trkpt><trkpt lat="43.2329358" lon="13.358174"><ele>160.0</ele><time>2026-04-25T07:20:45.137Z</time></trkpt><trkpt lat="43.2328954" lon="13.3577801"><ele>162.0</ele><time>2026-04-25T07:20:46.141Z</time></trkpt><trkpt lat="43.2328557" lon="13.3573795"><ele>164.0</ele><time>2026-04-25T07:20:47.137Z</time></trkpt><trkpt lat="43.2328131" lon="13.3569517"><ele>166.5</ele><time>2026-04-25T07:20:48.142Z</time></trkpt><trkpt lat="43.232769" lon="13.356515"><ele>169.0</ele><time>2026-04-25T07:20:49.145Z</time></trkpt><trkpt lat="43.2327225" lon="13.3560634"><ele>171.0</ele><time>2026-04-25T07:20:50.135Z</time></trkpt><trkpt lat="43.2326639" lon="13.3556019"><ele>173.0</ele><time>2026-04-25T07:20:51.144Z</time></trkpt><trkpt lat="43.2325923" lon="13.3551545"><ele>175.0</ele><time>2026-04-25T07:20:52.143Z</time></trkpt><trkpt lat="43.2324993" lon="13.3546999"><ele>177.0</ele><time>2026-04-25T07:20:53.152Z</time></trkpt><trkpt lat="43.2323963" lon="13.354249"><ele>177.5</ele><time>2026-04-25T07:20:54.136Z</time></trkpt><trkpt lat="43.2322695" lon="13.3537978"><ele>178.0</ele><time>2026-04-25T07:20:55.149Z</time></trkpt><trkpt lat="43.2321259" lon="13.3533495"><ele>177.0</ele><time>2026-04-25T07:20:56.149Z</time></trkpt><trkpt lat="43.2319675" lon="13.3529031"><ele>176.0</ele><time>2026-04-25T07:20:57.148Z</time></trkpt><trkpt lat="43.2318018" lon="13.3524576"><ele>176.5</ele><time>2026-04-25T07:20:58.149Z</time></trkpt><trkpt lat="43.2316285" lon="13.3520169"><ele>177.0</ele><time>2026-04-25T07:20:59.148Z</time></trkpt><trkpt lat="43.2314584" lon="13.3515742"><ele>179.0</ele><time>2026-04-25T07:21:00.143Z</time></trkpt><trkpt lat="43.2312835" lon="13.351128"><ele>181.0</ele><time>2026-04-25T07:21:01.147Z</time></trkpt><trkpt lat="43.2311122" lon="13.3506792"><ele>181.0</ele><time>2026-04-25T07:21:02.139Z</time></trkpt><trkpt lat="43.2309447" lon="13.3502317"><ele>181.0</ele><time>2026-04-25T07:21:03.14Z</time></trkpt><trkpt lat="43.230791" lon="13.3498164"><ele>180.0</ele><time>2026-04-25T07:21:04.14Z</time></trkpt><trkpt lat="43.2306353" lon="13.3494196"><ele>179.0</ele><time>2026-04-25T07:21:05.142Z</time></trkpt><trkpt lat="43.2304898" lon="13.3490312"><ele>179.0</ele><time>2026-04-25T07:21:06.144Z</time></trkpt><trkpt lat="43.2303388" lon="13.3486404"><ele>179.0</ele><time>2026-04-25T07:21:07.136Z</time></trkpt><trkpt lat="43.2301904" lon="13.3482459"><ele>180.0</ele><time>2026-04-25T07:21:08.137Z</time></trkpt><trkpt lat="43.2300269" lon="13.3478543"><ele>181.0</ele><time>2026-04-25T07:21:09.142Z</time></trkpt><trkpt lat="43.2298529" lon="13.3474514"><ele>179.0</ele><time>2026-04-25T07:21:10.139Z</time></trkpt><trkpt lat="43.2296707" lon="13.3470439"><ele>177.0</ele><time>2026-04-25T07:21:11.153Z</time></trkpt><trkpt lat="43.2294827" lon="13.3466356"><ele>176.0</ele><time>2026-04-25T07:21:12.138Z</time></trkpt><trkpt lat="43.229289" lon="13.3462242"><ele>175.0</ele><time>2026-04-25T07:21:13.144Z</time></trkpt><trkpt lat="43.2290875" lon="13.3458201"><ele>175.0</ele><time>2026-04-25T07:21:14.137Z</time></trkpt><trkpt lat="43.2288784" lon="13.3454307"><ele>175.0</ele><time>2026-04-25T07:21:15.132Z</time></trkpt><trkpt lat="43.2286532" lon="13.3450581"><ele>176.5</ele><time>2026-04-25T07:21:16.14Z</time></trkpt><trkpt lat="43.2284222" lon="13.3446991"><ele>178.0</ele><time>2026-04-25T07:21:17.139Z</time></trkpt><trkpt lat="43.2281724" lon="13.3443499"><ele>176.0</ele><time>2026-04-25T07:21:18.15Z</time></trkpt><trkpt lat="43.2279154" lon="13.344013"><ele>174.0</ele><time>2026-04-25T07:21:19.151Z</time></trkpt><trkpt lat="43.227639" lon="13.3437072"><ele>174.0</ele><time>2026-04-25T07:21:20.143Z</time></trkpt><trkpt lat="43.2273507" lon="13.3434104"><ele>174.0</ele><time>2026-04-25T07:21:21.147Z</time></trkpt><trkpt lat="43.2270532" lon="13.3431274"><ele>173.0</ele><time>2026-04-25T07:21:22.137Z</time></trkpt><trkpt lat="43.2267448" lon="13.3428642"><ele>172.0</ele><time>2026-04-25T07:21:23.136Z</time></trkpt><trkpt lat="43.2264375" lon="13.342602"><ele>171.5</ele><time>2026-04-25T07:21:24.14Z</time></trkpt><trkpt lat="43.2261274" lon="13.3423418"><ele>171.0</ele><time>2026-04-25T07:21:25.145Z</time></trkpt><trkpt lat="43.2258111" lon="13.3420851"><ele>170.0</ele><time>2026-04-25T07:21:26.143Z</time></trkpt><trkpt lat="43.2254924" lon="13.3418339"><ele>169.0</ele><time>2026-04-25T07:21:27.146Z</time></trkpt><trkpt lat="43.2251757" lon="13.3415753"><ele>169.0</ele><time>2026-04-25T07:21:28.142Z</time></trkpt><trkpt lat="43.2248581" lon="13.3413126"><ele>169.0</ele><time>2026-04-25T07:21:29.143Z</time></trkpt><trkpt lat="43.2245511" lon="13.3410525"><ele>169.5</ele><time>2026-04-25T07:21:30.152Z</time></trkpt><trkpt lat="43.2242495" lon="13.3408049"><ele>170.0</ele><time>2026-04-25T07:21:31.142Z</time></trkpt><trkpt lat="43.2239453" lon="13.3405554"><ele>170.0</ele><time>2026-04-25T07:21:32.146Z</time></trkpt><trkpt lat="43.223643" lon="13.3403085"><ele>170.0</ele><time>2026-04-25T07:21:33.15Z</time></trkpt><trkpt lat="43.2233419" lon="13.3400647"><ele>170.5</ele><time>2026-04-25T07:21:34.146Z</time></trkpt><trkpt lat="43.2230384" lon="13.3398146"><ele>171.0</ele><time>2026-04-25T07:21:35.152Z</time></trkpt><trkpt lat="43.2227374" lon="13.3395562"><ele>171.5</ele><time>2026-04-25T07:21:36.141Z</time></trkpt><trkpt lat="43.2224344" lon="13.3393069"><ele>172.0</ele><time>2026-04-25T07:21:37.144Z</time></trkpt><trkpt lat="43.2221315" lon="13.3390586"><ele>173.5</ele><time>2026-04-25T07:21:38.153Z</time></trkpt><trkpt lat="43.2218268" lon="13.3388049"><ele>175.0</ele><time>2026-04-25T07:21:39.143Z</time></trkpt><trkpt lat="43.2215214" lon="13.3385464"><ele>174.5</ele><time>2026-04-25T07:21:40.14Z</time></trkpt><trkpt lat="43.2212177" lon="13.3382924"><ele>174.0</ele><time>2026-04-25T07:21:41.141Z</time></trkpt><trkpt lat="43.2209116" lon="13.3380374"><ele>173.5</ele><time>2026-04-25T07:21:42.139Z</time></trkpt><trkpt lat="43.2206068" lon="13.3377868"><ele>173.0</ele><time>2026-04-25T07:21:43.157Z</time></trkpt><trkpt lat="43.2203003" lon="13.3375426"><ele>173.0</ele><time>2026-04-25T07:21:44.137Z</time></trkpt><trkpt lat="43.2199969" lon="13.3372893"><ele>173.0</ele><time>2026-04-25T07:21:45.146Z</time></trkpt><trkpt lat="43.2196963" lon="13.3370392"><ele>172.5</ele><time>2026-04-25T07:21:46.134Z</time></trkpt><trkpt lat="43.2194039" lon="13.3367867"><ele>172.0</ele><time>2026-04-25T07:21:47.145Z</time></trkpt><trkpt lat="43.2191086" lon="13.3365409"><ele>172.5</ele><time>2026-04-25T07:21:48.14Z</time></trkpt><trkpt lat="43.2188129" lon="13.336293"><ele>173.0</ele><time>2026-04-25T07:21:49.14Z</time></trkpt><trkpt lat="43.2185109" lon="13.3360521"><ele>173.0</ele><time>2026-04-25T07:21:50.149Z</time></trkpt><trkpt lat="43.218211" lon="13.3358047"><ele>173.0</ele><time>2026-04-25T07:21:51.14Z</time></trkpt><trkpt lat="43.2179181" lon="13.3355544"><ele>172.5</ele><time>2026-04-25T07:21:52.15Z</time></trkpt><trkpt lat="43.2176364" lon="13.3353217"><ele>172.0</ele><time>2026-04-25T07:21:53.153Z</time></trkpt><trkpt lat="43.2173754" lon="13.3350648"><ele>172.0</ele><time>2026-04-25T07:21:54.144Z</time></trkpt><trkpt lat="43.2171344" lon="13.3347944"><ele>172.0</ele><time>2026-04-25T07:21:55.147Z</time></trkpt><trkpt lat="43.2169105" lon="13.3345102"><ele>173.5</ele><time>2026-04-25T07:21:56.144Z</time></trkpt><trkpt lat="43.2167033" lon="13.3341984"><ele>175.0</ele><time>2026-04-25T07:21:57.134Z</time></trkpt><trkpt lat="43.2165111" lon="13.3338749"><ele>176.5</ele><time>2026-04-25T07:21:58.17Z</time></trkpt><trkpt lat="43.2163324" lon="13.3335321"><ele>178.0</ele><time>2026-04-25T07:21:59.141Z</time></trkpt><trkpt lat="43.2161668" lon="13.3331647"><ele>178.0</ele><time>2026-04-25T07:22:00.137Z</time></trkpt><trkpt lat="43.2160137" lon="13.3327751"><ele>178.0</ele><time>2026-04-25T07:22:01.141Z</time></trkpt><trkpt lat="43.2158818" lon="13.3323731"><ele>177.0</ele><time>2026-04-25T07:22:02.147Z</time></trkpt><trkpt lat="43.2157795" lon="13.3319529"><ele>176.0</ele><time>2026-04-25T07:22:03.153Z</time></trkpt><trkpt lat="43.215696" lon="13.331525"><ele>180.0</ele><time>2026-04-25T07:22:04.162Z</time></trkpt><trkpt lat="43.2156324" lon="13.331069"><ele>184.0</ele><time>2026-04-25T07:22:05.136Z</time></trkpt><trkpt lat="43.2156005" lon="13.3305993"><ele>184.5</ele><time>2026-04-25T07:22:06.13Z</time></trkpt><trkpt lat="43.2155948" lon="13.3301072"><ele>185.0</ele><time>2026-04-25T07:22:07.134Z</time></trkpt><trkpt lat="43.2156061" lon="13.3296013"><ele>187.0</ele><time>2026-04-25T07:22:08.154Z</time></trkpt><trkpt lat="43.21561" lon="13.3290901"><ele>189.0</ele><time>2026-04-25T07:22:09.143Z</time></trkpt><trkpt lat="43.2156061" lon="13.328571"><ele>189.0</ele><time>2026-04-25T07:22:10.164Z</time></trkpt><trkpt lat="43.2156066" lon="13.3280517"><ele>189.0</ele><time>2026-04-25T07:22:11.139Z</time></trkpt><trkpt lat="43.215604" lon="13.327546"><ele>190.5</ele><time>2026-04-25T07:22:12.14Z</time></trkpt><trkpt lat="43.2156033" lon="13.3270604"><ele>192.0</ele><time>2026-04-25T07:22:13.143Z</time></trkpt><trkpt lat="43.2156057" lon="13.3265826"><ele>193.0</ele><time>2026-04-25T07:22:14.149Z</time></trkpt><trkpt lat="43.2156004" lon="13.3261112"><ele>194.0</ele><time>2026-04-25T07:22:15.152Z</time></trkpt><trkpt lat="43.2155914" lon="13.3256449"><ele>193.0</ele><time>2026-04-25T07:22:16.148Z</time></trkpt><trkpt lat="43.2155569" lon="13.3251924"><ele>192.0</ele><time>2026-04-25T07:22:17.143Z</time></trkpt><trkpt lat="43.2154816" lon="13.3247624"><ele>189.5</ele><time>2026-04-25T07:22:18.143Z</time></trkpt><trkpt lat="43.2153859" lon="13.3243092"><ele>187.0</ele><time>2026-04-25T07:22:19.14Z</time></trkpt><trkpt lat="43.215292" lon="13.3238495"><ele>185.0</ele><time>2026-04-25T07:22:20.137Z</time></trkpt><trkpt lat="43.2151973" lon="13.323379"><ele>183.0</ele><time>2026-04-25T07:22:21.14Z</time></trkpt><trkpt lat="43.2151076" lon="13.3228981"><ele>182.5</ele><time>2026-04-25T07:22:22.147Z</time></trkpt><trkpt lat="43.2150154" lon="13.3224116"><ele>182.0</ele><time>2026-04-25T07:22:23.142Z</time></trkpt><trkpt lat="43.2149239" lon="13.3219325"><ele>181.5</ele><time>2026-04-25T07:22:24.131Z</time></trkpt><trkpt lat="43.2148276" lon="13.3214494"><ele>181.0</ele><time>2026-04-25T07:22:25.142Z</time></trkpt><trkpt lat="43.2147227" lon="13.3209605"><ele>184.0</ele><time>2026-04-25T07:22:26.139Z</time></trkpt><trkpt lat="43.2146205" lon="13.3204612"><ele>187.0</ele><time>2026-04-25T07:22:27.142Z</time></trkpt><trkpt lat="43.2145157" lon="13.3199583"><ele>186.0</ele><time>2026-04-25T07:22:28.138Z</time></trkpt><trkpt lat="43.2144125" lon="13.3194584"><ele>185.0</ele><time>2026-04-25T07:22:29.141Z</time></trkpt><trkpt lat="43.2143163" lon="13.3189575"><ele>185.0</ele><time>2026-04-25T07:22:30.147Z</time></trkpt><trkpt lat="43.2142173" lon="13.3184554"><ele>185.0</ele><time>2026-04-25T07:22:31.144Z</time></trkpt><trkpt lat="43.2141185" lon="13.3179544"><ele>185.0</ele><time>2026-04-25T07:22:32.183Z</time></trkpt><trkpt lat="43.2140239" lon="13.3174611"><ele>185.0</ele><time>2026-04-25T07:22:33.135Z</time></trkpt><trkpt lat="43.2139326" lon="13.3169704"><ele>185.0</ele><time>2026-04-25T07:22:34.141Z</time></trkpt><trkpt lat="43.2138423" lon="13.3164813"><ele>185.0</ele><time>2026-04-25T07:22:35.145Z</time></trkpt><trkpt lat="43.2137565" lon="13.3160014"><ele>184.0</ele><time>2026-04-25T07:22:36.148Z</time></trkpt><trkpt lat="43.2136673" lon="13.3155175"><ele>183.0</ele><time>2026-04-25T07:22:37.146Z</time></trkpt><trkpt lat="43.213576" lon="13.3150391"><ele>184.0</ele><time>2026-04-25T07:22:38.147Z</time></trkpt><trkpt lat="43.2134761" lon="13.3145614"><ele>185.0</ele><time>2026-04-25T07:22:39.145Z</time></trkpt><trkpt lat="43.2133639" lon="13.3140954"><ele>185.0</ele><time>2026-04-25T07:22:40.148Z</time></trkpt><trkpt lat="43.2132382" lon="13.3136303"><ele>185.0</ele><time>2026-04-25T07:22:41.144Z</time></trkpt><trkpt lat="43.2130968" lon="13.3131639"><ele>185.0</ele><time>2026-04-25T07:22:42.141Z</time></trkpt><trkpt lat="43.2129429" lon="13.3127007"><ele>185.0</ele><time>2026-04-25T07:22:43.145Z</time></trkpt><trkpt lat="43.2127723" lon="13.31225"><ele>185.5</ele><time>2026-04-25T07:22:44.149Z</time></trkpt><trkpt lat="43.212587" lon="13.3118105"><ele>186.0</ele><time>2026-04-25T07:22:45.146Z</time></trkpt><trkpt lat="43.2123879" lon="13.3113783"><ele>186.5</ele><time>2026-04-25T07:22:46.144Z</time></trkpt><trkpt lat="43.212187" lon="13.3109553"><ele>187.0</ele><time>2026-04-25T07:22:47.146Z</time></trkpt><trkpt lat="43.2119798" lon="13.3105607"><ele>188.0</ele><time>2026-04-25T07:22:48.141Z</time></trkpt><trkpt lat="43.211784" lon="13.3101912"><ele>189.0</ele><time>2026-04-25T07:22:49.137Z</time></trkpt><trkpt lat="43.2115842" lon="13.309819"><ele>189.0</ele><time>2026-04-25T07:22:50.139Z</time></trkpt><trkpt lat="43.211378" lon="13.3094304"><ele>189.0</ele><time>2026-04-25T07:22:51.143Z</time></trkpt><trkpt lat="43.2111639" lon="13.309034"><ele>188.5</ele><time>2026-04-25T07:22:52.139Z</time></trkpt><trkpt lat="43.2109526" lon="13.3086262"><ele>188.0</ele><time>2026-04-25T07:22:53.141Z</time></trkpt><trkpt lat="43.2107386" lon="13.3082166"><ele>189.0</ele><time>2026-04-25T07:22:54.138Z</time></trkpt><trkpt lat="43.2105219" lon="13.3078074"><ele>190.0</ele><time>2026-04-25T07:22:55.142Z</time></trkpt><trkpt lat="43.2103014" lon="13.307396"><ele>190.5</ele><time>2026-04-25T07:22:56.141Z</time></trkpt><trkpt lat="43.2100867" lon="13.3069864"><ele>191.0</ele><time>2026-04-25T07:22:57.138Z</time></trkpt><trkpt lat="43.2098631" lon="13.3065729"><ele>190.0</ele><time>2026-04-25T07:22:58.146Z</time></trkpt><trkpt lat="43.2096391" lon="13.3061534"><ele>189.0</ele><time>2026-04-25T07:22:59.144Z</time></trkpt><trkpt lat="43.2094171" lon="13.3057384"><ele>189.5</ele><time>2026-04-25T07:23:00.14Z</time></trkpt><trkpt lat="43.2091962" lon="13.305321"><ele>190.0</ele><time>2026-04-25T07:23:01.143Z</time></trkpt><trkpt lat="43.2089751" lon="13.3049023"><ele>190.0</ele><time>2026-04-25T07:23:02.14Z</time></trkpt><trkpt lat="43.2087573" lon="13.3044817"><ele>190.0</ele><time>2026-04-25T07:23:03.143Z</time></trkpt><trkpt lat="43.2085348" lon="13.3040625"><ele>190.0</ele><time>2026-04-25T07:23:04.145Z</time></trkpt><trkpt lat="43.2083151" lon="13.3036477"><ele>190.0</ele><time>2026-04-25T07:23:05.135Z</time></trkpt><trkpt lat="43.2080962" lon="13.3032345"><ele>190.0</ele><time>2026-04-25T07:23:06.145Z</time></trkpt><trkpt lat="43.2078792" lon="13.302819"><ele>190.0</ele><time>2026-04-25T07:23:07.144Z</time></trkpt><trkpt lat="43.2076636" lon="13.3024125"><ele>190.5</ele><time>2026-04-25T07:23:08.137Z</time></trkpt><trkpt lat="43.2074489" lon="13.3020066"><ele>191.0</ele><time>2026-04-25T07:23:09.133Z</time></trkpt><trkpt lat="43.2072384" lon="13.3016029"><ele>196.5</ele><time>2026-04-25T07:23:10.141Z</time></trkpt><trkpt lat="43.207032" lon="13.3012012"><ele>202.0</ele><time>2026-04-25T07:23:11.135Z</time></trkpt><trkpt lat="43.2068224" lon="13.3008092"><ele>201.0</ele><time>2026-04-25T07:23:12.143Z</time></trkpt><trkpt lat="43.2066264" lon="13.3004413"><ele>200.0</ele><time>2026-04-25T07:23:13.155Z</time></trkpt><trkpt lat="43.2064345" lon="13.3000782"><ele>206.0</ele><time>2026-04-25T07:23:14.145Z</time></trkpt><trkpt lat="43.2062395" lon="13.2997072"><ele>212.0</ele><time>2026-04-25T07:23:15.137Z</time></trkpt><trkpt lat="43.206041" lon="13.299332"><ele>212.0</ele><time>2026-04-25T07:23:16.137Z</time></trkpt><trkpt lat="43.2058471" lon="13.2989544"><ele>212.0</ele><time>2026-04-25T07:23:17.141Z</time></trkpt><trkpt lat="43.2056471" lon="13.2985722"><ele>211.0</ele><time>2026-04-25T07:23:18.139Z</time></trkpt><trkpt lat="43.205447" lon="13.2981889"><ele>210.0</ele><time>2026-04-25T07:23:19.141Z</time></trkpt><trkpt lat="43.2052417" lon="13.297806"><ele>210.0</ele><time>2026-04-25T07:23:20.135Z</time></trkpt><trkpt lat="43.2050412" lon="13.2974167"><ele>210.0</ele><time>2026-04-25T07:23:21.14Z</time></trkpt><trkpt lat="43.2048462" lon="13.2970183"><ele>209.5</ele><time>2026-04-25T07:23:22.144Z</time></trkpt><trkpt lat="43.2046707" lon="13.2966118"><ele>209.0</ele><time>2026-04-25T07:23:23.138Z</time></trkpt><trkpt lat="43.2045272" lon="13.2961854"><ele>210.0</ele><time>2026-04-25T07:23:24.14Z</time></trkpt><trkpt lat="43.2044092" lon="13.2957432"><ele>211.0</ele><time>2026-04-25T07:23:25.129Z</time></trkpt><trkpt lat="43.2043148" lon="13.2952955"><ele>213.5</ele><time>2026-04-25T07:23:26.138Z</time></trkpt><trkpt lat="43.2042391" lon="13.29484"><ele>216.0</ele><time>2026-04-25T07:23:27.144Z</time></trkpt><trkpt lat="43.2041901" lon="13.2943788"><ele>217.0</ele><time>2026-04-25T07:23:28.135Z</time></trkpt><trkpt lat="43.2041652" lon="13.2939033"><ele>218.0</ele><time>2026-04-25T07:23:29.139Z</time></trkpt><trkpt lat="43.2041633" lon="13.293435"><ele>218.5</ele><time>2026-04-25T07:23:30.139Z</time></trkpt><trkpt lat="43.2041754" lon="13.292966"><ele>219.0</ele><time>2026-04-25T07:23:31.147Z</time></trkpt><trkpt lat="43.2041911" lon="13.292501"><ele>219.0</ele><time>2026-04-25T07:23:32.133Z</time></trkpt><trkpt lat="43.2042082" lon="13.2920359"><ele>219.0</ele><time>2026-04-25T07:23:33.146Z</time></trkpt><trkpt lat="43.2042244" lon="13.2915646"><ele>218.0</ele><time>2026-04-25T07:23:34.143Z</time></trkpt><trkpt lat="43.2042369" lon="13.2910937"><ele>217.0</ele><time>2026-04-25T07:23:35.143Z</time></trkpt><trkpt lat="43.2042515" lon="13.2906234"><ele>217.0</ele><time>2026-04-25T07:23:36.14Z</time></trkpt><trkpt lat="43.2042719" lon="13.2901524"><ele>217.0</ele><time>2026-04-25T07:23:37.139Z</time></trkpt><trkpt lat="43.204288" lon="13.2896849"><ele>219.0</ele><time>2026-04-25T07:23:38.138Z</time></trkpt><trkpt lat="43.2043046" lon="13.289219"><ele>221.0</ele><time>2026-04-25T07:23:39.137Z</time></trkpt><trkpt lat="43.2043195" lon="13.2887556"><ele>223.5</ele><time>2026-04-25T07:23:40.137Z</time></trkpt><trkpt lat="43.2043269" lon="13.288305"><ele>226.0</ele><time>2026-04-25T07:23:41.139Z</time></trkpt><trkpt lat="43.204328" lon="13.2878495"><ele>226.0</ele><time>2026-04-25T07:23:42.147Z</time></trkpt><trkpt lat="43.2043167" lon="13.2873859"><ele>226.0</ele><time>2026-04-25T07:23:43.139Z</time></trkpt><trkpt lat="43.2042944" lon="13.2869261"><ele>221.5</ele><time>2026-04-25T07:23:44.139Z</time></trkpt><trkpt lat="43.2042571" lon="13.2864673"><ele>217.0</ele><time>2026-04-25T07:23:45.14Z</time></trkpt><trkpt lat="43.2042116" lon="13.2860104"><ele>213.0</ele><time>2026-04-25T07:23:46.143Z</time></trkpt><trkpt lat="43.2041574" lon="13.2855515"><ele>209.0</ele><time>2026-04-25T07:23:47.145Z</time></trkpt><trkpt lat="43.2040959" lon="13.2851001"><ele>208.5</ele><time>2026-04-25T07:23:48.139Z</time></trkpt><trkpt lat="43.2040333" lon="13.2846511"><ele>208.0</ele><time>2026-04-25T07:23:49.134Z</time></trkpt><trkpt lat="43.2039714" lon="13.2842056"><ele>215.0</ele><time>2026-04-25T07:23:50.156Z</time></trkpt><trkpt lat="43.2039075" lon="13.2837666"><ele>222.0</ele><time>2026-04-25T07:23:51.14Z</time></trkpt><trkpt lat="43.2038448" lon="13.283321"><ele>221.0</ele><time>2026-04-25T07:23:52.148Z</time></trkpt><trkpt lat="43.2037787" lon="13.282874"><ele>220.0</ele><time>2026-04-25T07:23:53.138Z</time></trkpt><trkpt lat="43.2037107" lon="13.2824271"><ele>218.5</ele><time>2026-04-25T07:23:54.136Z</time></trkpt><trkpt lat="43.2036427" lon="13.2819838"><ele>217.0</ele><time>2026-04-25T07:23:55.141Z</time></trkpt><trkpt lat="43.203576" lon="13.2815428"><ele>216.0</ele><time>2026-04-25T07:23:56.132Z</time></trkpt><trkpt lat="43.20351" lon="13.2811149"><ele>215.0</ele><time>2026-04-25T07:23:57.136Z</time></trkpt><trkpt lat="43.203447" lon="13.2807118"><ele>216.5</ele><time>2026-04-25T07:23:58.148Z</time></trkpt><trkpt lat="43.2033806" lon="13.2803145"><ele>218.0</ele><time>2026-04-25T07:23:59.139Z</time></trkpt><trkpt lat="43.203302" lon="13.2798883"><ele>219.5</ele><time>2026-04-25T07:24:00.142Z</time></trkpt><trkpt lat="43.2032206" lon="13.2794493"><ele>221.0</ele><time>2026-04-25T07:24:01.138Z</time></trkpt><trkpt lat="43.2031383" lon="13.2789925"><ele>225.0</ele><time>2026-04-25T07:24:02.15Z</time></trkpt><trkpt lat="43.2030474" lon="13.278524"><ele>229.0</ele><time>2026-04-25T07:24:03.138Z</time></trkpt><trkpt lat="43.2029493" lon="13.27807"><ele>221.0</ele><time>2026-04-25T07:24:04.155Z</time></trkpt><trkpt lat="43.2028369" lon="13.2776418"><ele>213.0</ele><time>2026-04-25T07:24:05.136Z</time></trkpt><trkpt lat="43.2027179" lon="13.2772291"><ele>210.5</ele><time>2026-04-25T07:24:06.15Z</time></trkpt><trkpt lat="43.2025878" lon="13.2768215"><ele>208.0</ele><time>2026-04-25T07:24:07.146Z</time></trkpt><trkpt lat="43.2024514" lon="13.2764268"><ele>207.5</ele><time>2026-04-25T07:24:08.141Z</time></trkpt><trkpt lat="43.2023028" lon="13.2760411"><ele>207.0</ele><time>2026-04-25T07:24:09.137Z</time></trkpt><trkpt lat="43.2021492" lon="13.2756655"><ele>208.0</ele><time>2026-04-25T07:24:10.133Z</time></trkpt><trkpt lat="43.2019881" lon="13.2752948"><ele>209.0</ele><time>2026-04-25T07:24:11.15Z</time></trkpt><trkpt lat="43.2018193" lon="13.2749296"><ele>209.0</ele><time>2026-04-25T07:24:12.181Z</time></trkpt><trkpt lat="43.2016438" lon="13.274574"><ele>209.0</ele><time>2026-04-25T07:24:13.149Z</time></trkpt><trkpt lat="43.2014535" lon="13.2742338"><ele>209.5</ele><time>2026-04-25T07:24:14.143Z</time></trkpt><trkpt lat="43.2012564" lon="13.2738939"><ele>210.0</ele><time>2026-04-25T07:24:15.153Z</time></trkpt><trkpt lat="43.2010448" lon="13.2735585"><ele>210.0</ele><time>2026-04-25T07:24:16.147Z</time></trkpt><trkpt lat="43.2008174" lon="13.2732198"><ele>210.0</ele><time>2026-04-25T07:24:17.138Z</time></trkpt><trkpt lat="43.2005791" lon="13.2728814"><ele>209.5</ele><time>2026-04-25T07:24:18.144Z</time></trkpt><trkpt lat="43.2003416" lon="13.2725557"><ele>209.0</ele><time>2026-04-25T07:24:19.15Z</time></trkpt><trkpt lat="43.2001106" lon="13.2722622"><ele>208.5</ele><time>2026-04-25T07:24:20.146Z</time></trkpt><trkpt lat="43.1998917" lon="13.2719942"><ele>208.0</ele><time>2026-04-25T07:24:21.143Z</time></trkpt><trkpt lat="43.1996789" lon="13.2717499"><ele>208.0</ele><time>2026-04-25T07:24:22.141Z</time></trkpt><trkpt lat="43.1994703" lon="13.2715188"><ele>208.0</ele><time>2026-04-25T07:24:23.142Z</time></trkpt><trkpt lat="43.1992601" lon="13.2712805"><ele>208.5</ele><time>2026-04-25T07:24:24.149Z</time></trkpt><trkpt lat="43.1990465" lon="13.2710445"><ele>209.0</ele><time>2026-04-25T07:24:25.153Z</time></trkpt><trkpt lat="43.1988327" lon="13.270812"><ele>208.0</ele><time>2026-04-25T07:24:26.139Z</time></trkpt><trkpt lat="43.1986235" lon="13.2705759"><ele>207.0</ele><time>2026-04-25T07:24:27.143Z</time></trkpt><trkpt lat="43.1984144" lon="13.270338"><ele>207.0</ele><time>2026-04-25T07:24:28.152Z</time></trkpt><trkpt lat="43.1982023" lon="13.2701033"><ele>207.0</ele><time>2026-04-25T07:24:29.149Z</time></trkpt><trkpt lat="43.1979961" lon="13.2698679"><ele>208.5</ele><time>2026-04-25T07:24:30.14Z</time></trkpt><trkpt lat="43.1977887" lon="13.2696337"><ele>210.0</ele><time>2026-04-25T07:24:31.141Z</time></trkpt><trkpt lat="43.1975812" lon="13.2694053"><ele>210.0</ele><time>2026-04-25T07:24:32.143Z</time></trkpt><trkpt lat="43.1973745" lon="13.2691688"><ele>210.0</ele><time>2026-04-25T07:24:33.15Z</time></trkpt><trkpt lat="43.1971761" lon="13.2689392"><ele>211.5</ele><time>2026-04-25T07:24:34.143Z</time></trkpt><trkpt lat="43.1969932" lon="13.2687241"><ele>213.0</ele><time>2026-04-25T07:24:35.151Z</time></trkpt><trkpt lat="43.1968172" lon="13.2685272"><ele>213.0</ele><time>2026-04-25T07:24:36.148Z</time></trkpt><trkpt lat="43.1966466" lon="13.2683256"><ele>213.0</ele><time>2026-04-25T07:24:37.147Z</time></trkpt><trkpt lat="43.1964747" lon="13.2681299"><ele>213.0</ele><time>2026-04-25T07:24:38.147Z</time></trkpt><trkpt lat="43.1963083" lon="13.2679374"><ele>215.0</ele><time>2026-04-25T07:24:39.139Z</time></trkpt><trkpt lat="43.19614" lon="13.2677512"><ele>217.0</ele><time>2026-04-25T07:24:40.145Z</time></trkpt><trkpt lat="43.1959752" lon="13.2675728"><ele>219.0</ele><time>2026-04-25T07:24:41.147Z</time></trkpt><trkpt lat="43.1958204" lon="13.2674026"><ele>220.0</ele><time>2026-04-25T07:24:42.139Z</time></trkpt><trkpt lat="43.1956751" lon="13.2672357"><ele>221.0</ele><time>2026-04-25T07:24:43.138Z</time></trkpt><trkpt lat="43.1955319" lon="13.2670764"><ele>222.0</ele><time>2026-04-25T07:24:44.153Z</time></trkpt><trkpt lat="43.1953918" lon="13.2669208"><ele>222.0</ele><time>2026-04-25T07:24:45.141Z</time></trkpt><trkpt lat="43.1952557" lon="13.2667636"><ele>222.0</ele><time>2026-04-25T07:24:46.137Z</time></trkpt><trkpt lat="43.1951177" lon="13.2666085"><ele>222.0</ele><time>2026-04-25T07:24:47.15Z</time></trkpt><trkpt lat="43.1949772" lon="13.2664563"><ele>222.66666666666669</ele><time>2026-04-25T07:24:48.142Z</time></trkpt><trkpt lat="43.1948392" lon="13.2663078"><ele>223.33333333333334</ele><time>2026-04-25T07:24:49.141Z</time></trkpt><trkpt lat="43.1946985" lon="13.2661529"><ele>224.0</ele><time>2026-04-25T07:24:50.137Z</time></trkpt><trkpt lat="43.1945621" lon="13.2659931"><ele>224.0</ele><time>2026-04-25T07:24:51.138Z</time></trkpt><trkpt lat="43.194423" lon="13.2658291"><ele>224.0</ele><time>2026-04-25T07:24:52.145Z</time></trkpt><trkpt lat="43.1942682" lon="13.2656569"><ele>224.0</ele><time>2026-04-25T07:24:53.142Z</time></trkpt><trkpt lat="43.1941129" lon="13.2654783"><ele>223.66666666666669</ele><time>2026-04-25T07:24:54.151Z</time></trkpt><trkpt lat="43.1939531" lon="13.2653015"><ele>223.33333333333331</ele><time>2026-04-25T07:24:55.139Z</time></trkpt><trkpt lat="43.1937962" lon="13.2651325"><ele>223.0</ele><time>2026-04-25T07:24:56.146Z</time></trkpt><trkpt lat="43.1936541" lon="13.2649628"><ele>223.0</ele><time>2026-04-25T07:24:57.145Z</time></trkpt><trkpt lat="43.1935245" lon="13.2647997"><ele>223.0</ele><time>2026-04-25T07:24:58.137Z</time></trkpt><trkpt lat="43.1934073" lon="13.2646539"><ele>223.0</ele><time>2026-04-25T07:24:59.143Z</time></trkpt><trkpt lat="43.1932954" lon="13.2645204"><ele>223.25</ele><time>2026-04-25T07:25:00.138Z</time></trkpt><trkpt lat="43.1931942" lon="13.2644085"><ele>223.5</ele><time>2026-04-25T07:25:01.143Z</time></trkpt><trkpt lat="43.1930948" lon="13.2643033"><ele>223.75</ele><time>2026-04-25T07:25:02.136Z</time></trkpt><trkpt lat="43.1930048" lon="13.2641991"><ele>224.0</ele><time>2026-04-25T07:25:03.137Z</time></trkpt><trkpt lat="43.1929228" lon="13.2640959"><ele>224.0</ele><time>2026-04-25T07:25:04.143Z</time></trkpt><trkpt lat="43.1928636" lon="13.2639932"><ele>223.99999999999997</ele><time>2026-04-25T07:25:05.136Z</time></trkpt><trkpt lat="43.1928235" lon="13.263873"><ele>223.99999999999997</ele><time>2026-04-25T07:25:06.156Z</time></trkpt><trkpt lat="43.1928127" lon="13.2637421"><ele>224.0</ele><time>2026-04-25T07:25:07.138Z</time></trkpt><trkpt lat="43.1928317" lon="13.2636033"><ele>224.0</ele><time>2026-04-25T07:25:08.15Z</time></trkpt><trkpt lat="43.1928748" lon="13.2634878"><ele>224.39999999999998</ele><time>2026-04-25T07:25:09.138Z</time></trkpt><trkpt lat="43.1929472" lon="13.263373"><ele>224.79999999999998</ele><time>2026-04-25T07:25:10.141Z</time></trkpt><trkpt lat="43.193038" lon="13.263295"><ele>225.20000000000002</ele><time>2026-04-25T07:25:11.138Z</time></trkpt><trkpt lat="43.1931371" lon="13.2632681"><ele>225.60000000000002</ele><time>2026-04-25T07:25:12.145Z</time></trkpt><trkpt lat="43.193248" lon="13.26328"><ele>226.0</ele><time>2026-04-25T07:25:13.143Z</time></trkpt><trkpt lat="43.1933485" lon="13.2633526"><ele>226.25</ele><time>2026-04-25T07:25:14.136Z</time></trkpt><trkpt lat="43.1934316" lon="13.2634805"><ele>226.5</ele><time>2026-04-25T07:25:15.142Z</time></trkpt><trkpt lat="43.1934942" lon="13.2636243"><ele>226.75</ele><time>2026-04-25T07:25:16.144Z</time></trkpt><trkpt lat="43.1934993" lon="13.2637878"><ele>227.0</ele><time>2026-04-25T07:25:17.14Z</time></trkpt><trkpt lat="43.1934507" lon="13.2639635"><ele>227.0</ele><time>2026-04-25T07:25:18.143Z</time></trkpt><trkpt lat="43.1933623" lon="13.2641263"><ele>227.0</ele><time>2026-04-25T07:25:19.134Z</time></trkpt><trkpt lat="43.193252" lon="13.2642924"><ele>227.0</ele><time>2026-04-25T07:25:20.132Z</time></trkpt><trkpt lat="43.1931377" lon="13.2644597"><ele>226.0</ele><time>2026-04-25T07:25:21.15Z</time></trkpt><trkpt lat="43.1930196" lon="13.2646483"><ele>225.0</ele><time>2026-04-25T07:25:22.128Z</time></trkpt><trkpt lat="43.1929073" lon="13.2648397"><ele>224.0</ele><time>2026-04-25T07:25:23.135Z</time></trkpt><trkpt lat="43.1927979" lon="13.2650244"><ele>222.66666666666669</ele><time>2026-04-25T07:25:24.137Z</time></trkpt><trkpt lat="43.19269" lon="13.2652"><ele>221.33333333333331</ele><time>2026-04-25T07:25:25.147Z</time></trkpt><trkpt lat="43.1925876" lon="13.2653862"><ele>220.0</ele><time>2026-04-25T07:25:26.144Z</time></trkpt><trkpt lat="43.1924801" lon="13.2655751"><ele>219.66666666666666</ele><time>2026-04-25T07:25:27.142Z</time></trkpt><trkpt lat="43.1923676" lon="13.265764"><ele>219.33333333333331</ele><time>2026-04-25T07:25:28.136Z</time></trkpt><trkpt lat="43.1922643" lon="13.2659386"><ele>219.0</ele><time>2026-04-25T07:25:29.142Z</time></trkpt><trkpt lat="43.1921779" lon="13.2661085"><ele>218.5</ele><time>2026-04-25T07:25:30.141Z</time></trkpt><trkpt lat="43.1921182" lon="13.2662863"><ele>218.0</ele><time>2026-04-25T07:25:31.147Z</time></trkpt><trkpt lat="43.1920793" lon="13.266472"><ele>217.5</ele><time>2026-04-25T07:25:32.132Z</time></trkpt><trkpt lat="43.1920573" lon="13.2666557"><ele>217.0</ele><time>2026-04-25T07:25:33.147Z</time></trkpt><trkpt lat="43.1920486" lon="13.266844"><ele>216.83333333333331</ele><time>2026-04-25T07:25:34.146Z</time></trkpt><trkpt lat="43.1920342" lon="13.2670071"><ele>216.66666666666666</ele><time>2026-04-25T07:25:35.138Z</time></trkpt><trkpt lat="43.192006" lon="13.2671327"><ele>216.5</ele><time>2026-04-25T07:25:36.144Z</time></trkpt><trkpt lat="43.1919657" lon="13.2672317"><ele>216.33333333333331</ele><time>2026-04-25T07:25:37.141Z</time></trkpt><trkpt lat="43.1919083" lon="13.2672977"><ele>216.16666666666666</ele><time>2026-04-25T07:25:38.14Z</time></trkpt><trkpt lat="43.1918443" lon="13.2673448"><ele>216.0</ele><time>2026-04-25T07:25:39.137Z</time></trkpt><trkpt lat="43.1917547" lon="13.2673594"><ele>215.75</ele><time>2026-04-25T07:25:40.137Z</time></trkpt><trkpt lat="43.1916401" lon="13.2673491"><ele>215.5</ele><time>2026-04-25T07:25:41.141Z</time></trkpt><trkpt lat="43.1915007" lon="13.2673384"><ele>215.25</ele><time>2026-04-25T07:25:42.135Z</time></trkpt><trkpt lat="43.1913365" lon="13.2673215"><ele>215.0</ele><time>2026-04-25T07:25:43.139Z</time></trkpt><trkpt lat="43.191159" lon="13.2672906"><ele>216.33333333333334</ele><time>2026-04-25T07:25:44.14Z</time></trkpt><trkpt lat="43.1909599" lon="13.2672542"><ele>217.66666666666669</ele><time>2026-04-25T07:25:45.144Z</time></trkpt><trkpt lat="43.1907556" lon="13.2671931"><ele>219.0</ele><time>2026-04-25T07:25:46.15Z</time></trkpt><trkpt lat="43.1905571" lon="13.2671065"><ele>220.0</ele><time>2026-04-25T07:25:47.141Z</time></trkpt><trkpt lat="43.1903768" lon="13.2669953"><ele>221.0</ele><time>2026-04-25T07:25:48.144Z</time></trkpt><trkpt lat="43.190205" lon="13.2668763"><ele>222.0</ele><time>2026-04-25T07:25:49.144Z</time></trkpt><trkpt lat="43.1900296" lon="13.2667525"><ele>222.0</ele><time>2026-04-25T07:25:50.157Z</time></trkpt><trkpt lat="43.1898736" lon="13.2666354"><ele>222.0</ele><time>2026-04-25T07:25:51.138Z</time></trkpt><trkpt lat="43.1897128" lon="13.266518"><ele>222.0</ele><time>2026-04-25T07:25:52.138Z</time></trkpt><trkpt lat="43.1895512" lon="13.2663959"><ele>223.66666666666669</ele><time>2026-04-25T07:25:53.137Z</time></trkpt><trkpt lat="43.1893818" lon="13.2662725"><ele>225.33333333333334</ele><time>2026-04-25T07:25:54.145Z</time></trkpt><trkpt lat="43.1892105" lon="13.2661508"><ele>227.0</ele><time>2026-04-25T07:25:55.148Z</time></trkpt><trkpt lat="43.1890362" lon="13.2660367"><ele>227.0</ele><time>2026-04-25T07:25:56.142Z</time></trkpt><trkpt lat="43.1888801" lon="13.2659368"><ele>227.0</ele><time>2026-04-25T07:25:57.142Z</time></trkpt><trkpt lat="43.1887373" lon="13.2658486"><ele>227.0</ele><time>2026-04-25T07:25:58.14Z</time></trkpt><trkpt lat="43.1885956" lon="13.2657591"><ele>227.0</ele><time>2026-04-25T07:25:59.137Z</time></trkpt><trkpt lat="43.1884538" lon="13.2656698"><ele>227.0</ele><time>2026-04-25T07:26:00.139Z</time></trkpt><trkpt lat="43.1883129" lon="13.2655754"><ele>227.0</ele><time>2026-04-25T07:26:01.145Z</time></trkpt><trkpt lat="43.1881573" lon="13.2654723"><ele>229.0</ele><time>2026-04-25T07:26:02.146Z</time></trkpt><trkpt lat="43.1879863" lon="13.2653527"><ele>231.0</ele><time>2026-04-25T07:26:03.138Z</time></trkpt><trkpt lat="43.1878043" lon="13.2652384"><ele>233.0</ele><time>2026-04-25T07:26:04.142Z</time></trkpt><trkpt lat="43.1876234" lon="13.2651213"><ele>233.0</ele><time>2026-04-25T07:26:05.14Z</time></trkpt><trkpt lat="43.1874589" lon="13.2650088"><ele>233.0</ele><time>2026-04-25T07:26:06.144Z</time></trkpt><trkpt lat="43.1873257" lon="13.2648843"><ele>233.0</ele><time>2026-04-25T07:26:07.136Z</time></trkpt><trkpt lat="43.1872219" lon="13.2647338"><ele>231.66666666666669</ele><time>2026-04-25T07:26:08.135Z</time></trkpt><trkpt lat="43.1871697" lon="13.2645351"><ele>230.33333333333331</ele><time>2026-04-25T07:26:09.138Z</time></trkpt><trkpt lat="43.1871452" lon="13.2643252"><ele>229.0</ele><time>2026-04-25T07:26:10.139Z</time></trkpt><trkpt lat="43.1871006" lon="13.2640832"><ele>231.33333333333331</ele><time>2026-04-25T07:26:11.142Z</time></trkpt><trkpt lat="43.1870386" lon="13.263833"><ele>233.66666666666669</ele><time>2026-04-25T07:26:12.137Z</time></trkpt><trkpt lat="43.1869423" lon="13.263583"><ele>236.0</ele><time>2026-04-25T07:26:13.142Z</time></trkpt><trkpt lat="43.1868155" lon="13.2633316"><ele>238.0</ele><time>2026-04-25T07:26:14.134Z</time></trkpt><trkpt lat="43.1866774" lon="13.26307"><ele>240.0</ele><time>2026-04-25T07:26:15.131Z</time></trkpt><trkpt lat="43.186532" lon="13.2628125"><ele>239.0</ele><time>2026-04-25T07:26:16.138Z</time></trkpt><trkpt lat="43.18639" lon="13.2625614"><ele>238.0</ele><time>2026-04-25T07:26:17.136Z</time></trkpt><trkpt lat="43.1862404" lon="13.2623147"><ele>239.0</ele><time>2026-04-25T07:26:18.137Z</time></trkpt><trkpt lat="43.1860826" lon="13.262078"><ele>240.0</ele><time>2026-04-25T07:26:19.142Z</time></trkpt><trkpt lat="43.1859254" lon="13.2618478"><ele>240.0</ele><time>2026-04-25T07:26:20.145Z</time></trkpt><trkpt lat="43.1857649" lon="13.2616213"><ele>240.0</ele><time>2026-04-25T07:26:21.14Z</time></trkpt><trkpt lat="43.1856109" lon="13.2613952"><ele>239.0</ele><time>2026-04-25T07:26:22.143Z</time></trkpt><trkpt lat="43.1854588" lon="13.2611728"><ele>238.0</ele><time>2026-04-25T07:26:23.144Z</time></trkpt><trkpt lat="43.1853098" lon="13.2609575"><ele>237.0</ele><time>2026-04-25T07:26:24.133Z</time></trkpt><trkpt lat="43.1851721" lon="13.2607598"><ele>236.66666666666669</ele><time>2026-04-25T07:26:25.143Z</time></trkpt><trkpt lat="43.1850423" lon="13.2605814"><ele>236.33333333333334</ele><time>2026-04-25T07:26:26.137Z</time></trkpt><trkpt lat="43.1849202" lon="13.2604032"><ele>236.0</ele><time>2026-04-25T07:26:27.14Z</time></trkpt><trkpt lat="43.1848007" lon="13.2602325"><ele>235.33333333333334</ele><time>2026-04-25T07:26:28.147Z</time></trkpt><trkpt lat="43.184684" lon="13.2600611"><ele>234.66666666666669</ele><time>2026-04-25T07:26:29.139Z</time></trkpt><trkpt lat="43.1845697" lon="13.259888"><ele>234.0</ele><time>2026-04-25T07:26:30.145Z</time></trkpt><trkpt lat="43.1844555" lon="13.2597096"><ele>234.0</ele><time>2026-04-25T07:26:31.141Z</time></trkpt><trkpt lat="43.1843474" lon="13.2595268"><ele>234.0</ele><time>2026-04-25T07:26:32.138Z</time></trkpt><trkpt lat="43.1842493" lon="13.2593263"><ele>234.0</ele><time>2026-04-25T07:26:33.142Z</time></trkpt><trkpt lat="43.1841703" lon="13.2591206"><ele>234.33333333333331</ele><time>2026-04-25T07:26:34.145Z</time></trkpt><trkpt lat="43.184114" lon="13.2588866"><ele>234.66666666666666</ele><time>2026-04-25T07:26:35.14Z</time></trkpt><trkpt lat="43.184083" lon="13.2586212"><ele>235.0</ele><time>2026-04-25T07:26:36.148Z</time></trkpt><trkpt lat="43.1840623" lon="13.2583416"><ele>235.33333333333331</ele><time>2026-04-25T07:26:37.138Z</time></trkpt><trkpt lat="43.1840403" lon="13.2580543"><ele>235.66666666666669</ele><time>2026-04-25T07:26:38.145Z</time></trkpt><trkpt lat="43.184005" lon="13.2577583"><ele>236.0</ele><time>2026-04-25T07:26:39.137Z</time></trkpt><trkpt lat="43.1839625" lon="13.2574632"><ele>233.66666666666669</ele><time>2026-04-25T07:26:40.141Z</time></trkpt><trkpt lat="43.1839066" lon="13.2571688"><ele>231.33333333333331</ele><time>2026-04-25T07:26:41.146Z</time></trkpt><trkpt lat="43.1838455" lon="13.2568875"><ele>229.0</ele><time>2026-04-25T07:26:42.14Z</time></trkpt><trkpt lat="43.1837876" lon="13.2566293"><ele>229.33333333333331</ele><time>2026-04-25T07:26:43.14Z</time></trkpt><trkpt lat="43.1837229" lon="13.2563861"><ele>229.66666666666669</ele><time>2026-04-25T07:26:44.145Z</time></trkpt><trkpt lat="43.1836577" lon="13.2561563"><ele>230.0</ele><time>2026-04-25T07:26:45.145Z</time></trkpt><trkpt lat="43.1835977" lon="13.2559438"><ele>230.0</ele><time>2026-04-25T07:26:46.139Z</time></trkpt><trkpt lat="43.1835452" lon="13.2557536"><ele>230.0</ele><time>2026-04-25T07:26:47.14Z</time></trkpt><trkpt lat="43.1834959" lon="13.2555769"><ele>230.0</ele><time>2026-04-25T07:26:48.142Z</time></trkpt><trkpt lat="43.1834527" lon="13.2554266"><ele>230.0</ele><time>2026-04-25T07:26:49.15Z</time></trkpt><trkpt lat="43.183426" lon="13.2552854"><ele>230.00000000000003</ele><time>2026-04-25T07:26:50.134Z</time></trkpt><trkpt lat="43.1834171" lon="13.2551646"><ele>230.0</ele><time>2026-04-25T07:26:51.138Z</time></trkpt><trkpt lat="43.1834206" lon="13.2550509"><ele>230.0</ele><time>2026-04-25T07:26:52.139Z</time></trkpt><trkpt lat="43.1834348" lon="13.2549393"><ele>230.0</ele><time>2026-04-25T07:26:53.142Z</time></trkpt><trkpt lat="43.1834285" lon="13.2548398"><ele>230.00000000000003</ele><time>2026-04-25T07:26:54.148Z</time></trkpt><trkpt lat="43.1833833" lon="13.2547469"><ele>230.0</ele><time>2026-04-25T07:26:55.131Z</time></trkpt><trkpt lat="43.1833143" lon="13.2546749"><ele>230.6</ele><time>2026-04-25T07:26:56.151Z</time></trkpt><trkpt lat="43.1832206" lon="13.2546192"><ele>231.2</ele><time>2026-04-25T07:26:57.14Z</time></trkpt><trkpt lat="43.1831262" lon="13.2545699"><ele>231.8</ele><time>2026-04-25T07:26:58.136Z</time></trkpt><trkpt lat="43.1830346" lon="13.2544915"><ele>232.4</ele><time>2026-04-25T07:26:59.13Z</time></trkpt><trkpt lat="43.1829366" lon="13.2543876"><ele>233.0</ele><time>2026-04-25T07:27:00.139Z</time></trkpt><trkpt lat="43.1828162" lon="13.2542904"><ele>233.0</ele><time>2026-04-25T07:27:01.141Z</time></trkpt><trkpt lat="43.1826733" lon="13.2541952"><ele>233.0</ele><time>2026-04-25T07:27:02.137Z</time></trkpt><trkpt lat="43.1825151" lon="13.2541037"><ele>233.0</ele><time>2026-04-25T07:27:03.144Z</time></trkpt><trkpt lat="43.1823555" lon="13.2540143"><ele>234.0</ele><time>2026-04-25T07:27:04.128Z</time></trkpt><trkpt lat="43.182204" lon="13.2539276"><ele>235.0</ele><time>2026-04-25T07:27:05.144Z</time></trkpt><trkpt lat="43.1820594" lon="13.2538356"><ele>236.0</ele><time>2026-04-25T07:27:06.136Z</time></trkpt><trkpt lat="43.1819056" lon="13.2537386"><ele>236.0</ele><time>2026-04-25T07:27:07.152Z</time></trkpt><trkpt lat="43.1817522" lon="13.2536384"><ele>236.0</ele><time>2026-04-25T07:27:08.136Z</time></trkpt><trkpt lat="43.1816" lon="13.2535453"><ele>236.0</ele><time>2026-04-25T07:27:09.136Z</time></trkpt><trkpt lat="43.1814409" lon="13.2534591"><ele>238.0</ele><time>2026-04-25T07:27:10.136Z</time></trkpt><trkpt lat="43.181269" lon="13.2533799"><ele>240.0</ele><time>2026-04-25T07:27:11.138Z</time></trkpt><trkpt lat="43.1810961" lon="13.2533058"><ele>242.0</ele><time>2026-04-25T07:27:12.139Z</time></trkpt><trkpt lat="43.180912" lon="13.2532359"><ele>242.0</ele><time>2026-04-25T07:27:13.134Z</time></trkpt><trkpt lat="43.1807224" lon="13.2531697"><ele>242.0</ele><time>2026-04-25T07:27:14.134Z</time></trkpt><trkpt lat="43.1805301" lon="13.2531029"><ele>242.0</ele><time>2026-04-25T07:27:15.142Z</time></trkpt><trkpt lat="43.1803374" lon="13.2530324"><ele>243.0</ele><time>2026-04-25T07:27:16.143Z</time></trkpt><trkpt lat="43.1801584" lon="13.2529664"><ele>244.0</ele><time>2026-04-25T07:27:17.143Z</time></trkpt><trkpt lat="43.1800017" lon="13.2529156"><ele>245.0</ele><time>2026-04-25T07:27:18.135Z</time></trkpt><trkpt lat="43.1798519" lon="13.2528672"><ele>246.33333333333334</ele><time>2026-04-25T07:27:19.137Z</time></trkpt><trkpt lat="43.1797011" lon="13.2528338"><ele>247.66666666666669</ele><time>2026-04-25T07:27:20.13Z</time></trkpt><trkpt lat="43.1795476" lon="13.2528202"><ele>249.0</ele><time>2026-04-25T07:27:21.132Z</time></trkpt><trkpt lat="43.1793989" lon="13.2528101"><ele>249.0</ele><time>2026-04-25T07:27:22.137Z</time></trkpt><trkpt lat="43.1792472" lon="13.2528131"><ele>249.0</ele><time>2026-04-25T07:27:23.137Z</time></trkpt><trkpt lat="43.1790962" lon="13.2528336"><ele>249.0</ele><time>2026-04-25T07:27:24.145Z</time></trkpt><trkpt lat="43.178953" lon="13.2528631"><ele>249.0</ele><time>2026-04-25T07:27:25.143Z</time></trkpt><trkpt lat="43.1788091" lon="13.2528681"><ele>249.0</ele><time>2026-04-25T07:27:26.143Z</time></trkpt><trkpt lat="43.1786697" lon="13.2528411"><ele>249.0</ele><time>2026-04-25T07:27:27.148Z</time></trkpt><trkpt lat="43.1785194" lon="13.252778"><ele>249.0</ele><time>2026-04-25T07:27:28.14Z</time></trkpt><trkpt lat="43.178392" lon="13.2526942"><ele>249.0</ele><time>2026-04-25T07:27:29.14Z</time></trkpt><trkpt lat="43.1782855" lon="13.2525961"><ele>250.0</ele><time>2026-04-25T07:27:30.142Z</time></trkpt><trkpt lat="43.1781775" lon="13.2524917"><ele>251.0</ele><time>2026-04-25T07:27:31.143Z</time></trkpt><trkpt lat="43.1780581" lon="13.2523839"><ele>252.0</ele><time>2026-04-25T07:27:32.144Z</time></trkpt><trkpt lat="43.1779373" lon="13.252291"><ele>253.0</ele><time>2026-04-25T07:27:33.137Z</time></trkpt><trkpt lat="43.1778215" lon="13.2522212"><ele>253.0</ele><time>2026-04-25T07:27:34.135Z</time></trkpt><trkpt lat="43.1776915" lon="13.2521791"><ele>253.0</ele><time>2026-04-25T07:27:35.134Z</time></trkpt><trkpt lat="43.1775233" lon="13.2521379"><ele>253.0</ele><time>2026-04-25T07:27:36.138Z</time></trkpt><trkpt lat="43.1773214" lon="13.2520945"><ele>252.0</ele><time>2026-04-25T07:27:37.136Z</time></trkpt><trkpt lat="43.1771359" lon="13.2520328"><ele>251.0</ele><time>2026-04-25T07:27:38.145Z</time></trkpt><trkpt lat="43.176969" lon="13.2519589"><ele>250.0</ele><time>2026-04-25T07:27:39.134Z</time></trkpt><trkpt lat="43.1768188" lon="13.2518775"><ele>250.0</ele><time>2026-04-25T07:27:40.142Z</time></trkpt><trkpt lat="43.1766714" lon="13.2518061"><ele>250.0</ele><time>2026-04-25T07:27:41.144Z</time></trkpt><trkpt lat="43.1765186" lon="13.2517512"><ele>250.0</ele><time>2026-04-25T07:27:42.142Z</time></trkpt><trkpt lat="43.1763678" lon="13.251728"><ele>249.0</ele><time>2026-04-25T07:27:43.155Z</time></trkpt><trkpt lat="43.1762169" lon="13.2517392"><ele>248.0</ele><time>2026-04-25T07:27:44.141Z</time></trkpt><trkpt lat="43.1760753" lon="13.2517576"><ele>247.0</ele><time>2026-04-25T07:27:45.14Z</time></trkpt><trkpt lat="43.1759491" lon="13.2517784"><ele>246.0</ele><time>2026-04-25T07:27:46.141Z</time></trkpt><trkpt lat="43.1758286" lon="13.2518054"><ele>246.0</ele><time>2026-04-25T07:27:47.141Z</time></trkpt><trkpt lat="43.1757189" lon="13.2518288"><ele>246.0</ele><time>2026-04-25T07:27:48.136Z</time></trkpt><trkpt lat="43.1756152" lon="13.2518379"><ele>246.0</ele><time>2026-04-25T07:27:49.14Z</time></trkpt><trkpt lat="43.1755264" lon="13.2518414"><ele>246.0</ele><time>2026-04-25T07:27:50.147Z</time></trkpt><trkpt lat="43.1754489" lon="13.2518323"><ele>246.0</ele><time>2026-04-25T07:27:51.144Z</time></trkpt><trkpt lat="43.1753816" lon="13.251822"><ele>246.0</ele><time>2026-04-25T07:27:52.141Z</time></trkpt><trkpt lat="43.1752816" lon="13.2517886"><ele>246.0</ele><time>2026-04-25T07:27:54.144Z</time></trkpt><trkpt lat="43.1751808" lon="13.2517344"><ele>246.00000000000003</ele><time>2026-04-25T07:27:56.138Z</time></trkpt><trkpt lat="43.1751193" lon="13.2516912"><ele>246.00000000000003</ele><time>2026-04-25T07:27:57.144Z</time></trkpt><trkpt lat="43.1750516" lon="13.2516271"><ele>246.0</ele><time>2026-04-25T07:27:58.152Z</time></trkpt><trkpt lat="43.1749495" lon="13.2515586"><ele>246.0</ele><time>2026-04-25T07:27:59.145Z</time></trkpt><trkpt lat="43.1748063" lon="13.2514559"><ele>246.0</ele><time>2026-04-25T07:28:00.14Z</time></trkpt><trkpt lat="43.1746413" lon="13.2513403"><ele>246.0</ele><time>2026-04-25T07:28:01.138Z</time></trkpt><trkpt lat="43.174452" lon="13.2512039"><ele>246.0</ele><time>2026-04-25T07:28:02.141Z</time></trkpt><trkpt lat="43.1742567" lon="13.2510832"><ele>246.0</ele><time>2026-04-25T07:28:03.141Z</time></trkpt><trkpt lat="43.1740577" lon="13.2509747"><ele>246.0</ele><time>2026-04-25T07:28:04.14Z</time></trkpt><trkpt lat="43.1738603" lon="13.25088"><ele>246.0</ele><time>2026-04-25T07:28:05.145Z</time></trkpt><trkpt lat="43.1736519" lon="13.2507916"><ele>245.0</ele><time>2026-04-25T07:28:06.142Z</time></trkpt><trkpt lat="43.1734242" lon="13.2507198"><ele>244.0</ele><time>2026-04-25T07:28:07.145Z</time></trkpt><trkpt lat="43.1731868" lon="13.2506455"><ele>244.0</ele><time>2026-04-25T07:28:08.141Z</time></trkpt><trkpt lat="43.1729497" lon="13.2505622"><ele>244.0</ele><time>2026-04-25T07:28:09.139Z</time></trkpt><trkpt lat="43.1727334" lon="13.2504585"><ele>244.0</ele><time>2026-04-25T07:28:10.14Z</time></trkpt><trkpt lat="43.1725338" lon="13.2503495"><ele>244.0</ele><time>2026-04-25T07:28:11.143Z</time></trkpt><trkpt lat="43.1723447" lon="13.2502545"><ele>244.0</ele><time>2026-04-25T07:28:12.139Z</time></trkpt><trkpt lat="43.1721659" lon="13.2501478"><ele>244.0</ele><time>2026-04-25T07:28:13.146Z</time></trkpt><trkpt lat="43.1720066" lon="13.2500208"><ele>244.0</ele><time>2026-04-25T07:28:14.133Z</time></trkpt><trkpt lat="43.1718985" lon="13.2498759"><ele>244.0</ele><time>2026-04-25T07:28:15.136Z</time></trkpt><trkpt lat="43.1717977" lon="13.2496744"><ele>244.0</ele><time>2026-04-25T07:28:16.139Z</time></trkpt><trkpt lat="43.1716943" lon="13.249439"><ele>244.0</ele><time>2026-04-25T07:28:17.134Z</time></trkpt><trkpt lat="43.1715737" lon="13.249191"><ele>244.0</ele><time>2026-04-25T07:28:18.151Z</time></trkpt><trkpt lat="43.1714302" lon="13.248949"><ele>245.0</ele><time>2026-04-25T07:28:19.135Z</time></trkpt><trkpt lat="43.1712753" lon="13.2487482"><ele>246.0</ele><time>2026-04-25T07:28:20.15Z</time></trkpt><trkpt lat="43.1710868" lon="13.2485963"><ele>247.0</ele><time>2026-04-25T07:28:21.14Z</time></trkpt><trkpt lat="43.1708839" lon="13.2484937"><ele>245.66666666666666</ele><time>2026-04-25T07:28:22.141Z</time></trkpt><trkpt lat="43.1706803" lon="13.2484175"><ele>244.33333333333331</ele><time>2026-04-25T07:28:23.14Z</time></trkpt><trkpt lat="43.1704925" lon="13.2483321"><ele>243.0</ele><time>2026-04-25T07:28:24.136Z</time></trkpt><trkpt lat="43.1703236" lon="13.2482111"><ele>245.33333333333331</ele><time>2026-04-25T07:28:25.141Z</time></trkpt><trkpt lat="43.1701677" lon="13.2480428"><ele>247.66666666666666</ele><time>2026-04-25T07:28:26.154Z</time></trkpt><trkpt lat="43.1700406" lon="13.2477995"><ele>250.0</ele><time>2026-04-25T07:28:27.137Z</time></trkpt><trkpt lat="43.1699285" lon="13.2475447"><ele>248.5</ele><time>2026-04-25T07:28:28.141Z</time></trkpt><trkpt lat="43.1698164" lon="13.2472621"><ele>247.0</ele><time>2026-04-25T07:28:29.139Z</time></trkpt><trkpt lat="43.1697049" lon="13.2469961"><ele>247.0</ele><time>2026-04-25T07:28:30.137Z</time></trkpt><trkpt lat="43.1696018" lon="13.2467522"><ele>247.0</ele><time>2026-04-25T07:28:31.147Z</time></trkpt><trkpt lat="43.1695091" lon="13.2465329"><ele>247.0</ele><time>2026-04-25T07:28:32.138Z</time></trkpt><trkpt lat="43.1694208" lon="13.2463196"><ele>247.66666666666666</ele><time>2026-04-25T07:28:33.14Z</time></trkpt><trkpt lat="43.1693245" lon="13.246108"><ele>248.33333333333331</ele><time>2026-04-25T07:28:34.142Z</time></trkpt><trkpt lat="43.1692216" lon="13.245911"><ele>249.0</ele><time>2026-04-25T07:28:35.139Z</time></trkpt><trkpt lat="43.169112" lon="13.2457419"><ele>249.66666666666669</ele><time>2026-04-25T07:28:36.137Z</time></trkpt><trkpt lat="43.1689799" lon="13.2455972"><ele>250.33333333333334</ele><time>2026-04-25T07:28:37.138Z</time></trkpt><trkpt lat="43.1688257" lon="13.2454856"><ele>251.0</ele><time>2026-04-25T07:28:38.139Z</time></trkpt><trkpt lat="43.1686744" lon="13.2453921"><ele>251.0</ele><time>2026-04-25T07:28:39.139Z</time></trkpt><trkpt lat="43.1685052" lon="13.2453131"><ele>251.0</ele><time>2026-04-25T07:28:40.142Z</time></trkpt><trkpt lat="43.1683452" lon="13.2452391"><ele>251.0</ele><time>2026-04-25T07:28:41.147Z</time></trkpt><trkpt lat="43.1681942" lon="13.245173"><ele>251.25</ele><time>2026-04-25T07:28:42.146Z</time></trkpt><trkpt lat="43.1680633" lon="13.2451123"><ele>251.5</ele><time>2026-04-25T07:28:43.146Z</time></trkpt><trkpt lat="43.1679444" lon="13.2450514"><ele>251.75</ele><time>2026-04-25T07:28:44.139Z</time></trkpt><trkpt lat="43.1678407" lon="13.2449841"><ele>252.0</ele><time>2026-04-25T07:28:45.138Z</time></trkpt><trkpt lat="43.1677474" lon="13.2448878"><ele>252.75</ele><time>2026-04-25T07:28:46.137Z</time></trkpt><trkpt lat="43.1676559" lon="13.2447573"><ele>253.5</ele><time>2026-04-25T07:28:47.144Z</time></trkpt><trkpt lat="43.1675715" lon="13.2446039"><ele>254.25</ele><time>2026-04-25T07:28:48.145Z</time></trkpt><trkpt lat="43.1674802" lon="13.2444382"><ele>255.0</ele><time>2026-04-25T07:28:49.142Z</time></trkpt><trkpt lat="43.1673919" lon="13.2442595"><ele>254.75</ele><time>2026-04-25T07:28:50.14Z</time></trkpt><trkpt lat="43.1673049" lon="13.2440928"><ele>254.5</ele><time>2026-04-25T07:28:51.138Z</time></trkpt><trkpt lat="43.1672257" lon="13.2439476"><ele>254.25</ele><time>2026-04-25T07:28:52.137Z</time></trkpt><trkpt lat="43.1671467" lon="13.2438159"><ele>254.0</ele><time>2026-04-25T07:28:53.138Z</time></trkpt><trkpt lat="43.1670665" lon="13.2436966"><ele>254.0</ele><time>2026-04-25T07:28:54.154Z</time></trkpt><trkpt lat="43.1669844" lon="13.2435946"><ele>253.99999999999997</ele><time>2026-04-25T07:28:55.143Z</time></trkpt><trkpt lat="43.1669075" lon="13.2435181"><ele>253.99999999999997</ele><time>2026-04-25T07:28:56.15Z</time></trkpt><trkpt lat="43.1668481" lon="13.2434375"><ele>254.0</ele><time>2026-04-25T07:28:57.15Z</time></trkpt><trkpt lat="43.1667883" lon="13.2433634"><ele>254.0</ele><time>2026-04-25T07:28:58.142Z</time></trkpt><trkpt lat="43.166725" lon="13.243291"><ele>254.00000000000003</ele><time>2026-04-25T07:28:59.139Z</time></trkpt><trkpt lat="43.1666667" lon="13.2432298"><ele>254.0</ele><time>2026-04-25T07:29:00.143Z</time></trkpt><trkpt lat="43.1666042" lon="13.2431734"><ele>254.0</ele><time>2026-04-25T07:29:01.145Z</time></trkpt><trkpt lat="43.1665365" lon="13.2431124"><ele>254.0</ele><time>2026-04-25T07:29:02.138Z</time></trkpt><trkpt lat="43.1664681" lon="13.2430552"><ele>254.00000000000003</ele><time>2026-04-25T07:29:03.149Z</time></trkpt><trkpt lat="43.1663975" lon="13.2429991"><ele>254.0</ele><time>2026-04-25T07:29:04.141Z</time></trkpt><trkpt lat="43.1663211" lon="13.2429469"><ele>254.83333333333334</ele><time>2026-04-25T07:29:05.14Z</time></trkpt><trkpt lat="43.1662426" lon="13.2428955"><ele>255.66666666666669</ele><time>2026-04-25T07:29:06.144Z</time></trkpt><trkpt lat="43.1661615" lon="13.2428403"><ele>256.5</ele><time>2026-04-25T07:29:07.143Z</time></trkpt><trkpt lat="43.1660843" lon="13.2427856"><ele>257.3333333333333</ele><time>2026-04-25T07:29:08.139Z</time></trkpt><trkpt lat="43.166005" lon="13.2427292"><ele>258.16666666666663</ele><time>2026-04-25T07:29:09.141Z</time></trkpt><trkpt lat="43.1659334" lon="13.2426808"><ele>259.0</ele><time>2026-04-25T07:29:10.143Z</time></trkpt><trkpt lat="43.1658621" lon="13.242637"><ele>259.0</ele><time>2026-04-25T07:29:11.144Z</time></trkpt><trkpt lat="43.1657969" lon="13.2426002"><ele>259.0</ele><time>2026-04-25T07:29:12.139Z</time></trkpt><trkpt lat="43.1657323" lon="13.2425645"><ele>259.0</ele><time>2026-04-25T07:29:13.144Z</time></trkpt><trkpt lat="43.1656591" lon="13.2425286"><ele>259.0</ele><time>2026-04-25T07:29:14.141Z</time></trkpt><trkpt lat="43.165574" lon="13.2424879"><ele>259.0</ele><time>2026-04-25T07:29:15.135Z</time></trkpt><trkpt lat="43.1654759" lon="13.2424516"><ele>259.0</ele><time>2026-04-25T07:29:16.136Z</time></trkpt><trkpt lat="43.1653702" lon="13.2424218"><ele>257.75</ele><time>2026-04-25T07:29:17.133Z</time></trkpt><trkpt lat="43.1652615" lon="13.242392"><ele>256.5</ele><time>2026-04-25T07:29:18.143Z</time></trkpt><trkpt lat="43.1651467" lon="13.2423587"><ele>255.25</ele><time>2026-04-25T07:29:19.139Z</time></trkpt><trkpt lat="43.1650321" lon="13.2423278"><ele>254.0</ele><time>2026-04-25T07:29:20.146Z</time></trkpt><trkpt lat="43.1649144" lon="13.2423055"><ele>253.79999999999998</ele><time>2026-04-25T07:29:21.14Z</time></trkpt><trkpt lat="43.1648051" lon="13.2422796"><ele>253.59999999999997</ele><time>2026-04-25T07:29:22.139Z</time></trkpt><trkpt lat="43.1647025" lon="13.242258"><ele>253.4</ele><time>2026-04-25T07:29:23.145Z</time></trkpt><trkpt lat="43.1646088" lon="13.2422316"><ele>253.2</ele><time>2026-04-25T07:29:24.145Z</time></trkpt><trkpt lat="43.164524" lon="13.2422035"><ele>253.0</ele><time>2026-04-25T07:29:25.143Z</time></trkpt><trkpt lat="43.164439" lon="13.2421758"><ele>253.0</ele><time>2026-04-25T07:29:26.144Z</time></trkpt><trkpt lat="43.1643563" lon="13.2421508"><ele>253.0</ele><time>2026-04-25T07:29:27.14Z</time></trkpt><trkpt lat="43.1642713" lon="13.2421307"><ele>253.0</ele><time>2026-04-25T07:29:28.142Z</time></trkpt><trkpt lat="43.1641805" lon="13.2421097"><ele>253.0</ele><time>2026-04-25T07:29:29.141Z</time></trkpt><trkpt lat="43.164063" lon="13.2420859"><ele>253.0</ele><time>2026-04-25T07:29:30.141Z</time></trkpt><trkpt lat="43.1639085" lon="13.2420663"><ele>253.0</ele><time>2026-04-25T07:29:31.139Z</time></trkpt><trkpt lat="43.1637392" lon="13.242076"><ele>253.0</ele><time>2026-04-25T07:29:32.146Z</time></trkpt><trkpt lat="43.1635706" lon="13.2421126"><ele>253.0</ele><time>2026-04-25T07:29:33.135Z</time></trkpt><trkpt lat="43.1634013" lon="13.242136"><ele>253.0</ele><time>2026-04-25T07:29:34.14Z</time></trkpt><trkpt lat="43.1632548" lon="13.2421047"><ele>253.0</ele><time>2026-04-25T07:29:35.141Z</time></trkpt><trkpt lat="43.1631293" lon="13.2419766"><ele>253.0</ele><time>2026-04-25T07:29:36.144Z</time></trkpt><trkpt lat="43.1630265" lon="13.2418046"><ele>254.33333333333331</ele><time>2026-04-25T07:29:37.14Z</time></trkpt><trkpt lat="43.1629393" lon="13.2416274"><ele>255.66666666666669</ele><time>2026-04-25T07:29:38.138Z</time></trkpt><trkpt lat="43.1628273" lon="13.2414228"><ele>257.0</ele><time>2026-04-25T07:29:39.141Z</time></trkpt><trkpt lat="43.1627185" lon="13.2412132"><ele>257.0</ele><time>2026-04-25T07:29:40.138Z</time></trkpt><trkpt lat="43.1626128" lon="13.2410139"><ele>257.0</ele><time>2026-04-25T07:29:41.148Z</time></trkpt><trkpt lat="43.1625104" lon="13.2408452"><ele>257.0</ele><time>2026-04-25T07:29:42.147Z</time></trkpt><trkpt lat="43.1623965" lon="13.2407037"><ele>257.6666666666667</ele><time>2026-04-25T07:29:43.135Z</time></trkpt><trkpt lat="43.1622794" lon="13.2405847"><ele>258.3333333333333</ele><time>2026-04-25T07:29:44.134Z</time></trkpt><trkpt lat="43.1621397" lon="13.2404768"><ele>259.0</ele><time>2026-04-25T07:29:45.144Z</time></trkpt><trkpt lat="43.1619438" lon="13.2403723"><ele>259.0</ele><time>2026-04-25T07:29:46.137Z</time></trkpt><trkpt lat="43.1617161" lon="13.2402365"><ele>259.0</ele><time>2026-04-25T07:29:47.136Z</time></trkpt><trkpt lat="43.1614999" lon="13.240105"><ele>259.66666666666663</ele><time>2026-04-25T07:29:48.132Z</time></trkpt><trkpt lat="43.161312" lon="13.2399923"><ele>260.3333333333333</ele><time>2026-04-25T07:29:49.138Z</time></trkpt><trkpt lat="43.1611254" lon="13.2398851"><ele>261.0</ele><time>2026-04-25T07:29:50.137Z</time></trkpt><trkpt lat="43.1609534" lon="13.2397849"><ele>261.0</ele><time>2026-04-25T07:29:51.146Z</time></trkpt><trkpt lat="43.1607911" lon="13.2396883"><ele>261.0</ele><time>2026-04-25T07:29:52.137Z</time></trkpt><trkpt lat="43.1606468" lon="13.2395914"><ele>261.0</ele><time>2026-04-25T07:29:53.137Z</time></trkpt><trkpt lat="43.1605097" lon="13.2394645"><ele>259.0</ele><time>2026-04-25T07:29:54.148Z</time></trkpt><trkpt lat="43.1603849" lon="13.2393034"><ele>257.0</ele><time>2026-04-25T07:29:55.135Z</time></trkpt><trkpt lat="43.1602932" lon="13.2391192"><ele>255.0</ele><time>2026-04-25T07:29:56.143Z</time></trkpt><trkpt lat="43.1602233" lon="13.2389493"><ele>255.0</ele><time>2026-04-25T07:29:57.14Z</time></trkpt><trkpt lat="43.1601571" lon="13.2387463"><ele>255.0</ele><time>2026-04-25T07:29:58.139Z</time></trkpt><trkpt lat="43.1600845" lon="13.2384605"><ele>255.0</ele><time>2026-04-25T07:29:59.138Z</time></trkpt><trkpt lat="43.16003" lon="13.2381114"><ele>255.0</ele><time>2026-04-25T07:30:00.15Z</time></trkpt><trkpt lat="43.1599709" lon="13.2377255"><ele>255.0</ele><time>2026-04-25T07:30:01.137Z</time></trkpt><trkpt lat="43.1599144" lon="13.2373135"><ele>252.5</ele><time>2026-04-25T07:30:02.142Z</time></trkpt><trkpt lat="43.1598603" lon="13.2369459"><ele>250.0</ele><time>2026-04-25T07:30:03.137Z</time></trkpt><trkpt lat="43.1598107" lon="13.2366028"><ele>251.5</ele><time>2026-04-25T07:30:04.139Z</time></trkpt><trkpt lat="43.159763" lon="13.236273"><ele>253.0</ele><time>2026-04-25T07:30:05.142Z</time></trkpt><trkpt lat="43.1597057" lon="13.235967"><ele>253.0</ele><time>2026-04-25T07:30:06.138Z</time></trkpt><trkpt lat="43.1596257" lon="13.23568"><ele>253.0</ele><time>2026-04-25T07:30:07.142Z</time></trkpt><trkpt lat="43.1595188" lon="13.2353944"><ele>257.5</ele><time>2026-04-25T07:30:08.141Z</time></trkpt><trkpt lat="43.1593896" lon="13.2351201"><ele>262.0</ele><time>2026-04-25T07:30:09.143Z</time></trkpt><trkpt lat="43.1592495" lon="13.2348394"><ele>259.5</ele><time>2026-04-25T07:30:10.145Z</time></trkpt><trkpt lat="43.159104" lon="13.2345379"><ele>257.0</ele><time>2026-04-25T07:30:11.148Z</time></trkpt><trkpt lat="43.1589635" lon="13.2342334"><ele>260.0</ele><time>2026-04-25T07:30:12.134Z</time></trkpt><trkpt lat="43.1588275" lon="13.2339294"><ele>263.0</ele><time>2026-04-25T07:30:13.139Z</time></trkpt><trkpt lat="43.1586876" lon="13.2336195"><ele>263.0</ele><time>2026-04-25T07:30:14.143Z</time></trkpt><trkpt lat="43.1585535" lon="13.2333067"><ele>263.0</ele><time>2026-04-25T07:30:15.136Z</time></trkpt><trkpt lat="43.1584192" lon="13.2330191"><ele>262.0</ele><time>2026-04-25T07:30:16.143Z</time></trkpt><trkpt lat="43.1582794" lon="13.232747"><ele>261.0</ele><time>2026-04-25T07:30:17.146Z</time></trkpt><trkpt lat="43.1581281" lon="13.2324774"><ele>265.5</ele><time>2026-04-25T07:30:18.132Z</time></trkpt><trkpt lat="43.1579648" lon="13.2322156"><ele>270.0</ele><time>2026-04-25T07:30:19.136Z</time></trkpt><trkpt lat="43.1577884" lon="13.2319625"><ele>270.0</ele><time>2026-04-25T07:30:20.139Z</time></trkpt><trkpt lat="43.1576387" lon="13.2317123"><ele>270.0</ele><time>2026-04-25T07:30:21.144Z</time></trkpt><trkpt lat="43.157515" lon="13.2314766"><ele>270.0</ele><time>2026-04-25T07:30:22.141Z</time></trkpt><trkpt lat="43.1574229" lon="13.2312496"><ele>266.3333333333333</ele><time>2026-04-25T07:30:23.135Z</time></trkpt><trkpt lat="43.1573488" lon="13.2310134"><ele>262.66666666666663</ele><time>2026-04-25T07:30:24.141Z</time></trkpt><trkpt lat="43.1572828" lon="13.2307263"><ele>259.0</ele><time>2026-04-25T07:30:25.142Z</time></trkpt><trkpt lat="43.1572171" lon="13.2304123"><ele>259.0</ele><time>2026-04-25T07:30:26.136Z</time></trkpt><trkpt lat="43.1571366" lon="13.2300868"><ele>259.0</ele><time>2026-04-25T07:30:27.138Z</time></trkpt><trkpt lat="43.1570319" lon="13.2297808"><ele>263.0</ele><time>2026-04-25T07:30:28.134Z</time></trkpt><trkpt lat="43.1569129" lon="13.2294659"><ele>267.0</ele><time>2026-04-25T07:30:29.145Z</time></trkpt><trkpt lat="43.1567752" lon="13.2291636"><ele>262.5</ele><time>2026-04-25T07:30:30.136Z</time></trkpt><trkpt lat="43.1566286" lon="13.2288601"><ele>258.0</ele><time>2026-04-25T07:30:31.134Z</time></trkpt><trkpt lat="43.156491" lon="13.2285524"><ele>258.0</ele><time>2026-04-25T07:30:32.137Z</time></trkpt><trkpt lat="43.1563758" lon="13.2282431"><ele>258.0</ele><time>2026-04-25T07:30:33.132Z</time></trkpt><trkpt lat="43.1562743" lon="13.2279496"><ele>261.3333333333333</ele><time>2026-04-25T07:30:34.13Z</time></trkpt><trkpt lat="43.1561769" lon="13.2276834"><ele>264.66666666666663</ele><time>2026-04-25T07:30:35.136Z</time></trkpt><trkpt lat="43.1560838" lon="13.2274466"><ele>268.0</ele><time>2026-04-25T07:30:36.138Z</time></trkpt><trkpt lat="43.1559823" lon="13.2272348"><ele>266.66666666666663</ele><time>2026-04-25T07:30:37.15Z</time></trkpt><trkpt lat="43.1558625" lon="13.2270355"><ele>265.3333333333333</ele><time>2026-04-25T07:30:38.134Z</time></trkpt><trkpt lat="43.1557024" lon="13.226806"><ele>264.0</ele><time>2026-04-25T07:30:39.139Z</time></trkpt><trkpt lat="43.1555162" lon="13.2265445"><ele>266.0</ele><time>2026-04-25T07:30:40.137Z</time></trkpt><trkpt lat="43.1553291" lon="13.2262399"><ele>268.0</ele><time>2026-04-25T07:30:41.135Z</time></trkpt><trkpt lat="43.1551472" lon="13.2259501"><ele>268.0</ele><time>2026-04-25T07:30:42.146Z</time></trkpt><trkpt lat="43.1549808" lon="13.2256879"><ele>268.0</ele><time>2026-04-25T07:30:43.138Z</time></trkpt><trkpt lat="43.1548305" lon="13.2254416"><ele>266.66666666666663</ele><time>2026-04-25T07:30:44.138Z</time></trkpt><trkpt lat="43.1546977" lon="13.2252"><ele>265.3333333333333</ele><time>2026-04-25T07:30:45.136Z</time></trkpt><trkpt lat="43.154597" lon="13.2249498"><ele>264.0</ele><time>2026-04-25T07:30:46.137Z</time></trkpt><trkpt lat="43.1545234" lon="13.2246778"><ele>264.0</ele><time>2026-04-25T07:30:47.14Z</time></trkpt><trkpt lat="43.1544876" lon="13.2243777"><ele>264.0</ele><time>2026-04-25T07:30:48.137Z</time></trkpt><trkpt lat="43.1545024" lon="13.2240747"><ele>264.0</ele><time>2026-04-25T07:30:49.138Z</time></trkpt><trkpt lat="43.1545191" lon="13.2237855"><ele>263.6666666666667</ele><time>2026-04-25T07:30:50.141Z</time></trkpt><trkpt lat="43.1545255" lon="13.2235264"><ele>263.33333333333337</ele><time>2026-04-25T07:30:51.142Z</time></trkpt><trkpt lat="43.1545208" lon="13.2232742"><ele>263.0</ele><time>2026-04-25T07:30:52.142Z</time></trkpt><trkpt lat="43.1545066" lon="13.223034"><ele>264.33333333333337</ele><time>2026-04-25T07:30:53.141Z</time></trkpt><trkpt lat="43.1544637" lon="13.2227904"><ele>265.6666666666667</ele><time>2026-04-25T07:30:54.146Z</time></trkpt><trkpt lat="43.1543997" lon="13.2225424"><ele>267.0</ele><time>2026-04-25T07:30:55.138Z</time></trkpt><trkpt lat="43.1543092" lon="13.2223202"><ele>266.3333333333333</ele><time>2026-04-25T07:30:56.147Z</time></trkpt><trkpt lat="43.1541808" lon="13.2221014"><ele>265.66666666666663</ele><time>2026-04-25T07:30:57.137Z</time></trkpt><trkpt lat="43.1540332" lon="13.2218848"><ele>265.0</ele><time>2026-04-25T07:30:58.145Z</time></trkpt><trkpt lat="43.1538661" lon="13.2216747"><ele>269.0</ele><time>2026-04-25T07:30:59.144Z</time></trkpt><trkpt lat="43.153696" lon="13.2214551"><ele>273.0</ele><time>2026-04-25T07:31:00.144Z</time></trkpt><trkpt lat="43.1535146" lon="13.221243"><ele>273.0</ele><time>2026-04-25T07:31:01.14Z</time></trkpt><trkpt lat="43.1533424" lon="13.2210344"><ele>273.0</ele><time>2026-04-25T07:31:02.144Z</time></trkpt><trkpt lat="43.1531817" lon="13.2208334"><ele>273.0</ele><time>2026-04-25T07:31:03.138Z</time></trkpt><trkpt lat="43.1530336" lon="13.2206465"><ele>273.6666666666667</ele><time>2026-04-25T07:31:04.141Z</time></trkpt><trkpt lat="43.1528963" lon="13.2204779"><ele>274.33333333333337</ele><time>2026-04-25T07:31:05.143Z</time></trkpt><trkpt lat="43.1527688" lon="13.2203221"><ele>275.0</ele><time>2026-04-25T07:31:06.142Z</time></trkpt><trkpt lat="43.1526468" lon="13.2201891"><ele>275.0</ele><time>2026-04-25T07:31:07.143Z</time></trkpt><trkpt lat="43.1525128" lon="13.220078"><ele>275.0</ele><time>2026-04-25T07:31:08.137Z</time></trkpt><trkpt lat="43.1523549" lon="13.2200101"><ele>275.0</ele><time>2026-04-25T07:31:09.142Z</time></trkpt><trkpt lat="43.1521608" lon="13.2199524"><ele>274.6666666666667</ele><time>2026-04-25T07:31:10.142Z</time></trkpt><trkpt lat="43.1519509" lon="13.2198943"><ele>274.3333333333333</ele><time>2026-04-25T07:31:11.137Z</time></trkpt><trkpt lat="43.151738" lon="13.2198052"><ele>274.0</ele><time>2026-04-25T07:31:12.151Z</time></trkpt><trkpt lat="43.151524" lon="13.2196941"><ele>273.66666666666663</ele><time>2026-04-25T07:31:13.141Z</time></trkpt><trkpt lat="43.1513436" lon="13.2195668"><ele>273.3333333333333</ele><time>2026-04-25T07:31:14.142Z</time></trkpt><trkpt lat="43.1511699" lon="13.2194494"><ele>273.0</ele><time>2026-04-25T07:31:15.135Z</time></trkpt><trkpt lat="43.1510001" lon="13.219353"><ele>273.0</ele><time>2026-04-25T07:31:16.143Z</time></trkpt><trkpt lat="43.1508326" lon="13.2192463"><ele>273.0</ele><time>2026-04-25T07:31:17.146Z</time></trkpt><trkpt lat="43.1506966" lon="13.21908"><ele>273.0</ele><time>2026-04-25T07:31:18.141Z</time></trkpt><trkpt lat="43.1505831" lon="13.2188635"><ele>271.3333333333333</ele><time>2026-04-25T07:31:19.142Z</time></trkpt><trkpt lat="43.1504887" lon="13.2186218"><ele>269.66666666666663</ele><time>2026-04-25T07:31:20.146Z</time></trkpt><trkpt lat="43.1504231" lon="13.218339"><ele>268.0</ele><time>2026-04-25T07:31:21.143Z</time></trkpt><trkpt lat="43.1503677" lon="13.2180264"><ele>268.0</ele><time>2026-04-25T07:31:22.146Z</time></trkpt><trkpt lat="43.1503162" lon="13.2177125"><ele>268.0</ele><time>2026-04-25T07:31:23.142Z</time></trkpt><trkpt lat="43.1502601" lon="13.2174026"><ele>271.5</ele><time>2026-04-25T07:31:24.146Z</time></trkpt><trkpt lat="43.1502043" lon="13.2170952"><ele>275.0</ele><time>2026-04-25T07:31:25.152Z</time></trkpt><trkpt lat="43.1501455" lon="13.2167972"><ele>275.0</ele><time>2026-04-25T07:31:26.153Z</time></trkpt><trkpt lat="43.1500934" lon="13.2165179"><ele>275.0</ele><time>2026-04-25T07:31:27.143Z</time></trkpt><trkpt lat="43.1500392" lon="13.2162345"><ele>275.0</ele><time>2026-04-25T07:31:28.135Z</time></trkpt><trkpt lat="43.149989" lon="13.2159378"><ele>275.0</ele><time>2026-04-25T07:31:29.14Z</time></trkpt><trkpt lat="43.1499316" lon="13.2156264"><ele>275.0</ele><time>2026-04-25T07:31:30.138Z</time></trkpt><trkpt lat="43.1498713" lon="13.2153149"><ele>275.0</ele><time>2026-04-25T07:31:31.142Z</time></trkpt><trkpt lat="43.1498157" lon="13.2150132"><ele>275.0</ele><time>2026-04-25T07:31:32.124Z</time></trkpt><trkpt lat="43.1497652" lon="13.214726"><ele>275.0</ele><time>2026-04-25T07:31:33.128Z</time></trkpt><trkpt lat="43.1497148" lon="13.2144548"><ele>275.6666666666667</ele><time>2026-04-25T07:31:34.147Z</time></trkpt><trkpt lat="43.1496706" lon="13.2142016"><ele>276.3333333333333</ele><time>2026-04-25T07:31:35.14Z</time></trkpt><trkpt lat="43.1496336" lon="13.2139702"><ele>277.0</ele><time>2026-04-25T07:31:36.157Z</time></trkpt><trkpt lat="43.1495989" lon="13.2137577"><ele>277.25</ele><time>2026-04-25T07:31:37.142Z</time></trkpt><trkpt lat="43.1495566" lon="13.2135637"><ele>277.5</ele><time>2026-04-25T07:31:38.145Z</time></trkpt><trkpt lat="43.1495007" lon="13.2133809"><ele>277.75</ele><time>2026-04-25T07:31:39.142Z</time></trkpt><trkpt lat="43.1494206" lon="13.2132274"><ele>278.0</ele><time>2026-04-25T07:31:40.15Z</time></trkpt><trkpt lat="43.1493433" lon="13.2130778"><ele>279.33333333333337</ele><time>2026-04-25T07:31:41.143Z</time></trkpt><trkpt lat="43.1492538" lon="13.2129253"><ele>280.6666666666667</ele><time>2026-04-25T07:31:42.14Z</time></trkpt><trkpt lat="43.1491547" lon="13.2127596"><ele>282.0</ele><time>2026-04-25T07:31:43.14Z</time></trkpt><trkpt lat="43.1490467" lon="13.2125656"><ele>281.6666666666667</ele><time>2026-04-25T07:31:44.134Z</time></trkpt><trkpt lat="43.1489185" lon="13.2123594"><ele>281.33333333333337</ele><time>2026-04-25T07:31:45.132Z</time></trkpt><trkpt lat="43.1487722" lon="13.2121518"><ele>281.0</ele><time>2026-04-25T07:31:46.14Z</time></trkpt><trkpt lat="43.1485965" lon="13.2119493"><ele>281.0</ele><time>2026-04-25T07:31:47.14Z</time></trkpt><trkpt lat="43.1484269" lon="13.2117651"><ele>281.0</ele><time>2026-04-25T07:31:48.151Z</time></trkpt><trkpt lat="43.1482761" lon="13.2116075"><ele>281.0</ele><time>2026-04-25T07:31:49.149Z</time></trkpt><trkpt lat="43.1481404" lon="13.2114609"><ele>280.75</ele><time>2026-04-25T07:31:50.14Z</time></trkpt><trkpt lat="43.1480147" lon="13.2113222"><ele>280.5</ele><time>2026-04-25T07:31:51.144Z</time></trkpt><trkpt lat="43.1479116" lon="13.211183"><ele>280.25</ele><time>2026-04-25T07:31:52.139Z</time></trkpt><trkpt lat="43.1478231" lon="13.2110441"><ele>280.0</ele><time>2026-04-25T07:31:53.147Z</time></trkpt><trkpt lat="43.1477481" lon="13.2109199"><ele>280.0</ele><time>2026-04-25T07:31:54.142Z</time></trkpt><trkpt lat="43.1477002" lon="13.210838"><ele>280.0</ele><time>2026-04-25T07:31:55.14Z</time></trkpt><trkpt lat="43.147638" lon="13.2107441"><ele>280.0</ele><time>2026-04-25T07:31:57.129Z</time></trkpt><trkpt lat="43.147606" lon="13.2106518"><ele>280.0</ele><time>2026-04-25T07:32:03.144Z</time></trkpt><trkpt lat="43.1475501" lon="13.2105208"><ele>280.0</ele><time>2026-04-25T07:32:05.138Z</time></trkpt><trkpt lat="43.1475126" lon="13.2104443"><ele>280.0</ele><time>2026-04-25T07:32:06.146Z</time></trkpt><trkpt lat="43.147468" lon="13.2103567"><ele>279.6</ele><time>2026-04-25T07:32:07.138Z</time></trkpt><trkpt lat="43.1474224" lon="13.2102524"><ele>279.2</ele><time>2026-04-25T07:32:08.133Z</time></trkpt><trkpt lat="43.1473667" lon="13.2101179"><ele>278.8</ele><time>2026-04-25T07:32:09.143Z</time></trkpt><trkpt lat="43.1473102" lon="13.2099721"><ele>278.4</ele><time>2026-04-25T07:32:10.148Z</time></trkpt><trkpt lat="43.1472649" lon="13.2098348"><ele>278.0</ele><time>2026-04-25T07:32:11.152Z</time></trkpt><trkpt lat="43.1472232" lon="13.2097006"><ele>279.0</ele><time>2026-04-25T07:32:12.134Z</time></trkpt><trkpt lat="43.1471736" lon="13.2095683"><ele>280.0</ele><time>2026-04-25T07:32:13.148Z</time></trkpt><trkpt lat="43.1471279" lon="13.2094315"><ele>281.0</ele><time>2026-04-25T07:32:14.144Z</time></trkpt><trkpt lat="43.1470798" lon="13.2092984"><ele>282.0</ele><time>2026-04-25T07:32:15.134Z</time></trkpt><trkpt lat="43.1470337" lon="13.2091746"><ele>283.0</ele><time>2026-04-25T07:32:16.138Z</time></trkpt><trkpt lat="43.1469902" lon="13.2090633"><ele>284.16666666666663</ele><time>2026-04-25T07:32:17.139Z</time></trkpt><trkpt lat="43.1469521" lon="13.208952"><ele>285.3333333333333</ele><time>2026-04-25T07:32:18.149Z</time></trkpt><trkpt lat="43.1469161" lon="13.2088496"><ele>286.5</ele><time>2026-04-25T07:32:19.137Z</time></trkpt><trkpt lat="43.1468813" lon="13.2087531"><ele>287.6666666666667</ele><time>2026-04-25T07:32:20.139Z</time></trkpt><trkpt lat="43.1468503" lon="13.2086679"><ele>288.83333333333337</ele><time>2026-04-25T07:32:21.14Z</time></trkpt><trkpt lat="43.1468221" lon="13.2085882"><ele>290.0</ele><time>2026-04-25T07:32:22.143Z</time></trkpt><trkpt lat="43.1467698" lon="13.2084383"><ele>290.0</ele><time>2026-04-25T07:32:24.139Z</time></trkpt><trkpt lat="43.1467409" lon="13.2083607"><ele>290.0</ele><time>2026-04-25T07:32:25.141Z</time></trkpt><trkpt lat="43.1467066" lon="13.2082836"><ele>290.0</ele><time>2026-04-25T07:32:26.138Z</time></trkpt><trkpt lat="43.1466742" lon="13.2082044"><ele>290.0</ele><time>2026-04-25T07:32:27.138Z</time></trkpt><trkpt lat="43.1466401" lon="13.2081217"><ele>290.0</ele><time>2026-04-25T07:32:28.137Z</time></trkpt><trkpt lat="43.1466074" lon="13.2080371"><ele>290.0</ele><time>2026-04-25T07:32:29.143Z</time></trkpt><trkpt lat="43.1465741" lon="13.2079527"><ele>290.0</ele><time>2026-04-25T07:32:30.137Z</time></trkpt><trkpt lat="43.1465442" lon="13.2078609"><ele>290.0</ele><time>2026-04-25T07:32:31.138Z</time></trkpt><trkpt lat="43.1465148" lon="13.2077738"><ele>290.0</ele><time>2026-04-25T07:32:32.142Z</time></trkpt><trkpt lat="43.1464705" lon="13.2076361"><ele>290.0</ele><time>2026-04-25T07:32:34.136Z</time></trkpt><trkpt lat="43.1464338" lon="13.2075227"><ele>290.0</ele><time>2026-04-25T07:32:36.141Z</time></trkpt><trkpt lat="43.1463815" lon="13.2073739"><ele>290.0</ele><time>2026-04-25T07:32:38.14Z</time></trkpt><trkpt lat="43.1463304" lon="13.2072254"><ele>290.0</ele><time>2026-04-25T07:32:40.137Z</time></trkpt><trkpt lat="43.1462902" lon="13.2070494"><ele>290.0</ele><time>2026-04-25T07:32:42.14Z</time></trkpt><trkpt lat="43.1462749" lon="13.2069074"><ele>290.0</ele><time>2026-04-25T07:32:43.14Z</time></trkpt><trkpt lat="43.1462806" lon="13.2067204"><ele>290.0</ele><time>2026-04-25T07:32:44.136Z</time></trkpt><trkpt lat="43.1463" lon="13.2065266"><ele>289.0</ele><time>2026-04-25T07:32:45.137Z</time></trkpt><trkpt lat="43.1463341" lon="13.2063373"><ele>288.0</ele><time>2026-04-25T07:32:46.142Z</time></trkpt><trkpt lat="43.1463839" lon="13.2061516"><ele>287.0</ele><time>2026-04-25T07:32:47.138Z</time></trkpt><trkpt lat="43.1464448" lon="13.2059898"><ele>286.0</ele><time>2026-04-25T07:32:48.137Z</time></trkpt><trkpt lat="43.1465081" lon="13.2058436"><ele>288.75</ele><time>2026-04-25T07:32:49.136Z</time></trkpt><trkpt lat="43.146587" lon="13.2056874"><ele>291.5</ele><time>2026-04-25T07:32:50.134Z</time></trkpt><trkpt lat="43.1466757" lon="13.2055315"><ele>294.25</ele><time>2026-04-25T07:32:51.138Z</time></trkpt><trkpt lat="43.1467612" lon="13.2053602"><ele>297.0</ele><time>2026-04-25T07:32:52.138Z</time></trkpt><trkpt lat="43.146837" lon="13.205172"><ele>297.0</ele><time>2026-04-25T07:32:53.135Z</time></trkpt><trkpt lat="43.1468928" lon="13.20498"><ele>297.0</ele><time>2026-04-25T07:32:54.136Z</time></trkpt><trkpt lat="43.1469268" lon="13.2047764"><ele>297.0</ele><time>2026-04-25T07:32:55.136Z</time></trkpt><trkpt lat="43.1469358" lon="13.204538"><ele>298.0</ele><time>2026-04-25T07:32:56.136Z</time></trkpt><trkpt lat="43.146925" lon="13.2042579"><ele>299.0</ele><time>2026-04-25T07:32:57.142Z</time></trkpt><trkpt lat="43.1469046" lon="13.2039516"><ele>300.0</ele><time>2026-04-25T07:32:58.147Z</time></trkpt><trkpt lat="43.1468763" lon="13.203622"><ele>300.0</ele><time>2026-04-25T07:32:59.145Z</time></trkpt><trkpt lat="43.1468561" lon="13.203288"><ele>300.0</ele><time>2026-04-25T07:33:00.14Z</time></trkpt><trkpt lat="43.1468496" lon="13.2029599"><ele>300.6666666666667</ele><time>2026-04-25T07:33:01.137Z</time></trkpt><trkpt lat="43.1468482" lon="13.2026539"><ele>301.33333333333337</ele><time>2026-04-25T07:33:02.132Z</time></trkpt><trkpt lat="43.1468425" lon="13.2023552"><ele>302.0</ele><time>2026-04-25T07:33:03.146Z</time></trkpt><trkpt lat="43.1468449" lon="13.2020848"><ele>303.0</ele><time>2026-04-25T07:33:04.141Z</time></trkpt><trkpt lat="43.1468428" lon="13.2018458"><ele>304.0</ele><time>2026-04-25T07:33:05.141Z</time></trkpt><trkpt lat="43.1468297" lon="13.2016231"><ele>305.0</ele><time>2026-04-25T07:33:06.141Z</time></trkpt><trkpt lat="43.1468066" lon="13.2014179"><ele>306.6666666666667</ele><time>2026-04-25T07:33:07.137Z</time></trkpt><trkpt lat="43.1467777" lon="13.2012122"><ele>308.3333333333333</ele><time>2026-04-25T07:33:08.14Z</time></trkpt><trkpt lat="43.1467459" lon="13.2010044"><ele>310.0</ele><time>2026-04-25T07:33:09.161Z</time></trkpt><trkpt lat="43.1467054" lon="13.2008077"><ele>307.66666666666663</ele><time>2026-04-25T07:33:10.145Z</time></trkpt><trkpt lat="43.1466348" lon="13.2005833"><ele>305.3333333333333</ele><time>2026-04-25T07:33:11.145Z</time></trkpt><trkpt lat="43.1465481" lon="13.2003267"><ele>303.0</ele><time>2026-04-25T07:33:12.134Z</time></trkpt><trkpt lat="43.1464517" lon="13.2000878"><ele>303.0</ele><time>2026-04-25T07:33:13.143Z</time></trkpt><trkpt lat="43.1463488" lon="13.1998992"><ele>303.0</ele><time>2026-04-25T07:33:14.142Z</time></trkpt><trkpt lat="43.1462301" lon="13.1997392"><ele>303.0</ele><time>2026-04-25T07:33:15.142Z</time></trkpt><trkpt lat="43.1460893" lon="13.1995937"><ele>303.25</ele><time>2026-04-25T07:33:16.14Z</time></trkpt><trkpt lat="43.1459549" lon="13.1994466"><ele>303.5</ele><time>2026-04-25T07:33:17.142Z</time></trkpt><trkpt lat="43.145851" lon="13.1993012"><ele>303.75</ele><time>2026-04-25T07:33:18.136Z</time></trkpt><trkpt lat="43.1457894" lon="13.1991606"><ele>304.0</ele><time>2026-04-25T07:33:19.137Z</time></trkpt><trkpt lat="43.1457741" lon="13.1990363"><ele>305.0</ele><time>2026-04-25T07:33:20.135Z</time></trkpt><trkpt lat="43.1458019" lon="13.1989121"><ele>306.0</ele><time>2026-04-25T07:33:21.137Z</time></trkpt><trkpt lat="43.1458799" lon="13.1987896"><ele>307.0</ele><time>2026-04-25T07:33:22.134Z</time></trkpt><trkpt lat="43.145982" lon="13.1986813"><ele>308.0</ele><time>2026-04-25T07:33:23.155Z</time></trkpt><trkpt lat="43.1460695" lon="13.1985921"><ele>308.0</ele><time>2026-04-25T07:33:24.147Z</time></trkpt><trkpt lat="43.1461269" lon="13.1985119"><ele>308.0</ele><time>2026-04-25T07:33:25.128Z</time></trkpt><trkpt lat="43.1461834" lon="13.1983635"><ele>308.0</ele><time>2026-04-25T07:33:27.134Z</time></trkpt><trkpt lat="43.1461824" lon="13.1982122"><ele>308.0</ele><time>2026-04-25T07:33:29.136Z</time></trkpt><trkpt lat="43.1461239" lon="13.1981203"><ele>308.0</ele><time>2026-04-25T07:33:30.133Z</time></trkpt><trkpt lat="43.1460337" lon="13.1980315"><ele>309.75</ele><time>2026-04-25T07:33:31.133Z</time></trkpt><trkpt lat="43.1459302" lon="13.1979349"><ele>311.5</ele><time>2026-04-25T07:33:32.131Z</time></trkpt><trkpt lat="43.1458076" lon="13.1978214"><ele>313.25</ele><time>2026-04-25T07:33:33.147Z</time></trkpt><trkpt lat="43.1456815" lon="13.197679"><ele>315.0</ele><time>2026-04-25T07:33:34.144Z</time></trkpt><trkpt lat="43.1455662" lon="13.1975082"><ele>310.0</ele><time>2026-04-25T07:33:35.135Z</time></trkpt><trkpt lat="43.1454742" lon="13.197306"><ele>305.0</ele><time>2026-04-25T07:33:36.139Z</time></trkpt><trkpt lat="43.1453973" lon="13.1970517"><ele>300.0</ele><time>2026-04-25T07:33:37.14Z</time></trkpt><trkpt lat="43.1453226" lon="13.1967693"><ele>302.0</ele><time>2026-04-25T07:33:38.138Z</time></trkpt><trkpt lat="43.1452636" lon="13.1964632"><ele>304.0</ele><time>2026-04-25T07:33:39.144Z</time></trkpt><trkpt lat="43.1452039" lon="13.1961328"><ele>304.0</ele><time>2026-04-25T07:33:40.141Z</time></trkpt><trkpt lat="43.1451627" lon="13.1957622"><ele>304.0</ele><time>2026-04-25T07:33:41.132Z</time></trkpt><trkpt lat="43.1451111" lon="13.1953751"><ele>308.0</ele><time>2026-04-25T07:33:42.136Z</time></trkpt><trkpt lat="43.1450508" lon="13.1949767"><ele>312.0</ele><time>2026-04-25T07:33:43.139Z</time></trkpt><trkpt lat="43.1449928" lon="13.1945763"><ele>317.5</ele><time>2026-04-25T07:33:44.138Z</time></trkpt><trkpt lat="43.1449384" lon="13.1941716"><ele>323.0</ele><time>2026-04-25T07:33:45.136Z</time></trkpt><trkpt lat="43.1448852" lon="13.1937723"><ele>315.5</ele><time>2026-04-25T07:33:46.129Z</time></trkpt><trkpt lat="43.1448409" lon="13.1933933"><ele>308.0</ele><time>2026-04-25T07:33:47.145Z</time></trkpt><trkpt lat="43.144801" lon="13.1930291"><ele>308.0</ele><time>2026-04-25T07:33:48.126Z</time></trkpt><trkpt lat="43.1447524" lon="13.192665"><ele>308.0</ele><time>2026-04-25T07:33:49.131Z</time></trkpt><trkpt lat="43.1447066" lon="13.1923144"><ele>307.0</ele><time>2026-04-25T07:33:50.127Z</time></trkpt><trkpt lat="43.1446435" lon="13.1919622"><ele>306.0</ele><time>2026-04-25T07:33:51.141Z</time></trkpt><trkpt lat="43.1445937" lon="13.191597"><ele>307.0</ele><time>2026-04-25T07:33:52.139Z</time></trkpt><trkpt lat="43.1445398" lon="13.1912304"><ele>308.0</ele><time>2026-04-25T07:33:53.145Z</time></trkpt><trkpt lat="43.1444887" lon="13.1908715"><ele>309.0</ele><time>2026-04-25T07:33:54.135Z</time></trkpt><trkpt lat="43.1444336" lon="13.1905201"><ele>310.0</ele><time>2026-04-25T07:33:55.137Z</time></trkpt><trkpt lat="43.1443734" lon="13.1901794"><ele>310.0</ele><time>2026-04-25T07:33:56.135Z</time></trkpt><trkpt lat="43.1443077" lon="13.1898544"><ele>310.0</ele><time>2026-04-25T07:33:57.148Z</time></trkpt><trkpt lat="43.1442344" lon="13.1895425"><ele>312.0</ele><time>2026-04-25T07:33:58.138Z</time></trkpt><trkpt lat="43.144152" lon="13.1892464"><ele>314.0</ele><time>2026-04-25T07:33:59.149Z</time></trkpt><trkpt lat="43.1440558" lon="13.188953"><ele>313.0</ele><time>2026-04-25T07:34:00.14Z</time></trkpt><trkpt lat="43.1439297" lon="13.1886455"><ele>312.0</ele><time>2026-04-25T07:34:01.132Z</time></trkpt><trkpt lat="43.1437739" lon="13.1883366"><ele>313.0</ele><time>2026-04-25T07:34:02.136Z</time></trkpt><trkpt lat="43.1436076" lon="13.188034"><ele>314.0</ele><time>2026-04-25T07:34:03.138Z</time></trkpt><trkpt lat="43.1434391" lon="13.1877403"><ele>314.0</ele><time>2026-04-25T07:34:04.144Z</time></trkpt><trkpt lat="43.1432708" lon="13.1874561"><ele>314.0</ele><time>2026-04-25T07:34:05.139Z</time></trkpt><trkpt lat="43.1430993" lon="13.1871742"><ele>309.5</ele><time>2026-04-25T07:34:06.139Z</time></trkpt><trkpt lat="43.1429212" lon="13.186877"><ele>305.0</ele><time>2026-04-25T07:34:07.139Z</time></trkpt><trkpt lat="43.1427368" lon="13.1865738"><ele>306.5</ele><time>2026-04-25T07:34:08.156Z</time></trkpt><trkpt lat="43.1425611" lon="13.1862541"><ele>308.0</ele><time>2026-04-25T07:34:09.143Z</time></trkpt><trkpt lat="43.1423953" lon="13.1859324"><ele>307.5</ele><time>2026-04-25T07:34:10.145Z</time></trkpt><trkpt lat="43.1422313" lon="13.1856068"><ele>307.0</ele><time>2026-04-25T07:34:11.141Z</time></trkpt><trkpt lat="43.14208" lon="13.1852707"><ele>307.0</ele><time>2026-04-25T07:34:12.138Z</time></trkpt><trkpt lat="43.141933" lon="13.1849273"><ele>307.0</ele><time>2026-04-25T07:34:13.14Z</time></trkpt><trkpt lat="43.1417976" lon="13.1845824"><ele>304.0</ele><time>2026-04-25T07:34:14.143Z</time></trkpt><trkpt lat="43.1416643" lon="13.1842371"><ele>301.0</ele><time>2026-04-25T07:34:15.136Z</time></trkpt><trkpt lat="43.1415423" lon="13.1838861"><ele>301.0</ele><time>2026-04-25T07:34:16.145Z</time></trkpt><trkpt lat="43.1414309" lon="13.1835316"><ele>301.0</ele><time>2026-04-25T07:34:17.137Z</time></trkpt><trkpt lat="43.1413299" lon="13.1831745"><ele>304.5</ele><time>2026-04-25T07:34:18.151Z</time></trkpt><trkpt lat="43.141239" lon="13.1828148"><ele>308.0</ele><time>2026-04-25T07:34:19.132Z</time></trkpt><trkpt lat="43.1411535" lon="13.1824386"><ele>313.0</ele><time>2026-04-25T07:34:20.139Z</time></trkpt><trkpt lat="43.1410763" lon="13.1820542"><ele>318.0</ele><time>2026-04-25T07:34:21.142Z</time></trkpt><trkpt lat="43.1410088" lon="13.1816765"><ele>322.0</ele><time>2026-04-25T07:34:22.135Z</time></trkpt><trkpt lat="43.1409565" lon="13.1813266"><ele>326.0</ele><time>2026-04-25T07:34:23.134Z</time></trkpt><trkpt lat="43.1409048" lon="13.1810053"><ele>326.0</ele><time>2026-04-25T07:34:24.137Z</time></trkpt><trkpt lat="43.1408528" lon="13.1806832"><ele>326.0</ele><time>2026-04-25T07:34:25.137Z</time></trkpt><trkpt lat="43.1407948" lon="13.1803517"><ele>327.5</ele><time>2026-04-25T07:34:26.136Z</time></trkpt><trkpt lat="43.1407409" lon="13.1800143"><ele>329.0</ele><time>2026-04-25T07:34:27.139Z</time></trkpt><trkpt lat="43.1406832" lon="13.1796818"><ele>324.0</ele><time>2026-04-25T07:34:28.139Z</time></trkpt><trkpt lat="43.1406347" lon="13.1793709"><ele>319.0</ele><time>2026-04-25T07:34:29.131Z</time></trkpt><trkpt lat="43.1405797" lon="13.1790938"><ele>314.0</ele><time>2026-04-25T07:34:30.135Z</time></trkpt><trkpt lat="43.1405039" lon="13.1788394"><ele>314.0</ele><time>2026-04-25T07:34:31.132Z</time></trkpt><trkpt lat="43.1404046" lon="13.1785879"><ele>314.0</ele><time>2026-04-25T07:34:32.143Z</time></trkpt><trkpt lat="43.1402932" lon="13.1783344"><ele>314.0</ele><time>2026-04-25T07:34:33.12Z</time></trkpt><trkpt lat="43.1401626" lon="13.1780751"><ele>315.5</ele><time>2026-04-25T07:34:34.134Z</time></trkpt><trkpt lat="43.1399928" lon="13.1778359"><ele>317.0</ele><time>2026-04-25T07:34:35.133Z</time></trkpt><trkpt lat="43.1398168" lon="13.1776066"><ele>310.5</ele><time>2026-04-25T07:34:36.133Z</time></trkpt><trkpt lat="43.1396594" lon="13.1773607"><ele>304.0</ele><time>2026-04-25T07:34:37.139Z</time></trkpt><trkpt lat="43.1395369" lon="13.1770938"><ele>304.0</ele><time>2026-04-25T07:34:38.139Z</time></trkpt><trkpt lat="43.1394354" lon="13.1768117"><ele>304.0</ele><time>2026-04-25T07:34:39.132Z</time></trkpt><trkpt lat="43.1393484" lon="13.1765237"><ele>305.0</ele><time>2026-04-25T07:34:40.136Z</time></trkpt><trkpt lat="43.1392708" lon="13.1762549"><ele>306.0</ele><time>2026-04-25T07:34:41.129Z</time></trkpt><trkpt lat="43.1391909" lon="13.1760019"><ele>307.0</ele><time>2026-04-25T07:34:42.139Z</time></trkpt><trkpt lat="43.1390874" lon="13.1757819"><ele>306.0</ele><time>2026-04-25T07:34:43.125Z</time></trkpt><trkpt lat="43.138969" lon="13.1755747"><ele>305.0</ele><time>2026-04-25T07:34:44.135Z</time></trkpt><trkpt lat="43.1388482" lon="13.1753729"><ele>304.0</ele><time>2026-04-25T07:34:45.138Z</time></trkpt><trkpt lat="43.1387497" lon="13.175159"><ele>304.0</ele><time>2026-04-25T07:34:46.133Z</time></trkpt><trkpt lat="43.1386959" lon="13.1749238"><ele>304.0</ele><time>2026-04-25T07:34:47.139Z</time></trkpt><trkpt lat="43.138692" lon="13.1746724"><ele>304.0</ele><time>2026-04-25T07:34:48.124Z</time></trkpt><trkpt lat="43.138689" lon="13.1743897"><ele>304.5</ele><time>2026-04-25T07:34:49.129Z</time></trkpt><trkpt lat="43.1386785" lon="13.1740751"><ele>305.0</ele><time>2026-04-25T07:34:50.123Z</time></trkpt><trkpt lat="43.1386487" lon="13.1737675"><ele>305.0</ele><time>2026-04-25T07:34:51.135Z</time></trkpt><trkpt lat="43.1386282" lon="13.1734933"><ele>305.0</ele><time>2026-04-25T07:34:52.143Z</time></trkpt><trkpt lat="43.1386168" lon="13.1732798"><ele>305.0</ele><time>2026-04-25T07:34:53.128Z</time></trkpt><trkpt lat="43.1385995" lon="13.1731346"><ele>304.4</ele><time>2026-04-25T07:34:54.139Z</time></trkpt><trkpt lat="43.1385935" lon="13.1730351"><ele>303.8</ele><time>2026-04-25T07:34:55.137Z</time></trkpt><trkpt lat="43.138612" lon="13.1728809"><ele>303.2</ele><time>2026-04-25T07:36:22.134Z</time></trkpt><trkpt lat="43.138618" lon="13.1727332"><ele>302.6</ele><time>2026-04-25T07:36:23.138Z</time></trkpt><trkpt lat="43.1386163" lon="13.1725653"><ele>302.0</ele><time>2026-04-25T07:36:24.138Z</time></trkpt><trkpt lat="43.1386232" lon="13.1723825"><ele>303.25</ele><time>2026-04-25T07:36:25.14Z</time></trkpt><trkpt lat="43.1386283" lon="13.1721951"><ele>304.5</ele><time>2026-04-25T07:36:26.131Z</time></trkpt><trkpt lat="43.1386332" lon="13.1720132"><ele>305.75</ele><time>2026-04-25T07:36:27.133Z</time></trkpt><trkpt lat="43.1386359" lon="13.171829"><ele>307.0</ele><time>2026-04-25T07:36:28.142Z</time></trkpt><trkpt lat="43.1386358" lon="13.1716271"><ele>308.3333333333333</ele><time>2026-04-25T07:36:29.135Z</time></trkpt><trkpt lat="43.1386197" lon="13.1713992"><ele>309.6666666666667</ele><time>2026-04-25T07:36:30.133Z</time></trkpt><trkpt lat="43.1385877" lon="13.1711503"><ele>311.0</ele><time>2026-04-25T07:36:31.134Z</time></trkpt><trkpt lat="43.1385373" lon="13.1708907"><ele>311.33333333333337</ele><time>2026-04-25T07:36:32.138Z</time></trkpt><trkpt lat="43.1384824" lon="13.1706346"><ele>311.6666666666667</ele><time>2026-04-25T07:36:33.139Z</time></trkpt><trkpt lat="43.1384301" lon="13.1703627"><ele>312.0</ele><time>2026-04-25T07:36:34.128Z</time></trkpt><trkpt lat="43.1383694" lon="13.1700722"><ele>315.0</ele><time>2026-04-25T07:36:35.139Z</time></trkpt><trkpt lat="43.1383097" lon="13.1697585"><ele>318.0</ele><time>2026-04-25T07:36:36.128Z</time></trkpt><trkpt lat="43.1382452" lon="13.1694443"><ele>315.3333333333333</ele><time>2026-04-25T07:36:37.138Z</time></trkpt><trkpt lat="43.1381887" lon="13.1691517"><ele>312.66666666666663</ele><time>2026-04-25T07:36:38.131Z</time></trkpt><trkpt lat="43.13814" lon="13.1688653"><ele>310.0</ele><time>2026-04-25T07:36:39.142Z</time></trkpt><trkpt lat="43.138103" lon="13.1685629"><ele>309.5</ele><time>2026-04-25T07:36:40.13Z</time></trkpt><trkpt lat="43.1380644" lon="13.1682544"><ele>309.0</ele><time>2026-04-25T07:36:41.149Z</time></trkpt><trkpt lat="43.1380294" lon="13.1679424"><ele>308.6666666666667</ele><time>2026-04-25T07:36:42.131Z</time></trkpt><trkpt lat="43.1379954" lon="13.167643"><ele>308.33333333333337</ele><time>2026-04-25T07:36:43.134Z</time></trkpt><trkpt lat="43.1379537" lon="13.1673632"><ele>308.0</ele><time>2026-04-25T07:36:44.138Z</time></trkpt><trkpt lat="43.1379011" lon="13.1670894"><ele>307.6666666666667</ele><time>2026-04-25T07:36:45.14Z</time></trkpt><trkpt lat="43.1378626" lon="13.1667967"><ele>307.3333333333333</ele><time>2026-04-25T07:36:46.135Z</time></trkpt><trkpt lat="43.1378494" lon="13.1664985"><ele>307.0</ele><time>2026-04-25T07:36:47.148Z</time></trkpt><trkpt lat="43.1378476" lon="13.1661765"><ele>307.0</ele><time>2026-04-25T07:36:48.148Z</time></trkpt><trkpt lat="43.1378574" lon="13.1658612"><ele>307.0</ele><time>2026-04-25T07:36:49.136Z</time></trkpt><trkpt lat="43.1378631" lon="13.1655743"><ele>307.0</ele><time>2026-04-25T07:36:50.132Z</time></trkpt><trkpt lat="43.1378451" lon="13.1652897"><ele>309.5</ele><time>2026-04-25T07:36:51.134Z</time></trkpt><trkpt lat="43.1378019" lon="13.1649887"><ele>312.0</ele><time>2026-04-25T07:36:52.134Z</time></trkpt><trkpt lat="43.1377584" lon="13.16466"><ele>315.0</ele><time>2026-04-25T07:36:53.134Z</time></trkpt><trkpt lat="43.137724" lon="13.1643316"><ele>318.0</ele><time>2026-04-25T07:36:54.154Z</time></trkpt><trkpt lat="43.1376851" lon="13.1640332"><ele>318.6666666666667</ele><time>2026-04-25T07:36:55.146Z</time></trkpt><trkpt lat="43.1376558" lon="13.1637573"><ele>319.33333333333337</ele><time>2026-04-25T07:36:56.137Z</time></trkpt><trkpt lat="43.1376392" lon="13.1634836"><ele>320.0</ele><time>2026-04-25T07:36:57.136Z</time></trkpt><trkpt lat="43.1376397" lon="13.1632071"><ele>319.33333333333337</ele><time>2026-04-25T07:36:58.132Z</time></trkpt><trkpt lat="43.1376614" lon="13.162925"><ele>318.6666666666667</ele><time>2026-04-25T07:36:59.136Z</time></trkpt><trkpt lat="43.1376741" lon="13.1626511"><ele>318.0</ele><time>2026-04-25T07:37:00.136Z</time></trkpt><trkpt lat="43.1376512" lon="13.1623921"><ele>320.0</ele><time>2026-04-25T07:37:01.139Z</time></trkpt><trkpt lat="43.1376026" lon="13.1621522"><ele>322.0</ele><time>2026-04-25T07:37:02.136Z</time></trkpt><trkpt lat="43.1375394" lon="13.1619358"><ele>324.0</ele><time>2026-04-25T07:37:03.137Z</time></trkpt><trkpt lat="43.1374404" lon="13.1617416"><ele>319.0</ele><time>2026-04-25T07:37:04.134Z</time></trkpt><trkpt lat="43.1373124" lon="13.1615797"><ele>314.0</ele><time>2026-04-25T07:37:05.132Z</time></trkpt><trkpt lat="43.1371737" lon="13.1614247"><ele>309.0</ele><time>2026-04-25T07:37:06.141Z</time></trkpt><trkpt lat="43.1370603" lon="13.1612644"><ele>309.0</ele><time>2026-04-25T07:37:07.128Z</time></trkpt><trkpt lat="43.1369812" lon="13.1611131"><ele>309.0</ele><time>2026-04-25T07:37:08.129Z</time></trkpt><trkpt lat="43.1369486" lon="13.1609403"><ele>309.0</ele><time>2026-04-25T07:37:09.135Z</time></trkpt><trkpt lat="43.1369564" lon="13.1607769"><ele>309.0</ele><time>2026-04-25T07:37:10.134Z</time></trkpt><trkpt lat="43.1369903" lon="13.1606372"><ele>308.75</ele><time>2026-04-25T07:37:11.135Z</time></trkpt><trkpt lat="43.1370607" lon="13.1605408"><ele>308.5</ele><time>2026-04-25T07:37:12.131Z</time></trkpt><trkpt lat="43.1371764" lon="13.1604885"><ele>308.25</ele><time>2026-04-25T07:37:13.13Z</time></trkpt><trkpt lat="43.1373148" lon="13.1604533"><ele>308.0</ele><time>2026-04-25T07:37:14.126Z</time></trkpt><trkpt lat="43.1374884" lon="13.1604306"><ele>308.0</ele><time>2026-04-25T07:37:15.128Z</time></trkpt><trkpt lat="43.1376794" lon="13.1603641"><ele>308.0</ele><time>2026-04-25T07:37:16.132Z</time></trkpt><trkpt lat="43.1378701" lon="13.1602792"><ele>308.0</ele><time>2026-04-25T07:37:17.141Z</time></trkpt><trkpt lat="43.1380431" lon="13.1601987"><ele>308.0</ele><time>2026-04-25T07:37:18.146Z</time></trkpt><trkpt lat="43.1381953" lon="13.1601083"><ele>308.0</ele><time>2026-04-25T07:37:19.142Z</time></trkpt><trkpt lat="43.1383284" lon="13.1600124"><ele>308.0</ele><time>2026-04-25T07:37:20.132Z</time></trkpt><trkpt lat="43.1384449" lon="13.1599095"><ele>308.6666666666667</ele><time>2026-04-25T07:37:21.131Z</time></trkpt><trkpt lat="43.13855" lon="13.1597655"><ele>309.3333333333333</ele><time>2026-04-25T07:37:22.131Z</time></trkpt><trkpt lat="43.1386432" lon="13.159602"><ele>310.0</ele><time>2026-04-25T07:37:23.136Z</time></trkpt><trkpt lat="43.1387144" lon="13.1594202"><ele>310.0</ele><time>2026-04-25T07:37:24.138Z</time></trkpt><trkpt lat="43.13876" lon="13.1592177"><ele>310.0</ele><time>2026-04-25T07:37:25.13Z</time></trkpt><trkpt lat="43.138764" lon="13.1589968"><ele>310.0</ele><time>2026-04-25T07:37:26.13Z</time></trkpt><trkpt lat="43.1387265" lon="13.1587542"><ele>311.0</ele><time>2026-04-25T07:37:27.129Z</time></trkpt><trkpt lat="43.1386738" lon="13.1585303"><ele>312.0</ele><time>2026-04-25T07:37:28.122Z</time></trkpt><trkpt lat="43.1386026" lon="13.1583232"><ele>313.0</ele><time>2026-04-25T07:37:29.136Z</time></trkpt><trkpt lat="43.1384864" lon="13.158143"><ele>313.66666666666663</ele><time>2026-04-25T07:37:30.132Z</time></trkpt><trkpt lat="43.1383327" lon="13.1579813"><ele>314.3333333333333</ele><time>2026-04-25T07:37:31.123Z</time></trkpt><trkpt lat="43.1381454" lon="13.157824"><ele>315.0</ele><time>2026-04-25T07:37:32.138Z</time></trkpt><trkpt lat="43.1379726" lon="13.1576619"><ele>315.0</ele><time>2026-04-25T07:37:33.126Z</time></trkpt><trkpt lat="43.1378191" lon="13.1575284"><ele>315.0</ele><time>2026-04-25T07:37:34.124Z</time></trkpt><trkpt lat="43.1376899" lon="13.1573861"><ele>315.0</ele><time>2026-04-25T07:37:35.134Z</time></trkpt><trkpt lat="43.1376083" lon="13.1572104"><ele>317.3333333333333</ele><time>2026-04-25T07:37:36.132Z</time></trkpt><trkpt lat="43.1375547" lon="13.1570033"><ele>319.66666666666663</ele><time>2026-04-25T07:37:37.13Z</time></trkpt><trkpt lat="43.1375145" lon="13.1567532"><ele>322.0</ele><time>2026-04-25T07:37:38.128Z</time></trkpt><trkpt lat="43.1374819" lon="13.1564682"><ele>324.0</ele><time>2026-04-25T07:37:39.124Z</time></trkpt><trkpt lat="43.1374481" lon="13.1561791"><ele>326.0</ele><time>2026-04-25T07:37:40.13Z</time></trkpt><trkpt lat="43.1374152" lon="13.1558862"><ele>328.0</ele><time>2026-04-25T07:37:41.132Z</time></trkpt><trkpt lat="43.1373814" lon="13.1556205"><ele>323.66666666666663</ele><time>2026-04-25T07:37:42.129Z</time></trkpt><trkpt lat="43.1373529" lon="13.1553819"><ele>319.3333333333333</ele><time>2026-04-25T07:37:43.132Z</time></trkpt><trkpt lat="43.137328" lon="13.1551736"><ele>315.0</ele><time>2026-04-25T07:37:44.144Z</time></trkpt><trkpt lat="43.1372737" lon="13.1550206"><ele>315.0</ele><time>2026-04-25T07:37:45.129Z</time></trkpt><trkpt lat="43.1371813" lon="13.1548871"><ele>315.0</ele><time>2026-04-25T07:37:46.133Z</time></trkpt><trkpt lat="43.1370455" lon="13.1547955"><ele>315.0</ele><time>2026-04-25T07:37:47.131Z</time></trkpt><trkpt lat="43.1369051" lon="13.1547162"><ele>315.0</ele><time>2026-04-25T07:37:48.131Z</time></trkpt><trkpt lat="43.1367454" lon="13.1546794"><ele>320.6666666666667</ele><time>2026-04-25T07:37:49.125Z</time></trkpt><trkpt lat="43.1365503" lon="13.1546691"><ele>326.33333333333337</ele><time>2026-04-25T07:37:50.136Z</time></trkpt><trkpt lat="43.1363434" lon="13.1546741"><ele>332.0</ele><time>2026-04-25T07:37:51.133Z</time></trkpt><trkpt lat="43.1361639" lon="13.1547015"><ele>332.0</ele><time>2026-04-25T07:37:52.131Z</time></trkpt><trkpt lat="43.1360071" lon="13.1547173"><ele>332.0</ele><time>2026-04-25T07:37:53.129Z</time></trkpt><trkpt lat="43.1358719" lon="13.1547038"><ele>332.0</ele><time>2026-04-25T07:37:54.136Z</time></trkpt><trkpt lat="43.1357683" lon="13.1546411"><ele>332.0</ele><time>2026-04-25T07:37:55.129Z</time></trkpt><trkpt lat="43.1357106" lon="13.1545126"><ele>326.33333333333337</ele><time>2026-04-25T07:37:56.129Z</time></trkpt><trkpt lat="43.1357098" lon="13.1543013"><ele>320.6666666666667</ele><time>2026-04-25T07:37:57.128Z</time></trkpt><trkpt lat="43.1357178" lon="13.1540622"><ele>315.0</ele><time>2026-04-25T07:37:58.137Z</time></trkpt><trkpt lat="43.1357187" lon="13.1537923"><ele>315.0</ele><time>2026-04-25T07:37:59.13Z</time></trkpt><trkpt lat="43.1357072" lon="13.1534958"><ele>315.0</ele><time>2026-04-25T07:38:00.144Z</time></trkpt><trkpt lat="43.1356793" lon="13.1532353"><ele>315.0</ele><time>2026-04-25T07:38:01.132Z</time></trkpt><trkpt lat="43.1356391" lon="13.1530125"><ele>315.5</ele><time>2026-04-25T07:38:02.146Z</time></trkpt><trkpt lat="43.1356111" lon="13.1528076"><ele>316.0</ele><time>2026-04-25T07:38:03.133Z</time></trkpt><trkpt lat="43.135601" lon="13.1526095"><ele>316.5</ele><time>2026-04-25T07:38:04.132Z</time></trkpt><trkpt lat="43.1356189" lon="13.1524246"><ele>317.0</ele><time>2026-04-25T07:38:05.13Z</time></trkpt><trkpt lat="43.1356859" lon="13.1522394"><ele>323.0</ele><time>2026-04-25T07:38:06.139Z</time></trkpt><trkpt lat="43.1357554" lon="13.1520352"><ele>329.0</ele><time>2026-04-25T07:38:07.124Z</time></trkpt><trkpt lat="43.1358346" lon="13.1518287"><ele>335.0</ele><time>2026-04-25T07:38:08.133Z</time></trkpt><trkpt lat="43.1359135" lon="13.1516345"><ele>332.33333333333337</ele><time>2026-04-25T07:38:09.132Z</time></trkpt><trkpt lat="43.135989" lon="13.151441"><ele>329.6666666666667</ele><time>2026-04-25T07:38:10.137Z</time></trkpt><trkpt lat="43.1360575" lon="13.1512358"><ele>327.0</ele><time>2026-04-25T07:38:11.126Z</time></trkpt><trkpt lat="43.1361224" lon="13.1509867"><ele>327.0</ele><time>2026-04-25T07:38:12.134Z</time></trkpt><trkpt lat="43.1361832" lon="13.150718"><ele>327.0</ele><time>2026-04-25T07:38:13.131Z</time></trkpt><trkpt lat="43.1362358" lon="13.1504474"><ele>327.0</ele><time>2026-04-25T07:38:14.134Z</time></trkpt><trkpt lat="43.136271" lon="13.1501826"><ele>326.6666666666667</ele><time>2026-04-25T07:38:15.133Z</time></trkpt><trkpt lat="43.1362974" lon="13.149921"><ele>326.33333333333337</ele><time>2026-04-25T07:38:16.132Z</time></trkpt><trkpt lat="43.1363066" lon="13.1496688"><ele>326.0</ele><time>2026-04-25T07:38:17.129Z</time></trkpt><trkpt lat="43.1363133" lon="13.1494098"><ele>326.0</ele><time>2026-04-25T07:38:18.135Z</time></trkpt><trkpt lat="43.1363091" lon="13.1491554"><ele>326.0</ele><time>2026-04-25T07:38:19.126Z</time></trkpt><trkpt lat="43.1362738" lon="13.1489126"><ele>326.0</ele><time>2026-04-25T07:38:20.124Z</time></trkpt><trkpt lat="43.1362008" lon="13.1486429"><ele>329.5</ele><time>2026-04-25T07:38:21.134Z</time></trkpt><trkpt lat="43.1361052" lon="13.1483454"><ele>333.0</ele><time>2026-04-25T07:38:22.129Z</time></trkpt><trkpt lat="43.1360024" lon="13.148041"><ele>339.0</ele><time>2026-04-25T07:38:23.129Z</time></trkpt><trkpt lat="43.1358814" lon="13.1477295"><ele>345.0</ele><time>2026-04-25T07:38:24.132Z</time></trkpt><trkpt lat="43.1357486" lon="13.1474155"><ele>335.5</ele><time>2026-04-25T07:38:25.123Z</time></trkpt><trkpt lat="43.1356204" lon="13.1471046"><ele>326.0</ele><time>2026-04-25T07:38:26.129Z</time></trkpt><trkpt lat="43.1355005" lon="13.1468038"><ele>329.6666666666667</ele><time>2026-04-25T07:38:27.126Z</time></trkpt><trkpt lat="43.1353863" lon="13.1465349"><ele>333.3333333333333</ele><time>2026-04-25T07:38:28.125Z</time></trkpt><trkpt lat="43.1352894" lon="13.1462728"><ele>337.0</ele><time>2026-04-25T07:38:29.131Z</time></trkpt><trkpt lat="43.1351868" lon="13.1460093"><ele>337.0</ele><time>2026-04-25T07:38:30.133Z</time></trkpt><trkpt lat="43.1351" lon="13.1457508"><ele>337.0</ele><time>2026-04-25T07:38:31.126Z</time></trkpt><trkpt lat="43.1350232" lon="13.1455093"><ele>337.0</ele><time>2026-04-25T07:38:32.13Z</time></trkpt><trkpt lat="43.1349376" lon="13.1452828"><ele>338.66666666666663</ele><time>2026-04-25T07:38:33.126Z</time></trkpt><trkpt lat="43.1348262" lon="13.1450587"><ele>340.3333333333333</ele><time>2026-04-25T07:38:34.136Z</time></trkpt><trkpt lat="43.1346919" lon="13.1448114"><ele>342.0</ele><time>2026-04-25T07:38:35.128Z</time></trkpt><trkpt lat="43.1345632" lon="13.1445629"><ele>342.0</ele><time>2026-04-25T07:38:36.137Z</time></trkpt><trkpt lat="43.1344476" lon="13.1443266"><ele>342.0</ele><time>2026-04-25T07:38:37.131Z</time></trkpt><trkpt lat="43.1343324" lon="13.1441245"><ele>342.0</ele><time>2026-04-25T07:38:38.131Z</time></trkpt><trkpt lat="43.1342102" lon="13.143951"><ele>342.6666666666667</ele><time>2026-04-25T07:38:39.125Z</time></trkpt><trkpt lat="43.1340718" lon="13.1438121"><ele>343.33333333333337</ele><time>2026-04-25T07:38:40.13Z</time></trkpt><trkpt lat="43.1339141" lon="13.1436883"><ele>344.0</ele><time>2026-04-25T07:38:41.133Z</time></trkpt><trkpt lat="43.1337447" lon="13.1436006"><ele>344.0</ele><time>2026-04-25T07:38:42.135Z</time></trkpt><trkpt lat="43.1335699" lon="13.1435252"><ele>344.0</ele><time>2026-04-25T07:38:43.127Z</time></trkpt><trkpt lat="43.1334039" lon="13.1434254"><ele>344.0</ele><time>2026-04-25T07:38:44.125Z</time></trkpt><trkpt lat="43.1332484" lon="13.143277"><ele>342.6666666666667</ele><time>2026-04-25T07:38:45.125Z</time></trkpt><trkpt lat="43.1330965" lon="13.1430898"><ele>341.3333333333333</ele><time>2026-04-25T07:38:46.126Z</time></trkpt><trkpt lat="43.1329455" lon="13.1428751"><ele>340.0</ele><time>2026-04-25T07:38:47.123Z</time></trkpt><trkpt lat="43.1328116" lon="13.1426649"><ele>340.0</ele><time>2026-04-25T07:38:48.137Z</time></trkpt><trkpt lat="43.1326818" lon="13.1424757"><ele>340.0</ele><time>2026-04-25T07:38:49.136Z</time></trkpt><trkpt lat="43.132545" lon="13.1423201"><ele>340.0</ele><time>2026-04-25T07:38:50.134Z</time></trkpt><trkpt lat="43.1323844" lon="13.1421814"><ele>337.3333333333333</ele><time>2026-04-25T07:38:51.136Z</time></trkpt><trkpt lat="43.13224" lon="13.1420527"><ele>334.6666666666667</ele><time>2026-04-25T07:38:52.132Z</time></trkpt><trkpt lat="43.1321109" lon="13.1419249"><ele>332.0</ele><time>2026-04-25T07:38:53.132Z</time></trkpt><trkpt lat="43.1320005" lon="13.1417594"><ele>332.0</ele><time>2026-04-25T07:38:54.132Z</time></trkpt><trkpt lat="43.1319032" lon="13.141554"><ele>332.0</ele><time>2026-04-25T07:38:55.139Z</time></trkpt><trkpt lat="43.1317964" lon="13.1413375"><ele>332.0</ele><time>2026-04-25T07:38:56.126Z</time></trkpt><trkpt lat="43.131672" lon="13.1411227"><ele>330.6666666666667</ele><time>2026-04-25T07:38:57.133Z</time></trkpt><trkpt lat="43.1315085" lon="13.1409284"><ele>329.3333333333333</ele><time>2026-04-25T07:38:58.129Z</time></trkpt><trkpt lat="43.1313276" lon="13.1407392"><ele>328.0</ele><time>2026-04-25T07:38:59.137Z</time></trkpt><trkpt lat="43.1311523" lon="13.1405697"><ele>331.3333333333333</ele><time>2026-04-25T07:39:00.13Z</time></trkpt><trkpt lat="43.1309857" lon="13.1404124"><ele>334.6666666666667</ele><time>2026-04-25T07:39:01.137Z</time></trkpt><trkpt lat="43.1308162" lon="13.140281"><ele>338.0</ele><time>2026-04-25T07:39:02.133Z</time></trkpt><trkpt lat="43.1306158" lon="13.140178"><ele>338.0</ele><time>2026-04-25T07:39:03.134Z</time></trkpt><trkpt lat="43.1303971" lon="13.1401001"><ele>338.0</ele><time>2026-04-25T07:39:04.129Z</time></trkpt><trkpt lat="43.1301778" lon="13.1400161"><ele>338.0</ele><time>2026-04-25T07:39:05.132Z</time></trkpt><trkpt lat="43.129966" lon="13.1399211"><ele>338.0</ele><time>2026-04-25T07:39:06.125Z</time></trkpt><trkpt lat="43.1297609" lon="13.1397962"><ele>338.0</ele><time>2026-04-25T07:39:07.143Z</time></trkpt><trkpt lat="43.1295762" lon="13.139648"><ele>337.6666666666667</ele><time>2026-04-25T07:39:08.134Z</time></trkpt><trkpt lat="43.1294198" lon="13.1394727"><ele>337.3333333333333</ele><time>2026-04-25T07:39:09.144Z</time></trkpt><trkpt lat="43.1293141" lon="13.1392404"><ele>337.0</ele><time>2026-04-25T07:39:10.141Z</time></trkpt><trkpt lat="43.1292134" lon="13.1389736"><ele>331.5</ele><time>2026-04-25T07:39:11.132Z</time></trkpt><trkpt lat="43.1290973" lon="13.1386932"><ele>326.0</ele><time>2026-04-25T07:39:12.134Z</time></trkpt><trkpt lat="43.1289761" lon="13.1384129"><ele>328.33333333333337</ele><time>2026-04-25T07:39:13.133Z</time></trkpt><trkpt lat="43.1288564" lon="13.1381466"><ele>330.6666666666667</ele><time>2026-04-25T07:39:14.129Z</time></trkpt><trkpt lat="43.1287664" lon="13.1378935"><ele>333.0</ele><time>2026-04-25T07:39:15.13Z</time></trkpt><trkpt lat="43.1286879" lon="13.1376424"><ele>333.0</ele><time>2026-04-25T07:39:16.135Z</time></trkpt><trkpt lat="43.1286164" lon="13.1374075"><ele>333.0</ele><time>2026-04-25T07:39:17.132Z</time></trkpt><trkpt lat="43.1285326" lon="13.1371915"><ele>333.0</ele><time>2026-04-25T07:39:18.14Z</time></trkpt><trkpt lat="43.1284421" lon="13.1370038"><ele>330.6666666666667</ele><time>2026-04-25T07:39:19.132Z</time></trkpt><trkpt lat="43.1282921" lon="13.1368473"><ele>328.33333333333337</ele><time>2026-04-25T07:39:20.128Z</time></trkpt><trkpt lat="43.1281367" lon="13.1367127"><ele>326.0</ele><time>2026-04-25T07:39:21.137Z</time></trkpt><trkpt lat="43.1279965" lon="13.1365781"><ele>327.0</ele><time>2026-04-25T07:39:22.133Z</time></trkpt><trkpt lat="43.127899" lon="13.136395"><ele>328.0</ele><time>2026-04-25T07:39:23.132Z</time></trkpt><trkpt lat="43.1278487" lon="13.1361572"><ele>329.0</ele><time>2026-04-25T07:39:24.139Z</time></trkpt><trkpt lat="43.1278197" lon="13.135897"><ele>330.0</ele><time>2026-04-25T07:39:25.131Z</time></trkpt><trkpt lat="43.1277961" lon="13.1356462"><ele>331.0</ele><time>2026-04-25T07:39:26.132Z</time></trkpt><trkpt lat="43.1277369" lon="13.1354193"><ele>332.0</ele><time>2026-04-25T07:39:27.134Z</time></trkpt><trkpt lat="43.1276531" lon="13.135207"><ele>332.0</ele><time>2026-04-25T07:39:28.133Z</time></trkpt><trkpt lat="43.1275307" lon="13.1350071"><ele>332.0</ele><time>2026-04-25T07:39:29.132Z</time></trkpt><trkpt lat="43.1273623" lon="13.1348071"><ele>332.0</ele><time>2026-04-25T07:39:30.13Z</time></trkpt><trkpt lat="43.1271693" lon="13.1345917"><ele>331.5</ele><time>2026-04-25T07:39:31.14Z</time></trkpt><trkpt lat="43.1269785" lon="13.1343604"><ele>331.0</ele><time>2026-04-25T07:39:32.134Z</time></trkpt><trkpt lat="43.1267959" lon="13.1341433"><ele>333.3333333333333</ele><time>2026-04-25T07:39:33.133Z</time></trkpt><trkpt lat="43.1266277" lon="13.1339511"><ele>335.6666666666667</ele><time>2026-04-25T07:39:34.124Z</time></trkpt><trkpt lat="43.12647" lon="13.1337684"><ele>338.0</ele><time>2026-04-25T07:39:35.135Z</time></trkpt><trkpt lat="43.1263012" lon="13.1336053"><ele>338.0</ele><time>2026-04-25T07:39:36.126Z</time></trkpt><trkpt lat="43.1261166" lon="13.1334521"><ele>338.0</ele><time>2026-04-25T07:39:37.133Z</time></trkpt><trkpt lat="43.1259188" lon="13.1333209"><ele>338.0</ele><time>2026-04-25T07:39:38.127Z</time></trkpt><trkpt lat="43.1257315" lon="13.133199"><ele>353.0</ele><time>2026-04-25T07:39:39.136Z</time></trkpt><trkpt lat="43.1255685" lon="13.1330812"><ele>368.0</ele><time>2026-04-25T07:39:40.13Z</time></trkpt><trkpt lat="43.1254099" lon="13.1329997"><ele>383.0</ele><time>2026-04-25T07:39:41.126Z</time></trkpt><trkpt lat="43.1252636" lon="13.1329298"><ele>383.0</ele><time>2026-04-25T07:39:42.125Z</time></trkpt><trkpt lat="43.1251371" lon="13.1328774"><ele>383.0</ele><time>2026-04-25T07:39:43.139Z</time></trkpt><trkpt lat="43.1250269" lon="13.1329045"><ele>383.0</ele><time>2026-04-25T07:39:44.126Z</time></trkpt><trkpt lat="43.1249197" lon="13.1330097"><ele>383.0</ele><time>2026-04-25T07:39:45.129Z</time></trkpt><trkpt lat="43.1248135" lon="13.1331852"><ele>382.0</ele><time>2026-04-25T07:39:46.131Z</time></trkpt><trkpt lat="43.1247147" lon="13.1333712"><ele>381.0</ele><time>2026-04-25T07:39:47.125Z</time></trkpt><trkpt lat="43.1246516" lon="13.1335704"><ele>380.0</ele><time>2026-04-25T07:39:48.132Z</time></trkpt><trkpt lat="43.1246169" lon="13.1337687"><ele>380.0</ele><time>2026-04-25T07:39:49.131Z</time></trkpt><trkpt lat="43.1246312" lon="13.1339886"><ele>380.0</ele><time>2026-04-25T07:39:50.129Z</time></trkpt><trkpt lat="43.1246617" lon="13.1341855"><ele>380.0</ele><time>2026-04-25T07:39:51.123Z</time></trkpt><trkpt lat="43.1246712" lon="13.1343414"><ele>380.0</ele><time>2026-04-25T07:39:52.134Z</time></trkpt><trkpt lat="43.1246169" lon="13.1344618"><ele>372.75</ele><time>2026-04-25T07:39:53.124Z</time></trkpt><trkpt lat="43.1245138" lon="13.1345303"><ele>365.5</ele><time>2026-04-25T07:39:54.136Z</time></trkpt><trkpt lat="43.1243914" lon="13.1345252"><ele>358.25</ele><time>2026-04-25T07:39:55.129Z</time></trkpt><trkpt lat="43.1242435" lon="13.1344615"><ele>351.0</ele><time>2026-04-25T07:39:56.138Z</time></trkpt><trkpt lat="43.1240716" lon="13.1344143"><ele>351.6666666666667</ele><time>2026-04-25T07:39:57.136Z</time></trkpt><trkpt lat="43.1238643" lon="13.1343921"><ele>352.33333333333337</ele><time>2026-04-25T07:39:58.136Z</time></trkpt><trkpt lat="43.1236344" lon="13.1344079"><ele>353.0</ele><time>2026-04-25T07:39:59.137Z</time></trkpt><trkpt lat="43.1233917" lon="13.1344362"><ele>356.33333333333337</ele><time>2026-04-25T07:40:00.14Z</time></trkpt><trkpt lat="43.1231649" lon="13.1344562"><ele>359.6666666666667</ele><time>2026-04-25T07:40:01.131Z</time></trkpt><trkpt lat="43.1229528" lon="13.1344745"><ele>363.0</ele><time>2026-04-25T07:40:02.129Z</time></trkpt><trkpt lat="43.1227416" lon="13.1344928"><ele>363.0</ele><time>2026-04-25T07:40:03.127Z</time></trkpt><trkpt lat="43.1225226" lon="13.1345242"><ele>363.0</ele><time>2026-04-25T07:40:04.127Z</time></trkpt><trkpt lat="43.122302" lon="13.1345673"><ele>363.0</ele><time>2026-04-25T07:40:05.142Z</time></trkpt><trkpt lat="43.1220625" lon="13.1346416"><ele>365.0</ele><time>2026-04-25T07:40:06.135Z</time></trkpt><trkpt lat="43.1218244" lon="13.1347143"><ele>367.0</ele><time>2026-04-25T07:40:07.127Z</time></trkpt><trkpt lat="43.1216126" lon="13.1347698"><ele>363.0</ele><time>2026-04-25T07:40:08.128Z</time></trkpt><trkpt lat="43.12143" lon="13.1348084"><ele>359.0</ele><time>2026-04-25T07:40:09.133Z</time></trkpt><trkpt lat="43.1212586" lon="13.1348273"><ele>355.0</ele><time>2026-04-25T07:40:10.124Z</time></trkpt><trkpt lat="43.1210726" lon="13.1347907"><ele>355.0</ele><time>2026-04-25T07:40:11.13Z</time></trkpt><trkpt lat="43.1208893" lon="13.13472"><ele>355.0</ele><time>2026-04-25T07:40:12.124Z</time></trkpt><trkpt lat="43.1207242" lon="13.134633"><ele>355.0</ele><time>2026-04-25T07:40:13.126Z</time></trkpt><trkpt lat="43.1205741" lon="13.1345441"><ele>351.0</ele><time>2026-04-25T07:40:14.132Z</time></trkpt><trkpt lat="43.1204518" lon="13.1344499"><ele>347.0</ele><time>2026-04-25T07:40:15.126Z</time></trkpt><trkpt lat="43.1203654" lon="13.1343085"><ele>343.0</ele><time>2026-04-25T07:40:16.139Z</time></trkpt><trkpt lat="43.1203257" lon="13.1341242"><ele>339.0</ele><time>2026-04-25T07:40:17.131Z</time></trkpt><trkpt lat="43.120349" lon="13.1339181"><ele>339.0</ele><time>2026-04-25T07:40:18.136Z</time></trkpt><trkpt lat="43.1203958" lon="13.133693"><ele>339.0</ele><time>2026-04-25T07:40:19.129Z</time></trkpt><trkpt lat="43.1204427" lon="13.1334536"><ele>339.0</ele><time>2026-04-25T07:40:20.132Z</time></trkpt><trkpt lat="43.120486" lon="13.1331993"><ele>338.3333333333333</ele><time>2026-04-25T07:40:21.133Z</time></trkpt><trkpt lat="43.1205077" lon="13.132946"><ele>337.66666666666663</ele><time>2026-04-25T07:40:22.14Z</time></trkpt><trkpt lat="43.120507" lon="13.1327122"><ele>337.0</ele><time>2026-04-25T07:40:23.133Z</time></trkpt><trkpt lat="43.1204918" lon="13.1325082"><ele>338.25</ele><time>2026-04-25T07:40:24.132Z</time></trkpt><trkpt lat="43.1204626" lon="13.1323196"><ele>339.5</ele><time>2026-04-25T07:40:25.14Z</time></trkpt><trkpt lat="43.1203847" lon="13.1321589"><ele>340.75</ele><time>2026-04-25T07:40:26.145Z</time></trkpt><trkpt lat="43.1202576" lon="13.1320122"><ele>342.0</ele><time>2026-04-25T07:40:27.132Z</time></trkpt><trkpt lat="43.120064" lon="13.1318636"><ele>342.0</ele><time>2026-04-25T07:40:28.145Z</time></trkpt><trkpt lat="43.1198572" lon="13.1316816"><ele>342.0</ele><time>2026-04-25T07:40:29.138Z</time></trkpt><trkpt lat="43.1196475" lon="13.1314989"><ele>342.0</ele><time>2026-04-25T07:40:30.133Z</time></trkpt><trkpt lat="43.1194593" lon="13.131324"><ele>342.0</ele><time>2026-04-25T07:40:31.142Z</time></trkpt><trkpt lat="43.1192835" lon="13.1311627"><ele>342.0</ele><time>2026-04-25T07:40:32.129Z</time></trkpt><trkpt lat="43.1191139" lon="13.13102"><ele>342.0</ele><time>2026-04-25T07:40:33.133Z</time></trkpt><trkpt lat="43.1189441" lon="13.1308549"><ele>342.0</ele><time>2026-04-25T07:40:34.14Z</time></trkpt><trkpt lat="43.1187775" lon="13.130649"><ele>342.0</ele><time>2026-04-25T07:40:35.126Z</time></trkpt><trkpt lat="43.1186147" lon="13.1304104"><ele>342.0</ele><time>2026-04-25T07:40:36.138Z</time></trkpt><trkpt lat="43.1184456" lon="13.1301488"><ele>342.0</ele><time>2026-04-25T07:40:37.138Z</time></trkpt><trkpt lat="43.1182757" lon="13.1298984"><ele>342.6666666666667</ele><time>2026-04-25T07:40:38.129Z</time></trkpt><trkpt lat="43.1181176" lon="13.1296819"><ele>343.33333333333337</ele><time>2026-04-25T07:40:39.139Z</time></trkpt><trkpt lat="43.1179824" lon="13.1294785"><ele>344.0</ele><time>2026-04-25T07:40:40.154Z</time></trkpt><trkpt lat="43.1178526" lon="13.1293099"><ele>344.0</ele><time>2026-04-25T07:40:41.137Z</time></trkpt><trkpt lat="43.1177415" lon="13.1291439"><ele>344.0</ele><time>2026-04-25T07:40:42.144Z</time></trkpt><trkpt lat="43.1176554" lon="13.1289572"><ele>344.0</ele><time>2026-04-25T07:40:43.133Z</time></trkpt><trkpt lat="43.1175895" lon="13.1287007"><ele>344.0</ele><time>2026-04-25T07:40:44.14Z</time></trkpt><trkpt lat="43.1175507" lon="13.1284202"><ele>344.0</ele><time>2026-04-25T07:40:45.135Z</time></trkpt><trkpt lat="43.1174863" lon="13.128146"><ele>344.0</ele><time>2026-04-25T07:40:46.146Z</time></trkpt><trkpt lat="43.1173961" lon="13.1278717"><ele>344.0</ele><time>2026-04-25T07:40:47.135Z</time></trkpt><trkpt lat="43.1173026" lon="13.1276296"><ele>344.0</ele><time>2026-04-25T07:40:48.136Z</time></trkpt><trkpt lat="43.1171904" lon="13.1274183"><ele>344.0</ele><time>2026-04-25T07:40:49.133Z</time></trkpt><trkpt lat="43.1170835" lon="13.1272521"><ele>346.5</ele><time>2026-04-25T07:40:50.132Z</time></trkpt><trkpt lat="43.1169642" lon="13.1271255"><ele>349.0</ele><time>2026-04-25T07:40:51.139Z</time></trkpt><trkpt lat="43.1168473" lon="13.1270308"><ele>351.5</ele><time>2026-04-25T07:40:52.139Z</time></trkpt><trkpt lat="43.1167208" lon="13.127011"><ele>354.0</ele><time>2026-04-25T07:40:53.133Z</time></trkpt><trkpt lat="43.1165607" lon="13.1270469"><ele>355.6666666666667</ele><time>2026-04-25T07:40:54.135Z</time></trkpt><trkpt lat="43.1164077" lon="13.12716"><ele>357.33333333333337</ele><time>2026-04-25T07:40:55.134Z</time></trkpt><trkpt lat="43.1162487" lon="13.1273125"><ele>359.0</ele><time>2026-04-25T07:40:56.149Z</time></trkpt><trkpt lat="43.1160712" lon="13.1274745"><ele>355.33333333333337</ele><time>2026-04-25T07:40:57.133Z</time></trkpt><trkpt lat="43.1159095" lon="13.1276314"><ele>351.6666666666667</ele><time>2026-04-25T07:40:58.135Z</time></trkpt><trkpt lat="43.1157636" lon="13.1277993"><ele>348.0</ele><time>2026-04-25T07:40:59.139Z</time></trkpt><trkpt lat="43.1156293" lon="13.1279423"><ele>346.6666666666667</ele><time>2026-04-25T07:41:00.133Z</time></trkpt><trkpt lat="43.1154881" lon="13.1280355"><ele>345.33333333333337</ele><time>2026-04-25T07:41:01.132Z</time></trkpt><trkpt lat="43.1153267" lon="13.1280598"><ele>344.0</ele><time>2026-04-25T07:41:02.132Z</time></trkpt><trkpt lat="43.1151423" lon="13.128028"><ele>344.0</ele><time>2026-04-25T07:41:03.122Z</time></trkpt><trkpt lat="43.1149534" lon="13.1279723"><ele>344.0</ele><time>2026-04-25T07:41:04.138Z</time></trkpt><trkpt lat="43.1147675" lon="13.1279382"><ele>344.0</ele><time>2026-04-25T07:41:05.134Z</time></trkpt><trkpt lat="43.1145838" lon="13.1279086"><ele>345.0</ele><time>2026-04-25T07:41:06.132Z</time></trkpt><trkpt lat="43.1144062" lon="13.1278815"><ele>346.0</ele><time>2026-04-25T07:41:07.136Z</time></trkpt><trkpt lat="43.1142278" lon="13.1278422"><ele>347.0</ele><time>2026-04-25T07:41:08.13Z</time></trkpt><trkpt lat="43.1140292" lon="13.1277797"><ele>348.0</ele><time>2026-04-25T07:41:09.137Z</time></trkpt><trkpt lat="43.113817" lon="13.1276982"><ele>349.0</ele><time>2026-04-25T07:41:10.137Z</time></trkpt><trkpt lat="43.1135958" lon="13.1276159"><ele>349.0</ele><time>2026-04-25T07:41:11.135Z</time></trkpt><trkpt lat="43.1133706" lon="13.1275324"><ele>349.0</ele><time>2026-04-25T07:41:12.133Z</time></trkpt><trkpt lat="43.1131597" lon="13.1274477"><ele>351.66666666666663</ele><time>2026-04-25T07:41:13.135Z</time></trkpt><trkpt lat="43.112972" lon="13.1273781"><ele>354.3333333333333</ele><time>2026-04-25T07:41:14.142Z</time></trkpt><trkpt lat="43.1127849" lon="13.1273063"><ele>357.0</ele><time>2026-04-25T07:41:15.13Z</time></trkpt><trkpt lat="43.1125932" lon="13.127237"><ele>360.3333333333333</ele><time>2026-04-25T07:41:16.133Z</time></trkpt><trkpt lat="43.1123999" lon="13.12717"><ele>363.66666666666663</ele><time>2026-04-25T07:41:17.136Z</time></trkpt><trkpt lat="43.1122055" lon="13.1271066"><ele>367.0</ele><time>2026-04-25T07:41:18.144Z</time></trkpt><trkpt lat="43.1120168" lon="13.1270545"><ele>367.0</ele><time>2026-04-25T07:41:19.128Z</time></trkpt><trkpt lat="43.1118384" lon="13.1270165"><ele>367.0</ele><time>2026-04-25T07:41:20.145Z</time></trkpt><trkpt lat="43.1116723" lon="13.1269872"><ele>367.0</ele><time>2026-04-25T07:41:21.129Z</time></trkpt><trkpt lat="43.1115083" lon="13.1269693"><ele>366.3333333333333</ele><time>2026-04-25T07:41:22.142Z</time></trkpt><trkpt lat="43.1113458" lon="13.1269632"><ele>365.6666666666667</ele><time>2026-04-25T07:41:23.134Z</time></trkpt><trkpt lat="43.1111851" lon="13.1269571"><ele>365.0</ele><time>2026-04-25T07:41:24.132Z</time></trkpt><trkpt lat="43.1110292" lon="13.1269468"><ele>365.0</ele><time>2026-04-25T07:41:25.139Z</time></trkpt><trkpt lat="43.1108815" lon="13.1269437"><ele>365.0</ele><time>2026-04-25T07:41:26.132Z</time></trkpt><trkpt lat="43.1107451" lon="13.1269371"><ele>365.0</ele><time>2026-04-25T07:41:27.135Z</time></trkpt><trkpt lat="43.1106277" lon="13.1269324"><ele>365.0</ele><time>2026-04-25T07:41:28.127Z</time></trkpt><trkpt lat="43.1105342" lon="13.1269243"><ele>362.2</ele><time>2026-04-25T07:41:29.135Z</time></trkpt><trkpt lat="43.110464" lon="13.1269066"><ele>359.4</ele><time>2026-04-25T07:41:30.134Z</time></trkpt><trkpt lat="43.1103607" lon="13.1268903"><ele>356.6</ele><time>2026-04-25T07:41:32.127Z</time></trkpt><trkpt lat="43.1102939" lon="13.1268482"><ele>353.8</ele><time>2026-04-25T07:41:35.142Z</time></trkpt><trkpt lat="43.1101924" lon="13.1268392"><ele>351.0</ele><time>2026-04-25T07:41:46.141Z</time></trkpt><trkpt lat="43.1100872" lon="13.1268851"><ele>351.0</ele><time>2026-04-25T07:41:47.137Z</time></trkpt><trkpt lat="43.1099681" lon="13.1269509"><ele>351.0</ele><time>2026-04-25T07:41:48.135Z</time></trkpt><trkpt lat="43.1098247" lon="13.1270235"><ele>351.0</ele><time>2026-04-25T07:41:49.126Z</time></trkpt><trkpt lat="43.1096634" lon="13.1271011"><ele>351.75</ele><time>2026-04-25T07:41:50.128Z</time></trkpt><trkpt lat="43.1095112" lon="13.1271792"><ele>352.5</ele><time>2026-04-25T07:41:51.137Z</time></trkpt><trkpt lat="43.1093847" lon="13.1272592"><ele>353.25</ele><time>2026-04-25T07:41:52.139Z</time></trkpt><trkpt lat="43.1092865" lon="13.1273503"><ele>354.0</ele><time>2026-04-25T07:41:53.133Z</time></trkpt><trkpt lat="43.1092019" lon="13.1274813"><ele>354.0</ele><time>2026-04-25T07:41:54.13Z</time></trkpt><trkpt lat="43.1091456" lon="13.1276449"><ele>354.0</ele><time>2026-04-25T07:41:55.134Z</time></trkpt><trkpt lat="43.1091071" lon="13.1278317"><ele>354.0</ele><time>2026-04-25T07:41:56.133Z</time></trkpt><trkpt lat="43.1090604" lon="13.12802"><ele>354.0</ele><time>2026-04-25T07:41:57.123Z</time></trkpt><trkpt lat="43.1090108" lon="13.1281667"><ele>358.25</ele><time>2026-04-25T07:41:58.132Z</time></trkpt><trkpt lat="43.1089365" lon="13.1282782"><ele>362.5</ele><time>2026-04-25T07:41:59.132Z</time></trkpt><trkpt lat="43.1088452" lon="13.1283603"><ele>366.75</ele><time>2026-04-25T07:42:00.135Z</time></trkpt><trkpt lat="43.1087473" lon="13.1284015"><ele>371.0</ele><time>2026-04-25T07:42:01.133Z</time></trkpt><trkpt lat="43.108613" lon="13.128416"><ele>371.0</ele><time>2026-04-25T07:42:02.136Z</time></trkpt><trkpt lat="43.1084287" lon="13.128421"><ele>371.0</ele><time>2026-04-25T07:42:03.133Z</time></trkpt><trkpt lat="43.1082358" lon="13.1284181"><ele>371.0</ele><time>2026-04-25T07:42:04.132Z</time></trkpt><trkpt lat="43.1080658" lon="13.1284256"><ele>372.33333333333337</ele><time>2026-04-25T07:42:05.128Z</time></trkpt><trkpt lat="43.1079086" lon="13.1284327"><ele>373.6666666666667</ele><time>2026-04-25T07:42:06.13Z</time></trkpt><trkpt lat="43.1077547" lon="13.1284341"><ele>375.0</ele><time>2026-04-25T07:42:07.117Z</time></trkpt><trkpt lat="43.1075919" lon="13.1284275"><ele>375.0</ele><time>2026-04-25T07:42:08.128Z</time></trkpt><trkpt lat="43.1074236" lon="13.1284247"><ele>375.0</ele><time>2026-04-25T07:42:09.135Z</time></trkpt><trkpt lat="43.1072317" lon="13.1284324"><ele>375.0</ele><time>2026-04-25T07:42:10.132Z</time></trkpt><trkpt lat="43.1070097" lon="13.1284508"><ele>374.5</ele><time>2026-04-25T07:42:11.132Z</time></trkpt><trkpt lat="43.1067647" lon="13.128479"><ele>374.0</ele><time>2026-04-25T07:42:12.126Z</time></trkpt><trkpt lat="43.1065202" lon="13.1285162"><ele>372.5</ele><time>2026-04-25T07:42:13.126Z</time></trkpt><trkpt lat="43.1062593" lon="13.1285732"><ele>371.0</ele><time>2026-04-25T07:42:14.126Z</time></trkpt><trkpt lat="43.1059963" lon="13.128642"><ele>371.0</ele><time>2026-04-25T07:42:15.123Z</time></trkpt><trkpt lat="43.1057614" lon="13.1287205"><ele>371.0</ele><time>2026-04-25T07:42:16.127Z</time></trkpt><trkpt lat="43.1055486" lon="13.1288139"><ele>370.33333333333337</ele><time>2026-04-25T07:42:17.124Z</time></trkpt><trkpt lat="43.1053604" lon="13.1288901"><ele>369.6666666666667</ele><time>2026-04-25T07:42:18.132Z</time></trkpt><trkpt lat="43.1051899" lon="13.1289643"><ele>369.0</ele><time>2026-04-25T07:42:19.13Z</time></trkpt><trkpt lat="43.1050396" lon="13.1290199"><ele>367.25</ele><time>2026-04-25T07:42:20.129Z</time></trkpt><trkpt lat="43.1049016" lon="13.1290149"><ele>365.5</ele><time>2026-04-25T07:42:21.141Z</time></trkpt><trkpt lat="43.1047735" lon="13.1289582"><ele>363.75</ele><time>2026-04-25T07:42:22.127Z</time></trkpt><trkpt lat="43.1046366" lon="13.1288627"><ele>362.0</ele><time>2026-04-25T07:42:23.119Z</time></trkpt><trkpt lat="43.1044779" lon="13.1287492"><ele>362.0</ele><time>2026-04-25T07:42:24.126Z</time></trkpt><trkpt lat="43.1042802" lon="13.1286321"><ele>362.0</ele><time>2026-04-25T07:42:25.14Z</time></trkpt><trkpt lat="43.104062" lon="13.1285305"><ele>362.0</ele><time>2026-04-25T07:42:26.139Z</time></trkpt><trkpt lat="43.1038447" lon="13.1284474"><ele>361.6666666666667</ele><time>2026-04-25T07:42:27.133Z</time></trkpt><trkpt lat="43.1036421" lon="13.1283811"><ele>361.3333333333333</ele><time>2026-04-25T07:42:28.137Z</time></trkpt><trkpt lat="43.1034492" lon="13.1283296"><ele>361.0</ele><time>2026-04-25T07:42:29.129Z</time></trkpt><trkpt lat="43.1032566" lon="13.1282786"><ele>360.66666666666663</ele><time>2026-04-25T07:42:30.139Z</time></trkpt><trkpt lat="43.1030381" lon="13.1282391"><ele>360.3333333333333</ele><time>2026-04-25T07:42:31.125Z</time></trkpt><trkpt lat="43.1028104" lon="13.1282218"><ele>360.0</ele><time>2026-04-25T07:42:32.125Z</time></trkpt><trkpt lat="43.1025882" lon="13.1282056"><ele>364.3333333333333</ele><time>2026-04-25T07:42:33.129Z</time></trkpt><trkpt lat="43.1023934" lon="13.1281947"><ele>368.66666666666663</ele><time>2026-04-25T07:42:34.129Z</time></trkpt><trkpt lat="43.1022155" lon="13.1281902"><ele>373.0</ele><time>2026-04-25T07:42:35.128Z</time></trkpt><trkpt lat="43.1020457" lon="13.1282005"><ele>369.66666666666663</ele><time>2026-04-25T07:42:36.128Z</time></trkpt><trkpt lat="43.1018877" lon="13.1282496"><ele>366.3333333333333</ele><time>2026-04-25T07:42:37.13Z</time></trkpt><trkpt lat="43.1017212" lon="13.1283469"><ele>363.0</ele><time>2026-04-25T07:42:38.121Z</time></trkpt><trkpt lat="43.1015434" lon="13.1284376"><ele>362.3333333333333</ele><time>2026-04-25T07:42:39.127Z</time></trkpt><trkpt lat="43.1013792" lon="13.1284244"><ele>361.66666666666663</ele><time>2026-04-25T07:42:40.126Z</time></trkpt><trkpt lat="43.1012435" lon="13.1283143"><ele>361.0</ele><time>2026-04-25T07:42:41.127Z</time></trkpt><trkpt lat="43.1011177" lon="13.1281548"><ele>361.0</ele><time>2026-04-25T07:42:42.133Z</time></trkpt><trkpt lat="43.1009804" lon="13.1279699"><ele>361.0</ele><time>2026-04-25T07:42:43.124Z</time></trkpt><trkpt lat="43.1008221" lon="13.1277524"><ele>361.0</ele><time>2026-04-25T07:42:44.128Z</time></trkpt><trkpt lat="43.1006654" lon="13.1275399"><ele>363.0</ele><time>2026-04-25T07:42:45.128Z</time></trkpt><trkpt lat="43.100517" lon="13.1273273"><ele>365.0</ele><time>2026-04-25T07:42:46.134Z</time></trkpt><trkpt lat="43.1003786" lon="13.127126"><ele>367.0</ele><time>2026-04-25T07:42:47.13Z</time></trkpt><trkpt lat="43.1002455" lon="13.1269221"><ele>367.0</ele><time>2026-04-25T07:42:48.126Z</time></trkpt><trkpt lat="43.100119" lon="13.1267251"><ele>367.0</ele><time>2026-04-25T07:42:49.134Z</time></trkpt><trkpt lat="43.1000004" lon="13.1265294"><ele>367.0</ele><time>2026-04-25T07:42:50.122Z</time></trkpt><trkpt lat="43.099893" lon="13.1263452"><ele>367.66666666666663</ele><time>2026-04-25T07:42:51.135Z</time></trkpt><trkpt lat="43.0997865" lon="13.1261637"><ele>368.3333333333333</ele><time>2026-04-25T07:42:52.131Z</time></trkpt><trkpt lat="43.09968" lon="13.1259861"><ele>369.0</ele><time>2026-04-25T07:42:53.136Z</time></trkpt><trkpt lat="43.0995841" lon="13.1258217"><ele>371.3333333333333</ele><time>2026-04-25T07:42:54.13Z</time></trkpt><trkpt lat="43.0995006" lon="13.1256608"><ele>373.66666666666663</ele><time>2026-04-25T07:42:55.131Z</time></trkpt><trkpt lat="43.0994491" lon="13.1254792"><ele>376.0</ele><time>2026-04-25T07:42:56.138Z</time></trkpt><trkpt lat="43.0994198" lon="13.1252452"><ele>376.0</ele><time>2026-04-25T07:42:57.125Z</time></trkpt><trkpt lat="43.0993907" lon="13.1250104"><ele>376.0</ele><time>2026-04-25T07:42:58.154Z</time></trkpt><trkpt lat="43.0993575" lon="13.1247943"><ele>376.0</ele><time>2026-04-25T07:42:59.133Z</time></trkpt><trkpt lat="43.0993041" lon="13.1246287"><ele>376.3333333333333</ele><time>2026-04-25T07:43:00.135Z</time></trkpt><trkpt lat="43.0991941" lon="13.1244973"><ele>376.6666666666667</ele><time>2026-04-25T07:43:01.141Z</time></trkpt><trkpt lat="43.0990435" lon="13.1243515"><ele>377.0</ele><time>2026-04-25T07:43:02.145Z</time></trkpt><trkpt lat="43.0988676" lon="13.1242015"><ele>385.5</ele><time>2026-04-25T07:43:03.125Z</time></trkpt><trkpt lat="43.0986759" lon="13.124034"><ele>394.0</ele><time>2026-04-25T07:43:04.127Z</time></trkpt><trkpt lat="43.0984759" lon="13.1238517"><ele>394.0</ele><time>2026-04-25T07:43:05.124Z</time></trkpt><trkpt lat="43.0982751" lon="13.1236745"><ele>394.0</ele><time>2026-04-25T07:43:06.133Z</time></trkpt><trkpt lat="43.0980775" lon="13.123503"><ele>397.0</ele><time>2026-04-25T07:43:07.129Z</time></trkpt><trkpt lat="43.0978855" lon="13.1233298"><ele>400.0</ele><time>2026-04-25T07:43:08.14Z</time></trkpt><trkpt lat="43.0977081" lon="13.1231655"><ele>403.0</ele><time>2026-04-25T07:43:09.132Z</time></trkpt><trkpt lat="43.0975375" lon="13.1230069"><ele>398.0</ele><time>2026-04-25T07:43:10.124Z</time></trkpt><trkpt lat="43.097373" lon="13.1228771"><ele>393.0</ele><time>2026-04-25T07:43:11.135Z</time></trkpt><trkpt lat="43.0972149" lon="13.122765"><ele>388.0</ele><time>2026-04-25T07:43:12.135Z</time></trkpt><trkpt lat="43.0970483" lon="13.1227002"><ele>388.0</ele><time>2026-04-25T07:43:13.143Z</time></trkpt><trkpt lat="43.0968536" lon="13.1226719"><ele>388.0</ele><time>2026-04-25T07:43:14.126Z</time></trkpt><trkpt lat="43.0966256" lon="13.1226858"><ele>388.0</ele><time>2026-04-25T07:43:15.129Z</time></trkpt><trkpt lat="43.0963811" lon="13.1227053"><ele>384.0</ele><time>2026-04-25T07:43:16.125Z</time></trkpt><trkpt lat="43.0961357" lon="13.1227298"><ele>380.0</ele><time>2026-04-25T07:43:17.137Z</time></trkpt><trkpt lat="43.095882" lon="13.1227326"><ele>378.0</ele><time>2026-04-25T07:43:18.134Z</time></trkpt><trkpt lat="43.0956396" lon="13.1227079"><ele>376.0</ele><time>2026-04-25T07:43:19.135Z</time></trkpt><trkpt lat="43.0953998" lon="13.1226571"><ele>376.0</ele><time>2026-04-25T07:43:20.128Z</time></trkpt><trkpt lat="43.0951493" lon="13.1225924"><ele>376.0</ele><time>2026-04-25T07:43:21.134Z</time></trkpt><trkpt lat="43.0949031" lon="13.1224968"><ele>384.5</ele><time>2026-04-25T07:43:22.137Z</time></trkpt><trkpt lat="43.0946616" lon="13.1223756"><ele>393.0</ele><time>2026-04-25T07:43:23.131Z</time></trkpt><trkpt lat="43.0944482" lon="13.1222446"><ele>393.0</ele><time>2026-04-25T07:43:24.145Z</time></trkpt><trkpt lat="43.0942544" lon="13.1221151"><ele>393.0</ele><time>2026-04-25T07:43:25.132Z</time></trkpt><trkpt lat="43.0940612" lon="13.1219752"><ele>393.0</ele><time>2026-04-25T07:43:26.134Z</time></trkpt><trkpt lat="43.0938644" lon="13.1218314"><ele>392.5</ele><time>2026-04-25T07:43:27.128Z</time></trkpt><trkpt lat="43.0936652" lon="13.1216827"><ele>392.0</ele><time>2026-04-25T07:43:28.135Z</time></trkpt><trkpt lat="43.0934671" lon="13.1215313"><ele>392.0</ele><time>2026-04-25T07:43:29.126Z</time></trkpt><trkpt lat="43.0932732" lon="13.1213828"><ele>392.0</ele><time>2026-04-25T07:43:30.141Z</time></trkpt><trkpt lat="43.0930927" lon="13.1212433"><ele>392.0</ele><time>2026-04-25T07:43:31.136Z</time></trkpt><trkpt lat="43.0929221" lon="13.1211003"><ele>390.66666666666663</ele><time>2026-04-25T07:43:32.135Z</time></trkpt><trkpt lat="43.0927591" lon="13.1209745"><ele>389.33333333333337</ele><time>2026-04-25T07:43:33.126Z</time></trkpt><trkpt lat="43.0926017" lon="13.1208561"><ele>388.0</ele><time>2026-04-25T07:43:34.128Z</time></trkpt><trkpt lat="43.0924536" lon="13.1207274"><ele>384.33333333333337</ele><time>2026-04-25T07:43:35.137Z</time></trkpt><trkpt lat="43.0923322" lon="13.1205789"><ele>380.6666666666667</ele><time>2026-04-25T07:43:36.13Z</time></trkpt><trkpt lat="43.092244" lon="13.1203949"><ele>377.0</ele><time>2026-04-25T07:43:37.138Z</time></trkpt><trkpt lat="43.0921788" lon="13.1201769"><ele>377.0</ele><time>2026-04-25T07:43:38.133Z</time></trkpt><trkpt lat="43.0921387" lon="13.1199347"><ele>377.0</ele><time>2026-04-25T07:43:39.123Z</time></trkpt><trkpt lat="43.092118" lon="13.1196964"><ele>377.0</ele><time>2026-04-25T07:43:40.131Z</time></trkpt><trkpt lat="43.0921064" lon="13.1194708"><ele>376.6666666666667</ele><time>2026-04-25T07:43:41.132Z</time></trkpt><trkpt lat="43.0920907" lon="13.1192592"><ele>376.3333333333333</ele><time>2026-04-25T07:43:42.135Z</time></trkpt><trkpt lat="43.0920542" lon="13.1190653"><ele>376.0</ele><time>2026-04-25T07:43:43.136Z</time></trkpt><trkpt lat="43.0919773" lon="13.1188634"><ele>377.0</ele><time>2026-04-25T07:43:44.132Z</time></trkpt><trkpt lat="43.0918835" lon="13.1186628"><ele>378.0</ele><time>2026-04-25T07:43:45.135Z</time></trkpt><trkpt lat="43.0917925" lon="13.1184652"><ele>379.0</ele><time>2026-04-25T07:43:46.137Z</time></trkpt><trkpt lat="43.0917103" lon="13.1182753"><ele>379.0</ele><time>2026-04-25T07:43:47.143Z</time></trkpt><trkpt lat="43.0915979" lon="13.1180823"><ele>379.0</ele><time>2026-04-25T07:43:48.127Z</time></trkpt><trkpt lat="43.091475" lon="13.1178921"><ele>379.0</ele><time>2026-04-25T07:43:49.127Z</time></trkpt><trkpt lat="43.0913481" lon="13.1176958"><ele>379.0</ele><time>2026-04-25T07:43:50.14Z</time></trkpt><trkpt lat="43.0912338" lon="13.1175091"><ele>379.0</ele><time>2026-04-25T07:43:51.14Z</time></trkpt><trkpt lat="43.0911262" lon="13.1173394"><ele>379.0</ele><time>2026-04-25T07:43:52.146Z</time></trkpt><trkpt lat="43.0910438" lon="13.117173"><ele>379.66666666666663</ele><time>2026-04-25T07:43:53.139Z</time></trkpt><trkpt lat="43.0909861" lon="13.1169804"><ele>380.3333333333333</ele><time>2026-04-25T07:43:54.131Z</time></trkpt><trkpt lat="43.0909666" lon="13.1167529"><ele>381.0</ele><time>2026-04-25T07:43:55.145Z</time></trkpt><trkpt lat="43.0909666" lon="13.1164802"><ele>381.3333333333333</ele><time>2026-04-25T07:43:56.133Z</time></trkpt><trkpt lat="43.0909696" lon="13.1162032"><ele>381.66666666666663</ele><time>2026-04-25T07:43:57.133Z</time></trkpt><trkpt lat="43.0909703" lon="13.1159127"><ele>382.0</ele><time>2026-04-25T07:43:58.142Z</time></trkpt><trkpt lat="43.090968" lon="13.1156066"><ele>383.0</ele><time>2026-04-25T07:43:59.131Z</time></trkpt><trkpt lat="43.0909716" lon="13.1152807"><ele>384.0</ele><time>2026-04-25T07:44:00.133Z</time></trkpt><trkpt lat="43.0909749" lon="13.1149473"><ele>384.5</ele><time>2026-04-25T07:44:01.149Z</time></trkpt><trkpt lat="43.0909762" lon="13.1146052"><ele>385.0</ele><time>2026-04-25T07:44:02.134Z</time></trkpt><trkpt lat="43.0909786" lon="13.1142668"><ele>385.0</ele><time>2026-04-25T07:44:03.14Z</time></trkpt><trkpt lat="43.0909821" lon="13.1139408"><ele>385.0</ele><time>2026-04-25T07:44:04.131Z</time></trkpt><trkpt lat="43.0909797" lon="13.1136233"><ele>385.0</ele><time>2026-04-25T07:44:05.143Z</time></trkpt><trkpt lat="43.0909597" lon="13.1133137"><ele>385.0</ele><time>2026-04-25T07:44:06.138Z</time></trkpt><trkpt lat="43.0909258" lon="13.1130106"><ele>385.5</ele><time>2026-04-25T07:44:07.138Z</time></trkpt><trkpt lat="43.0908727" lon="13.1127084"><ele>386.0</ele><time>2026-04-25T07:44:08.138Z</time></trkpt><trkpt lat="43.0908038" lon="13.1123868"><ele>385.5</ele><time>2026-04-25T07:44:09.139Z</time></trkpt><trkpt lat="43.0907099" lon="13.1120669"><ele>385.0</ele><time>2026-04-25T07:44:10.145Z</time></trkpt><trkpt lat="43.0905953" lon="13.1117606"><ele>390.0</ele><time>2026-04-25T07:44:11.141Z</time></trkpt><trkpt lat="43.09046" lon="13.1114789"><ele>395.0</ele><time>2026-04-25T07:44:12.129Z</time></trkpt><trkpt lat="43.0903077" lon="13.1112184"><ele>395.0</ele><time>2026-04-25T07:44:13.133Z</time></trkpt><trkpt lat="43.0901441" lon="13.110982"><ele>395.0</ele><time>2026-04-25T07:44:14.134Z</time></trkpt><trkpt lat="43.0899801" lon="13.1107761"><ele>396.0</ele><time>2026-04-25T07:44:15.138Z</time></trkpt><trkpt lat="43.0898265" lon="13.1105856"><ele>397.0</ele><time>2026-04-25T07:44:16.147Z</time></trkpt><trkpt lat="43.0896928" lon="13.1103997"><ele>398.0</ele><time>2026-04-25T07:44:17.143Z</time></trkpt><trkpt lat="43.0895883" lon="13.1101721"><ele>401.0</ele><time>2026-04-25T07:44:18.136Z</time></trkpt><trkpt lat="43.0895217" lon="13.1099016"><ele>404.0</ele><time>2026-04-25T07:44:19.129Z</time></trkpt><trkpt lat="43.0894617" lon="13.1096173"><ele>407.0</ele><time>2026-04-25T07:44:20.134Z</time></trkpt><trkpt lat="43.0894202" lon="13.1093296"><ele>405.5</ele><time>2026-04-25T07:44:21.135Z</time></trkpt><trkpt lat="43.0893957" lon="13.1090245"><ele>404.0</ele><time>2026-04-25T07:44:22.134Z</time></trkpt><trkpt lat="43.0893702" lon="13.108714"><ele>404.0</ele><time>2026-04-25T07:44:23.124Z</time></trkpt><trkpt lat="43.0893281" lon="13.1084333"><ele>404.0</ele><time>2026-04-25T07:44:24.137Z</time></trkpt><trkpt lat="43.0892716" lon="13.1081501"><ele>404.0</ele><time>2026-04-25T07:44:25.134Z</time></trkpt><trkpt lat="43.0891862" lon="13.1078532"><ele>404.0</ele><time>2026-04-25T07:44:26.131Z</time></trkpt><trkpt lat="43.0890638" lon="13.1075375"><ele>404.0</ele><time>2026-04-25T07:44:27.138Z</time></trkpt><trkpt lat="43.088923" lon="13.1071866"><ele>404.0</ele><time>2026-04-25T07:44:28.138Z</time></trkpt><trkpt lat="43.0887768" lon="13.1068181"><ele>404.0</ele><time>2026-04-25T07:44:29.144Z</time></trkpt><trkpt lat="43.0886327" lon="13.1064437"><ele>404.5</ele><time>2026-04-25T07:44:30.135Z</time></trkpt><trkpt lat="43.0884935" lon="13.1060745"><ele>405.0</ele><time>2026-04-25T07:44:31.146Z</time></trkpt><trkpt lat="43.0883675" lon="13.105728"><ele>401.5</ele><time>2026-04-25T07:44:32.139Z</time></trkpt><trkpt lat="43.0882588" lon="13.1054203"><ele>398.0</ele><time>2026-04-25T07:44:33.135Z</time></trkpt><trkpt lat="43.0881487" lon="13.1051039"><ele>398.5</ele><time>2026-04-25T07:44:34.139Z</time></trkpt><trkpt lat="43.0880397" lon="13.1047884"><ele>399.0</ele><time>2026-04-25T07:44:35.14Z</time></trkpt><trkpt lat="43.0879238" lon="13.1044698"><ele>399.0</ele><time>2026-04-25T07:44:36.134Z</time></trkpt><trkpt lat="43.0878043" lon="13.1041477"><ele>399.0</ele><time>2026-04-25T07:44:37.137Z</time></trkpt><trkpt lat="43.0876808" lon="13.1038321"><ele>399.0</ele><time>2026-04-25T07:44:38.142Z</time></trkpt><trkpt lat="43.0875506" lon="13.1035163"><ele>399.0</ele><time>2026-04-25T07:44:39.14Z</time></trkpt><trkpt lat="43.0874141" lon="13.1032015"><ele>399.0</ele><time>2026-04-25T07:44:40.138Z</time></trkpt><trkpt lat="43.087263" lon="13.1028893"><ele>399.0</ele><time>2026-04-25T07:44:41.144Z</time></trkpt><trkpt lat="43.087101" lon="13.102575"><ele>402.0</ele><time>2026-04-25T07:44:42.14Z</time></trkpt><trkpt lat="43.0869358" lon="13.1022589"><ele>405.0</ele><time>2026-04-25T07:44:43.132Z</time></trkpt><trkpt lat="43.0867474" lon="13.1019399"><ele>404.0</ele><time>2026-04-25T07:44:44.14Z</time></trkpt><trkpt lat="43.0865555" lon="13.1016225"><ele>403.0</ele><time>2026-04-25T07:44:45.138Z</time></trkpt><trkpt lat="43.0863641" lon="13.1013021"><ele>403.0</ele><time>2026-04-25T07:44:46.141Z</time></trkpt><trkpt lat="43.0861673" lon="13.1009884"><ele>403.0</ele><time>2026-04-25T07:44:47.133Z</time></trkpt><trkpt lat="43.085966" lon="13.1006957"><ele>401.5</ele><time>2026-04-25T07:44:48.136Z</time></trkpt><trkpt lat="43.0857698" lon="13.1004214"><ele>400.0</ele><time>2026-04-25T07:44:49.142Z</time></trkpt><trkpt lat="43.0855964" lon="13.1001653"><ele>403.5</ele><time>2026-04-25T07:44:50.135Z</time></trkpt><trkpt lat="43.085427" lon="13.0999141"><ele>407.0</ele><time>2026-04-25T07:44:51.137Z</time></trkpt><trkpt lat="43.0852697" lon="13.0996482"><ele>407.0</ele><time>2026-04-25T07:44:52.149Z</time></trkpt><trkpt lat="43.0851212" lon="13.0993691"><ele>407.0</ele><time>2026-04-25T07:44:53.14Z</time></trkpt><trkpt lat="43.0849819" lon="13.0990763"><ele>403.0</ele><time>2026-04-25T07:44:54.137Z</time></trkpt><trkpt lat="43.0848452" lon="13.0987813"><ele>399.0</ele><time>2026-04-25T07:44:55.141Z</time></trkpt><trkpt lat="43.0847171" lon="13.0984873"><ele>402.0</ele><time>2026-04-25T07:44:56.135Z</time></trkpt><trkpt lat="43.0846034" lon="13.0982023"><ele>405.0</ele><time>2026-04-25T07:44:57.136Z</time></trkpt><trkpt lat="43.0844954" lon="13.0979226"><ele>405.0</ele><time>2026-04-25T07:44:58.14Z</time></trkpt><trkpt lat="43.0843605" lon="13.097631"><ele>405.0</ele><time>2026-04-25T07:44:59.138Z</time></trkpt><trkpt lat="43.0842102" lon="13.0973347"><ele>403.0</ele><time>2026-04-25T07:45:00.133Z</time></trkpt><trkpt lat="43.0840383" lon="13.0970511"><ele>401.0</ele><time>2026-04-25T07:45:01.148Z</time></trkpt><trkpt lat="43.0838521" lon="13.0967969"><ele>410.0</ele><time>2026-04-25T07:45:02.138Z</time></trkpt><trkpt lat="43.0836733" lon="13.0965777"><ele>419.0</ele><time>2026-04-25T07:45:03.129Z</time></trkpt><trkpt lat="43.0834861" lon="13.0963757"><ele>419.0</ele><time>2026-04-25T07:45:04.129Z</time></trkpt><trkpt lat="43.083296" lon="13.0961973"><ele>419.0</ele><time>2026-04-25T07:45:05.136Z</time></trkpt><trkpt lat="43.0831143" lon="13.0960316"><ele>419.0</ele><time>2026-04-25T07:45:06.134Z</time></trkpt><trkpt lat="43.0829573" lon="13.0958492"><ele>413.3333333333333</ele><time>2026-04-25T07:45:07.137Z</time></trkpt><trkpt lat="43.0828121" lon="13.0956336"><ele>407.66666666666663</ele><time>2026-04-25T07:45:08.143Z</time></trkpt><trkpt lat="43.0826931" lon="13.0953949"><ele>402.0</ele><time>2026-04-25T07:45:09.139Z</time></trkpt><trkpt lat="43.0826324" lon="13.0951068"><ele>404.0</ele><time>2026-04-25T07:45:10.136Z</time></trkpt><trkpt lat="43.0826073" lon="13.0947912"><ele>406.0</ele><time>2026-04-25T07:45:11.139Z</time></trkpt><trkpt lat="43.0825758" lon="13.094475"><ele>406.0</ele><time>2026-04-25T07:45:12.129Z</time></trkpt><trkpt lat="43.0825143" lon="13.0941619"><ele>406.0</ele><time>2026-04-25T07:45:13.128Z</time></trkpt><trkpt lat="43.0824214" lon="13.0938543"><ele>405.0</ele><time>2026-04-25T07:45:14.127Z</time></trkpt><trkpt lat="43.0823037" lon="13.0935331"><ele>404.0</ele><time>2026-04-25T07:45:15.145Z</time></trkpt><trkpt lat="43.0821846" lon="13.0932205"><ele>404.0</ele><time>2026-04-25T07:45:16.136Z</time></trkpt><trkpt lat="43.082073" lon="13.0929187"><ele>404.0</ele><time>2026-04-25T07:45:17.147Z</time></trkpt><trkpt lat="43.0819719" lon="13.0926471"><ele>406.3333333333333</ele><time>2026-04-25T07:45:18.138Z</time></trkpt><trkpt lat="43.081879" lon="13.0923809"><ele>408.66666666666663</ele><time>2026-04-25T07:45:19.136Z</time></trkpt><trkpt lat="43.0817926" lon="13.0921149"><ele>411.0</ele><time>2026-04-25T07:45:20.136Z</time></trkpt><trkpt lat="43.0816954" lon="13.0918275"><ele>409.5</ele><time>2026-04-25T07:45:21.129Z</time></trkpt><trkpt lat="43.0815974" lon="13.0915185"><ele>408.0</ele><time>2026-04-25T07:45:22.144Z</time></trkpt><trkpt lat="43.0815097" lon="13.0912106"><ele>408.0</ele><time>2026-04-25T07:45:23.135Z</time></trkpt><trkpt lat="43.081433" lon="13.0909207"><ele>408.0</ele><time>2026-04-25T07:45:24.134Z</time></trkpt><trkpt lat="43.0813628" lon="13.0906508"><ele>408.0</ele><time>2026-04-25T07:45:25.129Z</time></trkpt><trkpt lat="43.0812721" lon="13.0903633"><ele>408.5</ele><time>2026-04-25T07:45:26.139Z</time></trkpt><trkpt lat="43.0811644" lon="13.0900125"><ele>409.0</ele><time>2026-04-25T07:45:27.138Z</time></trkpt><trkpt lat="43.081053" lon="13.0896145"><ele>410.0</ele><time>2026-04-25T07:45:28.145Z</time></trkpt><trkpt lat="43.0809448" lon="13.0892123"><ele>411.0</ele><time>2026-04-25T07:45:29.147Z</time></trkpt><trkpt lat="43.08086" lon="13.08883"><ele>408.5</ele><time>2026-04-25T07:45:30.132Z</time></trkpt><trkpt lat="43.08076" lon="13.0884711"><ele>406.0</ele><time>2026-04-25T07:45:31.148Z</time></trkpt><trkpt lat="43.0806639" lon="13.0881158"><ele>406.0</ele><time>2026-04-25T07:45:32.13Z</time></trkpt><trkpt lat="43.0805507" lon="13.0877547"><ele>406.0</ele><time>2026-04-25T07:45:33.138Z</time></trkpt><trkpt lat="43.0804353" lon="13.0873934"><ele>406.0</ele><time>2026-04-25T07:45:34.137Z</time></trkpt><trkpt lat="43.0803278" lon="13.0870336"><ele>406.0</ele><time>2026-04-25T07:45:35.135Z</time></trkpt><trkpt lat="43.0802252" lon="13.0866728"><ele>406.0</ele><time>2026-04-25T07:45:36.146Z</time></trkpt><trkpt lat="43.0801174" lon="13.0863189"><ele>406.0</ele><time>2026-04-25T07:45:37.134Z</time></trkpt><trkpt lat="43.0800122" lon="13.0859621"><ele>406.5</ele><time>2026-04-25T07:45:38.129Z</time></trkpt><trkpt lat="43.0798991" lon="13.0855916"><ele>407.0</ele><time>2026-04-25T07:45:39.132Z</time></trkpt><trkpt lat="43.0797843" lon="13.0852177"><ele>408.5</ele><time>2026-04-25T07:45:40.143Z</time></trkpt><trkpt lat="43.0796759" lon="13.0848528"><ele>410.0</ele><time>2026-04-25T07:45:41.141Z</time></trkpt><trkpt lat="43.0795778" lon="13.0845274"><ele>410.0</ele><time>2026-04-25T07:45:42.138Z</time></trkpt><trkpt lat="43.0794899" lon="13.0842332"><ele>410.0</ele><time>2026-04-25T07:45:43.128Z</time></trkpt><trkpt lat="43.0794138" lon="13.083957"><ele>410.0</ele><time>2026-04-25T07:45:44.139Z</time></trkpt><trkpt lat="43.0793459" lon="13.0837033"><ele>410.3333333333333</ele><time>2026-04-25T07:45:45.137Z</time></trkpt><trkpt lat="43.0792854" lon="13.0834655"><ele>410.66666666666663</ele><time>2026-04-25T07:45:46.141Z</time></trkpt><trkpt lat="43.0792269" lon="13.0832268"><ele>411.0</ele><time>2026-04-25T07:45:47.138Z</time></trkpt><trkpt lat="43.0791726" lon="13.0829907"><ele>411.0</ele><time>2026-04-25T07:45:48.143Z</time></trkpt><trkpt lat="43.079119" lon="13.0827457"><ele>411.0</ele><time>2026-04-25T07:45:49.138Z</time></trkpt><trkpt lat="43.0790657" lon="13.0824887"><ele>411.0</ele><time>2026-04-25T07:45:50.13Z</time></trkpt><trkpt lat="43.0790128" lon="13.0822403"><ele>411.0</ele><time>2026-04-25T07:45:51.137Z</time></trkpt><trkpt lat="43.0789681" lon="13.0820029"><ele>411.0</ele><time>2026-04-25T07:45:52.143Z</time></trkpt><trkpt lat="43.0789361" lon="13.0817758"><ele>411.0</ele><time>2026-04-25T07:45:53.142Z</time></trkpt><trkpt lat="43.0789197" lon="13.0815709"><ele>410.5</ele><time>2026-04-25T07:45:54.135Z</time></trkpt><trkpt lat="43.0789232" lon="13.0813776"><ele>410.0</ele><time>2026-04-25T07:45:55.133Z</time></trkpt><trkpt lat="43.0789439" lon="13.081191"><ele>409.5</ele><time>2026-04-25T07:45:56.135Z</time></trkpt><trkpt lat="43.0789813" lon="13.081006"><ele>409.0</ele><time>2026-04-25T07:45:57.134Z</time></trkpt><trkpt lat="43.0790314" lon="13.0808118"><ele>409.0</ele><time>2026-04-25T07:45:58.139Z</time></trkpt><trkpt lat="43.0790863" lon="13.0805864"><ele>409.0</ele><time>2026-04-25T07:45:59.138Z</time></trkpt><trkpt lat="43.079123" lon="13.0803296"><ele>409.0</ele><time>2026-04-25T07:46:00.139Z</time></trkpt><trkpt lat="43.0791539" lon="13.0800296"><ele>410.33333333333337</ele><time>2026-04-25T07:46:01.15Z</time></trkpt><trkpt lat="43.0791785" lon="13.079741"><ele>411.66666666666663</ele><time>2026-04-25T07:46:02.137Z</time></trkpt><trkpt lat="43.0792056" lon="13.0794806"><ele>413.0</ele><time>2026-04-25T07:46:03.143Z</time></trkpt><trkpt lat="43.0792319" lon="13.0792524"><ele>412.66666666666663</ele><time>2026-04-25T07:46:04.144Z</time></trkpt><trkpt lat="43.0792571" lon="13.0790204"><ele>412.33333333333337</ele><time>2026-04-25T07:46:05.142Z</time></trkpt><trkpt lat="43.0792809" lon="13.0787906"><ele>412.0</ele><time>2026-04-25T07:46:06.146Z</time></trkpt><trkpt lat="43.0793017" lon="13.0785364"><ele>412.0</ele><time>2026-04-25T07:46:07.143Z</time></trkpt><trkpt lat="43.0793239" lon="13.0782536"><ele>412.0</ele><time>2026-04-25T07:46:08.141Z</time></trkpt><trkpt lat="43.0793542" lon="13.0779702"><ele>412.0</ele><time>2026-04-25T07:46:09.14Z</time></trkpt><trkpt lat="43.0793766" lon="13.0777364"><ele>412.0</ele><time>2026-04-25T07:46:10.154Z</time></trkpt><trkpt lat="43.0793878" lon="13.0775081"><ele>412.0</ele><time>2026-04-25T07:46:11.14Z</time></trkpt><trkpt lat="43.079392" lon="13.0772933"><ele>412.0</ele><time>2026-04-25T07:46:12.139Z</time></trkpt><trkpt lat="43.0794017" lon="13.0770662"><ele>412.33333333333337</ele><time>2026-04-25T07:46:13.139Z</time></trkpt><trkpt lat="43.07941" lon="13.0768507"><ele>412.66666666666663</ele><time>2026-04-25T07:46:14.133Z</time></trkpt><trkpt lat="43.07942" lon="13.0766432"><ele>413.0</ele><time>2026-04-25T07:46:15.134Z</time></trkpt><trkpt lat="43.0794279" lon="13.0764335"><ele>413.25</ele><time>2026-04-25T07:46:16.135Z</time></trkpt><trkpt lat="43.0794306" lon="13.0762238"><ele>413.5</ele><time>2026-04-25T07:46:17.137Z</time></trkpt><trkpt lat="43.0794245" lon="13.076017"><ele>413.75</ele><time>2026-04-25T07:46:18.135Z</time></trkpt><trkpt lat="43.0794035" lon="13.0758211"><ele>414.0</ele><time>2026-04-25T07:46:19.136Z</time></trkpt><trkpt lat="43.0793705" lon="13.0756305"><ele>414.4</ele><time>2026-04-25T07:46:20.139Z</time></trkpt><trkpt lat="43.079328" lon="13.0754657"><ele>414.79999999999995</ele><time>2026-04-25T07:46:21.144Z</time></trkpt><trkpt lat="43.0792721" lon="13.075337"><ele>415.20000000000005</ele><time>2026-04-25T07:46:22.136Z</time></trkpt><trkpt lat="43.0792192" lon="13.0752149"><ele>415.6</ele><time>2026-04-25T07:46:23.14Z</time></trkpt><trkpt lat="43.0791731" lon="13.0751102"><ele>416.0</ele><time>2026-04-25T07:46:24.133Z</time></trkpt><trkpt lat="43.0791524" lon="13.0750109"><ele>416.49999999999994</ele><time>2026-04-25T07:46:25.132Z</time></trkpt><trkpt lat="43.0791519" lon="13.0749057"><ele>417.0</ele><time>2026-04-25T07:46:26.129Z</time></trkpt><trkpt lat="43.0791766" lon="13.0747954"><ele>417.5</ele><time>2026-04-25T07:46:27.138Z</time></trkpt><trkpt lat="43.0792027" lon="13.0746795"><ele>418.0</ele><time>2026-04-25T07:46:28.125Z</time></trkpt><trkpt lat="43.0792136" lon="13.0745449"><ele>418.49999999999994</ele><time>2026-04-25T07:46:29.138Z</time></trkpt><trkpt lat="43.0791814" lon="13.074416"><ele>419.0</ele><time>2026-04-25T07:46:30.139Z</time></trkpt><trkpt lat="43.0791144" lon="13.0743378"><ele>418.75</ele><time>2026-04-25T07:46:31.135Z</time></trkpt><trkpt lat="43.0790229" lon="13.0742709"><ele>418.5</ele><time>2026-04-25T07:46:32.137Z</time></trkpt><trkpt lat="43.0789365" lon="13.0741808"><ele>418.25</ele><time>2026-04-25T07:46:33.139Z</time></trkpt><trkpt lat="43.0788544" lon="13.0740367"><ele>418.0</ele><time>2026-04-25T07:46:34.14Z</time></trkpt><trkpt lat="43.0787724" lon="13.0738381"><ele>418.0</ele><time>2026-04-25T07:46:35.132Z</time></trkpt><trkpt lat="43.0786751" lon="13.0736042"><ele>418.0</ele><time>2026-04-25T07:46:36.141Z</time></trkpt><trkpt lat="43.0785632" lon="13.073335"><ele>418.0</ele><time>2026-04-25T07:46:37.14Z</time></trkpt><trkpt lat="43.0784448" lon="13.0730376"><ele>417.0</ele><time>2026-04-25T07:46:38.146Z</time></trkpt><trkpt lat="43.0783164" lon="13.0727172"><ele>416.0</ele><time>2026-04-25T07:46:39.138Z</time></trkpt><trkpt lat="43.0781911" lon="13.0723656"><ele>416.0</ele><time>2026-04-25T07:46:40.141Z</time></trkpt><trkpt lat="43.0780654" lon="13.0720018"><ele>416.0</ele><time>2026-04-25T07:46:41.141Z</time></trkpt><trkpt lat="43.077934" lon="13.0716238"><ele>417.5</ele><time>2026-04-25T07:46:42.141Z</time></trkpt><trkpt lat="43.0778115" lon="13.0712554"><ele>419.0</ele><time>2026-04-25T07:46:43.145Z</time></trkpt><trkpt lat="43.0776904" lon="13.0709142"><ele>422.0</ele><time>2026-04-25T07:46:44.141Z</time></trkpt><trkpt lat="43.0775691" lon="13.0705736"><ele>425.0</ele><time>2026-04-25T07:46:45.137Z</time></trkpt><trkpt lat="43.0774568" lon="13.0702368"><ele>423.0</ele><time>2026-04-25T07:46:46.133Z</time></trkpt><trkpt lat="43.0773458" lon="13.069917"><ele>421.0</ele><time>2026-04-25T07:46:47.136Z</time></trkpt><trkpt lat="43.0772505" lon="13.0696162"><ele>421.0</ele><time>2026-04-25T07:46:48.141Z</time></trkpt><trkpt lat="43.0771557" lon="13.0693013"><ele>421.0</ele><time>2026-04-25T07:46:49.14Z</time></trkpt><trkpt lat="43.0770558" lon="13.0689728"><ele>421.5</ele><time>2026-04-25T07:46:50.147Z</time></trkpt><trkpt lat="43.0769475" lon="13.0686499"><ele>422.0</ele><time>2026-04-25T07:46:51.141Z</time></trkpt><trkpt lat="43.0768494" lon="13.068337"><ele>422.0</ele><time>2026-04-25T07:46:52.131Z</time></trkpt><trkpt lat="43.0767628" lon="13.0680325"><ele>422.0</ele><time>2026-04-25T07:46:53.136Z</time></trkpt><trkpt lat="43.0766857" lon="13.0677517"><ele>422.0</ele><time>2026-04-25T07:46:54.153Z</time></trkpt><trkpt lat="43.0766248" lon="13.0674818"><ele>422.0</ele><time>2026-04-25T07:46:55.144Z</time></trkpt><trkpt lat="43.0765849" lon="13.0672346"><ele>422.0</ele><time>2026-04-25T07:46:56.138Z</time></trkpt><trkpt lat="43.0765856" lon="13.0669839"><ele>423.0</ele><time>2026-04-25T07:46:57.139Z</time></trkpt><trkpt lat="43.0765971" lon="13.0667017"><ele>424.0</ele><time>2026-04-25T07:46:58.143Z</time></trkpt><trkpt lat="43.0766193" lon="13.0664195"><ele>425.0</ele><time>2026-04-25T07:46:59.133Z</time></trkpt><trkpt lat="43.0766331" lon="13.0661664"><ele>426.3333333333333</ele><time>2026-04-25T07:47:00.145Z</time></trkpt><trkpt lat="43.0766338" lon="13.0659418"><ele>427.66666666666663</ele><time>2026-04-25T07:47:01.143Z</time></trkpt><trkpt lat="43.0766099" lon="13.0657542"><ele>429.0</ele><time>2026-04-25T07:47:02.149Z</time></trkpt><trkpt lat="43.0765602" lon="13.0655654"><ele>429.0</ele><time>2026-04-25T07:47:03.14Z</time></trkpt><trkpt lat="43.0764612" lon="13.0653894"><ele>429.0</ele><time>2026-04-25T07:47:04.141Z</time></trkpt><trkpt lat="43.0763303" lon="13.0652171"><ele>429.0</ele><time>2026-04-25T07:47:05.138Z</time></trkpt><trkpt lat="43.0761836" lon="13.0650492"><ele>429.66666666666663</ele><time>2026-04-25T07:47:06.142Z</time></trkpt><trkpt lat="43.0760502" lon="13.0648887"><ele>430.3333333333333</ele><time>2026-04-25T07:47:07.149Z</time></trkpt><trkpt lat="43.0759366" lon="13.0647063"><ele>431.0</ele><time>2026-04-25T07:47:08.147Z</time></trkpt><trkpt lat="43.0758569" lon="13.0644903"><ele>431.0</ele><time>2026-04-25T07:47:09.141Z</time></trkpt><trkpt lat="43.0758092" lon="13.064241"><ele>431.0</ele><time>2026-04-25T07:47:10.134Z</time></trkpt><trkpt lat="43.0757708" lon="13.0639946"><ele>431.0</ele><time>2026-04-25T07:47:11.142Z</time></trkpt><trkpt lat="43.0757402" lon="13.0637402"><ele>430.3333333333333</ele><time>2026-04-25T07:47:12.131Z</time></trkpt><trkpt lat="43.0757074" lon="13.0634878"><ele>429.66666666666663</ele><time>2026-04-25T07:47:13.14Z</time></trkpt><trkpt lat="43.0756856" lon="13.0632501"><ele>429.0</ele><time>2026-04-25T07:47:14.133Z</time></trkpt><trkpt lat="43.0756662" lon="13.0630068"><ele>429.0</ele><time>2026-04-25T07:47:15.144Z</time></trkpt><trkpt lat="43.0756514" lon="13.0627679"><ele>429.0</ele><time>2026-04-25T07:47:16.145Z</time></trkpt><trkpt lat="43.075633" lon="13.062528"><ele>429.0</ele><time>2026-04-25T07:47:17.147Z</time></trkpt><trkpt lat="43.0756172" lon="13.0622847"><ele>429.33333333333337</ele><time>2026-04-25T07:47:18.14Z</time></trkpt><trkpt lat="43.075612" lon="13.0620448"><ele>429.6666666666667</ele><time>2026-04-25T07:47:19.144Z</time></trkpt><trkpt lat="43.0756139" lon="13.0618072"><ele>430.0</ele><time>2026-04-25T07:47:20.14Z</time></trkpt><trkpt lat="43.0756239" lon="13.0615628"><ele>430.33333333333337</ele><time>2026-04-25T07:47:21.141Z</time></trkpt><trkpt lat="43.0756443" lon="13.0613263"><ele>430.66666666666663</ele><time>2026-04-25T07:47:22.132Z</time></trkpt><trkpt lat="43.0756841" lon="13.0610826"><ele>431.0</ele><time>2026-04-25T07:47:23.137Z</time></trkpt><trkpt lat="43.0757406" lon="13.0608342"><ele>433.0</ele><time>2026-04-25T07:47:24.136Z</time></trkpt><trkpt lat="43.0758079" lon="13.0605747"><ele>435.0</ele><time>2026-04-25T07:47:25.144Z</time></trkpt><trkpt lat="43.0758768" lon="13.0603162"><ele>437.0</ele><time>2026-04-25T07:47:26.15Z</time></trkpt><trkpt lat="43.0759374" lon="13.0600541"><ele>437.0</ele><time>2026-04-25T07:47:27.138Z</time></trkpt><trkpt lat="43.0759991" lon="13.0598044"><ele>437.0</ele><time>2026-04-25T07:47:28.145Z</time></trkpt><trkpt lat="43.0760629" lon="13.0595664"><ele>437.0</ele><time>2026-04-25T07:47:29.146Z</time></trkpt><trkpt lat="43.0761196" lon="13.059339"><ele>437.0</ele><time>2026-04-25T07:47:30.129Z</time></trkpt><trkpt lat="43.0761768" lon="13.0591188"><ele>437.0</ele><time>2026-04-25T07:47:31.139Z</time></trkpt><trkpt lat="43.0762313" lon="13.0588918"><ele>437.0</ele><time>2026-04-25T07:47:32.134Z</time></trkpt><trkpt lat="43.0762861" lon="13.0586552"><ele>436.3333333333333</ele><time>2026-04-25T07:47:33.14Z</time></trkpt><trkpt lat="43.0763453" lon="13.0584073"><ele>435.66666666666663</ele><time>2026-04-25T07:47:34.136Z</time></trkpt><trkpt lat="43.0764056" lon="13.0581628"><ele>435.0</ele><time>2026-04-25T07:47:35.133Z</time></trkpt><trkpt lat="43.0764628" lon="13.0579229"><ele>434.66666666666663</ele><time>2026-04-25T07:47:36.139Z</time></trkpt><trkpt lat="43.076515" lon="13.0577046"><ele>434.3333333333333</ele><time>2026-04-25T07:47:37.135Z</time></trkpt><trkpt lat="43.0765709" lon="13.0574967"><ele>434.0</ele><time>2026-04-25T07:47:38.14Z</time></trkpt><trkpt lat="43.0766284" lon="13.0572824"><ele>435.0</ele><time>2026-04-25T07:47:39.144Z</time></trkpt><trkpt lat="43.0767078" lon="13.0570659"><ele>436.0</ele><time>2026-04-25T07:47:40.133Z</time></trkpt><trkpt lat="43.0767838" lon="13.0568391"><ele>437.0</ele><time>2026-04-25T07:47:41.14Z</time></trkpt><trkpt lat="43.0768715" lon="13.0565903"><ele>437.0</ele><time>2026-04-25T07:47:42.134Z</time></trkpt><trkpt lat="43.0769593" lon="13.0563425"><ele>437.0</ele><time>2026-04-25T07:47:43.142Z</time></trkpt><trkpt lat="43.077054" lon="13.0560861"><ele>437.0</ele><time>2026-04-25T07:47:44.149Z</time></trkpt><trkpt lat="43.0771575" lon="13.0558359"><ele>438.0</ele><time>2026-04-25T07:47:45.13Z</time></trkpt><trkpt lat="43.0772741" lon="13.0555924"><ele>439.0</ele><time>2026-04-25T07:47:46.134Z</time></trkpt><trkpt lat="43.0774071" lon="13.0553495"><ele>440.0</ele><time>2026-04-25T07:47:47.133Z</time></trkpt><trkpt lat="43.0775578" lon="13.0550973"><ele>440.0</ele><time>2026-04-25T07:47:48.133Z</time></trkpt><trkpt lat="43.0777229" lon="13.0548349"><ele>440.0</ele><time>2026-04-25T07:47:49.14Z</time></trkpt><trkpt lat="43.0778938" lon="13.0545632"><ele>440.0</ele><time>2026-04-25T07:47:50.135Z</time></trkpt><trkpt lat="43.0780656" lon="13.0542903"><ele>440.0</ele><time>2026-04-25T07:47:51.132Z</time></trkpt><trkpt lat="43.0782428" lon="13.0540071"><ele>440.5</ele><time>2026-04-25T07:47:52.14Z</time></trkpt><trkpt lat="43.0784151" lon="13.0537147"><ele>441.0</ele><time>2026-04-25T07:47:53.134Z</time></trkpt><trkpt lat="43.0785889" lon="13.0534249"><ele>440.5</ele><time>2026-04-25T07:47:54.14Z</time></trkpt><trkpt lat="43.0787631" lon="13.0531426"><ele>440.0</ele><time>2026-04-25T07:47:55.13Z</time></trkpt><trkpt lat="43.0789354" lon="13.0528678"><ele>440.0</ele><time>2026-04-25T07:47:56.132Z</time></trkpt><trkpt lat="43.0790992" lon="13.0526042"><ele>440.0</ele><time>2026-04-25T07:47:57.138Z</time></trkpt><trkpt lat="43.0792637" lon="13.0523573"><ele>442.0</ele><time>2026-04-25T07:47:58.137Z</time></trkpt><trkpt lat="43.0794192" lon="13.0521184"><ele>444.0</ele><time>2026-04-25T07:47:59.138Z</time></trkpt><trkpt lat="43.0795743" lon="13.0518763"><ele>444.0</ele><time>2026-04-25T07:48:00.131Z</time></trkpt><trkpt lat="43.0797225" lon="13.0516354"><ele>444.0</ele><time>2026-04-25T07:48:01.138Z</time></trkpt><trkpt lat="43.0798709" lon="13.0513888"><ele>445.0</ele><time>2026-04-25T07:48:02.136Z</time></trkpt><trkpt lat="43.0800175" lon="13.0511519"><ele>446.0</ele><time>2026-04-25T07:48:03.144Z</time></trkpt><trkpt lat="43.0801579" lon="13.0509283"><ele>447.0</ele><time>2026-04-25T07:48:04.138Z</time></trkpt><trkpt lat="43.0802833" lon="13.0507114"><ele>447.0</ele><time>2026-04-25T07:48:05.146Z</time></trkpt><trkpt lat="43.0803917" lon="13.0504791"><ele>447.0</ele><time>2026-04-25T07:48:06.138Z</time></trkpt><trkpt lat="43.0804734" lon="13.0502278"><ele>447.0</ele><time>2026-04-25T07:48:07.14Z</time></trkpt><trkpt lat="43.0805314" lon="13.0499478"><ele>447.0</ele><time>2026-04-25T07:48:08.143Z</time></trkpt><trkpt lat="43.0805743" lon="13.0496367"><ele>447.0</ele><time>2026-04-25T07:48:09.134Z</time></trkpt><trkpt lat="43.0806093" lon="13.0493243"><ele>448.0</ele><time>2026-04-25T07:48:10.142Z</time></trkpt><trkpt lat="43.0806473" lon="13.0490289"><ele>449.0</ele><time>2026-04-25T07:48:11.138Z</time></trkpt><trkpt lat="43.0806894" lon="13.0487102"><ele>449.0</ele><time>2026-04-25T07:48:12.134Z</time></trkpt><trkpt lat="43.0807253" lon="13.0483504"><ele>449.0</ele><time>2026-04-25T07:48:13.136Z</time></trkpt><trkpt lat="43.0807732" lon="13.0480046"><ele>449.5</ele><time>2026-04-25T07:48:14.138Z</time></trkpt><trkpt lat="43.0808287" lon="13.0476874"><ele>450.0</ele><time>2026-04-25T07:48:15.135Z</time></trkpt><trkpt lat="43.08087" lon="13.0473846"><ele>450.0</ele><time>2026-04-25T07:48:16.136Z</time></trkpt><trkpt lat="43.0808797" lon="13.0470686"><ele>450.0</ele><time>2026-04-25T07:48:17.135Z</time></trkpt><trkpt lat="43.0808784" lon="13.046745"><ele>450.5</ele><time>2026-04-25T07:48:18.132Z</time></trkpt><trkpt lat="43.0808646" lon="13.0464238"><ele>451.0</ele><time>2026-04-25T07:48:19.139Z</time></trkpt><trkpt lat="43.0808515" lon="13.0460987"><ele>452.0</ele><time>2026-04-25T07:48:20.135Z</time></trkpt><trkpt lat="43.0808365" lon="13.0457737"><ele>453.0</ele><time>2026-04-25T07:48:21.128Z</time></trkpt><trkpt lat="43.0808215" lon="13.0454512"><ele>453.0</ele><time>2026-04-25T07:48:22.138Z</time></trkpt><trkpt lat="43.0808055" lon="13.0451315"><ele>453.0</ele><time>2026-04-25T07:48:23.137Z</time></trkpt><trkpt lat="43.0807948" lon="13.044807"><ele>453.5</ele><time>2026-04-25T07:48:24.13Z</time></trkpt><trkpt lat="43.0807847" lon="13.0444854"><ele>454.0</ele><time>2026-04-25T07:48:25.137Z</time></trkpt><trkpt lat="43.0807688" lon="13.0441635"><ele>456.0</ele><time>2026-04-25T07:48:26.134Z</time></trkpt><trkpt lat="43.0807549" lon="13.0438457"><ele>458.0</ele><time>2026-04-25T07:48:27.135Z</time></trkpt><trkpt lat="43.080738" lon="13.0435525"><ele>460.0</ele><time>2026-04-25T07:48:28.13Z</time></trkpt><trkpt lat="43.0807282" lon="13.0432822"><ele>460.6666666666667</ele><time>2026-04-25T07:48:29.135Z</time></trkpt><trkpt lat="43.0807206" lon="13.0430337"><ele>461.33333333333337</ele><time>2026-04-25T07:48:30.138Z</time></trkpt><trkpt lat="43.0807132" lon="13.0427934"><ele>462.0</ele><time>2026-04-25T07:48:31.132Z</time></trkpt><trkpt lat="43.0807052" lon="13.0425769"><ele>462.75</ele><time>2026-04-25T07:48:32.138Z</time></trkpt><trkpt lat="43.0807015" lon="13.0423774"><ele>463.5</ele><time>2026-04-25T07:48:33.138Z</time></trkpt><trkpt lat="43.0806945" lon="13.0421833"><ele>464.25</ele><time>2026-04-25T07:48:34.143Z</time></trkpt><trkpt lat="43.0806788" lon="13.041993"><ele>465.0</ele><time>2026-04-25T07:48:35.137Z</time></trkpt><trkpt lat="43.0806685" lon="13.041805"><ele>465.75</ele><time>2026-04-25T07:48:36.14Z</time></trkpt><trkpt lat="43.0806619" lon="13.0416106"><ele>466.5</ele><time>2026-04-25T07:48:37.148Z</time></trkpt><trkpt lat="43.0806567" lon="13.0414093"><ele>467.25</ele><time>2026-04-25T07:48:38.135Z</time></trkpt><trkpt lat="43.0806447" lon="13.0412016"><ele>468.0</ele><time>2026-04-25T07:48:39.141Z</time></trkpt><trkpt lat="43.0806352" lon="13.040985"><ele>469.33333333333337</ele><time>2026-04-25T07:48:40.136Z</time></trkpt><trkpt lat="43.0806266" lon="13.0407596"><ele>470.6666666666667</ele><time>2026-04-25T07:48:41.142Z</time></trkpt><trkpt lat="43.0806204" lon="13.040537"><ele>472.0</ele><time>2026-04-25T07:48:42.136Z</time></trkpt><trkpt lat="43.08061" lon="13.0403161"><ele>472.0</ele><time>2026-04-25T07:48:43.14Z</time></trkpt><trkpt lat="43.0806011" lon="13.0400976"><ele>472.0</ele><time>2026-04-25T07:48:44.137Z</time></trkpt><trkpt lat="43.0805898" lon="13.0398826"><ele>472.0</ele><time>2026-04-25T07:48:45.137Z</time></trkpt><trkpt lat="43.0805777" lon="13.0396674"><ele>474.33333333333337</ele><time>2026-04-25T07:48:46.132Z</time></trkpt><trkpt lat="43.080563" lon="13.0394582"><ele>476.66666666666663</ele><time>2026-04-25T07:48:47.131Z</time></trkpt><trkpt lat="43.080536" lon="13.0392524"><ele>479.0</ele><time>2026-04-25T07:48:48.134Z</time></trkpt><trkpt lat="43.0804909" lon="13.0390492"><ele>479.3333333333333</ele><time>2026-04-25T07:48:49.133Z</time></trkpt><trkpt lat="43.080407" lon="13.0388318"><ele>479.66666666666663</ele><time>2026-04-25T07:48:50.154Z</time></trkpt><trkpt lat="43.0802856" lon="13.0385841"><ele>480.0</ele><time>2026-04-25T07:48:51.134Z</time></trkpt><trkpt lat="43.0801516" lon="13.0382934"><ele>475.0</ele><time>2026-04-25T07:48:52.131Z</time></trkpt><trkpt lat="43.080032" lon="13.0379918"><ele>470.0</ele><time>2026-04-25T07:48:53.132Z</time></trkpt><trkpt lat="43.0799259" lon="13.0376993"><ele>483.5</ele><time>2026-04-25T07:48:54.136Z</time></trkpt><trkpt lat="43.0798231" lon="13.0374176"><ele>497.0</ele><time>2026-04-25T07:48:55.133Z</time></trkpt><trkpt lat="43.079722" lon="13.0371456"><ele>497.0</ele><time>2026-04-25T07:48:56.132Z</time></trkpt><trkpt lat="43.0796276" lon="13.0368981"><ele>497.0</ele><time>2026-04-25T07:48:57.138Z</time></trkpt><trkpt lat="43.0795243" lon="13.0366651"><ele>497.0</ele><time>2026-04-25T07:48:58.136Z</time></trkpt><trkpt lat="43.0794137" lon="13.0364365"><ele>492.0</ele><time>2026-04-25T07:48:59.125Z</time></trkpt><trkpt lat="43.0793206" lon="13.0362132"><ele>487.0</ele><time>2026-04-25T07:49:00.133Z</time></trkpt><trkpt lat="43.0792483" lon="13.0359855"><ele>482.0</ele><time>2026-04-25T07:49:01.136Z</time></trkpt><trkpt lat="43.0791652" lon="13.0357991"><ele>482.0</ele><time>2026-04-25T07:49:02.135Z</time></trkpt><trkpt lat="43.0790597" lon="13.0356301"><ele>482.0</ele><time>2026-04-25T07:49:03.13Z</time></trkpt><trkpt lat="43.078915" lon="13.0354938"><ele>482.0</ele><time>2026-04-25T07:49:04.125Z</time></trkpt><trkpt lat="43.0787414" lon="13.0353588"><ele>482.0</ele><time>2026-04-25T07:49:05.125Z</time></trkpt><trkpt lat="43.0785776" lon="13.0352038"><ele>482.0</ele><time>2026-04-25T07:49:06.123Z</time></trkpt><trkpt lat="43.0784158" lon="13.0350313"><ele>482.0</ele><time>2026-04-25T07:49:07.128Z</time></trkpt><trkpt lat="43.07827" lon="13.03487"><ele>480.0</ele><time>2026-04-25T07:49:08.125Z</time></trkpt><trkpt lat="43.0781226" lon="13.0347241"><ele>478.0</ele><time>2026-04-25T07:49:09.126Z</time></trkpt><trkpt lat="43.0779465" lon="13.0345959"><ele>476.0</ele><time>2026-04-25T07:49:10.129Z</time></trkpt><trkpt lat="43.0777615" lon="13.0344975"><ele>476.0</ele><time>2026-04-25T07:49:11.129Z</time></trkpt><trkpt lat="43.0775802" lon="13.0344018"><ele>476.0</ele><time>2026-04-25T07:49:12.123Z</time></trkpt><trkpt lat="43.0774083" lon="13.03432"><ele>476.0</ele><time>2026-04-25T07:49:13.126Z</time></trkpt><trkpt lat="43.0772482" lon="13.034199"><ele>485.66666666666663</ele><time>2026-04-25T07:49:14.124Z</time></trkpt><trkpt lat="43.0771158" lon="13.034036"><ele>495.33333333333337</ele><time>2026-04-25T07:49:15.127Z</time></trkpt><trkpt lat="43.077026" lon="13.0338516"><ele>505.0</ele><time>2026-04-25T07:49:16.126Z</time></trkpt><trkpt lat="43.0769751" lon="13.0336394"><ele>505.0</ele><time>2026-04-25T07:49:17.129Z</time></trkpt><trkpt lat="43.0769487" lon="13.0334078"><ele>505.0</ele><time>2026-04-25T07:49:18.132Z</time></trkpt><trkpt lat="43.0769747" lon="13.0331433"><ele>505.0</ele><time>2026-04-25T07:49:19.132Z</time></trkpt><trkpt lat="43.0770159" lon="13.0328491"><ele>509.0</ele><time>2026-04-25T07:49:20.125Z</time></trkpt><trkpt lat="43.077043" lon="13.0325399"><ele>513.0</ele><time>2026-04-25T07:49:21.129Z</time></trkpt><trkpt lat="43.0770685" lon="13.032224"><ele>520.5</ele><time>2026-04-25T07:49:22.126Z</time></trkpt><trkpt lat="43.0770806" lon="13.0319113"><ele>528.0</ele><time>2026-04-25T07:49:23.125Z</time></trkpt><trkpt lat="43.0770949" lon="13.0316048"><ele>528.3333333333334</ele><time>2026-04-25T07:49:24.13Z</time></trkpt><trkpt lat="43.0771084" lon="13.0312979"><ele>528.6666666666667</ele><time>2026-04-25T07:49:25.132Z</time></trkpt><trkpt lat="43.0771268" lon="13.0309971"><ele>529.0</ele><time>2026-04-25T07:49:26.135Z</time></trkpt><trkpt lat="43.0771646" lon="13.0307088"><ele>529.0</ele><time>2026-04-25T07:49:27.12Z</time></trkpt><trkpt lat="43.0772071" lon="13.0304601"><ele>529.0</ele><time>2026-04-25T07:49:28.121Z</time></trkpt><trkpt lat="43.0772453" lon="13.0302385"><ele>529.0</ele><time>2026-04-25T07:49:29.13Z</time></trkpt><trkpt lat="43.0772523" lon="13.0300399"><ele>524.0</ele><time>2026-04-25T07:49:30.136Z</time></trkpt><trkpt lat="43.0772335" lon="13.0298516"><ele>519.0</ele><time>2026-04-25T07:49:31.137Z</time></trkpt><trkpt lat="43.077174" lon="13.0296646"><ele>514.0</ele><time>2026-04-25T07:49:32.132Z</time></trkpt><trkpt lat="43.0770741" lon="13.0294489"><ele>514.0</ele><time>2026-04-25T07:49:33.133Z</time></trkpt><trkpt lat="43.0769611" lon="13.0291964"><ele>514.0</ele><time>2026-04-25T07:49:34.13Z</time></trkpt><trkpt lat="43.0768569" lon="13.0288964"><ele>508.5</ele><time>2026-04-25T07:49:35.13Z</time></trkpt><trkpt lat="43.0767558" lon="13.0285938"><ele>503.0</ele><time>2026-04-25T07:49:36.123Z</time></trkpt><trkpt lat="43.0766428" lon="13.0282966"><ele>516.0</ele><time>2026-04-25T07:49:37.128Z</time></trkpt><trkpt lat="43.0765246" lon="13.0279931"><ele>529.0</ele><time>2026-04-25T07:49:38.136Z</time></trkpt><trkpt lat="43.076403" lon="13.0276945"><ele>519.5</ele><time>2026-04-25T07:49:39.128Z</time></trkpt><trkpt lat="43.0762725" lon="13.0274213"><ele>510.0</ele><time>2026-04-25T07:49:40.128Z</time></trkpt><trkpt lat="43.076142" lon="13.0271647"><ele>510.0</ele><time>2026-04-25T07:49:41.134Z</time></trkpt><trkpt lat="43.0760208" lon="13.0269101"><ele>510.0</ele><time>2026-04-25T07:49:42.131Z</time></trkpt><trkpt lat="43.075892" lon="13.0266593"><ele>510.0</ele><time>2026-04-25T07:49:43.136Z</time></trkpt><trkpt lat="43.0757602" lon="13.0264223"><ele>510.33333333333337</ele><time>2026-04-25T07:49:44.136Z</time></trkpt><trkpt lat="43.0756165" lon="13.0262517"><ele>510.6666666666667</ele><time>2026-04-25T07:49:45.136Z</time></trkpt><trkpt lat="43.0754725" lon="13.0261026"><ele>511.0</ele><time>2026-04-25T07:49:46.135Z</time></trkpt><trkpt lat="43.0752991" lon="13.025958"><ele>511.0</ele><time>2026-04-25T07:49:47.135Z</time></trkpt><trkpt lat="43.0751091" lon="13.0258111"><ele>511.0</ele><time>2026-04-25T07:49:48.132Z</time></trkpt><trkpt lat="43.0748923" lon="13.0256581"><ele>511.0</ele><time>2026-04-25T07:49:49.125Z</time></trkpt><trkpt lat="43.0746633" lon="13.0255084"><ele>511.0</ele><time>2026-04-25T07:49:50.13Z</time></trkpt><trkpt lat="43.0744419" lon="13.0253466"><ele>511.0</ele><time>2026-04-25T07:49:51.13Z</time></trkpt><trkpt lat="43.0742433" lon="13.0251818"><ele>511.0</ele><time>2026-04-25T07:49:52.137Z</time></trkpt><trkpt lat="43.0740534" lon="13.0250174"><ele>511.0</ele><time>2026-04-25T07:49:53.126Z</time></trkpt><trkpt lat="43.0738622" lon="13.0248361"><ele>511.0</ele><time>2026-04-25T07:49:54.128Z</time></trkpt><trkpt lat="43.0736715" lon="13.0246381"><ele>511.0</ele><time>2026-04-25T07:49:55.13Z</time></trkpt><trkpt lat="43.0734864" lon="13.0244474"><ele>511.0</ele><time>2026-04-25T07:49:56.127Z</time></trkpt><trkpt lat="43.0733182" lon="13.0242625"><ele>511.0</ele><time>2026-04-25T07:49:57.13Z</time></trkpt><trkpt lat="43.0731619" lon="13.0240782"><ele>518.3333333333334</ele><time>2026-04-25T07:49:58.127Z</time></trkpt><trkpt lat="43.0730357" lon="13.0238918"><ele>525.6666666666666</ele><time>2026-04-25T07:49:59.131Z</time></trkpt><trkpt lat="43.0729413" lon="13.0237001"><ele>533.0</ele><time>2026-04-25T07:50:00.133Z</time></trkpt><trkpt lat="43.0728745" lon="13.0234944"><ele>527.6666666666666</ele><time>2026-04-25T07:50:01.131Z</time></trkpt><trkpt lat="43.0728183" lon="13.0232262"><ele>522.3333333333334</ele><time>2026-04-25T07:50:02.128Z</time></trkpt><trkpt lat="43.0727385" lon="13.0229635"><ele>517.0</ele><time>2026-04-25T07:50:03.13Z</time></trkpt><trkpt lat="43.0726335" lon="13.0227298"><ele>517.0</ele><time>2026-04-25T07:50:04.131Z</time></trkpt><trkpt lat="43.0725004" lon="13.0225096"><ele>517.0</ele><time>2026-04-25T07:50:05.131Z</time></trkpt><trkpt lat="43.0723648" lon="13.0223045"><ele>517.0</ele><time>2026-04-25T07:50:06.129Z</time></trkpt><trkpt lat="43.0722493" lon="13.022106"><ele>518.6666666666667</ele><time>2026-04-25T07:50:07.132Z</time></trkpt><trkpt lat="43.0721469" lon="13.02187"><ele>520.3333333333334</ele><time>2026-04-25T07:50:08.131Z</time></trkpt><trkpt lat="43.0720829" lon="13.0215798"><ele>522.0</ele><time>2026-04-25T07:50:09.133Z</time></trkpt><trkpt lat="43.0720561" lon="13.0213061"><ele>522.0</ele><time>2026-04-25T07:50:10.123Z</time></trkpt><trkpt lat="43.0720197" lon="13.0210571"><ele>522.0</ele><time>2026-04-25T07:50:11.13Z</time></trkpt><trkpt lat="43.071962" lon="13.0208329"><ele>522.0</ele><time>2026-04-25T07:50:12.131Z</time></trkpt><trkpt lat="43.0718487" lon="13.0206569"><ele>519.3333333333334</ele><time>2026-04-25T07:50:13.126Z</time></trkpt><trkpt lat="43.0717053" lon="13.0204919"><ele>516.6666666666667</ele><time>2026-04-25T07:50:14.126Z</time></trkpt><trkpt lat="43.0715693" lon="13.0203084"><ele>514.0</ele><time>2026-04-25T07:50:15.13Z</time></trkpt><trkpt lat="43.0714638" lon="13.0200809"><ele>518.3333333333334</ele><time>2026-04-25T07:50:16.131Z</time></trkpt><trkpt lat="43.0713666" lon="13.0198102"><ele>522.6666666666666</ele><time>2026-04-25T07:50:17.126Z</time></trkpt><trkpt lat="43.0712475" lon="13.0195451"><ele>527.0</ele><time>2026-04-25T07:50:18.131Z</time></trkpt><trkpt lat="43.0711301" lon="13.0192776"><ele>522.0</ele><time>2026-04-25T07:50:19.132Z</time></trkpt><trkpt lat="43.0710153" lon="13.0190189"><ele>517.0</ele><time>2026-04-25T07:50:20.122Z</time></trkpt><trkpt lat="43.0709051" lon="13.0187716"><ele>512.0</ele><time>2026-04-25T07:50:21.127Z</time></trkpt><trkpt lat="43.0707914" lon="13.0185217"><ele>519.3333333333333</ele><time>2026-04-25T07:50:22.133Z</time></trkpt><trkpt lat="43.0706594" lon="13.0182895"><ele>526.6666666666666</ele><time>2026-04-25T07:50:23.134Z</time></trkpt><trkpt lat="43.0705009" lon="13.0180893"><ele>534.0</ele><time>2026-04-25T07:50:24.134Z</time></trkpt><trkpt lat="43.0703575" lon="13.0178994"><ele>534.0</ele><time>2026-04-25T07:50:25.135Z</time></trkpt><trkpt lat="43.0702393" lon="13.0176921"><ele>534.0</ele><time>2026-04-25T07:50:26.131Z</time></trkpt><trkpt lat="43.0701477" lon="13.0174654"><ele>534.0</ele><time>2026-04-25T07:50:27.129Z</time></trkpt><trkpt lat="43.0700912" lon="13.0172122"><ele>530.0</ele><time>2026-04-25T07:50:28.138Z</time></trkpt><trkpt lat="43.0700489" lon="13.0169303"><ele>526.0</ele><time>2026-04-25T07:50:29.133Z</time></trkpt><trkpt lat="43.0700025" lon="13.0166468"><ele>522.0</ele><time>2026-04-25T07:50:30.124Z</time></trkpt><trkpt lat="43.0699491" lon="13.0163541"><ele>529.0</ele><time>2026-04-25T07:50:31.131Z</time></trkpt><trkpt lat="43.0698795" lon="13.0160651"><ele>536.0</ele><time>2026-04-25T07:50:32.132Z</time></trkpt><trkpt lat="43.0697863" lon="13.0157782"><ele>536.0</ele><time>2026-04-25T07:50:33.132Z</time></trkpt><trkpt lat="43.069673" lon="13.0154798"><ele>536.0</ele><time>2026-04-25T07:50:34.136Z</time></trkpt><trkpt lat="43.0695591" lon="13.0151902"><ele>534.3333333333333</ele><time>2026-04-25T07:50:35.138Z</time></trkpt><trkpt lat="43.0694553" lon="13.0149117"><ele>532.6666666666666</ele><time>2026-04-25T07:50:36.13Z</time></trkpt><trkpt lat="43.0693633" lon="13.0146546"><ele>531.0</ele><time>2026-04-25T07:50:37.137Z</time></trkpt><trkpt lat="43.0693061" lon="13.0143773"><ele>529.6666666666666</ele><time>2026-04-25T07:50:38.136Z</time></trkpt><trkpt lat="43.06928" lon="13.0140738"><ele>528.3333333333333</ele><time>2026-04-25T07:50:39.128Z</time></trkpt><trkpt lat="43.0692724" lon="13.0137648"><ele>527.0</ele><time>2026-04-25T07:50:40.132Z</time></trkpt><trkpt lat="43.0692713" lon="13.0134614"><ele>527.0</ele><time>2026-04-25T07:50:41.14Z</time></trkpt><trkpt lat="43.0692657" lon="13.0131842"><ele>527.0</ele><time>2026-04-25T07:50:42.13Z</time></trkpt><trkpt lat="43.0692992" lon="13.0129333"><ele>527.0</ele><time>2026-04-25T07:50:43.133Z</time></trkpt><trkpt lat="43.0693754" lon="13.0127054"><ele>527.0</ele><time>2026-04-25T07:50:44.148Z</time></trkpt><trkpt lat="43.0694972" lon="13.012508"><ele>527.0</ele><time>2026-04-25T07:50:45.129Z</time></trkpt><trkpt lat="43.0696619" lon="13.0123218"><ele>527.0</ele><time>2026-04-25T07:50:46.133Z</time></trkpt><trkpt lat="43.0698395" lon="13.0121366"><ele>526.0</ele><time>2026-04-25T07:50:47.133Z</time></trkpt><trkpt lat="43.0700188" lon="13.0119211"><ele>525.0</ele><time>2026-04-25T07:50:48.131Z</time></trkpt><trkpt lat="43.0701992" lon="13.0117031"><ele>527.6666666666666</ele><time>2026-04-25T07:50:49.136Z</time></trkpt><trkpt lat="43.0703676" lon="13.0114953"><ele>530.3333333333333</ele><time>2026-04-25T07:50:50.145Z</time></trkpt><trkpt lat="43.0705174" lon="13.0113091"><ele>533.0</ele><time>2026-04-25T07:50:51.13Z</time></trkpt><trkpt lat="43.0706674" lon="13.0111181"><ele>531.0</ele><time>2026-04-25T07:50:52.132Z</time></trkpt><trkpt lat="43.0708302" lon="13.010896"><ele>529.0</ele><time>2026-04-25T07:50:53.123Z</time></trkpt><trkpt lat="43.0709888" lon="13.0106401"><ele>542.5</ele><time>2026-04-25T07:50:54.142Z</time></trkpt><trkpt lat="43.0711606" lon="13.0103932"><ele>556.0</ele><time>2026-04-25T07:50:55.133Z</time></trkpt><trkpt lat="43.0713352" lon="13.0101874"><ele>556.0</ele><time>2026-04-25T07:50:56.14Z</time></trkpt><trkpt lat="43.0714966" lon="13.0099998"><ele>556.0</ele><time>2026-04-25T07:50:57.129Z</time></trkpt><trkpt lat="43.0716507" lon="13.0098101"><ele>556.0</ele><time>2026-04-25T07:50:58.14Z</time></trkpt><trkpt lat="43.0717627" lon="13.0095968"><ele>554.6666666666667</ele><time>2026-04-25T07:50:59.128Z</time></trkpt><trkpt lat="43.0718473" lon="13.0093514"><ele>553.3333333333334</ele><time>2026-04-25T07:51:00.13Z</time></trkpt><trkpt lat="43.0719373" lon="13.009084"><ele>552.0</ele><time>2026-04-25T07:51:01.127Z</time></trkpt><trkpt lat="43.0720476" lon="13.0088245"><ele>564.5</ele><time>2026-04-25T07:51:02.123Z</time></trkpt><trkpt lat="43.0721868" lon="13.0085601"><ele>577.0</ele><time>2026-04-25T07:51:03.129Z</time></trkpt><trkpt lat="43.0723286" lon="13.0082866"><ele>564.5</ele><time>2026-04-25T07:51:04.13Z</time></trkpt><trkpt lat="43.0724711" lon="13.0079956"><ele>552.0</ele><time>2026-04-25T07:51:05.126Z</time></trkpt><trkpt lat="43.0726215" lon="13.0076915"><ele>562.5</ele><time>2026-04-25T07:51:06.135Z</time></trkpt><trkpt lat="43.0727516" lon="13.0073843"><ele>573.0</ele><time>2026-04-25T07:51:07.131Z</time></trkpt><trkpt lat="43.0728651" lon="13.0071036"><ele>573.0</ele><time>2026-04-25T07:51:08.128Z</time></trkpt><trkpt lat="43.072992" lon="13.0068443"><ele>573.0</ele><time>2026-04-25T07:51:09.123Z</time></trkpt><trkpt lat="43.0731432" lon="13.0065919"><ele>564.0</ele><time>2026-04-25T07:51:10.139Z</time></trkpt><trkpt lat="43.0732924" lon="13.0063585"><ele>555.0</ele><time>2026-04-25T07:51:11.13Z</time></trkpt><trkpt lat="43.0734011" lon="13.0061112"><ele>546.0</ele><time>2026-04-25T07:51:12.128Z</time></trkpt><trkpt lat="43.0734538" lon="13.0058621"><ele>550.6666666666666</ele><time>2026-04-25T07:51:13.134Z</time></trkpt><trkpt lat="43.0734887" lon="13.0056071"><ele>555.3333333333333</ele><time>2026-04-25T07:51:14.131Z</time></trkpt><trkpt lat="43.0735377" lon="13.0053502"><ele>560.0</ele><time>2026-04-25T07:51:15.135Z</time></trkpt><trkpt lat="43.0736381" lon="13.0051363"><ele>563.6666666666666</ele><time>2026-04-25T07:51:16.129Z</time></trkpt><trkpt lat="43.0737863" lon="13.0049616"><ele>567.3333333333334</ele><time>2026-04-25T07:51:17.126Z</time></trkpt><trkpt lat="43.0739537" lon="13.0048156"><ele>571.0</ele><time>2026-04-25T07:51:18.128Z</time></trkpt><trkpt lat="43.074099" lon="13.0046567"><ele>568.6666666666667</ele><time>2026-04-25T07:51:19.125Z</time></trkpt><trkpt lat="43.0742234" lon="13.0044545"><ele>566.3333333333334</ele><time>2026-04-25T07:51:20.133Z</time></trkpt><trkpt lat="43.0743264" lon="13.0042069"><ele>564.0</ele><time>2026-04-25T07:51:21.13Z</time></trkpt><trkpt lat="43.0744207" lon="13.0039505"><ele>564.0</ele><time>2026-04-25T07:51:22.14Z</time></trkpt><trkpt lat="43.0745055" lon="13.003725"><ele>564.0</ele><time>2026-04-25T07:51:23.131Z</time></trkpt><trkpt lat="43.0745968" lon="13.0035171"><ele>564.0</ele><time>2026-04-25T07:51:24.126Z</time></trkpt><trkpt lat="43.0746913" lon="13.0032963"><ele>564.0</ele><time>2026-04-25T07:51:25.13Z</time></trkpt><trkpt lat="43.0747822" lon="13.0030719"><ele>564.0</ele><time>2026-04-25T07:51:26.131Z</time></trkpt><trkpt lat="43.0748599" lon="13.002868"><ele>564.0</ele><time>2026-04-25T07:51:27.138Z</time></trkpt><trkpt lat="43.0749355" lon="13.0026843"><ele>563.6</ele><time>2026-04-25T07:51:28.128Z</time></trkpt><trkpt lat="43.0750037" lon="13.0025308"><ele>563.2</ele><time>2026-04-25T07:51:29.132Z</time></trkpt><trkpt lat="43.0750715" lon="13.0024039"><ele>562.8000000000001</ele><time>2026-04-25T07:51:30.134Z</time></trkpt><trkpt lat="43.0751267" lon="13.0023176"><ele>562.4</ele><time>2026-04-25T07:51:31.131Z</time></trkpt><trkpt lat="43.0751956" lon="13.0022416"><ele>562.0</ele><time>2026-04-25T07:51:33.134Z</time></trkpt><trkpt lat="43.0752606" lon="13.002132"><ele>562.0</ele><time>2026-04-25T07:51:50.129Z</time></trkpt><trkpt lat="43.0753177" lon="13.0020442"><ele>562.0</ele><time>2026-04-25T07:51:51.13Z</time></trkpt><trkpt lat="43.075386" lon="13.0019354"><ele>562.0</ele><time>2026-04-25T07:51:52.132Z</time></trkpt><trkpt lat="43.0754683" lon="13.0018089"><ele>562.0</ele><time>2026-04-25T07:51:53.134Z</time></trkpt><trkpt lat="43.0755765" lon="13.001665"><ele>564.6666666666667</ele><time>2026-04-25T07:51:54.136Z</time></trkpt><trkpt lat="43.0757027" lon="13.0014977"><ele>567.3333333333334</ele><time>2026-04-25T07:51:55.14Z</time></trkpt><trkpt lat="43.0758199" lon="13.0013526"><ele>570.0</ele><time>2026-04-25T07:51:56.137Z</time></trkpt><trkpt lat="43.0759163" lon="13.0012121"><ele>567.25</ele><time>2026-04-25T07:51:57.135Z</time></trkpt><trkpt lat="43.0759909" lon="13.00107"><ele>564.5</ele><time>2026-04-25T07:51:58.136Z</time></trkpt><trkpt lat="43.0760446" lon="13.0009064"><ele>561.75</ele><time>2026-04-25T07:51:59.129Z</time></trkpt><trkpt lat="43.0760921" lon="13.000711"><ele>559.0</ele><time>2026-04-25T07:52:00.137Z</time></trkpt><trkpt lat="43.0761066" lon="13.000486"><ele>559.0</ele><time>2026-04-25T07:52:01.134Z</time></trkpt><trkpt lat="43.076105" lon="13.0002521"><ele>559.0</ele><time>2026-04-25T07:52:02.137Z</time></trkpt><trkpt lat="43.076095" lon="12.9999814"><ele>559.0</ele><time>2026-04-25T07:52:03.136Z</time></trkpt><trkpt lat="43.0761143" lon="12.999709"><ele>559.0</ele><time>2026-04-25T07:52:04.136Z</time></trkpt><trkpt lat="43.0761765" lon="12.9994564"><ele>559.0</ele><time>2026-04-25T07:52:05.13Z</time></trkpt><trkpt lat="43.0762552" lon="12.9991981"><ele>559.0</ele><time>2026-04-25T07:52:06.137Z</time></trkpt><trkpt lat="43.0763181" lon="12.9989256"><ele>560.6666666666667</ele><time>2026-04-25T07:52:07.133Z</time></trkpt><trkpt lat="43.0763774" lon="12.9986387"><ele>562.3333333333334</ele><time>2026-04-25T07:52:08.136Z</time></trkpt><trkpt lat="43.0764048" lon="12.9983275"><ele>564.0</ele><time>2026-04-25T07:52:09.14Z</time></trkpt><trkpt lat="43.076371" lon="12.9980207"><ele>566.0</ele><time>2026-04-25T07:52:10.142Z</time></trkpt><trkpt lat="43.0763161" lon="12.9977197"><ele>568.0</ele><time>2026-04-25T07:52:11.129Z</time></trkpt><trkpt lat="43.0762694" lon="12.9974021"><ele>569.3333333333334</ele><time>2026-04-25T07:52:12.131Z</time></trkpt><trkpt lat="43.076257" lon="12.9970841"><ele>570.6666666666666</ele><time>2026-04-25T07:52:13.137Z</time></trkpt><trkpt lat="43.0762719" lon="12.9968042"><ele>572.0</ele><time>2026-04-25T07:52:14.131Z</time></trkpt><trkpt lat="43.0763072" lon="12.9965372"><ele>572.6666666666666</ele><time>2026-04-25T07:52:15.141Z</time></trkpt><trkpt lat="43.0763524" lon="12.9962472"><ele>573.3333333333334</ele><time>2026-04-25T07:52:16.129Z</time></trkpt><trkpt lat="43.0764211" lon="12.9959576"><ele>574.0</ele><time>2026-04-25T07:52:17.124Z</time></trkpt><trkpt lat="43.0765057" lon="12.9956698"><ele>575.3333333333334</ele><time>2026-04-25T07:52:18.132Z</time></trkpt><trkpt lat="43.0765916" lon="12.9953946"><ele>576.6666666666666</ele><time>2026-04-25T07:52:19.147Z</time></trkpt><trkpt lat="43.0766728" lon="12.9951453"><ele>578.0</ele><time>2026-04-25T07:52:20.129Z</time></trkpt><trkpt lat="43.0767458" lon="12.9949031"><ele>575.3333333333333</ele><time>2026-04-25T07:52:21.128Z</time></trkpt><trkpt lat="43.0768182" lon="12.9946645"><ele>572.6666666666666</ele><time>2026-04-25T07:52:22.128Z</time></trkpt><trkpt lat="43.0768498" lon="12.9944186"><ele>570.0</ele><time>2026-04-25T07:52:23.129Z</time></trkpt><trkpt lat="43.0768352" lon="12.9941409"><ele>570.0</ele><time>2026-04-25T07:52:24.125Z</time></trkpt><trkpt lat="43.0767826" lon="12.9938603"><ele>570.0</ele><time>2026-04-25T07:52:25.131Z</time></trkpt><trkpt lat="43.0767159" lon="12.9935722"><ele>570.0</ele><time>2026-04-25T07:52:26.125Z</time></trkpt><trkpt lat="43.0766299" lon="12.9932855"><ele>578.6666666666666</ele><time>2026-04-25T07:52:27.134Z</time></trkpt><trkpt lat="43.0765528" lon="12.9930223"><ele>587.3333333333333</ele><time>2026-04-25T07:52:28.132Z</time></trkpt><trkpt lat="43.0764857" lon="12.9927741"><ele>596.0</ele><time>2026-04-25T07:52:29.125Z</time></trkpt><trkpt lat="43.0764554" lon="12.9925129"><ele>596.3333333333333</ele><time>2026-04-25T07:52:30.132Z</time></trkpt><trkpt lat="43.0764552" lon="12.9922232"><ele>596.6666666666666</ele><time>2026-04-25T07:52:31.133Z</time></trkpt><trkpt lat="43.0764691" lon="12.9919192"><ele>597.0</ele><time>2026-04-25T07:52:32.133Z</time></trkpt><trkpt lat="43.0764787" lon="12.9916451"><ele>598.6666666666666</ele><time>2026-04-25T07:52:33.13Z</time></trkpt><trkpt lat="43.0764858" lon="12.9914017"><ele>600.3333333333333</ele><time>2026-04-25T07:52:34.131Z</time></trkpt><trkpt lat="43.0764913" lon="12.9911701"><ele>602.0</ele><time>2026-04-25T07:52:35.127Z</time></trkpt><trkpt lat="43.0765288" lon="12.990979"><ele>594.25</ele><time>2026-04-25T07:52:36.128Z</time></trkpt><trkpt lat="43.0766035" lon="12.9908371"><ele>586.5</ele><time>2026-04-25T07:52:37.128Z</time></trkpt><trkpt lat="43.076709" lon="12.9907199"><ele>578.75</ele><time>2026-04-25T07:52:38.124Z</time></trkpt><trkpt lat="43.0768051" lon="12.9905807"><ele>571.0</ele><time>2026-04-25T07:52:39.126Z</time></trkpt><trkpt lat="43.0768586" lon="12.9903969"><ele>571.0</ele><time>2026-04-25T07:52:40.133Z</time></trkpt><trkpt lat="43.0768625" lon="12.9901615"><ele>571.0</ele><time>2026-04-25T07:52:41.124Z</time></trkpt><trkpt lat="43.0768617" lon="12.9898675"><ele>571.0</ele><time>2026-04-25T07:52:42.122Z</time></trkpt><trkpt lat="43.0768571" lon="12.9895682"><ele>571.6666666666667</ele><time>2026-04-25T07:52:43.126Z</time></trkpt><trkpt lat="43.0768658" lon="12.9892582"><ele>572.3333333333334</ele><time>2026-04-25T07:52:44.133Z</time></trkpt><trkpt lat="43.0768781" lon="12.9889637"><ele>573.0</ele><time>2026-04-25T07:52:45.134Z</time></trkpt><trkpt lat="43.0768959" lon="12.9886762"><ele>573.6666666666666</ele><time>2026-04-25T07:52:46.127Z</time></trkpt><trkpt lat="43.0769122" lon="12.9884093"><ele>574.3333333333333</ele><time>2026-04-25T07:52:47.129Z</time></trkpt><trkpt lat="43.0769273" lon="12.9881558"><ele>575.0</ele><time>2026-04-25T07:52:48.129Z</time></trkpt><trkpt lat="43.0769479" lon="12.9879267"><ele>575.0</ele><time>2026-04-25T07:52:49.127Z</time></trkpt><trkpt lat="43.0769688" lon="12.9877223"><ele>575.0</ele><time>2026-04-25T07:52:50.138Z</time></trkpt><trkpt lat="43.0769856" lon="12.9875419"><ele>575.0</ele><time>2026-04-25T07:52:51.131Z</time></trkpt><trkpt lat="43.0770069" lon="12.9873841"><ele>575.0</ele><time>2026-04-25T07:52:52.125Z</time></trkpt><trkpt lat="43.0770402" lon="12.9872233"><ele>576.25</ele><time>2026-04-25T07:52:53.151Z</time></trkpt><trkpt lat="43.0770869" lon="12.9870517"><ele>577.5</ele><time>2026-04-25T07:52:54.135Z</time></trkpt><trkpt lat="43.0771378" lon="12.986872"><ele>578.75</ele><time>2026-04-25T07:52:55.127Z</time></trkpt><trkpt lat="43.077173" lon="12.9866777"><ele>580.0</ele><time>2026-04-25T07:52:56.128Z</time></trkpt><trkpt lat="43.0771846" lon="12.9864738"><ele>581.75</ele><time>2026-04-25T07:52:57.133Z</time></trkpt><trkpt lat="43.0771837" lon="12.9862701"><ele>583.5</ele><time>2026-04-25T07:52:58.136Z</time></trkpt><trkpt lat="43.0771764" lon="12.9860828"><ele>585.25</ele><time>2026-04-25T07:52:59.134Z</time></trkpt><trkpt lat="43.0771654" lon="12.9859129"><ele>587.0</ele><time>2026-04-25T07:53:00.125Z</time></trkpt><trkpt lat="43.0771513" lon="12.9857652"><ele>587.6666666666666</ele><time>2026-04-25T07:53:01.141Z</time></trkpt><trkpt lat="43.0771335" lon="12.9856335"><ele>588.3333333333333</ele><time>2026-04-25T07:53:02.137Z</time></trkpt><trkpt lat="43.0771079" lon="12.9855158"><ele>589.0</ele><time>2026-04-25T07:53:03.123Z</time></trkpt><trkpt lat="43.0770752" lon="12.985416"><ele>589.6666666666666</ele><time>2026-04-25T07:53:04.129Z</time></trkpt><trkpt lat="43.0770405" lon="12.9853105"><ele>590.3333333333334</ele><time>2026-04-25T07:53:06.129Z</time></trkpt><trkpt lat="43.0771022" lon="12.9852507"><ele>591.0</ele><time>2026-04-25T07:53:09.125Z</time></trkpt><trkpt lat="43.0771448" lon="12.9853731"><ele>591.0</ele><time>2026-04-25T07:53:11.124Z</time></trkpt><trkpt lat="43.0771622" lon="12.9854707"><ele>591.0</ele><time>2026-04-25T07:53:12.124Z</time></trkpt><trkpt lat="43.0771777" lon="12.9855608"><ele>591.0</ele><time>2026-04-25T07:53:13.129Z</time></trkpt><trkpt lat="43.0771896" lon="12.9856542"><ele>591.0</ele><time>2026-04-25T07:53:14.124Z</time></trkpt><trkpt lat="43.0772103" lon="12.9857985"><ele>591.0</ele><time>2026-04-25T07:53:16.128Z</time></trkpt><trkpt lat="43.0772255" lon="12.9858841"><ele>591.0</ele><time>2026-04-25T07:53:20.131Z</time></trkpt><trkpt lat="43.0772476" lon="12.9859849"><ele>590.0</ele><time>2026-04-25T07:54:11.14Z</time></trkpt><trkpt lat="43.0772617" lon="12.9860967"><ele>589.0</ele><time>2026-04-25T07:54:12.128Z</time></trkpt><trkpt lat="43.0772785" lon="12.9862567"><ele>588.0</ele><time>2026-04-25T07:54:13.134Z</time></trkpt><trkpt lat="43.0772908" lon="12.9864551"><ele>587.0</ele><time>2026-04-25T07:54:14.126Z</time></trkpt><trkpt lat="43.0772915" lon="12.986672"><ele>584.6666666666666</ele><time>2026-04-25T07:54:15.126Z</time></trkpt><trkpt lat="43.0772794" lon="12.9869207"><ele>582.3333333333334</ele><time>2026-04-25T07:54:16.137Z</time></trkpt><trkpt lat="43.0772695" lon="12.987169"><ele>580.0</ele><time>2026-04-25T07:54:17.137Z</time></trkpt><trkpt lat="43.0772475" lon="12.9874021"><ele>578.3333333333334</ele><time>2026-04-25T07:54:18.139Z</time></trkpt><trkpt lat="43.0772184" lon="12.9876213"><ele>576.6666666666666</ele><time>2026-04-25T07:54:19.135Z</time></trkpt><trkpt lat="43.0772164" lon="12.987848"><ele>575.0</ele><time>2026-04-25T07:54:20.134Z</time></trkpt><trkpt lat="43.0772468" lon="12.9880766"><ele>575.0</ele><time>2026-04-25T07:54:21.13Z</time></trkpt><trkpt lat="43.0772837" lon="12.9883528"><ele>575.0</ele><time>2026-04-25T07:54:22.136Z</time></trkpt><trkpt lat="43.0772951" lon="12.9886368"><ele>575.0</ele><time>2026-04-25T07:54:23.137Z</time></trkpt><trkpt lat="43.0772879" lon="12.9889404"><ele>574.3333333333333</ele><time>2026-04-25T07:54:24.126Z</time></trkpt><trkpt lat="43.0773047" lon="12.9892549"><ele>573.6666666666666</ele><time>2026-04-25T07:54:25.133Z</time></trkpt><trkpt lat="43.0773422" lon="12.9895431"><ele>573.0</ele><time>2026-04-25T07:54:26.129Z</time></trkpt><trkpt lat="43.077404" lon="12.9898371"><ele>588.0</ele><time>2026-04-25T07:54:27.14Z</time></trkpt><trkpt lat="43.0774935" lon="12.9901545"><ele>603.0</ele><time>2026-04-25T07:54:28.126Z</time></trkpt><trkpt lat="43.0775966" lon="12.9904708"><ele>603.0</ele><time>2026-04-25T07:54:29.126Z</time></trkpt><trkpt lat="43.0776937" lon="12.9907975"><ele>603.0</ele><time>2026-04-25T07:54:30.138Z</time></trkpt><trkpt lat="43.0777973" lon="12.9911168"><ele>596.5</ele><time>2026-04-25T07:54:31.135Z</time></trkpt><trkpt lat="43.0779002" lon="12.9914173"><ele>590.0</ele><time>2026-04-25T07:54:32.131Z</time></trkpt><trkpt lat="43.0780123" lon="12.991713"><ele>588.3333333333333</ele><time>2026-04-25T07:54:33.126Z</time></trkpt><trkpt lat="43.0781251" lon="12.9919962"><ele>586.6666666666666</ele><time>2026-04-25T07:54:34.125Z</time></trkpt><trkpt lat="43.0782155" lon="12.9922554"><ele>585.0</ele><time>2026-04-25T07:54:35.125Z</time></trkpt><trkpt lat="43.0782635" lon="12.9925189"><ele>597.3333333333334</ele><time>2026-04-25T07:54:36.125Z</time></trkpt><trkpt lat="43.0783104" lon="12.9927912"><ele>609.6666666666667</ele><time>2026-04-25T07:54:37.129Z</time></trkpt><trkpt lat="43.0783657" lon="12.9930509"><ele>622.0</ele><time>2026-04-25T07:54:38.126Z</time></trkpt><trkpt lat="43.0784573" lon="12.9932887"><ele>619.0</ele><time>2026-04-25T07:54:39.128Z</time></trkpt><trkpt lat="43.0785586" lon="12.9935053"><ele>616.0</ele><time>2026-04-25T07:54:40.139Z</time></trkpt><trkpt lat="43.0786686" lon="12.9936922"><ele>613.0</ele><time>2026-04-25T07:54:41.131Z</time></trkpt><trkpt lat="43.0787755" lon="12.9938473"><ele>613.0</ele><time>2026-04-25T07:54:42.132Z</time></trkpt><trkpt lat="43.078875" lon="12.9939921"><ele>613.0</ele><time>2026-04-25T07:54:43.133Z</time></trkpt><trkpt lat="43.0789518" lon="12.9941751"><ele>613.0</ele><time>2026-04-25T07:54:44.142Z</time></trkpt><trkpt lat="43.0789809" lon="12.9944018"><ele>614.6666666666667</ele><time>2026-04-25T07:54:45.12Z</time></trkpt><trkpt lat="43.07898" lon="12.9946379"><ele>616.3333333333334</ele><time>2026-04-25T07:54:46.129Z</time></trkpt><trkpt lat="43.0789514" lon="12.9948782"><ele>618.0</ele><time>2026-04-25T07:54:47.125Z</time></trkpt><trkpt lat="43.0788708" lon="12.9951199"><ele>620.3333333333334</ele><time>2026-04-25T07:54:48.125Z</time></trkpt><trkpt lat="43.0787923" lon="12.995373"><ele>622.6666666666667</ele><time>2026-04-25T07:54:49.125Z</time></trkpt><trkpt lat="43.0787031" lon="12.9956081"><ele>625.0</ele><time>2026-04-25T07:54:50.123Z</time></trkpt><trkpt lat="43.0786534" lon="12.9958729"><ele>625.0</ele><time>2026-04-25T07:54:51.129Z</time></trkpt><trkpt lat="43.078647" lon="12.9961522"><ele>625.0</ele><time>2026-04-25T07:54:52.124Z</time></trkpt><trkpt lat="43.0786396" lon="12.9964266"><ele>625.0</ele><time>2026-04-25T07:54:53.136Z</time></trkpt><trkpt lat="43.0786515" lon="12.9966875"><ele>623.3333333333334</ele><time>2026-04-25T07:54:54.147Z</time></trkpt><trkpt lat="43.0786732" lon="12.9969527"><ele>621.6666666666666</ele><time>2026-04-25T07:54:55.132Z</time></trkpt><trkpt lat="43.0787226" lon="12.9972317"><ele>620.0</ele><time>2026-04-25T07:54:56.131Z</time></trkpt><trkpt lat="43.0787925" lon="12.997529"><ele>617.6666666666666</ele><time>2026-04-25T07:54:57.131Z</time></trkpt><trkpt lat="43.0788622" lon="12.9978079"><ele>615.3333333333334</ele><time>2026-04-25T07:54:58.132Z</time></trkpt><trkpt lat="43.0789064" lon="12.9980631"><ele>613.0</ele><time>2026-04-25T07:54:59.141Z</time></trkpt><trkpt lat="43.0789528" lon="12.9983007"><ele>610.75</ele><time>2026-04-25T07:55:00.131Z</time></trkpt><trkpt lat="43.0790157" lon="12.9984956"><ele>608.5</ele><time>2026-04-25T07:55:01.14Z</time></trkpt><trkpt lat="43.0790941" lon="12.998629"><ele>606.25</ele><time>2026-04-25T07:55:02.129Z</time></trkpt><trkpt lat="43.079209" lon="12.9987013"><ele>604.0</ele><time>2026-04-25T07:55:03.122Z</time></trkpt><trkpt lat="43.0793544" lon="12.9987366"><ele>613.0</ele><time>2026-04-25T07:55:04.124Z</time></trkpt><trkpt lat="43.0795199" lon="12.9987915"><ele>622.0</ele><time>2026-04-25T07:55:05.121Z</time></trkpt><trkpt lat="43.0797025" lon="12.9989074"><ele>631.0</ele><time>2026-04-25T07:55:06.13Z</time></trkpt><trkpt lat="43.0798959" lon="12.9990309"><ele>628.0</ele><time>2026-04-25T07:55:07.125Z</time></trkpt><trkpt lat="43.0801091" lon="12.9991532"><ele>625.0</ele><time>2026-04-25T07:55:08.123Z</time></trkpt><trkpt lat="43.08032" lon="12.9992566"><ele>625.0</ele><time>2026-04-25T07:55:09.135Z</time></trkpt><trkpt lat="43.0805101" lon="12.9993568"><ele>625.0</ele><time>2026-04-25T07:55:10.125Z</time></trkpt><trkpt lat="43.0806815" lon="12.9994821"><ele>625.0</ele><time>2026-04-25T07:55:11.137Z</time></trkpt><trkpt lat="43.0808403" lon="12.9996257"><ele>633.3333333333334</ele><time>2026-04-25T07:55:12.124Z</time></trkpt><trkpt lat="43.0809572" lon="12.9998108"><ele>641.6666666666666</ele><time>2026-04-25T07:55:13.144Z</time></trkpt><trkpt lat="43.081053" lon="13.0000101"><ele>650.0</ele><time>2026-04-25T07:55:14.128Z</time></trkpt><trkpt lat="43.0811429" lon="13.0002292"><ele>650.0</ele><time>2026-04-25T07:55:15.122Z</time></trkpt><trkpt lat="43.0811983" lon="13.0004477"><ele>650.0</ele><time>2026-04-25T07:55:16.121Z</time></trkpt><trkpt lat="43.0812321" lon="13.00066"><ele>650.0</ele><time>2026-04-25T07:55:17.127Z</time></trkpt><trkpt lat="43.0812955" lon="13.0008221"><ele>647.25</ele><time>2026-04-25T07:55:18.132Z</time></trkpt><trkpt lat="43.0813754" lon="13.0009859"><ele>644.5</ele><time>2026-04-25T07:55:19.126Z</time></trkpt><trkpt lat="43.0814281" lon="13.0011782"><ele>641.75</ele><time>2026-04-25T07:55:20.128Z</time></trkpt><trkpt lat="43.0814164" lon="13.001379"><ele>639.0</ele><time>2026-04-25T07:55:21.126Z</time></trkpt><trkpt lat="43.0813649" lon="13.0015638"><ele>637.75</ele><time>2026-04-25T07:55:22.126Z</time></trkpt><trkpt lat="43.0812908" lon="13.0017156"><ele>636.5</ele><time>2026-04-25T07:55:23.147Z</time></trkpt><trkpt lat="43.0812481" lon="13.00187"><ele>635.25</ele><time>2026-04-25T07:55:24.13Z</time></trkpt><trkpt lat="43.0812585" lon="13.0020301"><ele>634.0</ele><time>2026-04-25T07:55:25.135Z</time></trkpt><trkpt lat="43.0813304" lon="13.0021842"><ele>634.0</ele><time>2026-04-25T07:55:26.133Z</time></trkpt><trkpt lat="43.0814361" lon="13.002312"><ele>634.0</ele><time>2026-04-25T07:55:27.128Z</time></trkpt><trkpt lat="43.0815833" lon="13.0023927"><ele>634.0</ele><time>2026-04-25T07:55:28.137Z</time></trkpt><trkpt lat="43.0817716" lon="13.0024322"><ele>647.0</ele><time>2026-04-25T07:55:29.118Z</time></trkpt><trkpt lat="43.0819925" lon="13.0024983"><ele>660.0</ele><time>2026-04-25T07:55:30.12Z</time></trkpt><trkpt lat="43.0822396" lon="13.0025632"><ele>667.0</ele><time>2026-04-25T07:55:31.124Z</time></trkpt><trkpt lat="43.0824933" lon="13.0026417"><ele>674.0</ele><time>2026-04-25T07:55:32.137Z</time></trkpt><trkpt lat="43.0827323" lon="13.0026969"><ele>674.0</ele><time>2026-04-25T07:55:33.133Z</time></trkpt><trkpt lat="43.0829431" lon="13.0027402"><ele>674.0</ele><time>2026-04-25T07:55:34.132Z</time></trkpt><trkpt lat="43.0831365" lon="13.0027616"><ele>674.0</ele><time>2026-04-25T07:55:35.127Z</time></trkpt><trkpt lat="43.0833068" lon="13.0027825"><ele>677.0</ele><time>2026-04-25T07:55:36.137Z</time></trkpt><trkpt lat="43.0834415" lon="13.0028233"><ele>680.0</ele><time>2026-04-25T07:55:37.135Z</time></trkpt><trkpt lat="43.083564" lon="13.0028885"><ele>683.0</ele><time>2026-04-25T07:55:38.13Z</time></trkpt><trkpt lat="43.0836955" lon="13.0029889"><ele>686.0</ele><time>2026-04-25T07:55:39.139Z</time></trkpt><trkpt lat="43.0838318" lon="13.0031181"><ele>686.0</ele><time>2026-04-25T07:55:40.131Z</time></trkpt><trkpt lat="43.0839624" lon="13.0032804"><ele>686.0</ele><time>2026-04-25T07:55:41.131Z</time></trkpt><trkpt lat="43.084083" lon="13.003477"><ele>686.0</ele><time>2026-04-25T07:55:42.125Z</time></trkpt><trkpt lat="43.0842002" lon="13.0036775"><ele>684.6666666666666</ele><time>2026-04-25T07:55:43.123Z</time></trkpt><trkpt lat="43.0843341" lon="13.0038277"><ele>683.3333333333334</ele><time>2026-04-25T07:55:44.124Z</time></trkpt><trkpt lat="43.0844752" lon="13.0039172"><ele>682.0</ele><time>2026-04-25T07:55:45.131Z</time></trkpt><trkpt lat="43.0846616" lon="13.0039655"><ele>682.0</ele><time>2026-04-25T07:55:46.123Z</time></trkpt><trkpt lat="43.0848642" lon="13.0039878"><ele>682.0</ele><time>2026-04-25T07:55:47.122Z</time></trkpt><trkpt lat="43.0850667" lon="13.0040147"><ele>682.0</ele><time>2026-04-25T07:55:48.132Z</time></trkpt><trkpt lat="43.0852388" lon="13.004042"><ele>680.75</ele><time>2026-04-25T07:55:49.13Z</time></trkpt><trkpt lat="43.0853937" lon="13.0040681"><ele>679.5</ele><time>2026-04-25T07:55:50.126Z</time></trkpt><trkpt lat="43.08552" lon="13.0041058"><ele>678.25</ele><time>2026-04-25T07:55:51.127Z</time></trkpt><trkpt lat="43.085637" lon="13.0041822"><ele>677.0</ele><time>2026-04-25T07:55:52.139Z</time></trkpt><trkpt lat="43.0857551" lon="13.0042939"><ele>683.6666666666666</ele><time>2026-04-25T07:55:53.128Z</time></trkpt><trkpt lat="43.0858858" lon="13.0044148"><ele>690.3333333333334</ele><time>2026-04-25T07:55:54.134Z</time></trkpt><trkpt lat="43.0860177" lon="13.0045555"><ele>697.0</ele><time>2026-04-25T07:55:55.128Z</time></trkpt><trkpt lat="43.0861576" lon="13.0046959"><ele>697.0</ele><time>2026-04-25T07:55:56.13Z</time></trkpt><trkpt lat="43.0863082" lon="13.0048406"><ele>697.0</ele><time>2026-04-25T07:55:57.129Z</time></trkpt><trkpt lat="43.086457" lon="13.0049924"><ele>697.0</ele><time>2026-04-25T07:55:58.135Z</time></trkpt><trkpt lat="43.08661" lon="13.0051559"><ele>700.3333333333334</ele><time>2026-04-25T07:55:59.13Z</time></trkpt><trkpt lat="43.086765" lon="13.0053188"><ele>703.6666666666666</ele><time>2026-04-25T07:56:00.125Z</time></trkpt><trkpt lat="43.0869185" lon="13.0054869"><ele>707.0</ele><time>2026-04-25T07:56:01.125Z</time></trkpt><trkpt lat="43.0870796" lon="13.0056495"><ele>707.0</ele><time>2026-04-25T07:56:02.132Z</time></trkpt><trkpt lat="43.087238" lon="13.0058266"><ele>707.0</ele><time>2026-04-25T07:56:03.13Z</time></trkpt><trkpt lat="43.0874025" lon="13.0060054"><ele>707.0</ele><time>2026-04-25T07:56:04.127Z</time></trkpt><trkpt lat="43.0875688" lon="13.0061774"><ele>709.6666666666666</ele><time>2026-04-25T07:56:05.125Z</time></trkpt><trkpt lat="43.0877155" lon="13.0063354"><ele>712.3333333333334</ele><time>2026-04-25T07:56:06.13Z</time></trkpt><trkpt lat="43.0878472" lon="13.006455"><ele>715.0</ele><time>2026-04-25T07:56:07.128Z</time></trkpt><trkpt lat="43.0879315" lon="13.0065628"><ele>714.0</ele><time>2026-04-25T07:56:08.136Z</time></trkpt><trkpt lat="43.0879799" lon="13.0066672"><ele>713.0</ele><time>2026-04-25T07:56:09.136Z</time></trkpt><trkpt lat="43.0879851" lon="13.0067746"><ele>712.0</ele><time>2026-04-25T07:56:10.129Z</time></trkpt><trkpt lat="43.0879429" lon="13.0068839"><ele>711.0</ele><time>2026-04-25T07:56:11.133Z</time></trkpt><trkpt lat="43.0878508" lon="13.0069406"><ele>710.0</ele><time>2026-04-25T07:56:12.14Z</time></trkpt><trkpt lat="43.0877379" lon="13.0069277"><ele>710.0</ele><time>2026-04-25T07:56:13.131Z</time></trkpt><trkpt lat="43.0876169" lon="13.0068817"><ele>710.0</ele><time>2026-04-25T07:56:14.135Z</time></trkpt><trkpt lat="43.087489" lon="13.0068557"><ele>710.0</ele><time>2026-04-25T07:56:15.132Z</time></trkpt><trkpt lat="43.0873673" lon="13.0068502"><ele>710.0</ele><time>2026-04-25T07:56:16.126Z</time></trkpt><trkpt lat="43.0872566" lon="13.0068994"><ele>708.6</ele><time>2026-04-25T07:56:17.129Z</time></trkpt><trkpt lat="43.0871789" lon="13.0069697"><ele>707.2</ele><time>2026-04-25T07:56:18.124Z</time></trkpt><trkpt lat="43.0871484" lon="13.0070751"><ele>705.8</ele><time>2026-04-25T07:56:19.135Z</time></trkpt><trkpt lat="43.0871764" lon="13.0071831"><ele>704.4</ele><time>2026-04-25T07:56:20.129Z</time></trkpt><trkpt lat="43.0872484" lon="13.0072761"><ele>703.0</ele><time>2026-04-25T07:56:21.134Z</time></trkpt><trkpt lat="43.0873752" lon="13.0073163"><ele>705.3333333333334</ele><time>2026-04-25T07:56:22.14Z</time></trkpt><trkpt lat="43.0875425" lon="13.0073618"><ele>707.6666666666666</ele><time>2026-04-25T07:56:23.134Z</time></trkpt><trkpt lat="43.0877288" lon="13.0074201"><ele>710.0</ele><time>2026-04-25T07:56:24.128Z</time></trkpt><trkpt lat="43.0879061" lon="13.0074775"><ele>710.0</ele><time>2026-04-25T07:56:25.133Z</time></trkpt><trkpt lat="43.0880633" lon="13.0074986"><ele>710.0</ele><time>2026-04-25T07:56:26.134Z</time></trkpt><trkpt lat="43.0882062" lon="13.0074614"><ele>710.0</ele><time>2026-04-25T07:56:27.129Z</time></trkpt><trkpt lat="43.0883369" lon="13.0073782"><ele>710.0</ele><time>2026-04-25T07:56:28.121Z</time></trkpt><trkpt lat="43.0884694" lon="13.0072367"><ele>713.6666666666666</ele><time>2026-04-25T07:56:29.121Z</time></trkpt><trkpt lat="43.0886027" lon="13.0070725"><ele>717.3333333333334</ele><time>2026-04-25T07:56:30.12Z</time></trkpt><trkpt lat="43.088727" lon="13.0069254"><ele>721.0</ele><time>2026-04-25T07:56:31.129Z</time></trkpt><trkpt lat="43.0888468" lon="13.0067969"><ele>721.0</ele><time>2026-04-25T07:56:32.129Z</time></trkpt><trkpt lat="43.0889797" lon="13.0067113"><ele>721.0</ele><time>2026-04-25T07:56:33.137Z</time></trkpt><trkpt lat="43.0891362" lon="13.0066911"><ele>721.0</ele><time>2026-04-25T07:56:34.139Z</time></trkpt><trkpt lat="43.0893082" lon="13.0067194"><ele>725.3333333333334</ele><time>2026-04-25T07:56:35.138Z</time></trkpt><trkpt lat="43.0894826" lon="13.006789"><ele>729.6666666666666</ele><time>2026-04-25T07:56:36.128Z</time></trkpt><trkpt lat="43.0896696" lon="13.006886"><ele>734.0</ele><time>2026-04-25T07:56:37.142Z</time></trkpt><trkpt lat="43.0898586" lon="13.0070121"><ele>737.3333333333333</ele><time>2026-04-25T07:56:38.126Z</time></trkpt><trkpt lat="43.090051" lon="13.0071524"><ele>740.6666666666666</ele><time>2026-04-25T07:56:39.138Z</time></trkpt><trkpt lat="43.0902431" lon="13.0072969"><ele>744.0</ele><time>2026-04-25T07:56:40.128Z</time></trkpt><trkpt lat="43.0904282" lon="13.0074501"><ele>744.6666666666666</ele><time>2026-04-25T07:56:41.153Z</time></trkpt><trkpt lat="43.0905927" lon="13.007604"><ele>745.3333333333333</ele><time>2026-04-25T07:56:42.128Z</time></trkpt><trkpt lat="43.0907222" lon="13.0077527"><ele>746.0</ele><time>2026-04-25T07:56:43.131Z</time></trkpt><trkpt lat="43.0908221" lon="13.0079052"><ele>746.0</ele><time>2026-04-25T07:56:44.125Z</time></trkpt><trkpt lat="43.0908856" lon="13.0080908"><ele>746.0</ele><time>2026-04-25T07:56:45.128Z</time></trkpt><trkpt lat="43.0909089" lon="13.0082826"><ele>746.0</ele><time>2026-04-25T07:56:46.146Z</time></trkpt><trkpt lat="43.0909119" lon="13.008496"><ele>746.0</ele><time>2026-04-25T07:56:47.131Z</time></trkpt><trkpt lat="43.0909362" lon="13.0087069"><ele>746.6666666666666</ele><time>2026-04-25T07:56:48.131Z</time></trkpt><trkpt lat="43.0910058" lon="13.0089005"><ele>747.3333333333334</ele><time>2026-04-25T07:56:49.135Z</time></trkpt><trkpt lat="43.0911152" lon="13.0090617"><ele>748.0</ele><time>2026-04-25T07:56:50.134Z</time></trkpt><trkpt lat="43.0912595" lon="13.0091891"><ele>746.0</ele><time>2026-04-25T07:56:51.13Z</time></trkpt><trkpt lat="43.0914326" lon="13.0093235"><ele>744.0</ele><time>2026-04-25T07:56:52.132Z</time></trkpt><trkpt lat="43.0916268" lon="13.0094304"><ele>742.0</ele><time>2026-04-25T07:56:53.148Z</time></trkpt><trkpt lat="43.091833" lon="13.0095297"><ele>742.0</ele><time>2026-04-25T07:56:54.137Z</time></trkpt><trkpt lat="43.0920187" lon="13.0096371"><ele>742.0</ele><time>2026-04-25T07:56:55.132Z</time></trkpt><trkpt lat="43.09218" lon="13.0097559"><ele>742.0</ele><time>2026-04-25T07:56:56.132Z</time></trkpt><trkpt lat="43.092329" lon="13.0098552"><ele>736.3333333333334</ele><time>2026-04-25T07:56:57.128Z</time></trkpt><trkpt lat="43.0925015" lon="13.0098956"><ele>730.6666666666666</ele><time>2026-04-25T07:56:58.125Z</time></trkpt><trkpt lat="43.0926863" lon="13.0098972"><ele>725.0</ele><time>2026-04-25T07:56:59.123Z</time></trkpt><trkpt lat="43.0928659" lon="13.0099186"><ele>725.0</ele><time>2026-04-25T07:57:00.124Z</time></trkpt><trkpt lat="43.0930408" lon="13.0099859"><ele>725.0</ele><time>2026-04-25T07:57:01.13Z</time></trkpt><trkpt lat="43.0932221" lon="13.0100887"><ele>725.0</ele><time>2026-04-25T07:57:02.126Z</time></trkpt><trkpt lat="43.0934081" lon="13.0101949"><ele>731.0</ele><time>2026-04-25T07:57:03.124Z</time></trkpt><trkpt lat="43.0935751" lon="13.0103075"><ele>737.0</ele><time>2026-04-25T07:57:04.141Z</time></trkpt><trkpt lat="43.0937367" lon="13.0104421"><ele>743.0</ele><time>2026-04-25T07:57:05.131Z</time></trkpt><trkpt lat="43.0938836" lon="13.0106208"><ele>743.0</ele><time>2026-04-25T07:57:06.127Z</time></trkpt><trkpt lat="43.0940246" lon="13.0107973"><ele>743.0</ele><time>2026-04-25T07:57:07.134Z</time></trkpt><trkpt lat="43.0941725" lon="13.0109079"><ele>743.0</ele><time>2026-04-25T07:57:08.133Z</time></trkpt><trkpt lat="43.0943245" lon="13.0109778"><ele>745.3333333333333</ele><time>2026-04-25T07:57:09.124Z</time></trkpt><trkpt lat="43.0944938" lon="13.0110001"><ele>747.6666666666666</ele><time>2026-04-25T07:57:10.127Z</time></trkpt><trkpt lat="43.0946671" lon="13.0110128"><ele>750.0</ele><time>2026-04-25T07:57:11.128Z</time></trkpt><trkpt lat="43.0948411" lon="13.0110524"><ele>745.6666666666666</ele><time>2026-04-25T07:57:12.128Z</time></trkpt><trkpt lat="43.0950052" lon="13.011138"><ele>741.3333333333333</ele><time>2026-04-25T07:57:13.127Z</time></trkpt><trkpt lat="43.0951686" lon="13.0112373"><ele>737.0</ele><time>2026-04-25T07:57:14.133Z</time></trkpt><trkpt lat="43.0953437" lon="13.0112972"><ele>737.0</ele><time>2026-04-25T07:57:15.134Z</time></trkpt><trkpt lat="43.0955055" lon="13.011335"><ele>737.0</ele><time>2026-04-25T07:57:16.128Z</time></trkpt><trkpt lat="43.095658" lon="13.0114134"><ele>737.0</ele><time>2026-04-25T07:57:17.142Z</time></trkpt><trkpt lat="43.0957999" lon="13.0115492"><ele>740.3333333333333</ele><time>2026-04-25T07:57:18.134Z</time></trkpt><trkpt lat="43.0959414" lon="13.0117266"><ele>743.6666666666666</ele><time>2026-04-25T07:57:19.126Z</time></trkpt><trkpt lat="43.0960924" lon="13.0118889"><ele>747.0</ele><time>2026-04-25T07:57:20.139Z</time></trkpt><trkpt lat="43.0962656" lon="13.0120183"><ele>747.0</ele><time>2026-04-25T07:57:21.135Z</time></trkpt><trkpt lat="43.096463" lon="13.0121142"><ele>747.0</ele><time>2026-04-25T07:57:22.124Z</time></trkpt><trkpt lat="43.0966852" lon="13.012202"><ele>747.0</ele><time>2026-04-25T07:57:23.117Z</time></trkpt><trkpt lat="43.096923" lon="13.0122697"><ele>737.0</ele><time>2026-04-25T07:57:24.131Z</time></trkpt><trkpt lat="43.0971749" lon="13.012316"><ele>727.0</ele><time>2026-04-25T07:57:25.134Z</time></trkpt><trkpt lat="43.0974353" lon="13.01234"><ele>719.5</ele><time>2026-04-25T07:57:26.125Z</time></trkpt><trkpt lat="43.0977001" lon="13.0123782"><ele>712.0</ele><time>2026-04-25T07:57:27.137Z</time></trkpt><trkpt lat="43.0979694" lon="13.0124421"><ele>717.0</ele><time>2026-04-25T07:57:28.128Z</time></trkpt><trkpt lat="43.0982339" lon="13.0125233"><ele>722.0</ele><time>2026-04-25T07:57:29.14Z</time></trkpt><trkpt lat="43.0984855" lon="13.0126071"><ele>722.0</ele><time>2026-04-25T07:57:30.131Z</time></trkpt><trkpt lat="43.0987193" lon="13.0126958"><ele>722.0</ele><time>2026-04-25T07:57:31.137Z</time></trkpt><trkpt lat="43.098941" lon="13.0127767"><ele>717.3333333333333</ele><time>2026-04-25T07:57:32.132Z</time></trkpt><trkpt lat="43.0991437" lon="13.0128662"><ele>712.6666666666666</ele><time>2026-04-25T07:57:33.14Z</time></trkpt><trkpt lat="43.0993289" lon="13.0129792"><ele>708.0</ele><time>2026-04-25T07:57:34.132Z</time></trkpt><trkpt lat="43.0994897" lon="13.0131231"><ele>708.0</ele><time>2026-04-25T07:57:35.133Z</time></trkpt><trkpt lat="43.0996416" lon="13.0133099"><ele>708.0</ele><time>2026-04-25T07:57:36.136Z</time></trkpt><trkpt lat="43.0997772" lon="13.0135352"><ele>708.0</ele><time>2026-04-25T07:57:37.133Z</time></trkpt><trkpt lat="43.0999318" lon="13.0137549"><ele>711.5</ele><time>2026-04-25T07:57:38.134Z</time></trkpt><trkpt lat="43.1001136" lon="13.0139678"><ele>715.0</ele><time>2026-04-25T07:57:39.126Z</time></trkpt><trkpt lat="43.1003278" lon="13.0141576"><ele>714.0</ele><time>2026-04-25T07:57:40.126Z</time></trkpt><trkpt lat="43.1005608" lon="13.0143575"><ele>713.0</ele><time>2026-04-25T07:57:41.143Z</time></trkpt><trkpt lat="43.1007979" lon="13.0145747"><ele>713.0</ele><time>2026-04-25T07:57:42.131Z</time></trkpt><trkpt lat="43.1010463" lon="13.0147888"><ele>713.0</ele><time>2026-04-25T07:57:43.136Z</time></trkpt><trkpt lat="43.1013026" lon="13.014998"><ele>714.0</ele><time>2026-04-25T07:57:44.135Z</time></trkpt><trkpt lat="43.1015597" lon="13.015203"><ele>715.0</ele><time>2026-04-25T07:57:45.146Z</time></trkpt><trkpt lat="43.1018198" lon="13.0154066"><ele>711.0</ele><time>2026-04-25T07:57:46.136Z</time></trkpt><trkpt lat="43.1020805" lon="13.0155946"><ele>707.0</ele><time>2026-04-25T07:57:47.139Z</time></trkpt><trkpt lat="43.102343" lon="13.0157723"><ele>702.5</ele><time>2026-04-25T07:57:48.134Z</time></trkpt><trkpt lat="43.1026043" lon="13.0159373"><ele>698.0</ele><time>2026-04-25T07:57:49.138Z</time></trkpt><trkpt lat="43.1028633" lon="13.0160942"><ele>698.0</ele><time>2026-04-25T07:57:50.137Z</time></trkpt><trkpt lat="43.103126" lon="13.0162568"><ele>698.0</ele><time>2026-04-25T07:57:51.138Z</time></trkpt><trkpt lat="43.1033896" lon="13.0164232"><ele>696.0</ele><time>2026-04-25T07:57:52.136Z</time></trkpt><trkpt lat="43.1036482" lon="13.0165941"><ele>694.0</ele><time>2026-04-25T07:57:53.136Z</time></trkpt><trkpt lat="43.1038975" lon="13.0167684"><ele>691.0</ele><time>2026-04-25T07:57:54.135Z</time></trkpt><trkpt lat="43.1041351" lon="13.0169279"><ele>688.0</ele><time>2026-04-25T07:57:55.136Z</time></trkpt><trkpt lat="43.1043677" lon="13.0170854"><ele>688.0</ele><time>2026-04-25T07:57:56.136Z</time></trkpt><trkpt lat="43.1045946" lon="13.0172442"><ele>688.0</ele><time>2026-04-25T07:57:57.135Z</time></trkpt><trkpt lat="43.104816" lon="13.0174087"><ele>685.5</ele><time>2026-04-25T07:57:58.126Z</time></trkpt><trkpt lat="43.1050265" lon="13.0175994"><ele>683.0</ele><time>2026-04-25T07:57:59.142Z</time></trkpt><trkpt lat="43.1052301" lon="13.0178156"><ele>683.0</ele><time>2026-04-25T07:58:00.137Z</time></trkpt><trkpt lat="43.1054292" lon="13.0180305"><ele>683.0</ele><time>2026-04-25T07:58:01.14Z</time></trkpt><trkpt lat="43.1056285" lon="13.0182496"><ele>679.0</ele><time>2026-04-25T07:58:02.14Z</time></trkpt><trkpt lat="43.1058338" lon="13.0184654"><ele>675.0</ele><time>2026-04-25T07:58:03.141Z</time></trkpt><trkpt lat="43.1060552" lon="13.0186661"><ele>675.0</ele><time>2026-04-25T07:58:04.141Z</time></trkpt><trkpt lat="43.1062831" lon="13.0188292"><ele>675.0</ele><time>2026-04-25T07:58:05.136Z</time></trkpt><trkpt lat="43.1065191" lon="13.0189745"><ele>674.5</ele><time>2026-04-25T07:58:06.147Z</time></trkpt><trkpt lat="43.1067611" lon="13.0191202"><ele>674.0</ele><time>2026-04-25T07:58:07.136Z</time></trkpt><trkpt lat="43.107014" lon="13.0192585"><ele>673.0</ele><time>2026-04-25T07:58:08.13Z</time></trkpt><trkpt lat="43.1072746" lon="13.0193939"><ele>672.0</ele><time>2026-04-25T07:58:09.127Z</time></trkpt><trkpt lat="43.1075255" lon="13.0195364"><ele>669.0</ele><time>2026-04-25T07:58:10.125Z</time></trkpt><trkpt lat="43.107765" lon="13.0196838"><ele>666.0</ele><time>2026-04-25T07:58:11.142Z</time></trkpt><trkpt lat="43.1079882" lon="13.0198264"><ele>666.0</ele><time>2026-04-25T07:58:12.122Z</time></trkpt><trkpt lat="43.1082053" lon="13.0199699"><ele>666.0</ele><time>2026-04-25T07:58:13.147Z</time></trkpt><trkpt lat="43.1084208" lon="13.0201093"><ele>661.0</ele><time>2026-04-25T07:58:14.137Z</time></trkpt><trkpt lat="43.1086429" lon="13.0202226"><ele>656.0</ele><time>2026-04-25T07:58:15.133Z</time></trkpt><trkpt lat="43.1088774" lon="13.0202977"><ele>655.5</ele><time>2026-04-25T07:58:16.133Z</time></trkpt><trkpt lat="43.1091131" lon="13.0203697"><ele>655.0</ele><time>2026-04-25T07:58:17.132Z</time></trkpt><trkpt lat="43.1093376" lon="13.0204754"><ele>655.0</ele><time>2026-04-25T07:58:18.143Z</time></trkpt><trkpt lat="43.1095604" lon="13.0206117"><ele>655.0</ele><time>2026-04-25T07:58:19.131Z</time></trkpt><trkpt lat="43.1097823" lon="13.0207691"><ele>648.5</ele><time>2026-04-25T07:58:20.145Z</time></trkpt><trkpt lat="43.1099957" lon="13.0209431"><ele>642.0</ele><time>2026-04-25T07:58:21.132Z</time></trkpt><trkpt lat="43.1102053" lon="13.0211399"><ele>642.0</ele><time>2026-04-25T07:58:22.14Z</time></trkpt><trkpt lat="43.1104064" lon="13.0213582"><ele>642.0</ele><time>2026-04-25T07:58:23.134Z</time></trkpt><trkpt lat="43.1105907" lon="13.0215925"><ele>638.0</ele><time>2026-04-25T07:58:24.134Z</time></trkpt><trkpt lat="43.1107554" lon="13.0218264"><ele>634.0</ele><time>2026-04-25T07:58:25.134Z</time></trkpt><trkpt lat="43.110906" lon="13.0220509"><ele>634.0</ele><time>2026-04-25T07:58:26.133Z</time></trkpt><trkpt lat="43.1110561" lon="13.0222712"><ele>634.0</ele><time>2026-04-25T07:58:27.133Z</time></trkpt><trkpt lat="43.1111796" lon="13.0225062"><ele>634.0</ele><time>2026-04-25T07:58:28.13Z</time></trkpt><trkpt lat="43.1112682" lon="13.0227557"><ele>632.3333333333334</ele><time>2026-04-25T07:58:29.128Z</time></trkpt><trkpt lat="43.1113294" lon="13.0230201"><ele>630.6666666666666</ele><time>2026-04-25T07:58:30.129Z</time></trkpt><trkpt lat="43.1113922" lon="13.0232651"><ele>629.0</ele><time>2026-04-25T07:58:31.132Z</time></trkpt><trkpt lat="43.1114753" lon="13.0235115"><ele>622.5</ele><time>2026-04-25T07:58:32.141Z</time></trkpt><trkpt lat="43.1116129" lon="13.0237644"><ele>616.0</ele><time>2026-04-25T07:58:33.133Z</time></trkpt><trkpt lat="43.1117735" lon="13.0240361"><ele>611.5</ele><time>2026-04-25T07:58:34.132Z</time></trkpt><trkpt lat="43.1119419" lon="13.0242997"><ele>607.0</ele><time>2026-04-25T07:58:35.133Z</time></trkpt><trkpt lat="43.1120989" lon="13.024564"><ele>607.0</ele><time>2026-04-25T07:58:36.13Z</time></trkpt><trkpt lat="43.1122248" lon="13.0248297"><ele>607.0</ele><time>2026-04-25T07:58:37.121Z</time></trkpt><trkpt lat="43.1123377" lon="13.0250962"><ele>605.3333333333334</ele><time>2026-04-25T07:58:38.127Z</time></trkpt><trkpt lat="43.1124459" lon="13.0253495"><ele>603.6666666666666</ele><time>2026-04-25T07:58:39.135Z</time></trkpt><trkpt lat="43.1125383" lon="13.0255863"><ele>602.0</ele><time>2026-04-25T07:58:40.137Z</time></trkpt><trkpt lat="43.1126285" lon="13.0258018"><ele>600.25</ele><time>2026-04-25T07:58:41.144Z</time></trkpt><trkpt lat="43.1127125" lon="13.0259934"><ele>598.5</ele><time>2026-04-25T07:58:42.136Z</time></trkpt><trkpt lat="43.112801" lon="13.0261597"><ele>596.75</ele><time>2026-04-25T07:58:43.141Z</time></trkpt><trkpt lat="43.1128823" lon="13.0263003"><ele>595.0</ele><time>2026-04-25T07:58:44.13Z</time></trkpt><trkpt lat="43.1129513" lon="13.0264159"><ele>595.0</ele><time>2026-04-25T07:58:45.134Z</time></trkpt><trkpt lat="43.1130007" lon="13.0265051"><ele>595.0</ele><time>2026-04-25T07:58:46.135Z</time></trkpt><trkpt lat="43.1130505" lon="13.0266044"><ele>595.0</ele><time>2026-04-25T07:58:48.142Z</time></trkpt><trkpt lat="43.1131204" lon="13.0267047"><ele>595.0</ele><time>2026-04-25T08:00:37.134Z</time></trkpt><trkpt lat="43.1131604" lon="13.0267833"><ele>595.0</ele><time>2026-04-25T08:00:38.128Z</time></trkpt><trkpt lat="43.1132125" lon="13.026894"><ele>595.0</ele><time>2026-04-25T08:00:39.139Z</time></trkpt><trkpt lat="43.1132779" lon="13.0270215"><ele>592.0</ele><time>2026-04-25T08:00:40.127Z</time></trkpt><trkpt lat="43.1133559" lon="13.0271523"><ele>589.0</ele><time>2026-04-25T08:00:41.129Z</time></trkpt><trkpt lat="43.1134452" lon="13.0272728"><ele>586.0</ele><time>2026-04-25T08:00:42.132Z</time></trkpt><trkpt lat="43.1135568" lon="13.0273694"><ele>583.0</ele><time>2026-04-25T08:00:43.139Z</time></trkpt><trkpt lat="43.1136818" lon="13.0274557"><ele>581.75</ele><time>2026-04-25T08:00:44.122Z</time></trkpt><trkpt lat="43.1137969" lon="13.0275463"><ele>580.5</ele><time>2026-04-25T08:00:45.127Z</time></trkpt><trkpt lat="43.1138935" lon="13.0276374"><ele>579.25</ele><time>2026-04-25T08:00:46.133Z</time></trkpt><trkpt lat="43.1139933" lon="13.0277447"><ele>578.0</ele><time>2026-04-25T08:00:47.14Z</time></trkpt><trkpt lat="43.1140914" lon="13.0278489"><ele>576.8</ele><time>2026-04-25T08:00:48.134Z</time></trkpt><trkpt lat="43.1141716" lon="13.0279489"><ele>575.5999999999999</ele><time>2026-04-25T08:00:49.132Z</time></trkpt><trkpt lat="43.1142326" lon="13.0280479"><ele>574.4000000000001</ele><time>2026-04-25T08:00:50.14Z</time></trkpt><trkpt lat="43.1142617" lon="13.0281769"><ele>573.2</ele><time>2026-04-25T08:00:51.148Z</time></trkpt><trkpt lat="43.1142791" lon="13.0283228"><ele>572.0</ele><time>2026-04-25T08:00:52.131Z</time></trkpt><trkpt lat="43.1142792" lon="13.0284949"><ele>571.25</ele><time>2026-04-25T08:00:53.171Z</time></trkpt><trkpt lat="43.1142885" lon="13.0286772"><ele>570.5</ele><time>2026-04-25T08:00:54.137Z</time></trkpt><trkpt lat="43.1143072" lon="13.0288745"><ele>569.75</ele><time>2026-04-25T08:00:55.134Z</time></trkpt><trkpt lat="43.1143504" lon="13.0290974"><ele>569.0</ele><time>2026-04-25T08:00:56.134Z</time></trkpt><trkpt lat="43.1144191" lon="13.0293262"><ele>568.0</ele><time>2026-04-25T08:00:57.136Z</time></trkpt><trkpt lat="43.1145052" lon="13.0295698"><ele>567.0</ele><time>2026-04-25T08:00:58.163Z</time></trkpt><trkpt lat="43.1145954" lon="13.0298223"><ele>566.0</ele><time>2026-04-25T08:00:59.13Z</time></trkpt><trkpt lat="43.1146867" lon="13.0300731"><ele>565.0</ele><time>2026-04-25T08:01:00.123Z</time></trkpt><trkpt lat="43.1147817" lon="13.030332"><ele>564.0</ele><time>2026-04-25T08:01:01.144Z</time></trkpt><trkpt lat="43.1148715" lon="13.0305812"><ele>563.0</ele><time>2026-04-25T08:01:02.132Z</time></trkpt><trkpt lat="43.1149508" lon="13.030815"><ele>560.0</ele><time>2026-04-25T08:01:03.135Z</time></trkpt><trkpt lat="43.1150224" lon="13.031048"><ele>557.0</ele><time>2026-04-25T08:01:04.136Z</time></trkpt><trkpt lat="43.115081" lon="13.0312876"><ele>554.0</ele><time>2026-04-25T08:01:05.138Z</time></trkpt><trkpt lat="43.1151202" lon="13.0315421"><ele>551.6666666666666</ele><time>2026-04-25T08:01:06.144Z</time></trkpt><trkpt lat="43.1151405" lon="13.0318134"><ele>549.3333333333334</ele><time>2026-04-25T08:01:07.146Z</time></trkpt><trkpt lat="43.115145" lon="13.0320743"><ele>547.0</ele><time>2026-04-25T08:01:08.127Z</time></trkpt><trkpt lat="43.1151341" lon="13.032339"><ele>547.0</ele><time>2026-04-25T08:01:09.136Z</time></trkpt><trkpt lat="43.1151153" lon="13.0325941"><ele>547.0</ele><time>2026-04-25T08:01:10.135Z</time></trkpt><trkpt lat="43.1150831" lon="13.0328487"><ele>547.0</ele><time>2026-04-25T08:01:11.161Z</time></trkpt><trkpt lat="43.1150386" lon="13.0331013"><ele>545.3333333333334</ele><time>2026-04-25T08:01:12.13Z</time></trkpt><trkpt lat="43.114997" lon="13.0333615"><ele>543.6666666666666</ele><time>2026-04-25T08:01:13.137Z</time></trkpt><trkpt lat="43.1149692" lon="13.0336423"><ele>542.0</ele><time>2026-04-25T08:01:14.132Z</time></trkpt><trkpt lat="43.1149517" lon="13.0339317"><ele>541.6666666666666</ele><time>2026-04-25T08:01:15.132Z</time></trkpt><trkpt lat="43.1149503" lon="13.0342131"><ele>541.3333333333334</ele><time>2026-04-25T08:01:16.146Z</time></trkpt><trkpt lat="43.1149715" lon="13.0344817"><ele>541.0</ele><time>2026-04-25T08:01:17.135Z</time></trkpt><trkpt lat="43.1150183" lon="13.0347526"><ele>539.0</ele><time>2026-04-25T08:01:18.161Z</time></trkpt><trkpt lat="43.1150847" lon="13.03502"><ele>537.0</ele><time>2026-04-25T08:01:19.14Z</time></trkpt><trkpt lat="43.1151795" lon="13.035257"><ele>535.0</ele><time>2026-04-25T08:01:20.136Z</time></trkpt><trkpt lat="43.1152787" lon="13.0354654"><ele>535.0</ele><time>2026-04-25T08:01:21.138Z</time></trkpt><trkpt lat="43.1154057" lon="13.0356395"><ele>535.0</ele><time>2026-04-25T08:01:22.131Z</time></trkpt><trkpt lat="43.1155552" lon="13.0357869"><ele>535.0</ele><time>2026-04-25T08:01:23.139Z</time></trkpt><trkpt lat="43.1157342" lon="13.0359059"><ele>534.0</ele><time>2026-04-25T08:01:24.135Z</time></trkpt><trkpt lat="43.1159247" lon="13.0360197"><ele>533.0</ele><time>2026-04-25T08:01:25.132Z</time></trkpt><trkpt lat="43.1161113" lon="13.036107"><ele>532.0</ele><time>2026-04-25T08:01:26.17Z</time></trkpt><trkpt lat="43.1163099" lon="13.0361676"><ele>532.0</ele><time>2026-04-25T08:01:27.133Z</time></trkpt><trkpt lat="43.1165099" lon="13.0362078"><ele>532.0</ele><time>2026-04-25T08:01:28.136Z</time></trkpt><trkpt lat="43.1167139" lon="13.036209"><ele>532.0</ele><time>2026-04-25T08:01:29.139Z</time></trkpt><trkpt lat="43.1169138" lon="13.0361923"><ele>533.0</ele><time>2026-04-25T08:01:30.145Z</time></trkpt><trkpt lat="43.1170996" lon="13.0361759"><ele>534.0</ele><time>2026-04-25T08:01:31.131Z</time></trkpt><trkpt lat="43.1172794" lon="13.0361877"><ele>535.0</ele><time>2026-04-25T08:01:32.132Z</time></trkpt><trkpt lat="43.1174483" lon="13.0362514"><ele>531.3333333333334</ele><time>2026-04-25T08:01:33.136Z</time></trkpt><trkpt lat="43.1176083" lon="13.0363917"><ele>527.6666666666666</ele><time>2026-04-25T08:01:34.144Z</time></trkpt><trkpt lat="43.1177595" lon="13.0365918"><ele>524.0</ele><time>2026-04-25T08:01:35.133Z</time></trkpt><trkpt lat="43.1179017" lon="13.0368023"><ele>519.5</ele><time>2026-04-25T08:01:36.126Z</time></trkpt><trkpt lat="43.1180526" lon="13.0370304"><ele>515.0</ele><time>2026-04-25T08:01:37.145Z</time></trkpt><trkpt lat="43.1182205" lon="13.0372717"><ele>514.0</ele><time>2026-04-25T08:01:38.132Z</time></trkpt><trkpt lat="43.1183962" lon="13.0375229"><ele>513.0</ele><time>2026-04-25T08:01:39.147Z</time></trkpt><trkpt lat="43.1185783" lon="13.0377872"><ele>513.0</ele><time>2026-04-25T08:01:40.143Z</time></trkpt><trkpt lat="43.1187575" lon="13.0380563"><ele>513.0</ele><time>2026-04-25T08:01:41.176Z</time></trkpt><trkpt lat="43.1189439" lon="13.03833"><ele>511.0</ele><time>2026-04-25T08:01:42.127Z</time></trkpt><trkpt lat="43.1191304" lon="13.0386092"><ele>509.0</ele><time>2026-04-25T08:01:43.142Z</time></trkpt><trkpt lat="43.1193094" lon="13.0388897"><ele>508.5</ele><time>2026-04-25T08:01:44.134Z</time></trkpt><trkpt lat="43.1194844" lon="13.0391596"><ele>508.0</ele><time>2026-04-25T08:01:45.134Z</time></trkpt><trkpt lat="43.1196455" lon="13.0394134"><ele>508.0</ele><time>2026-04-25T08:01:46.131Z</time></trkpt><trkpt lat="43.119798" lon="13.0396703"><ele>508.0</ele><time>2026-04-25T08:01:47.135Z</time></trkpt><trkpt lat="43.1199391" lon="13.0399426"><ele>508.0</ele><time>2026-04-25T08:01:48.135Z</time></trkpt><trkpt lat="43.12005" lon="13.0402306"><ele>508.0</ele><time>2026-04-25T08:01:49.13Z</time></trkpt><trkpt lat="43.1201524" lon="13.0405128"><ele>508.0</ele><time>2026-04-25T08:01:50.138Z</time></trkpt><trkpt lat="43.120257" lon="13.0407824"><ele>508.0</ele><time>2026-04-25T08:01:51.139Z</time></trkpt><trkpt lat="43.1203816" lon="13.0410263"><ele>508.0</ele><time>2026-04-25T08:01:52.139Z</time></trkpt><trkpt lat="43.1205282" lon="13.0412597"><ele>508.5</ele><time>2026-04-25T08:01:53.136Z</time></trkpt><trkpt lat="43.1206942" lon="13.0414746"><ele>509.0</ele><time>2026-04-25T08:01:54.137Z</time></trkpt><trkpt lat="43.1208825" lon="13.0416686"><ele>509.0</ele><time>2026-04-25T08:01:55.133Z</time></trkpt><trkpt lat="43.1210789" lon="13.0418709"><ele>509.0</ele><time>2026-04-25T08:01:56.132Z</time></trkpt><trkpt lat="43.1212665" lon="13.0421027"><ele>509.0</ele><time>2026-04-25T08:01:57.139Z</time></trkpt><trkpt lat="43.121413" lon="13.0423507"><ele>509.0</ele><time>2026-04-25T08:01:58.136Z</time></trkpt><trkpt lat="43.1215308" lon="13.0426044"><ele>508.66666666666663</ele><time>2026-04-25T08:01:59.138Z</time></trkpt><trkpt lat="43.1216498" lon="13.0428367"><ele>508.33333333333337</ele><time>2026-04-25T08:02:00.164Z</time></trkpt><trkpt lat="43.1217657" lon="13.0430387"><ele>508.0</ele><time>2026-04-25T08:02:01.134Z</time></trkpt><trkpt lat="43.1219188" lon="13.0431721"><ele>508.0</ele><time>2026-04-25T08:02:02.15Z</time></trkpt><trkpt lat="43.1220904" lon="13.0432742"><ele>508.0</ele><time>2026-04-25T08:02:03.135Z</time></trkpt><trkpt lat="43.1222803" lon="13.0433343"><ele>508.0</ele><time>2026-04-25T08:02:04.146Z</time></trkpt><trkpt lat="43.1224815" lon="13.0433773"><ele>508.0</ele><time>2026-04-25T08:02:05.137Z</time></trkpt><trkpt lat="43.1226943" lon="13.0433937"><ele>508.0</ele><time>2026-04-25T08:02:06.133Z</time></trkpt><trkpt lat="43.1229185" lon="13.0433944"><ele>508.0</ele><time>2026-04-25T08:02:07.13Z</time></trkpt><trkpt lat="43.1231294" lon="13.0433945"><ele>508.0</ele><time>2026-04-25T08:02:08.145Z</time></trkpt><trkpt lat="43.123335" lon="13.0434037"><ele>508.0</ele><time>2026-04-25T08:02:09.142Z</time></trkpt><trkpt lat="43.1235288" lon="13.0434291"><ele>508.0</ele><time>2026-04-25T08:02:10.133Z</time></trkpt><trkpt lat="43.1237199" lon="13.0434555"><ele>508.0</ele><time>2026-04-25T08:02:11.144Z</time></trkpt><trkpt lat="43.1239012" lon="13.0434964"><ele>508.0</ele><time>2026-04-25T08:02:12.131Z</time></trkpt><trkpt lat="43.1240715" lon="13.0435786"><ele>508.0</ele><time>2026-04-25T08:02:13.133Z</time></trkpt><trkpt lat="43.1242383" lon="13.0437233"><ele>507.0</ele><time>2026-04-25T08:02:14.142Z</time></trkpt><trkpt lat="43.1243818" lon="13.0438964"><ele>506.0</ele><time>2026-04-25T08:02:15.155Z</time></trkpt><trkpt lat="43.1245118" lon="13.0441225"><ele>505.0</ele><time>2026-04-25T08:02:16.147Z</time></trkpt><trkpt lat="43.1246371" lon="13.0443566"><ele>502.5</ele><time>2026-04-25T08:02:17.134Z</time></trkpt><trkpt lat="43.1247596" lon="13.0446231"><ele>500.0</ele><time>2026-04-25T08:02:18.127Z</time></trkpt><trkpt lat="43.1248878" lon="13.0448978"><ele>506.0</ele><time>2026-04-25T08:02:19.141Z</time></trkpt><trkpt lat="43.1250069" lon="13.0451732"><ele>512.0</ele><time>2026-04-25T08:02:20.126Z</time></trkpt><trkpt lat="43.1251166" lon="13.0454382"><ele>512.0</ele><time>2026-04-25T08:02:21.15Z</time></trkpt><trkpt lat="43.1252212" lon="13.0456656"><ele>512.0</ele><time>2026-04-25T08:02:22.139Z</time></trkpt><trkpt lat="43.1253299" lon="13.045877"><ele>512.0</ele><time>2026-04-25T08:02:23.14Z</time></trkpt><trkpt lat="43.125459" lon="13.0460555"><ele>510.3333333333333</ele><time>2026-04-25T08:02:24.135Z</time></trkpt><trkpt lat="43.1256173" lon="13.0461983"><ele>508.66666666666663</ele><time>2026-04-25T08:02:25.134Z</time></trkpt><trkpt lat="43.1257784" lon="13.0463383"><ele>507.0</ele><time>2026-04-25T08:02:26.137Z</time></trkpt><trkpt lat="43.1258962" lon="13.0465088"><ele>509.66666666666663</ele><time>2026-04-25T08:02:27.139Z</time></trkpt><trkpt lat="43.125984" lon="13.0466931"><ele>512.3333333333333</ele><time>2026-04-25T08:02:28.148Z</time></trkpt><trkpt lat="43.1260248" lon="13.046933"><ele>515.0</ele><time>2026-04-25T08:02:29.134Z</time></trkpt><trkpt lat="43.1260415" lon="13.0471912"><ele>515.0</ele><time>2026-04-25T08:02:30.138Z</time></trkpt><trkpt lat="43.1260281" lon="13.0474597"><ele>515.0</ele><time>2026-04-25T08:02:31.136Z</time></trkpt><trkpt lat="43.1260077" lon="13.0477356"><ele>515.0</ele><time>2026-04-25T08:02:32.199Z</time></trkpt><trkpt lat="43.125976" lon="13.0480078"><ele>514.6666666666666</ele><time>2026-04-25T08:02:33.137Z</time></trkpt><trkpt lat="43.1259298" lon="13.0482652"><ele>514.3333333333334</ele><time>2026-04-25T08:02:34.143Z</time></trkpt><trkpt lat="43.1258759" lon="13.0485008"><ele>514.0</ele><time>2026-04-25T08:02:35.132Z</time></trkpt><trkpt lat="43.1258241" lon="13.0487178"><ele>514.0</ele><time>2026-04-25T08:02:36.139Z</time></trkpt><trkpt lat="43.1258062" lon="13.0489081"><ele>514.0</ele><time>2026-04-25T08:02:37.13Z</time></trkpt><trkpt lat="43.1258538" lon="13.0490824"><ele>514.0</ele><time>2026-04-25T08:02:38.131Z</time></trkpt><trkpt lat="43.125934" lon="13.0492477"><ele>514.0</ele><time>2026-04-25T08:02:39.133Z</time></trkpt><trkpt lat="43.1260491" lon="13.0493891"><ele>512.3333333333334</ele><time>2026-04-25T08:02:40.123Z</time></trkpt><trkpt lat="43.1262014" lon="13.0495409"><ele>510.66666666666663</ele><time>2026-04-25T08:02:41.136Z</time></trkpt><trkpt lat="43.1263749" lon="13.0496928"><ele>509.0</ele><time>2026-04-25T08:02:42.136Z</time></trkpt><trkpt lat="43.1265477" lon="13.0498359"><ele>509.0</ele><time>2026-04-25T08:02:43.128Z</time></trkpt><trkpt lat="43.1267086" lon="13.0499701"><ele>509.0</ele><time>2026-04-25T08:02:44.132Z</time></trkpt><trkpt lat="43.1268528" lon="13.0501077"><ele>509.0</ele><time>2026-04-25T08:02:45.131Z</time></trkpt><trkpt lat="43.1269595" lon="13.0502741"><ele>509.0</ele><time>2026-04-25T08:02:46.125Z</time></trkpt><trkpt lat="43.1270175" lon="13.0504699"><ele>509.0</ele><time>2026-04-25T08:02:47.165Z</time></trkpt><trkpt lat="43.1270321" lon="13.0506735"><ele>509.0</ele><time>2026-04-25T08:02:48.124Z</time></trkpt><trkpt lat="43.1270102" lon="13.0508708"><ele>509.0</ele><time>2026-04-25T08:02:49.138Z</time></trkpt><trkpt lat="43.1269883" lon="13.0510702"><ele>507.3333333333333</ele><time>2026-04-25T08:02:50.125Z</time></trkpt><trkpt lat="43.1269852" lon="13.0512841"><ele>505.66666666666663</ele><time>2026-04-25T08:02:51.143Z</time></trkpt><trkpt lat="43.127014" lon="13.0514829"><ele>504.0</ele><time>2026-04-25T08:02:52.137Z</time></trkpt><trkpt lat="43.1270551" lon="13.0516743"><ele>500.66666666666663</ele><time>2026-04-25T08:02:53.136Z</time></trkpt><trkpt lat="43.127144" lon="13.0518566"><ele>497.3333333333333</ele><time>2026-04-25T08:02:54.138Z</time></trkpt><trkpt lat="43.1272721" lon="13.0520173"><ele>494.0</ele><time>2026-04-25T08:02:55.133Z</time></trkpt><trkpt lat="43.127417" lon="13.052186"><ele>495.3333333333333</ele><time>2026-04-25T08:02:56.132Z</time></trkpt><trkpt lat="43.1275893" lon="13.0523275"><ele>496.66666666666663</ele><time>2026-04-25T08:02:57.129Z</time></trkpt><trkpt lat="43.1277758" lon="13.0524313"><ele>498.0</ele><time>2026-04-25T08:02:58.129Z</time></trkpt><trkpt lat="43.1279463" lon="13.0525034"><ele>498.0</ele><time>2026-04-25T08:02:59.135Z</time></trkpt><trkpt lat="43.1280935" lon="13.0525335"><ele>498.0</ele><time>2026-04-25T08:03:00.13Z</time></trkpt><trkpt lat="43.1282204" lon="13.0525601"><ele>498.0</ele><time>2026-04-25T08:03:01.128Z</time></trkpt><trkpt lat="43.1283236" lon="13.0525587"><ele>498.0</ele><time>2026-04-25T08:03:02.138Z</time></trkpt><trkpt lat="43.1284118" lon="13.0525735"><ele>499.3333333333333</ele><time>2026-04-25T08:03:03.127Z</time></trkpt><trkpt lat="43.1284771" lon="13.0525927"><ele>500.66666666666663</ele><time>2026-04-25T08:03:04.133Z</time></trkpt><trkpt lat="43.128554" lon="13.0526381"><ele>502.0</ele><time>2026-04-25T08:03:06.141Z</time></trkpt><trkpt lat="43.1286458" lon="13.0527275"><ele>503.3333333333333</ele><time>2026-04-25T08:03:08.129Z</time></trkpt><trkpt lat="43.1287106" lon="13.052772"><ele>504.66666666666663</ele><time>2026-04-25T08:03:09.128Z</time></trkpt><trkpt lat="43.1287807" lon="13.0528184"><ele>506.0</ele><time>2026-04-25T08:03:10.125Z</time></trkpt><trkpt lat="43.1288495" lon="13.0528811"><ele>506.0</ele><time>2026-04-25T08:03:11.135Z</time></trkpt><trkpt lat="43.128937" lon="13.0529716"><ele>506.0</ele><time>2026-04-25T08:03:12.126Z</time></trkpt><trkpt lat="43.1290348" lon="13.053108"><ele>506.0</ele><time>2026-04-25T08:03:13.13Z</time></trkpt><trkpt lat="43.1291293" lon="13.053274"><ele>506.0</ele><time>2026-04-25T08:03:14.126Z</time></trkpt><trkpt lat="43.1292151" lon="13.0534577"><ele>505.3333333333333</ele><time>2026-04-25T08:03:15.126Z</time></trkpt><trkpt lat="43.129281" lon="13.0536568"><ele>504.66666666666663</ele><time>2026-04-25T08:03:16.132Z</time></trkpt><trkpt lat="43.1293101" lon="13.0538755"><ele>504.0</ele><time>2026-04-25T08:03:17.131Z</time></trkpt><trkpt lat="43.129318" lon="13.0541129"><ele>504.0</ele><time>2026-04-25T08:03:18.126Z</time></trkpt><trkpt lat="43.1293209" lon="13.0543639"><ele>504.0</ele><time>2026-04-25T08:03:19.127Z</time></trkpt><trkpt lat="43.1293227" lon="13.0546212"><ele>504.0</ele><time>2026-04-25T08:03:20.137Z</time></trkpt><trkpt lat="43.1293294" lon="13.0548657"><ele>505.0</ele><time>2026-04-25T08:03:21.133Z</time></trkpt><trkpt lat="43.1293367" lon="13.0550692"><ele>506.0</ele><time>2026-04-25T08:03:22.141Z</time></trkpt><trkpt lat="43.1293712" lon="13.05524"><ele>507.0</ele><time>2026-04-25T08:03:23.133Z</time></trkpt><trkpt lat="43.1294278" lon="13.0553945"><ele>508.0</ele><time>2026-04-25T08:03:24.133Z</time></trkpt><trkpt lat="43.129548" lon="13.0555338"><ele>508.0</ele><time>2026-04-25T08:03:25.143Z</time></trkpt><trkpt lat="43.1296903" lon="13.0556801"><ele>508.0</ele><time>2026-04-25T08:03:26.134Z</time></trkpt><trkpt lat="43.1298552" lon="13.0558476"><ele>508.0</ele><time>2026-04-25T08:03:27.139Z</time></trkpt><trkpt lat="43.1300119" lon="13.0560423"><ele>514.5</ele><time>2026-04-25T08:03:28.141Z</time></trkpt><trkpt lat="43.1301644" lon="13.0562847"><ele>521.0</ele><time>2026-04-25T08:03:29.138Z</time></trkpt><trkpt lat="43.1302943" lon="13.0565337"><ele>520.3333333333333</ele><time>2026-04-25T08:03:30.135Z</time></trkpt><trkpt lat="43.1304004" lon="13.056772"><ele>519.6666666666666</ele><time>2026-04-25T08:03:31.134Z</time></trkpt><trkpt lat="43.1304605" lon="13.0570053"><ele>519.0</ele><time>2026-04-25T08:03:32.132Z</time></trkpt><trkpt lat="43.1304799" lon="13.0572308"><ele>520.0</ele><time>2026-04-25T08:03:33.146Z</time></trkpt><trkpt lat="43.1304608" lon="13.0574589"><ele>521.0</ele><time>2026-04-25T08:03:34.131Z</time></trkpt><trkpt lat="43.1304049" lon="13.0576831"><ele>522.0</ele><time>2026-04-25T08:03:35.133Z</time></trkpt><trkpt lat="43.13032" lon="13.057913"><ele>522.0</ele><time>2026-04-25T08:03:36.141Z</time></trkpt><trkpt lat="43.1302106" lon="13.0581328"><ele>522.0</ele><time>2026-04-25T08:03:37.15Z</time></trkpt><trkpt lat="43.1300697" lon="13.0583286"><ele>522.0</ele><time>2026-04-25T08:03:38.15Z</time></trkpt><trkpt lat="43.1299137" lon="13.0584956"><ele>523.0</ele><time>2026-04-25T08:03:39.133Z</time></trkpt><trkpt lat="43.1297474" lon="13.0586553"><ele>524.0</ele><time>2026-04-25T08:03:40.137Z</time></trkpt><trkpt lat="43.1295735" lon="13.0587979"><ele>525.0</ele><time>2026-04-25T08:03:41.129Z</time></trkpt><trkpt lat="43.129387" lon="13.0589078"><ele>525.0</ele><time>2026-04-25T08:03:42.14Z</time></trkpt><trkpt lat="43.1292104" lon="13.0590081"><ele>525.0</ele><time>2026-04-25T08:03:43.14Z</time></trkpt><trkpt lat="43.1290565" lon="13.0590957"><ele>525.0</ele><time>2026-04-25T08:03:44.128Z</time></trkpt><trkpt lat="43.1289252" lon="13.0591711"><ele>526.0</ele><time>2026-04-25T08:03:45.131Z</time></trkpt><trkpt lat="43.1288329" lon="13.0592491"><ele>527.0</ele><time>2026-04-25T08:03:46.129Z</time></trkpt><trkpt lat="43.1287868" lon="13.0593433"><ele>528.0</ele><time>2026-04-25T08:03:47.13Z</time></trkpt><trkpt lat="43.128774" lon="13.0594349"><ele>529.0</ele><time>2026-04-25T08:03:48.131Z</time></trkpt><trkpt lat="43.1288048" lon="13.0595125"><ele>530.0</ele><time>2026-04-25T08:03:49.124Z</time></trkpt><trkpt lat="43.1288735" lon="13.0595764"><ele>531.0</ele><time>2026-04-25T08:03:50.134Z</time></trkpt><trkpt lat="43.1289652" lon="13.0596007"><ele>533.0</ele><time>2026-04-25T08:03:51.127Z</time></trkpt><trkpt lat="43.1290796" lon="13.0595994"><ele>535.0</ele><time>2026-04-25T08:03:52.13Z</time></trkpt><trkpt lat="43.1292258" lon="13.0595919"><ele>537.0</ele><time>2026-04-25T08:03:53.128Z</time></trkpt><trkpt lat="43.1293844" lon="13.0595813"><ele>539.0</ele><time>2026-04-25T08:03:54.134Z</time></trkpt><trkpt lat="43.1295222" lon="13.0595534"><ele>539.0</ele><time>2026-04-25T08:03:55.133Z</time></trkpt><trkpt lat="43.1296358" lon="13.059518"><ele>539.0</ele><time>2026-04-25T08:03:56.128Z</time></trkpt><trkpt lat="43.1297646" lon="13.0594672"><ele>539.0</ele><time>2026-04-25T08:03:57.129Z</time></trkpt><trkpt lat="43.1299157" lon="13.059385"><ele>539.0</ele><time>2026-04-25T08:03:58.133Z</time></trkpt><trkpt lat="43.1300727" lon="13.0593192"><ele>542.0</ele><time>2026-04-25T08:03:59.128Z</time></trkpt><trkpt lat="43.1302258" lon="13.0592604"><ele>545.0</ele><time>2026-04-25T08:04:00.135Z</time></trkpt><trkpt lat="43.1303806" lon="13.0592449"><ele>548.0</ele><time>2026-04-25T08:04:01.131Z</time></trkpt><trkpt lat="43.1305523" lon="13.0592793"><ele>549.3333333333333</ele><time>2026-04-25T08:04:02.135Z</time></trkpt><trkpt lat="43.1307371" lon="13.0593395"><ele>550.6666666666666</ele><time>2026-04-25T08:04:03.13Z</time></trkpt><trkpt lat="43.1309255" lon="13.0593993"><ele>552.0</ele><time>2026-04-25T08:04:04.135Z</time></trkpt><trkpt lat="43.1311128" lon="13.0594474"><ele>552.0</ele><time>2026-04-25T08:04:05.138Z</time></trkpt><trkpt lat="43.131296" lon="13.0594826"><ele>552.0</ele><time>2026-04-25T08:04:06.133Z</time></trkpt><trkpt lat="43.1314642" lon="13.0595114"><ele>552.0</ele><time>2026-04-25T08:04:07.126Z</time></trkpt><trkpt lat="43.1316163" lon="13.0595203"><ele>554.0</ele><time>2026-04-25T08:04:08.15Z</time></trkpt><trkpt lat="43.1317649" lon="13.059518"><ele>556.0</ele><time>2026-04-25T08:04:09.13Z</time></trkpt><trkpt lat="43.131916" lon="13.0595127"><ele>558.0</ele><time>2026-04-25T08:04:10.14Z</time></trkpt><trkpt lat="43.132057" lon="13.0595143"><ele>560.0</ele><time>2026-04-25T08:04:11.128Z</time></trkpt><trkpt lat="43.1322062" lon="13.0595264"><ele>560.0</ele><time>2026-04-25T08:04:12.131Z</time></trkpt><trkpt lat="43.1323568" lon="13.0595806"><ele>560.0</ele><time>2026-04-25T08:04:13.13Z</time></trkpt><trkpt lat="43.1325019" lon="13.0596535"><ele>560.0</ele><time>2026-04-25T08:04:14.128Z</time></trkpt><trkpt lat="43.132646" lon="13.0597355"><ele>559.25</ele><time>2026-04-25T08:04:15.123Z</time></trkpt><trkpt lat="43.1327787" lon="13.0598258"><ele>558.5</ele><time>2026-04-25T08:04:16.129Z</time></trkpt><trkpt lat="43.132905" lon="13.0599227"><ele>557.75</ele><time>2026-04-25T08:04:17.133Z</time></trkpt><trkpt lat="43.1330317" lon="13.0600249"><ele>557.0</ele><time>2026-04-25T08:04:18.156Z</time></trkpt><trkpt lat="43.1331539" lon="13.0601357"><ele>558.0</ele><time>2026-04-25T08:04:19.13Z</time></trkpt><trkpt lat="43.1332841" lon="13.0602525"><ele>559.0</ele><time>2026-04-25T08:04:20.126Z</time></trkpt><trkpt lat="43.1334161" lon="13.0603621"><ele>560.0</ele><time>2026-04-25T08:04:21.138Z</time></trkpt><trkpt lat="43.1335618" lon="13.0604586"><ele>560.0</ele><time>2026-04-25T08:04:22.131Z</time></trkpt><trkpt lat="43.1337306" lon="13.0605418"><ele>560.0</ele><time>2026-04-25T08:04:23.128Z</time></trkpt><trkpt lat="43.1339245" lon="13.0606123"><ele>560.0</ele><time>2026-04-25T08:04:24.131Z</time></trkpt><trkpt lat="43.1341355" lon="13.0606557"><ele>554.5</ele><time>2026-04-25T08:04:25.148Z</time></trkpt><trkpt lat="43.1343808" lon="13.0606562"><ele>549.0</ele><time>2026-04-25T08:04:26.138Z</time></trkpt><trkpt lat="43.1346447" lon="13.0606506"><ele>546.5</ele><time>2026-04-25T08:04:27.133Z</time></trkpt><trkpt lat="43.1349077" lon="13.0606588"><ele>544.0</ele><time>2026-04-25T08:04:28.133Z</time></trkpt><trkpt lat="43.1351611" lon="13.0606727"><ele>544.0</ele><time>2026-04-25T08:04:29.129Z</time></trkpt><trkpt lat="43.1353993" lon="13.0606806"><ele>544.0</ele><time>2026-04-25T08:04:30.137Z</time></trkpt><trkpt lat="43.1356208" lon="13.0606826"><ele>543.0</ele><time>2026-04-25T08:04:31.137Z</time></trkpt><trkpt lat="43.135826" lon="13.0606858"><ele>542.0</ele><time>2026-04-25T08:04:32.139Z</time></trkpt><trkpt lat="43.1360142" lon="13.0606921"><ele>541.0</ele><time>2026-04-25T08:04:33.136Z</time></trkpt><trkpt lat="43.1361931" lon="13.0607"><ele>541.0</ele><time>2026-04-25T08:04:34.133Z</time></trkpt><trkpt lat="43.1363655" lon="13.0607163"><ele>541.0</ele><time>2026-04-25T08:04:35.137Z</time></trkpt><trkpt lat="43.1365194" lon="13.0607509"><ele>541.0</ele><time>2026-04-25T08:04:36.13Z</time></trkpt><trkpt lat="43.13667" lon="13.0607968"><ele>544.3333333333334</ele><time>2026-04-25T08:04:37.148Z</time></trkpt><trkpt lat="43.1368187" lon="13.060849"><ele>547.6666666666666</ele><time>2026-04-25T08:04:38.137Z</time></trkpt><trkpt lat="43.136975" lon="13.0608999"><ele>551.0</ele><time>2026-04-25T08:04:39.132Z</time></trkpt><trkpt lat="43.1371276" lon="13.0609479"><ele>551.0</ele><time>2026-04-25T08:04:40.132Z</time></trkpt><trkpt lat="43.1372781" lon="13.0609968"><ele>551.0</ele><time>2026-04-25T08:04:41.137Z</time></trkpt><trkpt lat="43.1374199" lon="13.0610459"><ele>551.0</ele><time>2026-04-25T08:04:42.146Z</time></trkpt><trkpt lat="43.1375617" lon="13.0610968"><ele>551.0</ele><time>2026-04-25T08:04:43.134Z</time></trkpt><trkpt lat="43.137697" lon="13.0611799"><ele>550.3333333333333</ele><time>2026-04-25T08:04:44.137Z</time></trkpt><trkpt lat="43.1378248" lon="13.0613153"><ele>549.6666666666666</ele><time>2026-04-25T08:04:45.148Z</time></trkpt><trkpt lat="43.137942" lon="13.0614862"><ele>549.0</ele><time>2026-04-25T08:04:46.134Z</time></trkpt><trkpt lat="43.1380722" lon="13.0616712"><ele>549.0</ele><time>2026-04-25T08:04:47.137Z</time></trkpt><trkpt lat="43.1382098" lon="13.0618667"><ele>549.0</ele><time>2026-04-25T08:04:48.128Z</time></trkpt><trkpt lat="43.1383581" lon="13.0620721"><ele>549.0</ele><time>2026-04-25T08:04:49.129Z</time></trkpt><trkpt lat="43.1385148" lon="13.0622877"><ele>547.0</ele><time>2026-04-25T08:04:50.134Z</time></trkpt><trkpt lat="43.1386782" lon="13.06251"><ele>545.0</ele><time>2026-04-25T08:04:51.129Z</time></trkpt><trkpt lat="43.1388379" lon="13.0627369"><ele>545.0</ele><time>2026-04-25T08:04:52.138Z</time></trkpt><trkpt lat="43.1389918" lon="13.0629609"><ele>545.0</ele><time>2026-04-25T08:04:53.138Z</time></trkpt><trkpt lat="43.1391392" lon="13.0631759"><ele>545.0</ele><time>2026-04-25T08:04:54.135Z</time></trkpt><trkpt lat="43.1392766" lon="13.0633797"><ele>543.6666666666666</ele><time>2026-04-25T08:04:55.135Z</time></trkpt><trkpt lat="43.1394106" lon="13.0635729"><ele>542.3333333333334</ele><time>2026-04-25T08:04:56.131Z</time></trkpt><trkpt lat="43.1395256" lon="13.0637776"><ele>541.0</ele><time>2026-04-25T08:04:57.134Z</time></trkpt><trkpt lat="43.1396085" lon="13.064003"><ele>543.3333333333334</ele><time>2026-04-25T08:04:58.145Z</time></trkpt><trkpt lat="43.1396753" lon="13.0642562"><ele>545.6666666666666</ele><time>2026-04-25T08:04:59.128Z</time></trkpt><trkpt lat="43.1397467" lon="13.0645102"><ele>548.0</ele><time>2026-04-25T08:05:00.136Z</time></trkpt><trkpt lat="43.1398443" lon="13.0647672"><ele>546.0</ele><time>2026-04-25T08:05:01.137Z</time></trkpt><trkpt lat="43.1399635" lon="13.0650127"><ele>544.0</ele><time>2026-04-25T08:05:02.132Z</time></trkpt><trkpt lat="43.1401097" lon="13.0652372"><ele>542.0</ele><time>2026-04-25T08:05:03.146Z</time></trkpt><trkpt lat="43.1402719" lon="13.0654506"><ele>542.0</ele><time>2026-04-25T08:05:04.132Z</time></trkpt><trkpt lat="43.1404503" lon="13.0656707"><ele>542.0</ele><time>2026-04-25T08:05:05.13Z</time></trkpt><trkpt lat="43.1406262" lon="13.065901"><ele>540.0</ele><time>2026-04-25T08:05:06.123Z</time></trkpt><trkpt lat="43.1408051" lon="13.0661365"><ele>538.0</ele><time>2026-04-25T08:05:07.157Z</time></trkpt><trkpt lat="43.1409836" lon="13.0663634"><ele>538.0</ele><time>2026-04-25T08:05:08.13Z</time></trkpt><trkpt lat="43.141154" lon="13.0665736"><ele>538.0</ele><time>2026-04-25T08:05:09.137Z</time></trkpt><trkpt lat="43.1413143" lon="13.0667789"><ele>538.0</ele><time>2026-04-25T08:05:10.127Z</time></trkpt><trkpt lat="43.1414674" lon="13.0669825"><ele>537.0</ele><time>2026-04-25T08:05:11.128Z</time></trkpt><trkpt lat="43.1416144" lon="13.0671955"><ele>536.0</ele><time>2026-04-25T08:05:12.128Z</time></trkpt><trkpt lat="43.142441" lon="13.0682301"><ele>535.8</ele><time>2026-04-25T08:05:18.123Z</time></trkpt><trkpt lat="43.1425442" lon="13.0683464"><ele>535.6</ele><time>2026-04-25T08:05:19.125Z</time></trkpt><trkpt lat="43.1426531" lon="13.0684103"><ele>535.4</ele><time>2026-04-25T08:05:20.129Z</time></trkpt><trkpt lat="43.1427519" lon="13.068438"><ele>535.2</ele><time>2026-04-25T08:05:21.133Z</time></trkpt><trkpt lat="43.1428295" lon="13.0684616"><ele>535.0</ele><time>2026-04-25T08:05:22.144Z</time></trkpt><trkpt lat="43.1429008" lon="13.0684808"><ele>535.0</ele><time>2026-04-25T08:05:23.13Z</time></trkpt><trkpt lat="43.1429638" lon="13.0685147"><ele>535.0</ele><time>2026-04-25T08:05:24.129Z</time></trkpt><trkpt lat="43.1430274" lon="13.0685652"><ele>535.0</ele><time>2026-04-25T08:05:25.128Z</time></trkpt><trkpt lat="43.1431045" lon="13.068623"><ele>535.0</ele><time>2026-04-25T08:05:26.127Z</time></trkpt><trkpt lat="43.143186" lon="13.0686605"><ele>535.0</ele><time>2026-04-25T08:05:27.142Z</time></trkpt><trkpt lat="43.1432747" lon="13.0686659"><ele>535.0</ele><time>2026-04-25T08:05:28.137Z</time></trkpt><trkpt lat="43.1433579" lon="13.06863"><ele>533.0</ele><time>2026-04-25T08:05:29.14Z</time></trkpt><trkpt lat="43.1434431" lon="13.0685661"><ele>531.0</ele><time>2026-04-25T08:05:30.133Z</time></trkpt><trkpt lat="43.1435259" lon="13.068513"><ele>529.0</ele><time>2026-04-25T08:05:31.133Z</time></trkpt><trkpt lat="43.1436211" lon="13.0684948"><ele>527.0</ele><time>2026-04-25T08:05:32.137Z</time></trkpt><trkpt lat="43.1437224" lon="13.0685227"><ele>525.0</ele><time>2026-04-25T08:05:33.141Z</time></trkpt><trkpt lat="43.1438165" lon="13.06858"><ele>525.0</ele><time>2026-04-25T08:05:34.126Z</time></trkpt><trkpt lat="43.1438961" lon="13.0686604"><ele>525.0</ele><time>2026-04-25T08:05:35.133Z</time></trkpt><trkpt lat="43.1439661" lon="13.0687718"><ele>525.0</ele><time>2026-04-25T08:05:36.149Z</time></trkpt><trkpt lat="43.1440002" lon="13.0689287"><ele>525.0</ele><time>2026-04-25T08:05:37.133Z</time></trkpt><trkpt lat="43.1440147" lon="13.0691008"><ele>526.5</ele><time>2026-04-25T08:05:38.135Z</time></trkpt><trkpt lat="43.1440019" lon="13.0692664"><ele>528.0</ele><time>2026-04-25T08:05:39.136Z</time></trkpt><trkpt lat="43.1439811" lon="13.0694295"><ele>529.5</ele><time>2026-04-25T08:05:40.13Z</time></trkpt><trkpt lat="43.1439698" lon="13.069585"><ele>531.0</ele><time>2026-04-25T08:05:41.136Z</time></trkpt><trkpt lat="43.1439676" lon="13.0697445"><ele>531.0</ele><time>2026-04-25T08:05:42.138Z</time></trkpt><trkpt lat="43.1439786" lon="13.069898"><ele>531.0</ele><time>2026-04-25T08:05:43.153Z</time></trkpt><trkpt lat="43.1440045" lon="13.0700421"><ele>531.0</ele><time>2026-04-25T08:05:44.131Z</time></trkpt><trkpt lat="43.1440372" lon="13.0701801"><ele>531.0</ele><time>2026-04-25T08:05:45.139Z</time></trkpt><trkpt lat="43.1440821" lon="13.0702995"><ele>531.0</ele><time>2026-04-25T08:05:46.136Z</time></trkpt><trkpt lat="43.1441396" lon="13.0704018"><ele>528.8</ele><time>2026-04-25T08:05:47.128Z</time></trkpt><trkpt lat="43.1442126" lon="13.0704785"><ele>526.6</ele><time>2026-04-25T08:05:48.131Z</time></trkpt><trkpt lat="43.1443" lon="13.0705271"><ele>524.4</ele><time>2026-04-25T08:05:49.125Z</time></trkpt><trkpt lat="43.1443882" lon="13.0705463"><ele>522.2</ele><time>2026-04-25T08:05:50.137Z</time></trkpt><trkpt lat="43.1444851" lon="13.0705255"><ele>520.0</ele><time>2026-04-25T08:05:51.137Z</time></trkpt><trkpt lat="43.1445753" lon="13.0704604"><ele>520.0</ele><time>2026-04-25T08:05:52.121Z</time></trkpt><trkpt lat="43.1446427" lon="13.070358"><ele>520.0</ele><time>2026-04-25T08:05:53.134Z</time></trkpt><trkpt lat="43.1446891" lon="13.0702232"><ele>520.0</ele><time>2026-04-25T08:05:54.145Z</time></trkpt><trkpt lat="43.1447025" lon="13.0700763"><ele>520.0</ele><time>2026-04-25T08:05:55.13Z</time></trkpt><trkpt lat="43.1447074" lon="13.0699095"><ele>520.0</ele><time>2026-04-25T08:05:56.133Z</time></trkpt><trkpt lat="43.1446956" lon="13.0697391"><ele>519.75</ele><time>2026-04-25T08:05:57.129Z</time></trkpt><trkpt lat="43.144688" lon="13.0695613"><ele>519.5</ele><time>2026-04-25T08:05:58.13Z</time></trkpt><trkpt lat="43.1447022" lon="13.0693644"><ele>519.25</ele><time>2026-04-25T08:05:59.138Z</time></trkpt><trkpt lat="43.144742" lon="13.0691791"><ele>519.0</ele><time>2026-04-25T08:06:00.136Z</time></trkpt><trkpt lat="43.1447892" lon="13.0690053"><ele>517.75</ele><time>2026-04-25T08:06:01.138Z</time></trkpt><trkpt lat="43.1448554" lon="13.0688452"><ele>516.5</ele><time>2026-04-25T08:06:02.137Z</time></trkpt><trkpt lat="43.1449181" lon="13.0686836"><ele>515.25</ele><time>2026-04-25T08:06:03.13Z</time></trkpt><trkpt lat="43.1449735" lon="13.0685204"><ele>514.0</ele><time>2026-04-25T08:06:04.139Z</time></trkpt><trkpt lat="43.1450068" lon="13.0683469"><ele>511.25</ele><time>2026-04-25T08:06:05.135Z</time></trkpt><trkpt lat="43.1450116" lon="13.0681758"><ele>508.5</ele><time>2026-04-25T08:06:06.137Z</time></trkpt><trkpt lat="43.1449977" lon="13.0680081"><ele>505.75</ele><time>2026-04-25T08:06:07.149Z</time></trkpt><trkpt lat="43.1449878" lon="13.0678471"><ele>503.0</ele><time>2026-04-25T08:06:08.135Z</time></trkpt><trkpt lat="43.1449891" lon="13.0676724"><ele>503.0</ele><time>2026-04-25T08:06:09.137Z</time></trkpt><trkpt lat="43.1450223" lon="13.0674905"><ele>503.0</ele><time>2026-04-25T08:06:10.134Z</time></trkpt><trkpt lat="43.1450866" lon="13.067316"><ele>503.0</ele><time>2026-04-25T08:06:11.147Z</time></trkpt><trkpt lat="43.1451813" lon="13.0672026"><ele>503.0</ele><time>2026-04-25T08:06:12.132Z</time></trkpt><trkpt lat="43.1453016" lon="13.0671104"><ele>503.66666666666663</ele><time>2026-04-25T08:06:13.137Z</time></trkpt><trkpt lat="43.1454447" lon="13.0670549"><ele>504.33333333333337</ele><time>2026-04-25T08:06:14.127Z</time></trkpt><trkpt lat="43.1455949" lon="13.067007"><ele>505.0</ele><time>2026-04-25T08:06:15.131Z</time></trkpt><trkpt lat="43.1457445" lon="13.0669591"><ele>502.25</ele><time>2026-04-25T08:06:16.134Z</time></trkpt><trkpt lat="43.1458743" lon="13.0669065"><ele>499.5</ele><time>2026-04-25T08:06:17.134Z</time></trkpt><trkpt lat="43.1459964" lon="13.0668487"><ele>496.75</ele><time>2026-04-25T08:06:18.162Z</time></trkpt><trkpt lat="43.1461221" lon="13.0667788"><ele>494.0</ele><time>2026-04-25T08:06:19.133Z</time></trkpt><trkpt lat="43.1462417" lon="13.0666842"><ele>494.3333333333333</ele><time>2026-04-25T08:06:20.135Z</time></trkpt><trkpt lat="43.1463486" lon="13.0665699"><ele>494.66666666666663</ele><time>2026-04-25T08:06:21.137Z</time></trkpt><trkpt lat="43.1464495" lon="13.066386"><ele>495.0</ele><time>2026-04-25T08:06:22.134Z</time></trkpt><trkpt lat="43.1465593" lon="13.0661415"><ele>492.66666666666663</ele><time>2026-04-25T08:06:23.134Z</time></trkpt><trkpt lat="43.1466626" lon="13.0658729"><ele>490.3333333333333</ele><time>2026-04-25T08:06:24.159Z</time></trkpt><trkpt lat="43.1467717" lon="13.0656359"><ele>488.0</ele><time>2026-04-25T08:06:25.137Z</time></trkpt><trkpt lat="43.1468821" lon="13.0654229"><ele>488.0</ele><time>2026-04-25T08:06:26.134Z</time></trkpt><trkpt lat="43.1470091" lon="13.0652465"><ele>488.0</ele><time>2026-04-25T08:06:27.138Z</time></trkpt><trkpt lat="43.1471642" lon="13.0650975"><ele>488.0</ele><time>2026-04-25T08:06:28.135Z</time></trkpt><trkpt lat="43.14735" lon="13.0649232"><ele>487.5</ele><time>2026-04-25T08:06:29.137Z</time></trkpt><trkpt lat="43.147559" lon="13.0647264"><ele>487.0</ele><time>2026-04-25T08:06:30.129Z</time></trkpt><trkpt lat="43.1477892" lon="13.0645288"><ele>487.0</ele><time>2026-04-25T08:06:31.128Z</time></trkpt><trkpt lat="43.1480037" lon="13.0643537"><ele>487.0</ele><time>2026-04-25T08:06:32.135Z</time></trkpt><trkpt lat="43.1482171" lon="13.0641708"><ele>482.0</ele><time>2026-04-25T08:06:33.141Z</time></trkpt><trkpt lat="43.1484347" lon="13.0639736"><ele>477.0</ele><time>2026-04-25T08:06:34.13Z</time></trkpt><trkpt lat="43.14865" lon="13.0637791"><ele>477.0</ele><time>2026-04-25T08:06:35.137Z</time></trkpt><trkpt lat="43.1488614" lon="13.0635845"><ele>477.0</ele><time>2026-04-25T08:06:36.124Z</time></trkpt><trkpt lat="43.1490677" lon="13.0633849"><ele>474.0</ele><time>2026-04-25T08:06:37.142Z</time></trkpt><trkpt lat="43.1492699" lon="13.0631858"><ele>471.0</ele><time>2026-04-25T08:06:38.136Z</time></trkpt><trkpt lat="43.1494682" lon="13.0629699"><ele>471.0</ele><time>2026-04-25T08:06:39.132Z</time></trkpt><trkpt lat="43.14966" lon="13.0627363"><ele>471.0</ele><time>2026-04-25T08:06:40.145Z</time></trkpt><trkpt lat="43.1498462" lon="13.0625001"><ele>466.5</ele><time>2026-04-25T08:06:41.139Z</time></trkpt><trkpt lat="43.150029" lon="13.0622716"><ele>462.0</ele><time>2026-04-25T08:06:42.129Z</time></trkpt><trkpt lat="43.1502047" lon="13.0620597"><ele>462.0</ele><time>2026-04-25T08:06:43.135Z</time></trkpt><trkpt lat="43.1503688" lon="13.0618523"><ele>462.0</ele><time>2026-04-25T08:06:44.133Z</time></trkpt><trkpt lat="43.1505212" lon="13.0616424"><ele>462.0</ele><time>2026-04-25T08:06:45.141Z</time></trkpt><trkpt lat="43.1506518" lon="13.0614245"><ele>459.33333333333337</ele><time>2026-04-25T08:06:46.13Z</time></trkpt><trkpt lat="43.1507581" lon="13.0611964"><ele>456.6666666666667</ele><time>2026-04-25T08:06:47.131Z</time></trkpt><trkpt lat="43.1508432" lon="13.0609594"><ele>454.0</ele><time>2026-04-25T08:06:48.125Z</time></trkpt><trkpt lat="43.150924" lon="13.0607377"><ele>453.6666666666667</ele><time>2026-04-25T08:06:49.135Z</time></trkpt><trkpt lat="43.1510136" lon="13.0605244"><ele>453.33333333333337</ele><time>2026-04-25T08:06:50.13Z</time></trkpt><trkpt lat="43.1511272" lon="13.0603779"><ele>453.0</ele><time>2026-04-25T08:06:51.126Z</time></trkpt><trkpt lat="43.1512602" lon="13.0602894"><ele>453.0</ele><time>2026-04-25T08:06:52.139Z</time></trkpt><trkpt lat="43.1514053" lon="13.060274"><ele>453.0</ele><time>2026-04-25T08:06:53.141Z</time></trkpt><trkpt lat="43.1515334" lon="13.0603521"><ele>453.0</ele><time>2026-04-25T08:06:54.139Z</time></trkpt><trkpt lat="43.1516447" lon="13.0605009"><ele>453.0</ele><time>2026-04-25T08:06:55.132Z</time></trkpt><trkpt lat="43.1516976" lon="13.0607034"><ele>449.0</ele><time>2026-04-25T08:06:56.122Z</time></trkpt><trkpt lat="43.1517023" lon="13.060922"><ele>445.0</ele><time>2026-04-25T08:06:57.137Z</time></trkpt><trkpt lat="43.1516507" lon="13.0611559"><ele>441.0</ele><time>2026-04-25T08:06:58.132Z</time></trkpt><trkpt lat="43.1515989" lon="13.061398"><ele>439.66666666666663</ele><time>2026-04-25T08:06:59.13Z</time></trkpt><trkpt lat="43.1515524" lon="13.0616578"><ele>438.3333333333333</ele><time>2026-04-25T08:07:00.129Z</time></trkpt><trkpt lat="43.1515131" lon="13.0618977"><ele>437.0</ele><time>2026-04-25T08:07:01.143Z</time></trkpt><trkpt lat="43.1514835" lon="13.0621083"><ele>436.25</ele><time>2026-04-25T08:07:02.137Z</time></trkpt><trkpt lat="43.1514874" lon="13.0622827"><ele>435.5</ele><time>2026-04-25T08:07:03.144Z</time></trkpt><trkpt lat="43.1515188" lon="13.0624301"><ele>434.75</ele><time>2026-04-25T08:07:04.131Z</time></trkpt><trkpt lat="43.1515839" lon="13.062567"><ele>434.0</ele><time>2026-04-25T08:07:05.146Z</time></trkpt><trkpt lat="43.1517033" lon="13.0626611"><ele>434.0</ele><time>2026-04-25T08:07:06.132Z</time></trkpt><trkpt lat="43.1518361" lon="13.0626885"><ele>434.0</ele><time>2026-04-25T08:07:07.122Z</time></trkpt><trkpt lat="43.1519843" lon="13.0626669"><ele>434.0</ele><time>2026-04-25T08:07:08.127Z</time></trkpt><trkpt lat="43.152142" lon="13.0625877"><ele>434.0</ele><time>2026-04-25T08:07:09.131Z</time></trkpt><trkpt lat="43.1523168" lon="13.0624803"><ele>434.0</ele><time>2026-04-25T08:07:10.132Z</time></trkpt><trkpt lat="43.1525102" lon="13.0623623"><ele>434.0</ele><time>2026-04-25T08:07:11.129Z</time></trkpt><trkpt lat="43.1526953" lon="13.0622499"><ele>431.66666666666663</ele><time>2026-04-25T08:07:12.13Z</time></trkpt><trkpt lat="43.1528736" lon="13.0621495"><ele>429.33333333333337</ele><time>2026-04-25T08:07:13.139Z</time></trkpt><trkpt lat="43.1530404" lon="13.0620482"><ele>427.0</ele><time>2026-04-25T08:07:14.132Z</time></trkpt><trkpt lat="43.1531885" lon="13.0619207"><ele>424.33333333333337</ele><time>2026-04-25T08:07:15.136Z</time></trkpt><trkpt lat="43.1533054" lon="13.0617733"><ele>421.66666666666663</ele><time>2026-04-25T08:07:16.141Z</time></trkpt><trkpt lat="43.1534077" lon="13.0616101"><ele>419.0</ele><time>2026-04-25T08:07:17.15Z</time></trkpt><trkpt lat="43.1534752" lon="13.0614195"><ele>419.0</ele><time>2026-04-25T08:07:18.136Z</time></trkpt><trkpt lat="43.1535322" lon="13.0612095"><ele>419.0</ele><time>2026-04-25T08:07:19.134Z</time></trkpt><trkpt lat="43.153588" lon="13.0609425"><ele>419.0</ele><time>2026-04-25T08:07:20.128Z</time></trkpt><trkpt lat="43.1536681" lon="13.0606723"><ele>419.0</ele><time>2026-04-25T08:07:21.134Z</time></trkpt><trkpt lat="43.1537652" lon="13.0604082"><ele>419.0</ele><time>2026-04-25T08:07:22.133Z</time></trkpt><trkpt lat="43.1538789" lon="13.0601683"><ele>419.0</ele><time>2026-04-25T08:07:23.134Z</time></trkpt><trkpt lat="43.1540132" lon="13.0599639"><ele>418.0</ele><time>2026-04-25T08:07:24.134Z</time></trkpt><trkpt lat="43.1541571" lon="13.0597973"><ele>417.0</ele><time>2026-04-25T08:07:25.132Z</time></trkpt><trkpt lat="43.1543036" lon="13.05966"><ele>416.0</ele><time>2026-04-25T08:07:26.141Z</time></trkpt><trkpt lat="43.1544432" lon="13.0595512"><ele>416.0</ele><time>2026-04-25T08:07:27.13Z</time></trkpt><trkpt lat="43.1545777" lon="13.0594675"><ele>416.0</ele><time>2026-04-25T08:07:28.13Z</time></trkpt><trkpt lat="43.154713" lon="13.0594242"><ele>416.0</ele><time>2026-04-25T08:07:29.131Z</time></trkpt><trkpt lat="43.1548508" lon="13.0594447"><ele>416.0</ele><time>2026-04-25T08:07:30.134Z</time></trkpt><trkpt lat="43.1549759" lon="13.0595259"><ele>414.5</ele><time>2026-04-25T08:07:31.127Z</time></trkpt><trkpt lat="43.1550735" lon="13.059672"><ele>413.0</ele><time>2026-04-25T08:07:32.136Z</time></trkpt><trkpt lat="43.1551159" lon="13.0598582"><ele>411.5</ele><time>2026-04-25T08:07:33.134Z</time></trkpt><trkpt lat="43.1550963" lon="13.0600548"><ele>410.0</ele><time>2026-04-25T08:07:34.134Z</time></trkpt><trkpt lat="43.1550276" lon="13.0602327"><ele>409.75</ele><time>2026-04-25T08:07:35.132Z</time></trkpt><trkpt lat="43.1549214" lon="13.0603606"><ele>409.5</ele><time>2026-04-25T08:07:36.132Z</time></trkpt><trkpt lat="43.1547962" lon="13.060486"><ele>409.25</ele><time>2026-04-25T08:07:37.13Z</time></trkpt><trkpt lat="43.154679" lon="13.0606115"><ele>409.0</ele><time>2026-04-25T08:07:38.135Z</time></trkpt><trkpt lat="43.1545955" lon="13.060758"><ele>408.5</ele><time>2026-04-25T08:07:39.123Z</time></trkpt><trkpt lat="43.1545463" lon="13.0609125"><ele>408.0</ele><time>2026-04-25T08:07:40.135Z</time></trkpt><trkpt lat="43.1545345" lon="13.0610646"><ele>407.5</ele><time>2026-04-25T08:07:41.134Z</time></trkpt><trkpt lat="43.1545534" lon="13.06122"><ele>407.0</ele><time>2026-04-25T08:07:42.144Z</time></trkpt><trkpt lat="43.1546141" lon="13.0613595"><ele>407.0</ele><time>2026-04-25T08:07:43.138Z</time></trkpt><trkpt lat="43.1547166" lon="13.0614428"><ele>407.0</ele><time>2026-04-25T08:07:44.132Z</time></trkpt><trkpt lat="43.1548367" lon="13.0614893"><ele>407.0</ele><time>2026-04-25T08:07:45.131Z</time></trkpt><trkpt lat="43.1549688" lon="13.061446"><ele>407.0</ele><time>2026-04-25T08:07:46.132Z</time></trkpt><trkpt lat="43.1551027" lon="13.0613198"><ele>403.3333333333333</ele><time>2026-04-25T08:07:47.135Z</time></trkpt><trkpt lat="43.155232" lon="13.0611861"><ele>399.66666666666663</ele><time>2026-04-25T08:07:48.135Z</time></trkpt><trkpt lat="43.1553817" lon="13.0610418"><ele>396.0</ele><time>2026-04-25T08:07:49.131Z</time></trkpt><trkpt lat="43.155548" lon="13.0609438"><ele>394.33333333333337</ele><time>2026-04-25T08:07:50.138Z</time></trkpt><trkpt lat="43.1557272" lon="13.0609186"><ele>392.6666666666667</ele><time>2026-04-25T08:07:51.13Z</time></trkpt><trkpt lat="43.1559148" lon="13.0609497"><ele>391.0</ele><time>2026-04-25T08:07:52.141Z</time></trkpt><trkpt lat="43.1561161" lon="13.0610056"><ele>391.0</ele><time>2026-04-25T08:07:53.138Z</time></trkpt><trkpt lat="43.1563246" lon="13.0610847"><ele>391.0</ele><time>2026-04-25T08:07:54.127Z</time></trkpt><trkpt lat="43.1565413" lon="13.0611989"><ele>391.0</ele><time>2026-04-25T08:07:55.123Z</time></trkpt><trkpt lat="43.1567575" lon="13.0613393"><ele>391.5</ele><time>2026-04-25T08:07:56.137Z</time></trkpt><trkpt lat="43.156973" lon="13.0614906"><ele>392.0</ele><time>2026-04-25T08:07:57.123Z</time></trkpt><trkpt lat="43.157185" lon="13.0616335"><ele>388.66666666666663</ele><time>2026-04-25T08:07:58.128Z</time></trkpt><trkpt lat="43.1573956" lon="13.0617564"><ele>385.3333333333333</ele><time>2026-04-25T08:07:59.13Z</time></trkpt><trkpt lat="43.1575875" lon="13.0618563"><ele>382.0</ele><time>2026-04-25T08:08:00.127Z</time></trkpt><trkpt lat="43.1577687" lon="13.0619416"><ele>382.0</ele><time>2026-04-25T08:08:01.136Z</time></trkpt><trkpt lat="43.1579455" lon="13.0619957"><ele>382.0</ele><time>2026-04-25T08:08:02.138Z</time></trkpt><trkpt lat="43.1581309" lon="13.0620067"><ele>382.0</ele><time>2026-04-25T08:08:03.137Z</time></trkpt><trkpt lat="43.1583233" lon="13.0619717"><ele>380.0</ele><time>2026-04-25T08:08:04.124Z</time></trkpt><trkpt lat="43.1585411" lon="13.0619116"><ele>378.0</ele><time>2026-04-25T08:08:05.128Z</time></trkpt><trkpt lat="43.1587792" lon="13.0618456"><ele>378.0</ele><time>2026-04-25T08:08:06.132Z</time></trkpt><trkpt lat="43.1590199" lon="13.0617893"><ele>378.0</ele><time>2026-04-25T08:08:07.141Z</time></trkpt><trkpt lat="43.1592734" lon="13.0617454"><ele>373.5</ele><time>2026-04-25T08:08:08.141Z</time></trkpt><trkpt lat="43.1595237" lon="13.0617174"><ele>369.0</ele><time>2026-04-25T08:08:09.133Z</time></trkpt><trkpt lat="43.1597557" lon="13.0616987"><ele>369.0</ele><time>2026-04-25T08:08:10.143Z</time></trkpt><trkpt lat="43.159982" lon="13.0616429"><ele>369.0</ele><time>2026-04-25T08:08:11.134Z</time></trkpt><trkpt lat="43.1601945" lon="13.0615659"><ele>369.0</ele><time>2026-04-25T08:08:12.141Z</time></trkpt><trkpt lat="43.1603887" lon="13.0614455"><ele>369.0</ele><time>2026-04-25T08:08:13.134Z</time></trkpt><trkpt lat="43.1605949" lon="13.0612925"><ele>369.0</ele><time>2026-04-25T08:08:14.133Z</time></trkpt><trkpt lat="43.1608143" lon="13.061114"><ele>367.5</ele><time>2026-04-25T08:08:15.141Z</time></trkpt><trkpt lat="43.1610195" lon="13.0609209"><ele>366.0</ele><time>2026-04-25T08:08:16.128Z</time></trkpt><trkpt lat="43.1612153" lon="13.0606945"><ele>366.0</ele><time>2026-04-25T08:08:17.121Z</time></trkpt><trkpt lat="43.1614134" lon="13.0604471"><ele>366.0</ele><time>2026-04-25T08:08:18.134Z</time></trkpt><trkpt lat="43.1616144" lon="13.0602135"><ele>362.0</ele><time>2026-04-25T08:08:19.13Z</time></trkpt><trkpt lat="43.1618309" lon="13.059995"><ele>358.0</ele><time>2026-04-25T08:08:20.146Z</time></trkpt><trkpt lat="43.1620588" lon="13.0598045"><ele>358.0</ele><time>2026-04-25T08:08:21.137Z</time></trkpt><trkpt lat="43.1622816" lon="13.0596387"><ele>358.0</ele><time>2026-04-25T08:08:22.141Z</time></trkpt><trkpt lat="43.1625037" lon="13.0594874"><ele>354.5</ele><time>2026-04-25T08:08:23.13Z</time></trkpt><trkpt lat="43.1627355" lon="13.0593522"><ele>351.0</ele><time>2026-04-25T08:08:24.137Z</time></trkpt><trkpt lat="43.1629882" lon="13.0592344"><ele>348.5</ele><time>2026-04-25T08:08:25.142Z</time></trkpt><trkpt lat="43.1632407" lon="13.0591683"><ele>346.0</ele><time>2026-04-25T08:08:26.14Z</time></trkpt><trkpt lat="43.1634781" lon="13.0591182"><ele>347.0</ele><time>2026-04-25T08:08:27.144Z</time></trkpt><trkpt lat="43.1636988" lon="13.0590585"><ele>348.0</ele><time>2026-04-25T08:08:28.131Z</time></trkpt><trkpt lat="43.1639154" lon="13.0589848"><ele>349.0</ele><time>2026-04-25T08:08:29.132Z</time></trkpt><trkpt lat="43.1641281" lon="13.0589205"><ele>346.66666666666663</ele><time>2026-04-25T08:08:30.131Z</time></trkpt><trkpt lat="43.1643358" lon="13.0588613"><ele>344.3333333333333</ele><time>2026-04-25T08:08:31.133Z</time></trkpt><trkpt lat="43.1645355" lon="13.0588075"><ele>342.0</ele><time>2026-04-25T08:08:32.139Z</time></trkpt><trkpt lat="43.1647289" lon="13.058754"><ele>341.6666666666667</ele><time>2026-04-25T08:08:33.13Z</time></trkpt><trkpt lat="43.1649247" lon="13.05871"><ele>341.33333333333337</ele><time>2026-04-25T08:08:34.135Z</time></trkpt><trkpt lat="43.1651149" lon="13.0587007"><ele>341.0</ele><time>2026-04-25T08:08:35.131Z</time></trkpt><trkpt lat="43.1652928" lon="13.0587466"><ele>341.0</ele><time>2026-04-25T08:08:36.134Z</time></trkpt><trkpt lat="43.1654751" lon="13.0587981"><ele>341.0</ele><time>2026-04-25T08:08:37.126Z</time></trkpt><trkpt lat="43.1656709" lon="13.0588176"><ele>341.0</ele><time>2026-04-25T08:08:38.147Z</time></trkpt><trkpt lat="43.165873" lon="13.0587961"><ele>341.6666666666667</ele><time>2026-04-25T08:08:39.127Z</time></trkpt><trkpt lat="43.1660616" lon="13.0587073"><ele>342.3333333333333</ele><time>2026-04-25T08:08:40.13Z</time></trkpt><trkpt lat="43.166246" lon="13.0585856"><ele>343.0</ele><time>2026-04-25T08:08:41.124Z</time></trkpt><trkpt lat="43.1664306" lon="13.0584579"><ele>342.3333333333333</ele><time>2026-04-25T08:08:42.126Z</time></trkpt><trkpt lat="43.1666142" lon="13.0583321"><ele>341.6666666666667</ele><time>2026-04-25T08:08:43.126Z</time></trkpt><trkpt lat="43.1668049" lon="13.0582307"><ele>341.0</ele><time>2026-04-25T08:08:44.131Z</time></trkpt><trkpt lat="43.1669978" lon="13.0581451"><ele>340.0</ele><time>2026-04-25T08:08:45.131Z</time></trkpt><trkpt lat="43.1671934" lon="13.0581022"><ele>339.0</ele><time>2026-04-25T08:08:46.134Z</time></trkpt><trkpt lat="43.1673839" lon="13.0580807"><ele>338.0</ele><time>2026-04-25T08:08:47.138Z</time></trkpt><trkpt lat="43.1675813" lon="13.0580715"><ele>337.33333333333337</ele><time>2026-04-25T08:08:48.125Z</time></trkpt><trkpt lat="43.1677715" lon="13.0580451"><ele>336.6666666666667</ele><time>2026-04-25T08:08:49.141Z</time></trkpt><trkpt lat="43.1679648" lon="13.0579757"><ele>336.0</ele><time>2026-04-25T08:08:50.12Z</time></trkpt><trkpt lat="43.1681541" lon="13.0578788"><ele>335.0</ele><time>2026-04-25T08:08:51.123Z</time></trkpt><trkpt lat="43.1683934" lon="13.0577571"><ele>334.0</ele><time>2026-04-25T08:08:52.135Z</time></trkpt><trkpt lat="43.1686456" lon="13.0576311"><ele>334.0</ele><time>2026-04-25T08:08:53.131Z</time></trkpt><trkpt lat="43.1689139" lon="13.0575081"><ele>334.0</ele><time>2026-04-25T08:08:54.122Z</time></trkpt><trkpt lat="43.1691953" lon="13.0573642"><ele>334.0</ele><time>2026-04-25T08:08:55.134Z</time></trkpt><trkpt lat="43.1694794" lon="13.0572145"><ele>334.0</ele><time>2026-04-25T08:08:56.131Z</time></trkpt><trkpt lat="43.1697617" lon="13.0570549"><ele>333.5</ele><time>2026-04-25T08:08:57.131Z</time></trkpt><trkpt lat="43.17005" lon="13.0568857"><ele>333.0</ele><time>2026-04-25T08:08:58.116Z</time></trkpt><trkpt lat="43.170334" lon="13.0567211"><ele>333.0</ele><time>2026-04-25T08:08:59.125Z</time></trkpt><trkpt lat="43.1706106" lon="13.0565586"><ele>333.0</ele><time>2026-04-25T08:09:00.122Z</time></trkpt><trkpt lat="43.170883" lon="13.0564069"><ele>333.0</ele><time>2026-04-25T08:09:01.127Z</time></trkpt><trkpt lat="43.1711564" lon="13.056252"><ele>333.0</ele><time>2026-04-25T08:09:02.133Z</time></trkpt><trkpt lat="43.171432" lon="13.0560916"><ele>333.5</ele><time>2026-04-25T08:09:03.134Z</time></trkpt><trkpt lat="43.1717019" lon="13.0559338"><ele>334.0</ele><time>2026-04-25T08:09:04.122Z</time></trkpt><trkpt lat="43.1719712" lon="13.0557782"><ele>334.0</ele><time>2026-04-25T08:09:05.13Z</time></trkpt><trkpt lat="43.1722377" lon="13.0556286"><ele>334.0</ele><time>2026-04-25T08:09:06.136Z</time></trkpt><trkpt lat="43.1725062" lon="13.0554753"><ele>334.0</ele><time>2026-04-25T08:09:07.139Z</time></trkpt><trkpt lat="43.1727723" lon="13.0553182"><ele>334.0</ele><time>2026-04-25T08:09:08.13Z</time></trkpt><trkpt lat="43.1730387" lon="13.0551723"><ele>333.0</ele><time>2026-04-25T08:09:09.13Z</time></trkpt><trkpt lat="43.1733007" lon="13.0550325"><ele>332.0</ele><time>2026-04-25T08:09:10.138Z</time></trkpt><trkpt lat="43.1735571" lon="13.0549211"><ele>332.0</ele><time>2026-04-25T08:09:11.127Z</time></trkpt><trkpt lat="43.1738188" lon="13.0548456"><ele>332.0</ele><time>2026-04-25T08:09:12.129Z</time></trkpt><trkpt lat="43.1740922" lon="13.0548011"><ele>332.0</ele><time>2026-04-25T08:09:13.144Z</time></trkpt><trkpt lat="43.1743729" lon="13.05476"><ele>332.0</ele><time>2026-04-25T08:09:14.137Z</time></trkpt><trkpt lat="43.1746608" lon="13.0547213"><ele>330.5</ele><time>2026-04-25T08:09:15.136Z</time></trkpt><trkpt lat="43.1749488" lon="13.0546773"><ele>329.0</ele><time>2026-04-25T08:09:16.135Z</time></trkpt><trkpt lat="43.1752318" lon="13.0546359"><ele>329.0</ele><time>2026-04-25T08:09:17.135Z</time></trkpt><trkpt lat="43.1754963" lon="13.0545952"><ele>329.0</ele><time>2026-04-25T08:09:18.135Z</time></trkpt><trkpt lat="43.1757384" lon="13.0545542"><ele>330.0</ele><time>2026-04-25T08:09:19.143Z</time></trkpt><trkpt lat="43.1759623" lon="13.0545173"><ele>331.0</ele><time>2026-04-25T08:09:20.127Z</time></trkpt><trkpt lat="43.1761838" lon="13.0544872"><ele>332.0</ele><time>2026-04-25T08:09:21.142Z</time></trkpt><trkpt lat="43.1764215" lon="13.0544486"><ele>332.5</ele><time>2026-04-25T08:09:22.136Z</time></trkpt><trkpt lat="43.1766737" lon="13.0544068"><ele>333.0</ele><time>2026-04-25T08:09:23.126Z</time></trkpt><trkpt lat="43.176933" lon="13.0543654"><ele>333.0</ele><time>2026-04-25T08:09:24.143Z</time></trkpt><trkpt lat="43.1771981" lon="13.0543302"><ele>333.0</ele><time>2026-04-25T08:09:25.135Z</time></trkpt><trkpt lat="43.1774691" lon="13.0542966"><ele>333.5</ele><time>2026-04-25T08:09:26.132Z</time></trkpt><trkpt lat="43.1777398" lon="13.0542546"><ele>334.0</ele><time>2026-04-25T08:09:27.133Z</time></trkpt><trkpt lat="43.1780148" lon="13.05422"><ele>335.0</ele><time>2026-04-25T08:09:28.131Z</time></trkpt><trkpt lat="43.178306" lon="13.0541845"><ele>336.0</ele><time>2026-04-25T08:09:29.13Z</time></trkpt><trkpt lat="43.1785892" lon="13.0541497"><ele>339.0</ele><time>2026-04-25T08:09:30.13Z</time></trkpt><trkpt lat="43.1788594" lon="13.0541161"><ele>342.0</ele><time>2026-04-25T08:09:31.142Z</time></trkpt><trkpt lat="43.1791104" lon="13.0540909"><ele>342.5</ele><time>2026-04-25T08:09:32.129Z</time></trkpt><trkpt lat="43.1793648" lon="13.0540719"><ele>343.0</ele><time>2026-04-25T08:09:33.137Z</time></trkpt><trkpt lat="43.1796163" lon="13.054072"><ele>342.5</ele><time>2026-04-25T08:09:34.133Z</time></trkpt><trkpt lat="43.1798629" lon="13.0540897"><ele>342.0</ele><time>2026-04-25T08:09:35.133Z</time></trkpt><trkpt lat="43.1801188" lon="13.0541093"><ele>338.5</ele><time>2026-04-25T08:09:36.128Z</time></trkpt><trkpt lat="43.1803723" lon="13.0541301"><ele>335.0</ele><time>2026-04-25T08:09:37.132Z</time></trkpt><trkpt lat="43.1806277" lon="13.0541541"><ele>334.0</ele><time>2026-04-25T08:09:38.137Z</time></trkpt><trkpt lat="43.1808879" lon="13.0541798"><ele>333.0</ele><time>2026-04-25T08:09:39.136Z</time></trkpt><trkpt lat="43.181151" lon="13.0542231"><ele>333.0</ele><time>2026-04-25T08:09:40.143Z</time></trkpt><trkpt lat="43.181409" lon="13.0542868"><ele>333.0</ele><time>2026-04-25T08:09:41.136Z</time></trkpt><trkpt lat="43.1816645" lon="13.054359"><ele>334.5</ele><time>2026-04-25T08:09:42.134Z</time></trkpt><trkpt lat="43.1819147" lon="13.0544405"><ele>336.0</ele><time>2026-04-25T08:09:43.141Z</time></trkpt><trkpt lat="43.1821666" lon="13.0545469"><ele>339.0</ele><time>2026-04-25T08:09:44.134Z</time></trkpt><trkpt lat="43.1824204" lon="13.054674"><ele>342.0</ele><time>2026-04-25T08:09:45.136Z</time></trkpt><trkpt lat="43.182674" lon="13.0548269"><ele>339.0</ele><time>2026-04-25T08:09:46.127Z</time></trkpt><trkpt lat="43.1829318" lon="13.0549738"><ele>336.0</ele><time>2026-04-25T08:09:47.123Z</time></trkpt><trkpt lat="43.1831855" lon="13.0551115"><ele>336.0</ele><time>2026-04-25T08:09:48.132Z</time></trkpt><trkpt lat="43.1834193" lon="13.0552408"><ele>336.0</ele><time>2026-04-25T08:09:49.13Z</time></trkpt><trkpt lat="43.1836366" lon="13.0553598"><ele>336.0</ele><time>2026-04-25T08:09:50.137Z</time></trkpt><trkpt lat="43.1838437" lon="13.0554597"><ele>336.0</ele><time>2026-04-25T08:09:51.135Z</time></trkpt><trkpt lat="43.1840634" lon="13.0555315"><ele>336.0</ele><time>2026-04-25T08:09:52.136Z</time></trkpt><trkpt lat="43.184296" lon="13.0555444"><ele>341.5</ele><time>2026-04-25T08:09:53.129Z</time></trkpt><trkpt lat="43.1845534" lon="13.0555253"><ele>347.0</ele><time>2026-04-25T08:09:54.135Z</time></trkpt><trkpt lat="43.1848237" lon="13.0554774"><ele>346.5</ele><time>2026-04-25T08:09:55.121Z</time></trkpt><trkpt lat="43.1850999" lon="13.0554236"><ele>346.0</ele><time>2026-04-25T08:09:56.127Z</time></trkpt><trkpt lat="43.1853858" lon="13.0553623"><ele>346.0</ele><time>2026-04-25T08:09:57.134Z</time></trkpt><trkpt lat="43.1856679" lon="13.0552974"><ele>346.0</ele><time>2026-04-25T08:09:58.138Z</time></trkpt><trkpt lat="43.1859551" lon="13.0552285"><ele>343.0</ele><time>2026-04-25T08:09:59.13Z</time></trkpt><trkpt lat="43.186231" lon="13.0551702"><ele>340.0</ele><time>2026-04-25T08:10:00.129Z</time></trkpt><trkpt lat="43.186507" lon="13.055105"><ele>341.5</ele><time>2026-04-25T08:10:01.133Z</time></trkpt><trkpt lat="43.1867791" lon="13.0550465"><ele>343.0</ele><time>2026-04-25T08:10:02.143Z</time></trkpt><trkpt lat="43.1870464" lon="13.0549899"><ele>348.5</ele><time>2026-04-25T08:10:03.133Z</time></trkpt><trkpt lat="43.1873215" lon="13.0549355"><ele>354.0</ele><time>2026-04-25T08:10:04.139Z</time></trkpt><trkpt lat="43.1875972" lon="13.0548799"><ele>354.0</ele><time>2026-04-25T08:10:05.14Z</time></trkpt><trkpt lat="43.1878747" lon="13.0548237"><ele>354.0</ele><time>2026-04-25T08:10:06.13Z</time></trkpt><trkpt lat="43.1881497" lon="13.0547797"><ele>353.0</ele><time>2026-04-25T08:10:07.133Z</time></trkpt><trkpt lat="43.1884265" lon="13.0547318"><ele>352.0</ele><time>2026-04-25T08:10:08.133Z</time></trkpt><trkpt lat="43.1887052" lon="13.0546768"><ele>352.0</ele><time>2026-04-25T08:10:09.147Z</time></trkpt><trkpt lat="43.1889754" lon="13.054636"><ele>352.0</ele><time>2026-04-25T08:10:10.132Z</time></trkpt><trkpt lat="43.1892452" lon="13.0545871"><ele>346.0</ele><time>2026-04-25T08:10:11.138Z</time></trkpt><trkpt lat="43.1894992" lon="13.054542"><ele>340.0</ele><time>2026-04-25T08:10:12.14Z</time></trkpt><trkpt lat="43.1897437" lon="13.0544956"><ele>335.5</ele><time>2026-04-25T08:10:13.139Z</time></trkpt><trkpt lat="43.1899818" lon="13.0544422"><ele>331.0</ele><time>2026-04-25T08:10:14.14Z</time></trkpt><trkpt lat="43.1902153" lon="13.0543985"><ele>331.0</ele><time>2026-04-25T08:10:15.137Z</time></trkpt><trkpt lat="43.1904435" lon="13.0543469"><ele>331.0</ele><time>2026-04-25T08:10:16.136Z</time></trkpt><trkpt lat="43.1906629" lon="13.0543013"><ele>328.3333333333333</ele><time>2026-04-25T08:10:17.149Z</time></trkpt><trkpt lat="43.1908748" lon="13.0542556"><ele>325.6666666666667</ele><time>2026-04-25T08:10:18.13Z</time></trkpt><trkpt lat="43.1910856" lon="13.0542023"><ele>323.0</ele><time>2026-04-25T08:10:19.134Z</time></trkpt><trkpt lat="43.1912932" lon="13.0541389"><ele>322.6666666666667</ele><time>2026-04-25T08:10:20.132Z</time></trkpt><trkpt lat="43.1915007" lon="13.0540491"><ele>322.3333333333333</ele><time>2026-04-25T08:10:21.139Z</time></trkpt><trkpt lat="43.1917068" lon="13.0539087"><ele>322.0</ele><time>2026-04-25T08:10:22.13Z</time></trkpt><trkpt lat="43.191919" lon="13.0537592"><ele>322.0</ele><time>2026-04-25T08:10:23.13Z</time></trkpt><trkpt lat="43.1921284" lon="13.0536085"><ele>322.0</ele><time>2026-04-25T08:10:24.132Z</time></trkpt><trkpt lat="43.1923406" lon="13.0534573"><ele>322.0</ele><time>2026-04-25T08:10:25.137Z</time></trkpt><trkpt lat="43.1925496" lon="13.0533221"><ele>322.0</ele><time>2026-04-25T08:10:26.137Z</time></trkpt><trkpt lat="43.1927578" lon="13.0531803"><ele>322.0</ele><time>2026-04-25T08:10:27.141Z</time></trkpt><trkpt lat="43.1929678" lon="13.0530388"><ele>322.0</ele><time>2026-04-25T08:10:28.13Z</time></trkpt><trkpt lat="43.1931656" lon="13.0529075"><ele>321.66666666666663</ele><time>2026-04-25T08:10:29.143Z</time></trkpt><trkpt lat="43.1933558" lon="13.0527809"><ele>321.3333333333333</ele><time>2026-04-25T08:10:30.142Z</time></trkpt><trkpt lat="43.1935402" lon="13.0526604"><ele>321.0</ele><time>2026-04-25T08:10:31.131Z</time></trkpt><trkpt lat="43.1937249" lon="13.0525412"><ele>321.3333333333333</ele><time>2026-04-25T08:10:32.13Z</time></trkpt><trkpt lat="43.1939101" lon="13.052424"><ele>321.66666666666663</ele><time>2026-04-25T08:10:33.129Z</time></trkpt><trkpt lat="43.1940994" lon="13.052303"><ele>322.0</ele><time>2026-04-25T08:10:34.133Z</time></trkpt><trkpt lat="43.1942892" lon="13.052179"><ele>321.0</ele><time>2026-04-25T08:10:35.133Z</time></trkpt><trkpt lat="43.1944807" lon="13.0520414"><ele>320.0</ele><time>2026-04-25T08:10:36.126Z</time></trkpt><trkpt lat="43.1946698" lon="13.0518957"><ele>319.0</ele><time>2026-04-25T08:10:37.13Z</time></trkpt><trkpt lat="43.1948432" lon="13.0517523"><ele>317.66666666666663</ele><time>2026-04-25T08:10:38.132Z</time></trkpt><trkpt lat="43.195011" lon="13.0516126"><ele>316.3333333333333</ele><time>2026-04-25T08:10:39.131Z</time></trkpt><trkpt lat="43.1951737" lon="13.0514478"><ele>315.0</ele><time>2026-04-25T08:10:40.131Z</time></trkpt><trkpt lat="43.1953373" lon="13.0512779"><ele>315.0</ele><time>2026-04-25T08:10:41.148Z</time></trkpt><trkpt lat="43.1954967" lon="13.0511189"><ele>315.0</ele><time>2026-04-25T08:10:42.129Z</time></trkpt><trkpt lat="43.1956576" lon="13.0509769"><ele>315.0</ele><time>2026-04-25T08:10:43.138Z</time></trkpt><trkpt lat="43.1958155" lon="13.0508531"><ele>313.6666666666667</ele><time>2026-04-25T08:10:44.143Z</time></trkpt><trkpt lat="43.1959714" lon="13.050756"><ele>312.33333333333337</ele><time>2026-04-25T08:10:45.136Z</time></trkpt><trkpt lat="43.1961196" lon="13.0506563"><ele>311.0</ele><time>2026-04-25T08:10:46.148Z</time></trkpt><trkpt lat="43.1962619" lon="13.0505756"><ele>311.0</ele><time>2026-04-25T08:10:47.143Z</time></trkpt><trkpt lat="43.196395" lon="13.0505054"><ele>311.0</ele><time>2026-04-25T08:10:48.133Z</time></trkpt><trkpt lat="43.1965121" lon="13.0504392"><ele>311.0</ele><time>2026-04-25T08:10:49.139Z</time></trkpt><trkpt lat="43.1966197" lon="13.0503897"><ele>311.0</ele><time>2026-04-25T08:10:50.142Z</time></trkpt><trkpt lat="43.1967237" lon="13.0503603"><ele>310.6666666666667</ele><time>2026-04-25T08:10:51.127Z</time></trkpt><trkpt lat="43.196819" lon="13.050359"><ele>310.33333333333337</ele><time>2026-04-25T08:10:52.123Z</time></trkpt><trkpt lat="43.1968997" lon="13.0503857"><ele>310.0</ele><time>2026-04-25T08:10:53.125Z</time></trkpt><trkpt lat="43.1969876" lon="13.0504192"><ele>309.6666666666667</ele><time>2026-04-25T08:10:54.142Z</time></trkpt><trkpt lat="43.1970751" lon="13.0503906"><ele>309.3333333333333</ele><time>2026-04-25T08:10:55.134Z</time></trkpt><trkpt lat="43.1971467" lon="13.0503339"><ele>309.0</ele><time>2026-04-25T08:10:56.123Z</time></trkpt><trkpt lat="43.1971887" lon="13.0502474"><ele>309.0</ele><time>2026-04-25T08:10:57.137Z</time></trkpt><trkpt lat="43.1971905" lon="13.0501409"><ele>309.0</ele><time>2026-04-25T08:10:58.133Z</time></trkpt><trkpt lat="43.1971525" lon="13.0500342"><ele>309.0</ele><time>2026-04-25T08:10:59.131Z</time></trkpt><trkpt lat="43.1970872" lon="13.0499561"><ele>309.0</ele><time>2026-04-25T08:11:00.138Z</time></trkpt><trkpt lat="43.1969963" lon="13.0499011"><ele>309.0</ele><time>2026-04-25T08:11:01.129Z</time></trkpt><trkpt lat="43.1968922" lon="13.0498379"><ele>309.25</ele><time>2026-04-25T08:11:02.122Z</time></trkpt><trkpt lat="43.1968156" lon="13.0497208"><ele>309.5</ele><time>2026-04-25T08:11:03.128Z</time></trkpt><trkpt lat="43.1967781" lon="13.0495426"><ele>309.75</ele><time>2026-04-25T08:11:04.128Z</time></trkpt><trkpt lat="43.1967666" lon="13.0493421"><ele>310.0</ele><time>2026-04-25T08:11:05.119Z</time></trkpt><trkpt lat="43.1967524" lon="13.0491162"><ele>311.66666666666663</ele><time>2026-04-25T08:11:06.131Z</time></trkpt><trkpt lat="43.1967375" lon="13.0488821"><ele>313.3333333333333</ele><time>2026-04-25T08:11:07.129Z</time></trkpt><trkpt lat="43.1967197" lon="13.0486444"><ele>315.0</ele><time>2026-04-25T08:11:08.128Z</time></trkpt><trkpt lat="43.1966847" lon="13.0484192"><ele>315.0</ele><time>2026-04-25T08:11:09.132Z</time></trkpt><trkpt lat="43.1966271" lon="13.0482234"><ele>315.0</ele><time>2026-04-25T08:11:10.13Z</time></trkpt><trkpt lat="43.1965341" lon="13.048061"><ele>315.0</ele><time>2026-04-25T08:11:11.133Z</time></trkpt><trkpt lat="43.1964013" lon="13.0479228"><ele>315.0</ele><time>2026-04-25T08:11:12.125Z</time></trkpt><trkpt lat="43.1962348" lon="13.0478295"><ele>315.0</ele><time>2026-04-25T08:11:13.134Z</time></trkpt><trkpt lat="43.1960461" lon="13.0477464"><ele>315.0</ele><time>2026-04-25T08:11:14.132Z</time></trkpt><trkpt lat="43.195847" lon="13.0476635"><ele>314.6666666666667</ele><time>2026-04-25T08:11:15.137Z</time></trkpt><trkpt lat="43.1956578" lon="13.0475749"><ele>314.33333333333337</ele><time>2026-04-25T08:11:16.133Z</time></trkpt><trkpt lat="43.1954931" lon="13.0474561"><ele>314.0</ele><time>2026-04-25T08:11:17.132Z</time></trkpt><trkpt lat="43.1953562" lon="13.0473119"><ele>314.0</ele><time>2026-04-25T08:11:18.142Z</time></trkpt><trkpt lat="43.1952141" lon="13.0471209"><ele>314.0</ele><time>2026-04-25T08:11:19.137Z</time></trkpt><trkpt lat="43.1950548" lon="13.0468963"><ele>314.0</ele><time>2026-04-25T08:11:20.137Z</time></trkpt><trkpt lat="43.1948896" lon="13.0466605"><ele>314.0</ele><time>2026-04-25T08:11:21.133Z</time></trkpt><trkpt lat="43.1947179" lon="13.0464088"><ele>314.0</ele><time>2026-04-25T08:11:22.137Z</time></trkpt><trkpt lat="43.1945376" lon="13.0461538"><ele>314.0</ele><time>2026-04-25T08:11:23.129Z</time></trkpt><trkpt lat="43.194355" lon="13.0459173"><ele>314.0</ele><time>2026-04-25T08:11:24.135Z</time></trkpt><trkpt lat="43.1941739" lon="13.0457168"><ele>313.6666666666667</ele><time>2026-04-25T08:11:25.133Z</time></trkpt><trkpt lat="43.1939887" lon="13.0455349"><ele>313.3333333333333</ele><time>2026-04-25T08:11:26.142Z</time></trkpt><trkpt lat="43.19381" lon="13.0453752"><ele>313.0</ele><time>2026-04-25T08:11:27.126Z</time></trkpt><trkpt lat="43.1936399" lon="13.0452335"><ele>313.0</ele><time>2026-04-25T08:11:28.132Z</time></trkpt><trkpt lat="43.1934767" lon="13.0451377"><ele>313.0</ele><time>2026-04-25T08:11:29.137Z</time></trkpt><trkpt lat="43.1933122" lon="13.0450708"><ele>313.0</ele><time>2026-04-25T08:11:30.131Z</time></trkpt><trkpt lat="43.1931408" lon="13.0449911"><ele>313.3333333333333</ele><time>2026-04-25T08:11:31.135Z</time></trkpt><trkpt lat="43.1929606" lon="13.0448667"><ele>313.6666666666667</ele><time>2026-04-25T08:11:32.138Z</time></trkpt><trkpt lat="43.1927856" lon="13.0446991"><ele>314.0</ele><time>2026-04-25T08:11:33.133Z</time></trkpt><trkpt lat="43.1926125" lon="13.0444838"><ele>314.0</ele><time>2026-04-25T08:11:34.14Z</time></trkpt><trkpt lat="43.1924533" lon="13.0442246"><ele>314.0</ele><time>2026-04-25T08:11:35.133Z</time></trkpt><trkpt lat="43.1922925" lon="13.0439704"><ele>313.5</ele><time>2026-04-25T08:11:36.135Z</time></trkpt><trkpt lat="43.1921341" lon="13.0436963"><ele>313.0</ele><time>2026-04-25T08:11:37.138Z</time></trkpt><trkpt lat="43.1919914" lon="13.0434358"><ele>314.0</ele><time>2026-04-25T08:11:38.13Z</time></trkpt><trkpt lat="43.1918579" lon="13.0431732"><ele>315.0</ele><time>2026-04-25T08:11:39.126Z</time></trkpt><trkpt lat="43.1917389" lon="13.0429204"><ele>315.0</ele><time>2026-04-25T08:11:40.13Z</time></trkpt><trkpt lat="43.1916078" lon="13.0426779"><ele>315.0</ele><time>2026-04-25T08:11:41.132Z</time></trkpt><trkpt lat="43.1914598" lon="13.0424576"><ele>315.0</ele><time>2026-04-25T08:11:42.129Z</time></trkpt><trkpt lat="43.1913147" lon="13.0422548"><ele>315.0</ele><time>2026-04-25T08:11:43.129Z</time></trkpt><trkpt lat="43.1911805" lon="13.0420654"><ele>315.0</ele><time>2026-04-25T08:11:44.132Z</time></trkpt><trkpt lat="43.1910597" lon="13.0418461"><ele>315.0</ele><time>2026-04-25T08:11:45.13Z</time></trkpt><trkpt lat="43.1909589" lon="13.0416076"><ele>315.3333333333333</ele><time>2026-04-25T08:11:46.137Z</time></trkpt><trkpt lat="43.1908883" lon="13.0413691"><ele>315.66666666666663</ele><time>2026-04-25T08:11:47.131Z</time></trkpt><trkpt lat="43.1908336" lon="13.0411591"><ele>316.0</ele><time>2026-04-25T08:11:48.137Z</time></trkpt><trkpt lat="43.1907794" lon="13.0409728"><ele>316.0</ele><time>2026-04-25T08:11:49.13Z</time></trkpt><trkpt lat="43.1907291" lon="13.0408008"><ele>316.0</ele><time>2026-04-25T08:11:50.132Z</time></trkpt><trkpt lat="43.1906696" lon="13.040654"><ele>316.0</ele><time>2026-04-25T08:11:51.139Z</time></trkpt><trkpt lat="43.190596" lon="13.0405307"><ele>316.0</ele><time>2026-04-25T08:11:52.136Z</time></trkpt><trkpt lat="43.190497" lon="13.0404364"><ele>316.0</ele><time>2026-04-25T08:11:53.128Z</time></trkpt><trkpt lat="43.1903703" lon="13.0403715"><ele>316.0</ele><time>2026-04-25T08:11:54.142Z</time></trkpt><trkpt lat="43.1902559" lon="13.0403179"><ele>316.0</ele><time>2026-04-25T08:11:55.131Z</time></trkpt><trkpt lat="43.190135" lon="13.0402666"><ele>316.0</ele><time>2026-04-25T08:11:56.128Z</time></trkpt><trkpt lat="43.1900217" lon="13.0401869"><ele>316.0</ele><time>2026-04-25T08:11:57.132Z</time></trkpt><trkpt lat="43.189921" lon="13.0400682"><ele>316.0</ele><time>2026-04-25T08:11:58.128Z</time></trkpt><trkpt lat="43.1898283" lon="13.0399364"><ele>316.0</ele><time>2026-04-25T08:11:59.124Z</time></trkpt><trkpt lat="43.1897493" lon="13.0397974"><ele>316.0</ele><time>2026-04-25T08:12:00.132Z</time></trkpt><trkpt lat="43.1896878" lon="13.0396517"><ele>316.25</ele><time>2026-04-25T08:12:01.121Z</time></trkpt><trkpt lat="43.1896244" lon="13.0395048"><ele>316.5</ele><time>2026-04-25T08:12:02.119Z</time></trkpt><trkpt lat="43.1895631" lon="13.0393543"><ele>316.75</ele><time>2026-04-25T08:12:03.124Z</time></trkpt><trkpt lat="43.1895025" lon="13.0392093"><ele>317.0</ele><time>2026-04-25T08:12:04.132Z</time></trkpt><trkpt lat="43.1894344" lon="13.0390536"><ele>318.25</ele><time>2026-04-25T08:12:05.135Z</time></trkpt><trkpt lat="43.1893694" lon="13.0389032"><ele>319.5</ele><time>2026-04-25T08:12:06.13Z</time></trkpt><trkpt lat="43.1893031" lon="13.0387471"><ele>320.75</ele><time>2026-04-25T08:12:07.122Z</time></trkpt><trkpt lat="43.1892398" lon="13.0385939"><ele>322.0</ele><time>2026-04-25T08:12:08.133Z</time></trkpt><trkpt lat="43.1891776" lon="13.0384452"><ele>322.0</ele><time>2026-04-25T08:12:09.129Z</time></trkpt><trkpt lat="43.1891204" lon="13.0383085"><ele>322.0</ele><time>2026-04-25T08:12:10.136Z</time></trkpt><trkpt lat="43.1890724" lon="13.038168"><ele>322.0</ele><time>2026-04-25T08:12:11.131Z</time></trkpt><trkpt lat="43.1890228" lon="13.0380263"><ele>322.0</ele><time>2026-04-25T08:12:12.128Z</time></trkpt><trkpt lat="43.1889767" lon="13.0378687"><ele>322.5</ele><time>2026-04-25T08:12:13.131Z</time></trkpt><trkpt lat="43.1889287" lon="13.0377039"><ele>323.0</ele><time>2026-04-25T08:12:14.133Z</time></trkpt><trkpt lat="43.188883" lon="13.0375316"><ele>323.5</ele><time>2026-04-25T08:12:15.137Z</time></trkpt><trkpt lat="43.1888374" lon="13.0373595"><ele>324.0</ele><time>2026-04-25T08:12:16.131Z</time></trkpt><trkpt lat="43.1887916" lon="13.0371904"><ele>324.0</ele><time>2026-04-25T08:12:17.142Z</time></trkpt><trkpt lat="43.1887375" lon="13.0370202"><ele>324.0</ele><time>2026-04-25T08:12:18.137Z</time></trkpt><trkpt lat="43.1886779" lon="13.036856"><ele>324.0</ele><time>2026-04-25T08:12:19.136Z</time></trkpt><trkpt lat="43.1885906" lon="13.0367079"><ele>324.0</ele><time>2026-04-25T08:12:20.137Z</time></trkpt><trkpt lat="43.1884968" lon="13.0365626"><ele>324.75</ele><time>2026-04-25T08:12:21.13Z</time></trkpt><trkpt lat="43.1883976" lon="13.0364223"><ele>325.5</ele><time>2026-04-25T08:12:22.129Z</time></trkpt><trkpt lat="43.188293" lon="13.036276"><ele>326.25</ele><time>2026-04-25T08:12:23.13Z</time></trkpt><trkpt lat="43.1881896" lon="13.0361235"><ele>327.0</ele><time>2026-04-25T08:12:24.122Z</time></trkpt><trkpt lat="43.1880783" lon="13.0359723"><ele>329.0</ele><time>2026-04-25T08:12:25.129Z</time></trkpt><trkpt lat="43.1879381" lon="13.0357852"><ele>331.0</ele><time>2026-04-25T08:12:26.129Z</time></trkpt><trkpt lat="43.1877794" lon="13.0355498"><ele>333.0</ele><time>2026-04-25T08:12:27.124Z</time></trkpt><trkpt lat="43.1876144" lon="13.0353091"><ele>333.0</ele><time>2026-04-25T08:12:28.121Z</time></trkpt><trkpt lat="43.1874572" lon="13.0350795"><ele>333.0</ele><time>2026-04-25T08:12:29.132Z</time></trkpt><trkpt lat="43.1873182" lon="13.0348589"><ele>333.0</ele><time>2026-04-25T08:12:30.126Z</time></trkpt><trkpt lat="43.1871718" lon="13.0346387"><ele>332.3333333333333</ele><time>2026-04-25T08:12:31.129Z</time></trkpt><trkpt lat="43.1870307" lon="13.0344261"><ele>331.66666666666663</ele><time>2026-04-25T08:12:32.119Z</time></trkpt><trkpt lat="43.1869032" lon="13.0341881"><ele>331.0</ele><time>2026-04-25T08:12:33.126Z</time></trkpt><trkpt lat="43.1868138" lon="13.0339013"><ele>331.0</ele><time>2026-04-25T08:12:34.128Z</time></trkpt><trkpt lat="43.1867577" lon="13.0335866"><ele>331.0</ele><time>2026-04-25T08:12:35.128Z</time></trkpt><trkpt lat="43.1867104" lon="13.0332683"><ele>332.5</ele><time>2026-04-25T08:12:36.128Z</time></trkpt><trkpt lat="43.1866775" lon="13.0329528"><ele>334.0</ele><time>2026-04-25T08:12:37.131Z</time></trkpt><trkpt lat="43.186656" lon="13.0326562"><ele>334.3333333333333</ele><time>2026-04-25T08:12:38.146Z</time></trkpt><trkpt lat="43.1866198" lon="13.0323785"><ele>334.6666666666667</ele><time>2026-04-25T08:12:39.128Z</time></trkpt><trkpt lat="43.1865708" lon="13.0321147"><ele>335.0</ele><time>2026-04-25T08:12:40.13Z</time></trkpt><trkpt lat="43.1865144" lon="13.0318558"><ele>334.33333333333337</ele><time>2026-04-25T08:12:41.133Z</time></trkpt><trkpt lat="43.1864445" lon="13.0316218"><ele>333.6666666666667</ele><time>2026-04-25T08:12:42.134Z</time></trkpt><trkpt lat="43.1863638" lon="13.0313899"><ele>333.0</ele><time>2026-04-25T08:12:43.13Z</time></trkpt><trkpt lat="43.1862869" lon="13.0311624"><ele>333.0</ele><time>2026-04-25T08:12:44.123Z</time></trkpt><trkpt lat="43.1861994" lon="13.030955"><ele>333.0</ele><time>2026-04-25T08:12:45.128Z</time></trkpt><trkpt lat="43.1861012" lon="13.0307512"><ele>333.0</ele><time>2026-04-25T08:12:46.13Z</time></trkpt><trkpt lat="43.1860004" lon="13.0305506"><ele>333.3333333333333</ele><time>2026-04-25T08:12:47.124Z</time></trkpt><trkpt lat="43.1858915" lon="13.0303345"><ele>333.66666666666663</ele><time>2026-04-25T08:12:48.138Z</time></trkpt><trkpt lat="43.1857679" lon="13.0301036"><ele>334.0</ele><time>2026-04-25T08:12:49.13Z</time></trkpt><trkpt lat="43.1856282" lon="13.0298238"><ele>334.0</ele><time>2026-04-25T08:12:50.129Z</time></trkpt><trkpt lat="43.1854762" lon="13.0295057"><ele>334.0</ele><time>2026-04-25T08:12:51.126Z</time></trkpt><trkpt lat="43.185307" lon="13.0291603"><ele>336.0</ele><time>2026-04-25T08:12:52.133Z</time></trkpt><trkpt lat="43.1851268" lon="13.0288037"><ele>338.0</ele><time>2026-04-25T08:12:53.126Z</time></trkpt><trkpt lat="43.18494" lon="13.0284321"><ele>337.5</ele><time>2026-04-25T08:12:54.133Z</time></trkpt><trkpt lat="43.1847545" lon="13.0280481"><ele>337.0</ele><time>2026-04-25T08:12:55.143Z</time></trkpt><trkpt lat="43.1845789" lon="13.0276822"><ele>338.5</ele><time>2026-04-25T08:12:56.13Z</time></trkpt><trkpt lat="43.1844203" lon="13.0273397"><ele>340.0</ele><time>2026-04-25T08:12:57.135Z</time></trkpt><trkpt lat="43.1842702" lon="13.0270119"><ele>340.0</ele><time>2026-04-25T08:12:58.13Z</time></trkpt><trkpt lat="43.1841123" lon="13.0266852"><ele>340.0</ele><time>2026-04-25T08:12:59.135Z</time></trkpt><trkpt lat="43.1839515" lon="13.026352"><ele>339.5</ele><time>2026-04-25T08:13:00.138Z</time></trkpt><trkpt lat="43.1838017" lon="13.0260132"><ele>339.0</ele><time>2026-04-25T08:13:01.13Z</time></trkpt><trkpt lat="43.1836588" lon="13.0256672"><ele>340.0</ele><time>2026-04-25T08:13:02.132Z</time></trkpt><trkpt lat="43.1835252" lon="13.0253288"><ele>341.0</ele><time>2026-04-25T08:13:03.123Z</time></trkpt><trkpt lat="43.1833874" lon="13.0249986"><ele>341.0</ele><time>2026-04-25T08:13:04.124Z</time></trkpt><trkpt lat="43.1832576" lon="13.02467"><ele>341.0</ele><time>2026-04-25T08:13:05.127Z</time></trkpt><trkpt lat="43.1831441" lon="13.0243331"><ele>342.0</ele><time>2026-04-25T08:13:06.137Z</time></trkpt><trkpt lat="43.1830643" lon="13.0239746"><ele>343.0</ele><time>2026-04-25T08:13:07.129Z</time></trkpt><trkpt lat="43.1829988" lon="13.0236018"><ele>343.5</ele><time>2026-04-25T08:13:08.139Z</time></trkpt><trkpt lat="43.1829273" lon="13.023233"><ele>344.0</ele><time>2026-04-25T08:13:09.137Z</time></trkpt><trkpt lat="43.1828625" lon="13.0228649"><ele>344.0</ele><time>2026-04-25T08:13:10.126Z</time></trkpt><trkpt lat="43.1827951" lon="13.0224946"><ele>344.0</ele><time>2026-04-25T08:13:11.13Z</time></trkpt><trkpt lat="43.1827232" lon="13.0221265"><ele>344.5</ele><time>2026-04-25T08:13:12.133Z</time></trkpt><trkpt lat="43.1826532" lon="13.0217545"><ele>345.0</ele><time>2026-04-25T08:13:13.133Z</time></trkpt><trkpt lat="43.1825873" lon="13.021395"><ele>348.0</ele><time>2026-04-25T08:13:14.13Z</time></trkpt><trkpt lat="43.1825301" lon="13.021078"><ele>351.0</ele><time>2026-04-25T08:13:15.13Z</time></trkpt><trkpt lat="43.1824724" lon="13.0207801"><ele>353.0</ele><time>2026-04-25T08:13:16.134Z</time></trkpt><trkpt lat="43.1824246" lon="13.0204885"><ele>355.0</ele><time>2026-04-25T08:13:17.131Z</time></trkpt><trkpt lat="43.1823978" lon="13.0202021"><ele>357.0</ele><time>2026-04-25T08:13:18.164Z</time></trkpt><trkpt lat="43.1823877" lon="13.0198934"><ele>358.0</ele><time>2026-04-25T08:13:19.133Z</time></trkpt><trkpt lat="43.1824089" lon="13.0195669"><ele>359.0</ele><time>2026-04-25T08:13:20.132Z</time></trkpt><trkpt lat="43.1824431" lon="13.0192382"><ele>358.0</ele><time>2026-04-25T08:13:21.134Z</time></trkpt><trkpt lat="43.1824885" lon="13.0188976"><ele>357.0</ele><time>2026-04-25T08:13:22.129Z</time></trkpt><trkpt lat="43.1825446" lon="13.0185643"><ele>358.0</ele><time>2026-04-25T08:13:23.136Z</time></trkpt><trkpt lat="43.1825984" lon="13.0182436"><ele>359.0</ele><time>2026-04-25T08:13:24.124Z</time></trkpt><trkpt lat="43.1826417" lon="13.0179425"><ele>359.0</ele><time>2026-04-25T08:13:25.131Z</time></trkpt><trkpt lat="43.1826775" lon="13.017659"><ele>359.0</ele><time>2026-04-25T08:13:26.134Z</time></trkpt><trkpt lat="43.1826928" lon="13.017387"><ele>359.0</ele><time>2026-04-25T08:13:27.134Z</time></trkpt><trkpt lat="43.1826804" lon="13.0171192"><ele>360.6666666666667</ele><time>2026-04-25T08:13:28.127Z</time></trkpt><trkpt lat="43.1826281" lon="13.0168636"><ele>362.3333333333333</ele><time>2026-04-25T08:13:29.132Z</time></trkpt><trkpt lat="43.1825367" lon="13.0166024"><ele>364.0</ele><time>2026-04-25T08:13:30.136Z</time></trkpt><trkpt lat="43.1824279" lon="13.0163132"><ele>361.0</ele><time>2026-04-25T08:13:31.138Z</time></trkpt><trkpt lat="43.1823045" lon="13.0159927"><ele>358.0</ele><time>2026-04-25T08:13:32.135Z</time></trkpt><trkpt lat="43.1821947" lon="13.0156569"><ele>358.0</ele><time>2026-04-25T08:13:33.134Z</time></trkpt><trkpt lat="43.1820784" lon="13.0153305"><ele>358.0</ele><time>2026-04-25T08:13:34.123Z</time></trkpt><trkpt lat="43.1819622" lon="13.0150012"><ele>360.0</ele><time>2026-04-25T08:13:35.136Z</time></trkpt><trkpt lat="43.1818494" lon="13.0146796"><ele>362.0</ele><time>2026-04-25T08:13:36.128Z</time></trkpt><trkpt lat="43.181737" lon="13.0143735"><ele>359.5</ele><time>2026-04-25T08:13:37.129Z</time></trkpt><trkpt lat="43.1816112" lon="13.0140843"><ele>357.0</ele><time>2026-04-25T08:13:38.125Z</time></trkpt><trkpt lat="43.1814626" lon="13.0138107"><ele>357.0</ele><time>2026-04-25T08:13:39.132Z</time></trkpt><trkpt lat="43.181285" lon="13.0135463"><ele>357.0</ele><time>2026-04-25T08:13:40.128Z</time></trkpt><trkpt lat="43.1810944" lon="13.0133018"><ele>359.5</ele><time>2026-04-25T08:13:41.133Z</time></trkpt><trkpt lat="43.1809066" lon="13.01307"><ele>362.0</ele><time>2026-04-25T08:13:42.131Z</time></trkpt><trkpt lat="43.1807453" lon="13.0128526"><ele>359.0</ele><time>2026-04-25T08:13:43.133Z</time></trkpt><trkpt lat="43.1805993" lon="13.0126452"><ele>356.0</ele><time>2026-04-25T08:13:44.142Z</time></trkpt><trkpt lat="43.1804935" lon="13.0124285"><ele>353.0</ele><time>2026-04-25T08:13:45.141Z</time></trkpt><trkpt lat="43.1804239" lon="13.0121861"><ele>353.0</ele><time>2026-04-25T08:13:46.138Z</time></trkpt><trkpt lat="43.1803679" lon="13.0119165"><ele>353.0</ele><time>2026-04-25T08:13:47.131Z</time></trkpt><trkpt lat="43.18032" lon="13.0116417"><ele>353.0</ele><time>2026-04-25T08:13:48.141Z</time></trkpt><trkpt lat="43.180263" lon="13.011384"><ele>355.0</ele><time>2026-04-25T08:13:49.138Z</time></trkpt><trkpt lat="43.1801617" lon="13.0111458"><ele>357.0</ele><time>2026-04-25T08:13:50.134Z</time></trkpt><trkpt lat="43.1800181" lon="13.0109266"><ele>359.0</ele><time>2026-04-25T08:13:51.142Z</time></trkpt><trkpt lat="43.1798567" lon="13.0106818"><ele>357.5</ele><time>2026-04-25T08:13:52.14Z</time></trkpt><trkpt lat="43.1797049" lon="13.0103923"><ele>356.0</ele><time>2026-04-25T08:13:53.126Z</time></trkpt><trkpt lat="43.1795495" lon="13.0100884"><ele>359.0</ele><time>2026-04-25T08:13:54.158Z</time></trkpt><trkpt lat="43.1793961" lon="13.00977"><ele>362.0</ele><time>2026-04-25T08:13:55.138Z</time></trkpt><trkpt lat="43.1792507" lon="13.0094599"><ele>362.0</ele><time>2026-04-25T08:13:56.135Z</time></trkpt><trkpt lat="43.1791116" lon="13.0091667"><ele>362.0</ele><time>2026-04-25T08:13:57.134Z</time></trkpt><trkpt lat="43.1789695" lon="13.0088804"><ele>359.5</ele><time>2026-04-25T08:13:58.134Z</time></trkpt><trkpt lat="43.1788139" lon="13.0086014"><ele>357.0</ele><time>2026-04-25T08:13:59.136Z</time></trkpt><trkpt lat="43.1786331" lon="13.0083335"><ele>363.0</ele><time>2026-04-25T08:14:00.136Z</time></trkpt><trkpt lat="43.1784382" lon="13.0080685"><ele>369.0</ele><time>2026-04-25T08:14:01.123Z</time></trkpt><trkpt lat="43.1782433" lon="13.0078019"><ele>367.5</ele><time>2026-04-25T08:14:02.134Z</time></trkpt><trkpt lat="43.1780625" lon="13.0075626"><ele>366.0</ele><time>2026-04-25T08:14:03.128Z</time></trkpt><trkpt lat="43.1778947" lon="13.0073525"><ele>366.0</ele><time>2026-04-25T08:14:04.129Z</time></trkpt><trkpt lat="43.1777452" lon="13.0071558"><ele>366.0</ele><time>2026-04-25T08:14:05.143Z</time></trkpt><trkpt lat="43.1776054" lon="13.0069747"><ele>366.0</ele><time>2026-04-25T08:14:06.132Z</time></trkpt><trkpt lat="43.1774795" lon="13.0067996"><ele>366.0</ele><time>2026-04-25T08:14:07.126Z</time></trkpt><trkpt lat="43.1773834" lon="13.0065993"><ele>366.0</ele><time>2026-04-25T08:14:08.132Z</time></trkpt><trkpt lat="43.1773396" lon="13.0063691"><ele>366.0</ele><time>2026-04-25T08:14:09.133Z</time></trkpt><trkpt lat="43.177342" lon="13.0061239"><ele>366.0</ele><time>2026-04-25T08:14:10.136Z</time></trkpt><trkpt lat="43.1773975" lon="13.0058832"><ele>366.0</ele><time>2026-04-25T08:14:11.134Z</time></trkpt><trkpt lat="43.1774789" lon="13.0056381"><ele>366.0</ele><time>2026-04-25T08:14:12.13Z</time></trkpt><trkpt lat="43.1775709" lon="13.005388"><ele>366.0</ele><time>2026-04-25T08:14:13.131Z</time></trkpt><trkpt lat="43.1776535" lon="13.0051119"><ele>366.0</ele><time>2026-04-25T08:14:14.132Z</time></trkpt><trkpt lat="43.1777288" lon="13.0048383"><ele>366.0</ele><time>2026-04-25T08:14:15.152Z</time></trkpt><trkpt lat="43.1777954" lon="13.0045653"><ele>366.0</ele><time>2026-04-25T08:14:16.138Z</time></trkpt><trkpt lat="43.1778418" lon="13.0043034"><ele>366.0</ele><time>2026-04-25T08:14:17.134Z</time></trkpt><trkpt lat="43.1778271" lon="13.0040473"><ele>366.0</ele><time>2026-04-25T08:14:18.127Z</time></trkpt><trkpt lat="43.1777848" lon="13.003768"><ele>366.0</ele><time>2026-04-25T08:14:19.132Z</time></trkpt><trkpt lat="43.1777263" lon="13.003462"><ele>366.0</ele><time>2026-04-25T08:14:20.133Z</time></trkpt><trkpt lat="43.1776719" lon="13.0031457"><ele>366.0</ele><time>2026-04-25T08:14:21.125Z</time></trkpt><trkpt lat="43.1776254" lon="13.0028341"><ele>366.0</ele><time>2026-04-25T08:14:22.12Z</time></trkpt><trkpt lat="43.1775725" lon="13.002548"><ele>366.0</ele><time>2026-04-25T08:14:23.132Z</time></trkpt><trkpt lat="43.1775314" lon="13.0022695"><ele>366.0</ele><time>2026-04-25T08:14:24.125Z</time></trkpt><trkpt lat="43.1775161" lon="13.0019851"><ele>366.0</ele><time>2026-04-25T08:14:25.129Z</time></trkpt><trkpt lat="43.177531" lon="13.0016831"><ele>366.0</ele><time>2026-04-25T08:14:26.146Z</time></trkpt><trkpt lat="43.1775671" lon="13.0013713"><ele>367.0</ele><time>2026-04-25T08:14:27.122Z</time></trkpt><trkpt lat="43.1776123" lon="13.0010569"><ele>368.0</ele><time>2026-04-25T08:14:28.126Z</time></trkpt><trkpt lat="43.1776626" lon="13.0007569"><ele>369.33333333333337</ele><time>2026-04-25T08:14:29.132Z</time></trkpt><trkpt lat="43.1777113" lon="13.0004692"><ele>370.6666666666667</ele><time>2026-04-25T08:14:30.125Z</time></trkpt><trkpt lat="43.177745" lon="13.0001803"><ele>372.0</ele><time>2026-04-25T08:14:31.139Z</time></trkpt><trkpt lat="43.1777451" lon="12.9998976"><ele>372.0</ele><time>2026-04-25T08:14:32.128Z</time></trkpt><trkpt lat="43.1777206" lon="12.9996122"><ele>372.0</ele><time>2026-04-25T08:14:33.149Z</time></trkpt><trkpt lat="43.1776994" lon="12.9993536"><ele>372.0</ele><time>2026-04-25T08:14:34.125Z</time></trkpt><trkpt lat="43.1776707" lon="12.9991143"><ele>373.25</ele><time>2026-04-25T08:14:35.141Z</time></trkpt><trkpt lat="43.1776279" lon="12.9989139"><ele>374.5</ele><time>2026-04-25T08:14:36.128Z</time></trkpt><trkpt lat="43.1775687" lon="12.998738"><ele>375.75</ele><time>2026-04-25T08:14:37.128Z</time></trkpt><trkpt lat="43.1774713" lon="12.9985874"><ele>377.0</ele><time>2026-04-25T08:14:38.124Z</time></trkpt><trkpt lat="43.177306" lon="12.9984504"><ele>378.6666666666667</ele><time>2026-04-25T08:14:39.13Z</time></trkpt><trkpt lat="43.1771285" lon="12.99831"><ele>380.3333333333333</ele><time>2026-04-25T08:14:40.127Z</time></trkpt><trkpt lat="43.176964" lon="12.9981584"><ele>382.0</ele><time>2026-04-25T08:14:41.126Z</time></trkpt><trkpt lat="43.1768109" lon="12.9980255"><ele>382.0</ele><time>2026-04-25T08:14:42.129Z</time></trkpt><trkpt lat="43.1766832" lon="12.9979069"><ele>382.0</ele><time>2026-04-25T08:14:43.123Z</time></trkpt><trkpt lat="43.1765806" lon="12.9977773"><ele>382.0</ele><time>2026-04-25T08:14:44.124Z</time></trkpt><trkpt lat="43.1765049" lon="12.9976286"><ele>382.0</ele><time>2026-04-25T08:14:45.126Z</time></trkpt><trkpt lat="43.1764766" lon="12.9974313"><ele>381.0</ele><time>2026-04-25T08:14:46.124Z</time></trkpt><trkpt lat="43.1765044" lon="12.9972109"><ele>380.0</ele><time>2026-04-25T08:14:47.128Z</time></trkpt><trkpt lat="43.1765973" lon="12.9970019"><ele>379.0</ele><time>2026-04-25T08:14:48.129Z</time></trkpt><trkpt lat="43.1767217" lon="12.9968051"><ele>386.0</ele><time>2026-04-25T08:14:49.128Z</time></trkpt><trkpt lat="43.1768676" lon="12.9966206"><ele>393.0</ele><time>2026-04-25T08:14:50.133Z</time></trkpt><trkpt lat="43.1770186" lon="12.9964465"><ele>400.0</ele><time>2026-04-25T08:14:51.126Z</time></trkpt><trkpt lat="43.1771517" lon="12.9962753"><ele>400.0</ele><time>2026-04-25T08:14:52.122Z</time></trkpt><trkpt lat="43.1772565" lon="12.9961463"><ele>400.0</ele><time>2026-04-25T08:14:53.133Z</time></trkpt><trkpt lat="43.1773339" lon="12.9960336"><ele>400.0</ele><time>2026-04-25T08:14:54.13Z</time></trkpt><trkpt lat="43.1774006" lon="12.995949"><ele>400.0</ele><time>2026-04-25T08:14:55.119Z</time></trkpt><trkpt lat="43.1774517" lon="12.9958716"><ele>400.0</ele><time>2026-04-25T08:14:56.126Z</time></trkpt><trkpt lat="43.1775039" lon="12.9957938"><ele>397.6</ele><time>2026-04-25T08:14:58.137Z</time></trkpt><trkpt lat="43.1775424" lon="12.9956307"><ele>395.2</ele><time>2026-04-25T08:16:11.138Z</time></trkpt><trkpt lat="43.1775858" lon="12.9955427"><ele>392.79999999999995</ele><time>2026-04-25T08:16:12.122Z</time></trkpt><trkpt lat="43.1776349" lon="12.9954435"><ele>390.4</ele><time>2026-04-25T08:16:13.135Z</time></trkpt><trkpt lat="43.1776792" lon="12.9953494"><ele>388.0</ele><time>2026-04-25T08:16:14.129Z</time></trkpt><trkpt lat="43.1777188" lon="12.9952543"><ele>388.0</ele><time>2026-04-25T08:16:15.125Z</time></trkpt><trkpt lat="43.1777595" lon="12.9951727"><ele>388.0</ele><time>2026-04-25T08:16:16.141Z</time></trkpt><trkpt lat="43.1777997" lon="12.9950774"><ele>388.0</ele><time>2026-04-25T08:16:17.127Z</time></trkpt><trkpt lat="43.1778461" lon="12.9949757"><ele>388.0</ele><time>2026-04-25T08:16:18.138Z</time></trkpt><trkpt lat="43.1778996" lon="12.9948571"><ele>388.0</ele><time>2026-04-25T08:16:19.134Z</time></trkpt><trkpt lat="43.1779697" lon="12.9947133"><ele>387.0</ele><time>2026-04-25T08:16:20.136Z</time></trkpt><trkpt lat="43.1780362" lon="12.9945669"><ele>386.0</ele><time>2026-04-25T08:16:21.132Z</time></trkpt><trkpt lat="43.1780947" lon="12.9944486"><ele>385.0</ele><time>2026-04-25T08:16:22.128Z</time></trkpt><trkpt lat="43.1781438" lon="12.99435"><ele>384.0</ele><time>2026-04-25T08:16:23.138Z</time></trkpt><trkpt lat="43.1781867" lon="12.9942409"><ele>383.0</ele><time>2026-04-25T08:16:24.137Z</time></trkpt><trkpt lat="43.1782218" lon="12.9941298"><ele>385.59999999999997</ele><time>2026-04-25T08:16:25.134Z</time></trkpt><trkpt lat="43.1782353" lon="12.9940132"><ele>388.2</ele><time>2026-04-25T08:16:26.132Z</time></trkpt><trkpt lat="43.1782477" lon="12.9938895"><ele>390.8</ele><time>2026-04-25T08:16:27.146Z</time></trkpt><trkpt lat="43.1782564" lon="12.9937595"><ele>393.4</ele><time>2026-04-25T08:16:28.132Z</time></trkpt><trkpt lat="43.1782737" lon="12.9936421"><ele>396.0</ele><time>2026-04-25T08:16:29.118Z</time></trkpt><trkpt lat="43.1783732" lon="12.9912333"><ele>402.20000000000005</ele><time>2026-04-25T08:16:50.13Z</time></trkpt><trkpt lat="43.1783363" lon="12.9911632"><ele>408.40000000000003</ele><time>2026-04-25T08:16:52.116Z</time></trkpt><trkpt lat="43.1784407" lon="12.9911514"><ele>414.6</ele><time>2026-04-25T08:16:55.136Z</time></trkpt><trkpt lat="43.1785388" lon="12.9910222"><ele>420.8</ele><time>2026-04-25T08:16:58.125Z</time></trkpt><trkpt lat="43.1785906" lon="12.9909018"><ele>427.0</ele><time>2026-04-25T08:16:59.124Z</time></trkpt><trkpt lat="43.1786108" lon="12.9907687"><ele>428.6</ele><time>2026-04-25T08:17:00.123Z</time></trkpt><trkpt lat="43.1785606" lon="12.9906178"><ele>430.20000000000005</ele><time>2026-04-25T08:17:01.122Z</time></trkpt><trkpt lat="43.1785118" lon="12.9904784"><ele>431.8</ele><time>2026-04-25T08:17:02.133Z</time></trkpt><trkpt lat="43.1784868" lon="12.9903345"><ele>433.4</ele><time>2026-04-25T08:17:03.13Z</time></trkpt><trkpt lat="43.1784482" lon="12.9902024"><ele>435.0</ele><time>2026-04-25T08:17:04.13Z</time></trkpt><trkpt lat="43.1784422" lon="12.9900662"><ele>435.5</ele><time>2026-04-25T08:17:05.134Z</time></trkpt><trkpt lat="43.1784143" lon="12.9899078"><ele>436.0</ele><time>2026-04-25T08:17:06.13Z</time></trkpt><trkpt lat="43.1784011" lon="12.9897328"><ele>436.5</ele><time>2026-04-25T08:17:07.122Z</time></trkpt><trkpt lat="43.178406" lon="12.9895596"><ele>437.0</ele><time>2026-04-25T08:17:08.124Z</time></trkpt><trkpt lat="43.178416" lon="12.9893938"><ele>437.0</ele><time>2026-04-25T08:17:09.126Z</time></trkpt><trkpt lat="43.1784194" lon="12.9892389"><ele>437.0</ele><time>2026-04-25T08:17:10.129Z</time></trkpt><trkpt lat="43.178421" lon="12.9890812"><ele>437.0</ele><time>2026-04-25T08:17:11.125Z</time></trkpt><trkpt lat="43.1784302" lon="12.988922"><ele>437.0</ele><time>2026-04-25T08:17:12.125Z</time></trkpt><trkpt lat="43.1784403" lon="12.9887664"><ele>437.40000000000003</ele><time>2026-04-25T08:17:13.12Z</time></trkpt><trkpt lat="43.17845" lon="12.9886226"><ele>437.80000000000007</ele><time>2026-04-25T08:17:14.133Z</time></trkpt><trkpt lat="43.1784592" lon="12.9884796"><ele>438.2</ele><time>2026-04-25T08:17:15.134Z</time></trkpt><trkpt lat="43.178457" lon="12.9883354"><ele>438.6</ele><time>2026-04-25T08:17:16.127Z</time></trkpt><trkpt lat="43.1784366" lon="12.9881908"><ele>439.0</ele><time>2026-04-25T08:17:17.126Z</time></trkpt><trkpt lat="43.1783817" lon="12.9880144"><ele>455.0</ele><time>2026-04-25T08:17:18.151Z</time></trkpt><trkpt lat="43.1779591" lon="12.9850922"><ele>455.0</ele><time>2026-04-25T08:17:26.154Z</time></trkpt><trkpt lat="43.1778478" lon="12.9855995"><ele>455.0</ele><time>2026-04-25T08:17:35.114Z</time></trkpt><trkpt lat="43.1778473" lon="12.9855104"><ele>454.99999999999994</ele><time>2026-04-25T08:17:39.13Z</time></trkpt><trkpt lat="43.1778852" lon="12.9854285"><ele>455.0</ele><time>2026-04-25T08:17:44.131Z</time></trkpt><trkpt lat="43.177899" lon="12.985283"><ele>455.0</ele><time>2026-04-25T08:17:46.134Z</time></trkpt><trkpt lat="43.1779144" lon="12.9851903"><ele>455.0</ele><time>2026-04-25T08:17:47.127Z</time></trkpt><trkpt lat="43.1779408" lon="12.9851005"><ele>454.99999999999994</ele><time>2026-04-25T08:17:48.136Z</time></trkpt><trkpt lat="43.1779921" lon="12.9850276"><ele>455.0</ele><time>2026-04-25T08:17:49.127Z</time></trkpt><trkpt lat="43.1780724" lon="12.9849635"><ele>453.66666666666663</ele><time>2026-04-25T08:17:51.14Z</time></trkpt><trkpt lat="43.1781391" lon="12.9848915"><ele>452.3333333333333</ele><time>2026-04-25T08:17:53.133Z</time></trkpt><trkpt lat="43.1782182" lon="12.9848185"><ele>451.0</ele><time>2026-04-25T08:17:55.125Z</time></trkpt><trkpt lat="43.178284" lon="12.9847505"><ele>449.66666666666663</ele><time>2026-04-25T08:17:57.134Z</time></trkpt><trkpt lat="43.1783466" lon="12.984691"><ele>448.3333333333333</ele><time>2026-04-25T08:18:00.132Z</time></trkpt><trkpt lat="43.1784119" lon="12.984668"><ele>447.0</ele><time>2026-04-25T08:18:11.13Z</time></trkpt><trkpt lat="43.1784701" lon="12.9846274"><ele>447.0</ele><time>2026-04-25T08:18:14.128Z</time></trkpt><trkpt lat="43.1785347" lon="12.9845979"><ele>447.0</ele><time>2026-04-25T08:18:16.13Z</time></trkpt><trkpt lat="43.1786007" lon="12.9845635"><ele>447.0</ele><time>2026-04-25T08:18:18.138Z</time></trkpt><trkpt lat="43.178687" lon="12.9845515"><ele>447.0</ele><time>2026-04-25T08:18:20.133Z</time></trkpt><trkpt lat="43.1787729" lon="12.9845537"><ele>447.0</ele><time>2026-04-25T08:18:22.135Z</time></trkpt><trkpt lat="43.1788751" lon="12.9845788"><ele>447.0</ele><time>2026-04-25T08:18:24.132Z</time></trkpt><trkpt lat="43.1789871" lon="12.9846318"><ele>446.8333333333333</ele><time>2026-04-25T08:18:26.134Z</time></trkpt><trkpt lat="43.1790549" lon="12.984633"><ele>446.66666666666663</ele><time>2026-04-25T08:18:27.131Z</time></trkpt><trkpt lat="43.1791305" lon="12.9846118"><ele>446.5</ele><time>2026-04-25T08:18:28.135Z</time></trkpt><trkpt lat="43.1792081" lon="12.9845389"><ele>446.3333333333333</ele><time>2026-04-25T08:18:29.133Z</time></trkpt><trkpt lat="43.1792782" lon="12.9844434"><ele>446.16666666666663</ele><time>2026-04-25T08:18:30.127Z</time></trkpt><trkpt lat="43.1793317" lon="12.9843325"><ele>446.0</ele><time>2026-04-25T08:18:31.13Z</time></trkpt><trkpt lat="43.1793795" lon="12.9842034"><ele>446.25</ele><time>2026-04-25T08:18:32.14Z</time></trkpt><trkpt lat="43.1794158" lon="12.984049"><ele>446.5</ele><time>2026-04-25T08:18:33.134Z</time></trkpt><trkpt lat="43.1794332" lon="12.9838686"><ele>446.75</ele><time>2026-04-25T08:18:34.13Z</time></trkpt><trkpt lat="43.1794455" lon="12.9836791"><ele>447.0</ele><time>2026-04-25T08:18:35.131Z</time></trkpt><trkpt lat="43.1794578" lon="12.9834784"><ele>446.25</ele><time>2026-04-25T08:18:36.135Z</time></trkpt><trkpt lat="43.1794666" lon="12.9832733"><ele>445.5</ele><time>2026-04-25T08:18:37.129Z</time></trkpt><trkpt lat="43.1794775" lon="12.983072"><ele>444.75</ele><time>2026-04-25T08:18:38.123Z</time></trkpt><trkpt lat="43.179491" lon="12.9828758"><ele>444.0</ele><time>2026-04-25T08:18:39.126Z</time></trkpt><trkpt lat="43.1795057" lon="12.9826787"><ele>443.75</ele><time>2026-04-25T08:18:40.132Z</time></trkpt><trkpt lat="43.1795197" lon="12.982487"><ele>443.5</ele><time>2026-04-25T08:18:41.131Z</time></trkpt><trkpt lat="43.1795342" lon="12.9822907"><ele>443.25</ele><time>2026-04-25T08:18:42.131Z</time></trkpt><trkpt lat="43.1795483" lon="12.9820877"><ele>443.0</ele><time>2026-04-25T08:18:43.13Z</time></trkpt><trkpt lat="43.1795592" lon="12.9818933"><ele>443.0</ele><time>2026-04-25T08:18:44.124Z</time></trkpt><trkpt lat="43.1795714" lon="12.9816958"><ele>443.0</ele><time>2026-04-25T08:18:45.14Z</time></trkpt><trkpt lat="43.1795846" lon="12.9815015"><ele>443.0</ele><time>2026-04-25T08:18:46.128Z</time></trkpt><trkpt lat="43.1795948" lon="12.9813105"><ele>443.0</ele><time>2026-04-25T08:18:47.135Z</time></trkpt><trkpt lat="43.1796096" lon="12.9811233"><ele>443.5</ele><time>2026-04-25T08:18:48.127Z</time></trkpt><trkpt lat="43.1796204" lon="12.9809358"><ele>444.0</ele><time>2026-04-25T08:18:49.129Z</time></trkpt><trkpt lat="43.1796305" lon="12.9807502"><ele>444.5</ele><time>2026-04-25T08:18:50.121Z</time></trkpt><trkpt lat="43.1796433" lon="12.9805642"><ele>445.0</ele><time>2026-04-25T08:18:51.131Z</time></trkpt><trkpt lat="43.1796528" lon="12.9803743"><ele>445.25</ele><time>2026-04-25T08:18:52.138Z</time></trkpt><trkpt lat="43.1796638" lon="12.9801826"><ele>445.5</ele><time>2026-04-25T08:18:53.132Z</time></trkpt><trkpt lat="43.1796784" lon="12.9799934"><ele>445.75</ele><time>2026-04-25T08:18:54.13Z</time></trkpt><trkpt lat="43.1796958" lon="12.9797952"><ele>446.0</ele><time>2026-04-25T08:18:55.128Z</time></trkpt><trkpt lat="43.1797084" lon="12.9795872"><ele>444.66666666666663</ele><time>2026-04-25T08:18:56.134Z</time></trkpt><trkpt lat="43.1797216" lon="12.9793805"><ele>443.33333333333337</ele><time>2026-04-25T08:18:57.136Z</time></trkpt><trkpt lat="43.1797347" lon="12.9791738"><ele>442.0</ele><time>2026-04-25T08:18:58.131Z</time></trkpt><trkpt lat="43.1797477" lon="12.97896"><ele>442.0</ele><time>2026-04-25T08:18:59.129Z</time></trkpt><trkpt lat="43.1797572" lon="12.9787427"><ele>442.0</ele><time>2026-04-25T08:19:00.123Z</time></trkpt><trkpt lat="43.1797701" lon="12.9785259"><ele>442.0</ele><time>2026-04-25T08:19:01.139Z</time></trkpt><trkpt lat="43.1797841" lon="12.9783051"><ele>442.0</ele><time>2026-04-25T08:19:02.123Z</time></trkpt><trkpt lat="43.1797995" lon="12.9780878"><ele>442.0</ele><time>2026-04-25T08:19:03.121Z</time></trkpt><trkpt lat="43.1798202" lon="12.9778664"><ele>442.0</ele><time>2026-04-25T08:19:04.137Z</time></trkpt><trkpt lat="43.1798425" lon="12.977648"><ele>442.6666666666667</ele><time>2026-04-25T08:19:05.137Z</time></trkpt><trkpt lat="43.1798707" lon="12.9774295"><ele>443.33333333333337</ele><time>2026-04-25T08:19:06.143Z</time></trkpt><trkpt lat="43.1799048" lon="12.9772201"><ele>444.0</ele><time>2026-04-25T08:19:07.132Z</time></trkpt><trkpt lat="43.1799421" lon="12.9770105"><ele>444.0</ele><time>2026-04-25T08:19:08.133Z</time></trkpt><trkpt lat="43.1799886" lon="12.9768061"><ele>444.0</ele><time>2026-04-25T08:19:09.133Z</time></trkpt><trkpt lat="43.1800502" lon="12.976603"><ele>444.0</ele><time>2026-04-25T08:19:10.136Z</time></trkpt><trkpt lat="43.1801277" lon="12.9764014"><ele>444.0</ele><time>2026-04-25T08:19:11.139Z</time></trkpt><trkpt lat="43.1802231" lon="12.9762126"><ele>444.0</ele><time>2026-04-25T08:19:12.134Z</time></trkpt><trkpt lat="43.1803409" lon="12.9760412"><ele>444.0</ele><time>2026-04-25T08:19:13.133Z</time></trkpt><trkpt lat="43.1804644" lon="12.9758817"><ele>443.33333333333337</ele><time>2026-04-25T08:19:14.129Z</time></trkpt><trkpt lat="43.1805836" lon="12.9757173"><ele>442.6666666666667</ele><time>2026-04-25T08:19:15.135Z</time></trkpt><trkpt lat="43.1806916" lon="12.9755356"><ele>442.0</ele><time>2026-04-25T08:19:16.135Z</time></trkpt><trkpt lat="43.1807837" lon="12.9753403"><ele>442.6666666666667</ele><time>2026-04-25T08:19:17.143Z</time></trkpt><trkpt lat="43.1808461" lon="12.9751393"><ele>443.33333333333337</ele><time>2026-04-25T08:19:18.132Z</time></trkpt><trkpt lat="43.1808909" lon="12.9749243"><ele>444.0</ele><time>2026-04-25T08:19:19.134Z</time></trkpt><trkpt lat="43.1809338" lon="12.9746915"><ele>444.0</ele><time>2026-04-25T08:19:20.137Z</time></trkpt><trkpt lat="43.1809858" lon="12.9744602"><ele>444.0</ele><time>2026-04-25T08:19:21.132Z</time></trkpt><trkpt lat="43.1810699" lon="12.9742411"><ele>444.0</ele><time>2026-04-25T08:19:22.129Z</time></trkpt><trkpt lat="43.1811864" lon="12.9740639"><ele>443.33333333333337</ele><time>2026-04-25T08:19:23.135Z</time></trkpt><trkpt lat="43.1813115" lon="12.973894"><ele>442.6666666666667</ele><time>2026-04-25T08:19:24.124Z</time></trkpt><trkpt lat="43.1814273" lon="12.9737169"><ele>442.0</ele><time>2026-04-25T08:19:25.141Z</time></trkpt><trkpt lat="43.1815254" lon="12.9735169"><ele>444.0</ele><time>2026-04-25T08:19:26.144Z</time></trkpt><trkpt lat="43.1815906" lon="12.9733016"><ele>446.0</ele><time>2026-04-25T08:19:27.131Z</time></trkpt><trkpt lat="43.1816282" lon="12.973067"><ele>448.0</ele><time>2026-04-25T08:19:28.132Z</time></trkpt><trkpt lat="43.1816417" lon="12.9728156"><ele>448.0</ele><time>2026-04-25T08:19:29.131Z</time></trkpt><trkpt lat="43.1816367" lon="12.9725596"><ele>448.0</ele><time>2026-04-25T08:19:30.125Z</time></trkpt><trkpt lat="43.181623" lon="12.9723319"><ele>448.0</ele><time>2026-04-25T08:19:31.152Z</time></trkpt><trkpt lat="43.1816153" lon="12.9721373"><ele>449.75</ele><time>2026-04-25T08:19:32.143Z</time></trkpt><trkpt lat="43.1816147" lon="12.9719551"><ele>451.5</ele><time>2026-04-25T08:19:33.124Z</time></trkpt><trkpt lat="43.1816169" lon="12.9717738"><ele>453.25</ele><time>2026-04-25T08:19:34.126Z</time></trkpt><trkpt lat="43.1816213" lon="12.9715853"><ele>455.0</ele><time>2026-04-25T08:19:35.146Z</time></trkpt><trkpt lat="43.1816224" lon="12.9713916"><ele>456.0</ele><time>2026-04-25T08:19:36.13Z</time></trkpt><trkpt lat="43.1816254" lon="12.9711935"><ele>457.0</ele><time>2026-04-25T08:19:37.154Z</time></trkpt><trkpt lat="43.181629" lon="12.9709818"><ele>458.0</ele><time>2026-04-25T08:19:38.135Z</time></trkpt><trkpt lat="43.1816209" lon="12.9707652"><ele>459.0</ele><time>2026-04-25T08:19:39.134Z</time></trkpt><trkpt lat="43.1816158" lon="12.9705454"><ele>460.0</ele><time>2026-04-25T08:19:40.128Z</time></trkpt><trkpt lat="43.1816068" lon="12.970325"><ele>461.0</ele><time>2026-04-25T08:19:41.139Z</time></trkpt><trkpt lat="43.1816021" lon="12.9701035"><ele>459.3333333333333</ele><time>2026-04-25T08:19:42.127Z</time></trkpt><trkpt lat="43.1815962" lon="12.9698746"><ele>457.66666666666663</ele><time>2026-04-25T08:19:43.126Z</time></trkpt><trkpt lat="43.1815947" lon="12.969638"><ele>456.0</ele><time>2026-04-25T08:19:44.127Z</time></trkpt><trkpt lat="43.1815936" lon="12.9693892"><ele>456.33333333333337</ele><time>2026-04-25T08:19:45.134Z</time></trkpt><trkpt lat="43.1815937" lon="12.9691449"><ele>456.6666666666667</ele><time>2026-04-25T08:19:46.139Z</time></trkpt><trkpt lat="43.1815966" lon="12.968918"><ele>457.0</ele><time>2026-04-25T08:19:47.133Z</time></trkpt><trkpt lat="43.181602" lon="12.9686968"><ele>457.0</ele><time>2026-04-25T08:19:48.134Z</time></trkpt><trkpt lat="43.1816175" lon="12.9684694"><ele>457.0</ele><time>2026-04-25T08:19:49.129Z</time></trkpt><trkpt lat="43.181636" lon="12.9682257"><ele>457.0</ele><time>2026-04-25T08:19:50.138Z</time></trkpt><trkpt lat="43.1816647" lon="12.9679563"><ele>455.0</ele><time>2026-04-25T08:19:51.131Z</time></trkpt><trkpt lat="43.1817047" lon="12.9676552"><ele>453.0</ele><time>2026-04-25T08:19:52.131Z</time></trkpt><trkpt lat="43.1817606" lon="12.9673026"><ele>452.0</ele><time>2026-04-25T08:19:53.138Z</time></trkpt><trkpt lat="43.1818187" lon="12.9669254"><ele>451.0</ele><time>2026-04-25T08:19:54.132Z</time></trkpt><trkpt lat="43.1818952" lon="12.9665293"><ele>450.0</ele><time>2026-04-25T08:19:55.123Z</time></trkpt><trkpt lat="43.1819799" lon="12.9661328"><ele>449.0</ele><time>2026-04-25T08:19:56.139Z</time></trkpt><trkpt lat="43.1820597" lon="12.9657523"><ele>447.0</ele><time>2026-04-25T08:19:57.12Z</time></trkpt><trkpt lat="43.1821216" lon="12.9653885"><ele>445.0</ele><time>2026-04-25T08:19:58.129Z</time></trkpt><trkpt lat="43.1821725" lon="12.9650149"><ele>445.0</ele><time>2026-04-25T08:19:59.129Z</time></trkpt><trkpt lat="43.1822152" lon="12.9646189"><ele>445.0</ele><time>2026-04-25T08:20:00.122Z</time></trkpt><trkpt lat="43.182253" lon="12.9642293"><ele>443.5</ele><time>2026-04-25T08:20:01.127Z</time></trkpt><trkpt lat="43.182284" lon="12.9638583"><ele>442.0</ele><time>2026-04-25T08:20:02.129Z</time></trkpt><trkpt lat="43.1823064" lon="12.9634892"><ele>443.0</ele><time>2026-04-25T08:20:03.126Z</time></trkpt><trkpt lat="43.1823011" lon="12.9631287"><ele>444.0</ele><time>2026-04-25T08:20:04.128Z</time></trkpt><trkpt lat="43.1822975" lon="12.9627806"><ele>444.0</ele><time>2026-04-25T08:20:05.133Z</time></trkpt><trkpt lat="43.1823037" lon="12.9624356"><ele>444.0</ele><time>2026-04-25T08:20:06.137Z</time></trkpt><trkpt lat="43.1823265" lon="12.9621015"><ele>448.5</ele><time>2026-04-25T08:20:07.136Z</time></trkpt><trkpt lat="43.1823893" lon="12.9617698"><ele>453.0</ele><time>2026-04-25T08:20:08.148Z</time></trkpt><trkpt lat="43.1824788" lon="12.9614487"><ele>453.0</ele><time>2026-04-25T08:20:09.148Z</time></trkpt><trkpt lat="43.1825864" lon="12.9611406"><ele>453.0</ele><time>2026-04-25T08:20:10.134Z</time></trkpt><trkpt lat="43.1827164" lon="12.960832"><ele>450.0</ele><time>2026-04-25T08:20:11.126Z</time></trkpt><trkpt lat="43.1828621" lon="12.96053"><ele>447.0</ele><time>2026-04-25T08:20:12.142Z</time></trkpt><trkpt lat="43.1830056" lon="12.9602167"><ele>447.0</ele><time>2026-04-25T08:20:13.139Z</time></trkpt><trkpt lat="43.183145" lon="12.9599049"><ele>447.0</ele><time>2026-04-25T08:20:14.131Z</time></trkpt><trkpt lat="43.183287" lon="12.9595979"><ele>448.5</ele><time>2026-04-25T08:20:15.136Z</time></trkpt><trkpt lat="43.1834214" lon="12.9593042"><ele>450.0</ele><time>2026-04-25T08:20:16.132Z</time></trkpt><trkpt lat="43.1835525" lon="12.959021"><ele>450.0</ele><time>2026-04-25T08:20:17.132Z</time></trkpt><trkpt lat="43.1836828" lon="12.9587417"><ele>450.0</ele><time>2026-04-25T08:20:18.128Z</time></trkpt><trkpt lat="43.1838115" lon="12.9584578"><ele>449.5</ele><time>2026-04-25T08:20:19.128Z</time></trkpt><trkpt lat="43.1839306" lon="12.9581737"><ele>449.0</ele><time>2026-04-25T08:20:20.13Z</time></trkpt><trkpt lat="43.1840276" lon="12.9578779"><ele>449.0</ele><time>2026-04-25T08:20:21.143Z</time></trkpt><trkpt lat="43.1840953" lon="12.9575736"><ele>449.0</ele><time>2026-04-25T08:20:22.132Z</time></trkpt><trkpt lat="43.1841366" lon="12.9572533"><ele>449.0</ele><time>2026-04-25T08:20:23.145Z</time></trkpt><trkpt lat="43.1841623" lon="12.9569232"><ele>449.0</ele><time>2026-04-25T08:20:24.127Z</time></trkpt><trkpt lat="43.1841699" lon="12.9565987"><ele>449.0</ele><time>2026-04-25T08:20:25.147Z</time></trkpt><trkpt lat="43.1841544" lon="12.9562827"><ele>449.0</ele><time>2026-04-25T08:20:26.134Z</time></trkpt><trkpt lat="43.1841192" lon="12.955972"><ele>445.5</ele><time>2026-04-25T08:20:27.141Z</time></trkpt><trkpt lat="43.1840741" lon="12.9556658"><ele>442.0</ele><time>2026-04-25T08:20:28.125Z</time></trkpt><trkpt lat="43.1839889" lon="12.9553736"><ele>442.0</ele><time>2026-04-25T08:20:29.123Z</time></trkpt><trkpt lat="43.1838806" lon="12.9550708"><ele>442.0</ele><time>2026-04-25T08:20:30.129Z</time></trkpt><trkpt lat="43.1837514" lon="12.9547881"><ele>443.5</ele><time>2026-04-25T08:20:31.126Z</time></trkpt><trkpt lat="43.1835957" lon="12.9545183"><ele>445.0</ele><time>2026-04-25T08:20:32.135Z</time></trkpt><trkpt lat="43.1834043" lon="12.954278"><ele>445.0</ele><time>2026-04-25T08:20:33.13Z</time></trkpt><trkpt lat="43.1831941" lon="12.9540538"><ele>445.0</ele><time>2026-04-25T08:20:34.142Z</time></trkpt><trkpt lat="43.182968" lon="12.9538232"><ele>445.0</ele><time>2026-04-25T08:20:35.129Z</time></trkpt><trkpt lat="43.1827395" lon="12.9535918"><ele>445.0</ele><time>2026-04-25T08:20:36.131Z</time></trkpt><trkpt lat="43.1825159" lon="12.9533648"><ele>446.0</ele><time>2026-04-25T08:20:37.134Z</time></trkpt><trkpt lat="43.1823134" lon="12.9531502"><ele>447.0</ele><time>2026-04-25T08:20:38.124Z</time></trkpt><trkpt lat="43.1821239" lon="12.952945"><ele>447.0</ele><time>2026-04-25T08:20:39.132Z</time></trkpt><trkpt lat="43.181942" lon="12.9527572"><ele>447.0</ele><time>2026-04-25T08:20:40.125Z</time></trkpt><trkpt lat="43.1817783" lon="12.9525696"><ele>447.0</ele><time>2026-04-25T08:20:41.128Z</time></trkpt><trkpt lat="43.1816404" lon="12.9523541"><ele>446.66666666666663</ele><time>2026-04-25T08:20:42.131Z</time></trkpt><trkpt lat="43.1815463" lon="12.9521182"><ele>446.3333333333333</ele><time>2026-04-25T08:20:43.13Z</time></trkpt><trkpt lat="43.1814938" lon="12.9518711"><ele>446.0</ele><time>2026-04-25T08:20:44.135Z</time></trkpt><trkpt lat="43.1814743" lon="12.9516031"><ele>446.0</ele><time>2026-04-25T08:20:45.131Z</time></trkpt><trkpt lat="43.1814659" lon="12.9513418"><ele>446.0</ele><time>2026-04-25T08:20:46.136Z</time></trkpt><trkpt lat="43.1814627" lon="12.9510738"><ele>446.0</ele><time>2026-04-25T08:20:47.139Z</time></trkpt><trkpt lat="43.1814599" lon="12.9508162"><ele>446.3333333333333</ele><time>2026-04-25T08:20:48.134Z</time></trkpt><trkpt lat="43.1814931" lon="12.9505941"><ele>446.66666666666663</ele><time>2026-04-25T08:20:49.135Z</time></trkpt><trkpt lat="43.181564" lon="12.9503925"><ele>447.0</ele><time>2026-04-25T08:20:50.138Z</time></trkpt><trkpt lat="43.1816708" lon="12.9502008"><ele>449.0</ele><time>2026-04-25T08:20:51.134Z</time></trkpt><trkpt lat="43.1818038" lon="12.9499924"><ele>451.0</ele><time>2026-04-25T08:20:52.127Z</time></trkpt><trkpt lat="43.1819532" lon="12.949776"><ele>453.0</ele><time>2026-04-25T08:20:53.136Z</time></trkpt><trkpt lat="43.182104" lon="12.9495574"><ele>453.0</ele><time>2026-04-25T08:20:54.133Z</time></trkpt><trkpt lat="43.1822507" lon="12.9493288"><ele>453.0</ele><time>2026-04-25T08:20:55.134Z</time></trkpt><trkpt lat="43.1824115" lon="12.9491096"><ele>453.0</ele><time>2026-04-25T08:20:56.123Z</time></trkpt><trkpt lat="43.1825946" lon="12.9488956"><ele>456.0</ele><time>2026-04-25T08:20:57.127Z</time></trkpt><trkpt lat="43.1827888" lon="12.948696"><ele>459.0</ele><time>2026-04-25T08:20:58.129Z</time></trkpt><trkpt lat="43.1829839" lon="12.9485192"><ele>457.0</ele><time>2026-04-25T08:20:59.115Z</time></trkpt><trkpt lat="43.1831749" lon="12.9483571"><ele>455.0</ele><time>2026-04-25T08:21:00.13Z</time></trkpt><trkpt lat="43.183353" lon="12.9481896"><ele>453.0</ele><time>2026-04-25T08:21:01.131Z</time></trkpt><trkpt lat="43.183494" lon="12.9480224"><ele>453.0</ele><time>2026-04-25T08:21:02.133Z</time></trkpt><trkpt lat="43.183609" lon="12.9478205"><ele>453.0</ele><time>2026-04-25T08:21:03.129Z</time></trkpt><trkpt lat="43.183696" lon="12.9475923"><ele>453.0</ele><time>2026-04-25T08:21:04.128Z</time></trkpt><trkpt lat="43.1837393" lon="12.947314"><ele>450.5</ele><time>2026-04-25T08:21:05.135Z</time></trkpt><trkpt lat="43.1837659" lon="12.9469973"><ele>448.0</ele><time>2026-04-25T08:21:06.136Z</time></trkpt><trkpt lat="43.1838022" lon="12.9466674"><ele>447.5</ele><time>2026-04-25T08:21:07.122Z</time></trkpt><trkpt lat="43.1838561" lon="12.9463278"><ele>447.0</ele><time>2026-04-25T08:21:08.128Z</time></trkpt><trkpt lat="43.1839064" lon="12.94598"><ele>446.5</ele><time>2026-04-25T08:21:09.126Z</time></trkpt><trkpt lat="43.1839576" lon="12.9456257"><ele>446.0</ele><time>2026-04-25T08:21:10.132Z</time></trkpt><trkpt lat="43.1840068" lon="12.9452717"><ele>447.0</ele><time>2026-04-25T08:21:11.132Z</time></trkpt><trkpt lat="43.1840575" lon="12.9449208"><ele>448.0</ele><time>2026-04-25T08:21:12.142Z</time></trkpt><trkpt lat="43.1841058" lon="12.9445718"><ele>448.0</ele><time>2026-04-25T08:21:13.132Z</time></trkpt><trkpt lat="43.1841546" lon="12.9442206"><ele>448.0</ele><time>2026-04-25T08:21:14.14Z</time></trkpt><trkpt lat="43.1842011" lon="12.943871"><ele>447.0</ele><time>2026-04-25T08:21:15.133Z</time></trkpt><trkpt lat="43.1842475" lon="12.9435264"><ele>446.0</ele><time>2026-04-25T08:21:16.139Z</time></trkpt><trkpt lat="43.1842976" lon="12.9431849"><ele>446.0</ele><time>2026-04-25T08:21:17.136Z</time></trkpt><trkpt lat="43.1843435" lon="12.9428429"><ele>446.0</ele><time>2026-04-25T08:21:18.138Z</time></trkpt><trkpt lat="43.1843885" lon="12.9425082"><ele>445.5</ele><time>2026-04-25T08:21:19.136Z</time></trkpt><trkpt lat="43.1844279" lon="12.9421739"><ele>445.0</ele><time>2026-04-25T08:21:20.13Z</time></trkpt><trkpt lat="43.1844616" lon="12.9418425"><ele>446.5</ele><time>2026-04-25T08:21:21.134Z</time></trkpt><trkpt lat="43.1844954" lon="12.9415119"><ele>448.0</ele><time>2026-04-25T08:21:22.131Z</time></trkpt><trkpt lat="43.184524" lon="12.9411806"><ele>449.0</ele><time>2026-04-25T08:21:23.142Z</time></trkpt><trkpt lat="43.1845494" lon="12.940845"><ele>450.0</ele><time>2026-04-25T08:21:24.135Z</time></trkpt><trkpt lat="43.1845751" lon="12.9405129"><ele>450.0</ele><time>2026-04-25T08:21:25.168Z</time></trkpt><trkpt lat="43.1845998" lon="12.9401768"><ele>450.0</ele><time>2026-04-25T08:21:26.133Z</time></trkpt><trkpt lat="43.1846242" lon="12.9398467"><ele>449.5</ele><time>2026-04-25T08:21:27.145Z</time></trkpt><trkpt lat="43.1846429" lon="12.9395217"><ele>449.0</ele><time>2026-04-25T08:21:28.135Z</time></trkpt><trkpt lat="43.1846562" lon="12.9391887"><ele>448.5</ele><time>2026-04-25T08:21:29.131Z</time></trkpt><trkpt lat="43.1846588" lon="12.9388542"><ele>448.0</ele><time>2026-04-25T08:21:30.135Z</time></trkpt><trkpt lat="43.1846499" lon="12.9385129"><ele>448.0</ele><time>2026-04-25T08:21:31.132Z</time></trkpt><trkpt lat="43.1846402" lon="12.9381637"><ele>448.0</ele><time>2026-04-25T08:21:32.138Z</time></trkpt><trkpt lat="43.1846344" lon="12.9378224"><ele>448.5</ele><time>2026-04-25T08:21:33.131Z</time></trkpt><trkpt lat="43.1846267" lon="12.9374841"><ele>449.0</ele><time>2026-04-25T08:21:34.127Z</time></trkpt><trkpt lat="43.1846249" lon="12.9371349"><ele>449.0</ele><time>2026-04-25T08:21:35.125Z</time></trkpt><trkpt lat="43.1846319" lon="12.9367785"><ele>449.0</ele><time>2026-04-25T08:21:36.141Z</time></trkpt><trkpt lat="43.1846447" lon="12.9364181"><ele>450.0</ele><time>2026-04-25T08:21:37.132Z</time></trkpt><trkpt lat="43.1846608" lon="12.9360591"><ele>451.0</ele><time>2026-04-25T08:21:38.137Z</time></trkpt><trkpt lat="43.1846791" lon="12.9357007"><ele>451.5</ele><time>2026-04-25T08:21:39.141Z</time></trkpt><trkpt lat="43.1846985" lon="12.9353475"><ele>452.0</ele><time>2026-04-25T08:21:40.134Z</time></trkpt><trkpt lat="43.1847227" lon="12.9350051"><ele>452.0</ele><time>2026-04-25T08:21:41.14Z</time></trkpt><trkpt lat="43.1847532" lon="12.9346589"><ele>452.0</ele><time>2026-04-25T08:21:42.138Z</time></trkpt><trkpt lat="43.1847885" lon="12.9343266"><ele>451.5</ele><time>2026-04-25T08:21:43.125Z</time></trkpt><trkpt lat="43.1848176" lon="12.9340072"><ele>451.0</ele><time>2026-04-25T08:21:44.141Z</time></trkpt><trkpt lat="43.184839" lon="12.9336945"><ele>451.0</ele><time>2026-04-25T08:21:45.137Z</time></trkpt><trkpt lat="43.1848431" lon="12.9333877"><ele>451.0</ele><time>2026-04-25T08:21:46.141Z</time></trkpt><trkpt lat="43.1848308" lon="12.9330738"><ele>451.0</ele><time>2026-04-25T08:21:47.132Z</time></trkpt><trkpt lat="43.1848042" lon="12.9327544"><ele>451.0</ele><time>2026-04-25T08:21:48.138Z</time></trkpt><trkpt lat="43.18476" lon="12.9324133"><ele>450.5</ele><time>2026-04-25T08:21:49.141Z</time></trkpt><trkpt lat="43.1847159" lon="12.9320621"><ele>450.0</ele><time>2026-04-25T08:21:50.146Z</time></trkpt><trkpt lat="43.1846759" lon="12.9317024"><ele>450.0</ele><time>2026-04-25T08:21:51.134Z</time></trkpt><trkpt lat="43.1846277" lon="12.9313285"><ele>450.0</ele><time>2026-04-25T08:21:52.13Z</time></trkpt><trkpt lat="43.1845848" lon="12.9309525"><ele>451.0</ele><time>2026-04-25T08:21:53.136Z</time></trkpt><trkpt lat="43.18454" lon="12.9305697"><ele>452.0</ele><time>2026-04-25T08:21:54.137Z</time></trkpt><trkpt lat="43.1844972" lon="12.9301792"><ele>452.5</ele><time>2026-04-25T08:21:55.136Z</time></trkpt><trkpt lat="43.1844498" lon="12.9297916"><ele>453.0</ele><time>2026-04-25T08:21:56.134Z</time></trkpt><trkpt lat="43.184407" lon="12.9294208"><ele>452.0</ele><time>2026-04-25T08:21:57.131Z</time></trkpt><trkpt lat="43.1843652" lon="12.9290607"><ele>451.0</ele><time>2026-04-25T08:21:58.132Z</time></trkpt><trkpt lat="43.1843226" lon="12.9287043"><ele>451.0</ele><time>2026-04-25T08:21:59.132Z</time></trkpt><trkpt lat="43.1842816" lon="12.9283502"><ele>451.0</ele><time>2026-04-25T08:22:00.129Z</time></trkpt><trkpt lat="43.1842439" lon="12.9279996"><ele>451.0</ele><time>2026-04-25T08:22:01.136Z</time></trkpt><trkpt lat="43.1842048" lon="12.9276572"><ele>451.0</ele><time>2026-04-25T08:22:02.13Z</time></trkpt><trkpt lat="43.1841715" lon="12.9273165"><ele>451.0</ele><time>2026-04-25T08:22:03.128Z</time></trkpt><trkpt lat="43.1841331" lon="12.9269823"><ele>451.0</ele><time>2026-04-25T08:22:04.134Z</time></trkpt><trkpt lat="43.184097" lon="12.9266531"><ele>451.0</ele><time>2026-04-25T08:22:05.135Z</time></trkpt><trkpt lat="43.1840622" lon="12.9263417"><ele>451.0</ele><time>2026-04-25T08:22:06.132Z</time></trkpt><trkpt lat="43.1840276" lon="12.9260563"><ele>451.0</ele><time>2026-04-25T08:22:07.128Z</time></trkpt><trkpt lat="43.1839963" lon="12.9257781"><ele>452.0</ele><time>2026-04-25T08:22:08.139Z</time></trkpt><trkpt lat="43.1839618" lon="12.9255225"><ele>453.0</ele><time>2026-04-25T08:22:09.132Z</time></trkpt><trkpt lat="43.1839316" lon="12.9252762"><ele>454.0</ele><time>2026-04-25T08:22:10.14Z</time></trkpt><trkpt lat="43.1839106" lon="12.9250315"><ele>454.33333333333337</ele><time>2026-04-25T08:22:11.145Z</time></trkpt><trkpt lat="43.1839041" lon="12.9247832"><ele>454.66666666666663</ele><time>2026-04-25T08:22:12.132Z</time></trkpt><trkpt lat="43.183915" lon="12.9245408"><ele>455.0</ele><time>2026-04-25T08:22:13.134Z</time></trkpt><trkpt lat="43.1839473" lon="12.9243085"><ele>454.3333333333333</ele><time>2026-04-25T08:22:14.138Z</time></trkpt><trkpt lat="43.1839934" lon="12.9240736"><ele>453.66666666666663</ele><time>2026-04-25T08:22:15.127Z</time></trkpt><trkpt lat="43.1840427" lon="12.9238281"><ele>453.0</ele><time>2026-04-25T08:22:16.133Z</time></trkpt><trkpt lat="43.1840925" lon="12.9235724"><ele>455.33333333333337</ele><time>2026-04-25T08:22:17.14Z</time></trkpt><trkpt lat="43.1841455" lon="12.9233102"><ele>457.6666666666667</ele><time>2026-04-25T08:22:18.127Z</time></trkpt><trkpt lat="43.1841938" lon="12.9230368"><ele>460.0</ele><time>2026-04-25T08:22:19.133Z</time></trkpt><trkpt lat="43.1842543" lon="12.922764"><ele>460.0</ele><time>2026-04-25T08:22:20.137Z</time></trkpt><trkpt lat="43.1843282" lon="12.9224965"><ele>460.0</ele><time>2026-04-25T08:22:21.133Z</time></trkpt><trkpt lat="43.1843989" lon="12.9222582"><ele>460.0</ele><time>2026-04-25T08:22:22.137Z</time></trkpt><trkpt lat="43.1844647" lon="12.9220596"><ele>460.0</ele><time>2026-04-25T08:22:23.135Z</time></trkpt><trkpt lat="43.1845361" lon="12.9218866"><ele>460.0</ele><time>2026-04-25T08:22:24.127Z</time></trkpt><trkpt lat="43.1846048" lon="12.9217155"><ele>460.0</ele><time>2026-04-25T08:22:25.133Z</time></trkpt><trkpt lat="43.184666" lon="12.9215409"><ele>460.0</ele><time>2026-04-25T08:22:26.137Z</time></trkpt><trkpt lat="43.1847342" lon="12.9213588"><ele>459.33333333333337</ele><time>2026-04-25T08:22:27.14Z</time></trkpt><trkpt lat="43.1848104" lon="12.9211722"><ele>458.66666666666663</ele><time>2026-04-25T08:22:28.137Z</time></trkpt><trkpt lat="43.1849032" lon="12.9209766"><ele>458.0</ele><time>2026-04-25T08:22:29.136Z</time></trkpt><trkpt lat="43.1849916" lon="12.9207653"><ele>459.3333333333333</ele><time>2026-04-25T08:22:30.134Z</time></trkpt><trkpt lat="43.1850728" lon="12.920531"><ele>460.66666666666663</ele><time>2026-04-25T08:22:31.131Z</time></trkpt><trkpt lat="43.1851409" lon="12.920281"><ele>462.0</ele><time>2026-04-25T08:22:32.136Z</time></trkpt><trkpt lat="43.1851858" lon="12.9200219"><ele>462.0</ele><time>2026-04-25T08:22:33.127Z</time></trkpt><trkpt lat="43.1852133" lon="12.9197392"><ele>462.0</ele><time>2026-04-25T08:22:34.138Z</time></trkpt><trkpt lat="43.1852476" lon="12.9194573"><ele>462.0</ele><time>2026-04-25T08:22:35.128Z</time></trkpt><trkpt lat="43.1852952" lon="12.9191861"><ele>461.0</ele><time>2026-04-25T08:22:36.131Z</time></trkpt><trkpt lat="43.1853564" lon="12.9189309"><ele>460.0</ele><time>2026-04-25T08:22:37.135Z</time></trkpt><trkpt lat="43.1854385" lon="12.9187071"><ele>459.0</ele><time>2026-04-25T08:22:38.133Z</time></trkpt><trkpt lat="43.1855135" lon="12.9184873"><ele>459.0</ele><time>2026-04-25T08:22:39.133Z</time></trkpt><trkpt lat="43.1855848" lon="12.9182761"><ele>459.0</ele><time>2026-04-25T08:22:40.127Z</time></trkpt><trkpt lat="43.1856627" lon="12.9180691"><ele>459.0</ele><time>2026-04-25T08:22:41.13Z</time></trkpt><trkpt lat="43.1857406" lon="12.9178751"><ele>459.66666666666663</ele><time>2026-04-25T08:22:42.138Z</time></trkpt><trkpt lat="43.1858339" lon="12.917691"><ele>460.3333333333333</ele><time>2026-04-25T08:22:43.127Z</time></trkpt><trkpt lat="43.1859423" lon="12.9175003"><ele>461.0</ele><time>2026-04-25T08:22:44.131Z</time></trkpt><trkpt lat="43.1860699" lon="12.9172993"><ele>461.0</ele><time>2026-04-25T08:22:45.137Z</time></trkpt><trkpt lat="43.1862221" lon="12.9170832"><ele>461.0</ele><time>2026-04-25T08:22:46.138Z</time></trkpt><trkpt lat="43.1863921" lon="12.9168613"><ele>463.0</ele><time>2026-04-25T08:22:47.134Z</time></trkpt><trkpt lat="43.1865828" lon="12.916648"><ele>465.0</ele><time>2026-04-25T08:22:48.131Z</time></trkpt><trkpt lat="43.1867613" lon="12.9164379"><ele>465.0</ele><time>2026-04-25T08:22:49.131Z</time></trkpt><trkpt lat="43.186916" lon="12.9162538"><ele>465.0</ele><time>2026-04-25T08:22:50.134Z</time></trkpt><trkpt lat="43.1870568" lon="12.9160784"><ele>465.0</ele><time>2026-04-25T08:22:51.142Z</time></trkpt><trkpt lat="43.1871966" lon="12.9159292"><ele>465.66666666666663</ele><time>2026-04-25T08:22:52.128Z</time></trkpt><trkpt lat="43.1873563" lon="12.9158236"><ele>466.3333333333333</ele><time>2026-04-25T08:22:53.138Z</time></trkpt><trkpt lat="43.1875403" lon="12.9157442"><ele>467.0</ele><time>2026-04-25T08:22:54.132Z</time></trkpt><trkpt lat="43.1877405" lon="12.9156955"><ele>467.0</ele><time>2026-04-25T08:22:55.129Z</time></trkpt><trkpt lat="43.1879436" lon="12.915649"><ele>467.0</ele><time>2026-04-25T08:22:56.134Z</time></trkpt><trkpt lat="43.1881523" lon="12.9156008"><ele>467.0</ele><time>2026-04-25T08:22:57.133Z</time></trkpt><trkpt lat="43.1883605" lon="12.9155516"><ele>469.66666666666663</ele><time>2026-04-25T08:22:58.136Z</time></trkpt><trkpt lat="43.1885682" lon="12.9155063"><ele>472.33333333333337</ele><time>2026-04-25T08:22:59.13Z</time></trkpt><trkpt lat="43.1887711" lon="12.9154669"><ele>475.0</ele><time>2026-04-25T08:23:00.126Z</time></trkpt><trkpt lat="43.1889744" lon="12.9154432"><ele>477.33333333333337</ele><time>2026-04-25T08:23:01.132Z</time></trkpt><trkpt lat="43.1891777" lon="12.9154634"><ele>479.66666666666663</ele><time>2026-04-25T08:23:02.126Z</time></trkpt><trkpt lat="43.1893866" lon="12.9154919"><ele>482.0</ele><time>2026-04-25T08:23:03.126Z</time></trkpt><trkpt lat="43.1895909" lon="12.9155089"><ele>482.0</ele><time>2026-04-25T08:23:04.118Z</time></trkpt><trkpt lat="43.189793" lon="12.9154918"><ele>482.0</ele><time>2026-04-25T08:23:05.132Z</time></trkpt><trkpt lat="43.1899895" lon="12.915437"><ele>482.0</ele><time>2026-04-25T08:23:06.126Z</time></trkpt><trkpt lat="43.1901808" lon="12.9153385"><ele>483.3333333333333</ele><time>2026-04-25T08:23:07.126Z</time></trkpt><trkpt lat="43.1903752" lon="12.9152256"><ele>484.66666666666663</ele><time>2026-04-25T08:23:08.131Z</time></trkpt><trkpt lat="43.1905741" lon="12.9150968"><ele>486.0</ele><time>2026-04-25T08:23:09.121Z</time></trkpt><trkpt lat="43.1907675" lon="12.9149288"><ele>476.0</ele><time>2026-04-25T08:23:10.142Z</time></trkpt><trkpt lat="43.190963" lon="12.9147396"><ele>466.0</ele><time>2026-04-25T08:23:11.133Z</time></trkpt><trkpt lat="43.1911573" lon="12.9145394"><ele>466.0</ele><time>2026-04-25T08:23:12.129Z</time></trkpt><trkpt lat="43.1913472" lon="12.9143343"><ele>466.0</ele><time>2026-04-25T08:23:13.131Z</time></trkpt><trkpt lat="43.1915401" lon="12.9141314"><ele>464.0</ele><time>2026-04-25T08:23:14.132Z</time></trkpt><trkpt lat="43.191736" lon="12.9139193"><ele>462.0</ele><time>2026-04-25T08:23:15.134Z</time></trkpt><trkpt lat="43.1919339" lon="12.9136931"><ele>462.0</ele><time>2026-04-25T08:23:16.137Z</time></trkpt><trkpt lat="43.1921329" lon="12.9134621"><ele>462.0</ele><time>2026-04-25T08:23:17.129Z</time></trkpt><trkpt lat="43.1923328" lon="12.9132304"><ele>463.0</ele><time>2026-04-25T08:23:18.13Z</time></trkpt><trkpt lat="43.1925301" lon="12.9130045"><ele>464.0</ele><time>2026-04-25T08:23:19.129Z</time></trkpt><trkpt lat="43.1927198" lon="12.9127854"><ele>464.0</ele><time>2026-04-25T08:23:20.137Z</time></trkpt><trkpt lat="43.19289" lon="12.9125859"><ele>464.0</ele><time>2026-04-25T08:23:21.136Z</time></trkpt><trkpt lat="43.1930501" lon="12.9124032"><ele>464.0</ele><time>2026-04-25T08:23:22.148Z</time></trkpt><trkpt lat="43.1932088" lon="12.9122368"><ele>465.3333333333333</ele><time>2026-04-25T08:23:23.144Z</time></trkpt><trkpt lat="43.1933809" lon="12.9120918"><ele>466.66666666666663</ele><time>2026-04-25T08:23:24.134Z</time></trkpt><trkpt lat="43.1935749" lon="12.9119651"><ele>468.0</ele><time>2026-04-25T08:23:25.135Z</time></trkpt><trkpt lat="43.1937802" lon="12.9118359"><ele>468.0</ele><time>2026-04-25T08:23:26.142Z</time></trkpt><trkpt lat="43.1939857" lon="12.9116928"><ele>468.0</ele><time>2026-04-25T08:23:27.154Z</time></trkpt><trkpt lat="43.1941882" lon="12.9115012"><ele>468.0</ele><time>2026-04-25T08:23:28.129Z</time></trkpt><trkpt lat="43.1943887" lon="12.9112945"><ele>468.0</ele><time>2026-04-25T08:23:29.128Z</time></trkpt><trkpt lat="43.1945904" lon="12.911079"><ele>466.5</ele><time>2026-04-25T08:23:30.138Z</time></trkpt><trkpt lat="43.1947854" lon="12.9108838"><ele>465.0</ele><time>2026-04-25T08:23:31.129Z</time></trkpt><trkpt lat="43.1949653" lon="12.9106957"><ele>467.33333333333337</ele><time>2026-04-25T08:23:32.125Z</time></trkpt><trkpt lat="43.1951368" lon="12.9105238"><ele>469.6666666666667</ele><time>2026-04-25T08:23:33.128Z</time></trkpt><trkpt lat="43.1953001" lon="12.9103658"><ele>472.0</ele><time>2026-04-25T08:23:34.126Z</time></trkpt><trkpt lat="43.1954495" lon="12.9102036"><ele>471.6666666666667</ele><time>2026-04-25T08:23:35.126Z</time></trkpt><trkpt lat="43.1955854" lon="12.9100212"><ele>471.33333333333337</ele><time>2026-04-25T08:23:36.141Z</time></trkpt><trkpt lat="43.1956965" lon="12.909814"><ele>471.0</ele><time>2026-04-25T08:23:37.127Z</time></trkpt><trkpt lat="43.1957819" lon="12.90957"><ele>471.0</ele><time>2026-04-25T08:23:38.135Z</time></trkpt><trkpt lat="43.1958419" lon="12.909311"><ele>471.0</ele><time>2026-04-25T08:23:39.125Z</time></trkpt><trkpt lat="43.1958954" lon="12.9090525"><ele>471.0</ele><time>2026-04-25T08:23:40.126Z</time></trkpt><trkpt lat="43.1959408" lon="12.9088171"><ele>470.75</ele><time>2026-04-25T08:23:41.125Z</time></trkpt><trkpt lat="43.1959688" lon="12.9086019"><ele>470.5</ele><time>2026-04-25T08:23:42.137Z</time></trkpt><trkpt lat="43.1959665" lon="12.9084097"><ele>470.25</ele><time>2026-04-25T08:23:43.127Z</time></trkpt><trkpt lat="43.195909" lon="12.9082345"><ele>470.0</ele><time>2026-04-25T08:23:44.139Z</time></trkpt><trkpt lat="43.1958179" lon="12.9080456"><ele>470.0</ele><time>2026-04-25T08:23:45.128Z</time></trkpt><trkpt lat="43.1956878" lon="12.9078647"><ele>470.0</ele><time>2026-04-25T08:23:46.128Z</time></trkpt><trkpt lat="43.1955515" lon="12.9076634"><ele>470.0</ele><time>2026-04-25T08:23:47.134Z</time></trkpt><trkpt lat="43.1953961" lon="12.9074375"><ele>468.0</ele><time>2026-04-25T08:23:48.133Z</time></trkpt><trkpt lat="43.1952358" lon="12.9072074"><ele>466.0</ele><time>2026-04-25T08:23:49.133Z</time></trkpt><trkpt lat="43.1950838" lon="12.9069647"><ele>464.6666666666667</ele><time>2026-04-25T08:23:50.139Z</time></trkpt><trkpt lat="43.1949428" lon="12.9067207"><ele>463.33333333333337</ele><time>2026-04-25T08:23:51.134Z</time></trkpt><trkpt lat="43.19481" lon="12.9064848"><ele>462.0</ele><time>2026-04-25T08:23:52.141Z</time></trkpt><trkpt lat="43.1946846" lon="12.9062655"><ele>462.0</ele><time>2026-04-25T08:23:53.138Z</time></trkpt><trkpt lat="43.1945664" lon="12.9060652"><ele>462.0</ele><time>2026-04-25T08:23:54.138Z</time></trkpt><trkpt lat="43.1944586" lon="12.9058775"><ele>462.0</ele><time>2026-04-25T08:23:55.132Z</time></trkpt><trkpt lat="43.19437" lon="12.9056871"><ele>463.0</ele><time>2026-04-25T08:23:56.129Z</time></trkpt><trkpt lat="43.1943291" lon="12.9054649"><ele>464.0</ele><time>2026-04-25T08:23:57.138Z</time></trkpt><trkpt lat="43.1943358" lon="12.9052043"><ele>465.0</ele><time>2026-04-25T08:23:58.128Z</time></trkpt><trkpt lat="43.1943531" lon="12.9049251"><ele>465.33333333333337</ele><time>2026-04-25T08:23:59.13Z</time></trkpt><trkpt lat="43.1943923" lon="12.9046364"><ele>465.6666666666667</ele><time>2026-04-25T08:24:00.133Z</time></trkpt><trkpt lat="43.1944363" lon="12.9043457"><ele>466.0</ele><time>2026-04-25T08:24:01.149Z</time></trkpt><trkpt lat="43.1944772" lon="12.9040343"><ele>466.0</ele><time>2026-04-25T08:24:02.129Z</time></trkpt><trkpt lat="43.1945114" lon="12.9037162"><ele>466.0</ele><time>2026-04-25T08:24:03.129Z</time></trkpt><trkpt lat="43.1945514" lon="12.903395"><ele>467.5</ele><time>2026-04-25T08:24:04.129Z</time></trkpt><trkpt lat="43.1945835" lon="12.9030706"><ele>469.0</ele><time>2026-04-25T08:24:05.132Z</time></trkpt><trkpt lat="43.1946189" lon="12.9027612"><ele>470.6666666666667</ele><time>2026-04-25T08:24:06.128Z</time></trkpt><trkpt lat="43.1946521" lon="12.9024831"><ele>472.33333333333337</ele><time>2026-04-25T08:24:07.13Z</time></trkpt><trkpt lat="43.1946834" lon="12.9022088"><ele>474.0</ele><time>2026-04-25T08:24:08.131Z</time></trkpt><trkpt lat="43.1947053" lon="12.9019417"><ele>474.0</ele><time>2026-04-25T08:24:09.128Z</time></trkpt><trkpt lat="43.1947123" lon="12.9016963"><ele>474.0</ele><time>2026-04-25T08:24:10.142Z</time></trkpt><trkpt lat="43.1946862" lon="12.9014603"><ele>474.0</ele><time>2026-04-25T08:24:11.129Z</time></trkpt><trkpt lat="43.1946111" lon="12.9012364"><ele>474.0</ele><time>2026-04-25T08:24:12.143Z</time></trkpt><trkpt lat="43.1945071" lon="12.9009943"><ele>474.0</ele><time>2026-04-25T08:24:13.124Z</time></trkpt><trkpt lat="43.1943801" lon="12.9007191"><ele>474.0</ele><time>2026-04-25T08:24:14.123Z</time></trkpt><trkpt lat="43.1942366" lon="12.900435"><ele>473.5</ele><time>2026-04-25T08:24:15.135Z</time></trkpt><trkpt lat="43.1940677" lon="12.9001718"><ele>473.0</ele><time>2026-04-25T08:24:16.128Z</time></trkpt><trkpt lat="43.193891" lon="12.8998848"><ele>473.0</ele><time>2026-04-25T08:24:17.136Z</time></trkpt><trkpt lat="43.1937191" lon="12.8995558"><ele>473.0</ele><time>2026-04-25T08:24:18.129Z</time></trkpt><trkpt lat="43.1935583" lon="12.8992104"><ele>472.0</ele><time>2026-04-25T08:24:19.143Z</time></trkpt><trkpt lat="43.1933965" lon="12.898853"><ele>471.0</ele><time>2026-04-25T08:24:20.135Z</time></trkpt><trkpt lat="43.1932307" lon="12.8984945"><ele>471.5</ele><time>2026-04-25T08:24:21.127Z</time></trkpt><trkpt lat="43.1930719" lon="12.8981395"><ele>472.0</ele><time>2026-04-25T08:24:22.128Z</time></trkpt><trkpt lat="43.1929228" lon="12.8978066"><ele>473.5</ele><time>2026-04-25T08:24:23.127Z</time></trkpt><trkpt lat="43.192761" lon="12.8974855"><ele>475.0</ele><time>2026-04-25T08:24:24.127Z</time></trkpt><trkpt lat="43.1925751" lon="12.8971768"><ele>475.0</ele><time>2026-04-25T08:24:25.133Z</time></trkpt><trkpt lat="43.1923796" lon="12.896867"><ele>475.0</ele><time>2026-04-25T08:24:26.129Z</time></trkpt><trkpt lat="43.192196" lon="12.8965706"><ele>477.5</ele><time>2026-04-25T08:24:27.133Z</time></trkpt><trkpt lat="43.1920467" lon="12.8962688"><ele>480.0</ele><time>2026-04-25T08:24:28.13Z</time></trkpt><trkpt lat="43.1919266" lon="12.8959428"><ele>478.5</ele><time>2026-04-25T08:24:29.126Z</time></trkpt><trkpt lat="43.1917992" lon="12.895631"><ele>477.0</ele><time>2026-04-25T08:24:30.126Z</time></trkpt><trkpt lat="43.1916768" lon="12.8953356"><ele>476.0</ele><time>2026-04-25T08:24:31.133Z</time></trkpt><trkpt lat="43.1915547" lon="12.8950835"><ele>475.0</ele><time>2026-04-25T08:24:32.133Z</time></trkpt><trkpt lat="43.1914266" lon="12.8948918"><ele>474.0</ele><time>2026-04-25T08:24:33.13Z</time></trkpt><trkpt lat="43.1912767" lon="12.8947444"><ele>474.0</ele><time>2026-04-25T08:24:34.14Z</time></trkpt><trkpt lat="43.1911027" lon="12.8946296"><ele>474.0</ele><time>2026-04-25T08:24:35.128Z</time></trkpt><trkpt lat="43.1909096" lon="12.8945217"><ele>474.0</ele><time>2026-04-25T08:24:36.125Z</time></trkpt><trkpt lat="43.1907301" lon="12.8944117"><ele>477.0</ele><time>2026-04-25T08:24:37.129Z</time></trkpt><trkpt lat="43.190595" lon="12.8942911"><ele>480.0</ele><time>2026-04-25T08:24:38.125Z</time></trkpt><trkpt lat="43.190523" lon="12.894122"><ele>483.0</ele><time>2026-04-25T08:24:39.136Z</time></trkpt><trkpt lat="43.1904829" lon="12.893909"><ele>483.0</ele><time>2026-04-25T08:24:40.122Z</time></trkpt><trkpt lat="43.190441" lon="12.8936783"><ele>483.0</ele><time>2026-04-25T08:24:41.126Z</time></trkpt><trkpt lat="43.1903762" lon="12.8934165"><ele>483.0</ele><time>2026-04-25T08:24:42.131Z</time></trkpt><trkpt lat="43.1903065" lon="12.8931474"><ele>481.0</ele><time>2026-04-25T08:24:43.125Z</time></trkpt><trkpt lat="43.1902293" lon="12.8928562"><ele>479.0</ele><time>2026-04-25T08:24:44.127Z</time></trkpt><trkpt lat="43.1901401" lon="12.8925525"><ele>479.0</ele><time>2026-04-25T08:24:45.122Z</time></trkpt><trkpt lat="43.190049" lon="12.8922585"><ele>479.0</ele><time>2026-04-25T08:24:46.124Z</time></trkpt><trkpt lat="43.1899591" lon="12.8919793"><ele>477.66666666666663</ele><time>2026-04-25T08:24:47.123Z</time></trkpt><trkpt lat="43.189857" lon="12.8917081"><ele>476.33333333333337</ele><time>2026-04-25T08:24:48.127Z</time></trkpt><trkpt lat="43.1897211" lon="12.8914642"><ele>475.0</ele><time>2026-04-25T08:24:49.132Z</time></trkpt><trkpt lat="43.1895528" lon="12.8912222"><ele>475.0</ele><time>2026-04-25T08:24:50.134Z</time></trkpt><trkpt lat="43.1893578" lon="12.8909895"><ele>475.0</ele><time>2026-04-25T08:24:51.13Z</time></trkpt><trkpt lat="43.189161" lon="12.8907494"><ele>478.0</ele><time>2026-04-25T08:24:52.135Z</time></trkpt><trkpt lat="43.1889695" lon="12.8905196"><ele>481.0</ele><time>2026-04-25T08:24:53.133Z</time></trkpt><trkpt lat="43.1887981" lon="12.8902754"><ele>478.0</ele><time>2026-04-25T08:24:54.124Z</time></trkpt><trkpt lat="43.188642" lon="12.8900098"><ele>475.0</ele><time>2026-04-25T08:24:55.128Z</time></trkpt><trkpt lat="43.1884878" lon="12.8897309"><ele>475.0</ele><time>2026-04-25T08:24:56.125Z</time></trkpt><trkpt lat="43.1883348" lon="12.8894762"><ele>475.0</ele><time>2026-04-25T08:24:57.131Z</time></trkpt><trkpt lat="43.1881819" lon="12.8892581"><ele>475.33333333333337</ele><time>2026-04-25T08:24:58.126Z</time></trkpt><trkpt lat="43.188035" lon="12.8890559"><ele>475.66666666666663</ele><time>2026-04-25T08:24:59.132Z</time></trkpt><trkpt lat="43.1878954" lon="12.8888887"><ele>476.0</ele><time>2026-04-25T08:25:00.128Z</time></trkpt><trkpt lat="43.1877416" lon="12.8887483"><ele>476.0</ele><time>2026-04-25T08:25:01.141Z</time></trkpt><trkpt lat="43.1875817" lon="12.8886342"><ele>476.0</ele><time>2026-04-25T08:25:02.125Z</time></trkpt><trkpt lat="43.1874127" lon="12.8885607"><ele>476.0</ele><time>2026-04-25T08:25:03.135Z</time></trkpt><trkpt lat="43.1872382" lon="12.8885425"><ele>478.0</ele><time>2026-04-25T08:25:04.132Z</time></trkpt><trkpt lat="43.1870646" lon="12.8885837"><ele>480.0</ele><time>2026-04-25T08:25:05.127Z</time></trkpt><trkpt lat="43.1868908" lon="12.8886614"><ele>482.0</ele><time>2026-04-25T08:25:06.119Z</time></trkpt><trkpt lat="43.1867032" lon="12.8887487"><ele>482.0</ele><time>2026-04-25T08:25:07.125Z</time></trkpt><trkpt lat="43.1865123" lon="12.8888092"><ele>482.0</ele><time>2026-04-25T08:25:08.13Z</time></trkpt><trkpt lat="43.1863338" lon="12.8888331"><ele>482.0</ele><time>2026-04-25T08:25:09.128Z</time></trkpt><trkpt lat="43.1861621" lon="12.8887943"><ele>482.66666666666663</ele><time>2026-04-25T08:25:10.122Z</time></trkpt><trkpt lat="43.1860121" lon="12.8887062"><ele>483.33333333333337</ele><time>2026-04-25T08:25:11.117Z</time></trkpt><trkpt lat="43.1858881" lon="12.8885462"><ele>484.0</ele><time>2026-04-25T08:25:12.131Z</time></trkpt><trkpt lat="43.1858206" lon="12.8883373"><ele>484.33333333333337</ele><time>2026-04-25T08:25:13.125Z</time></trkpt><trkpt lat="43.1858019" lon="12.8880832"><ele>484.66666666666663</ele><time>2026-04-25T08:25:14.129Z</time></trkpt><trkpt lat="43.185785" lon="12.887805"><ele>485.0</ele><time>2026-04-25T08:25:15.12Z</time></trkpt><trkpt lat="43.1857354" lon="12.8874902"><ele>483.0</ele><time>2026-04-25T08:25:16.132Z</time></trkpt><trkpt lat="43.1856475" lon="12.8871579"><ele>481.0</ele><time>2026-04-25T08:25:17.125Z</time></trkpt><trkpt lat="43.1855422" lon="12.8868059"><ele>480.0</ele><time>2026-04-25T08:25:18.119Z</time></trkpt><trkpt lat="43.1854238" lon="12.8864277"><ele>479.0</ele><time>2026-04-25T08:25:19.13Z</time></trkpt><trkpt lat="43.1852965" lon="12.8860327"><ele>480.5</ele><time>2026-04-25T08:25:20.127Z</time></trkpt><trkpt lat="43.185184" lon="12.8856484"><ele>482.0</ele><time>2026-04-25T08:25:21.134Z</time></trkpt><trkpt lat="43.1850768" lon="12.8852973"><ele>486.5</ele><time>2026-04-25T08:25:22.131Z</time></trkpt><trkpt lat="43.1849756" lon="12.8849667"><ele>491.0</ele><time>2026-04-25T08:25:23.117Z</time></trkpt><trkpt lat="43.1848778" lon="12.8846619"><ele>491.3333333333333</ele><time>2026-04-25T08:25:24.133Z</time></trkpt><trkpt lat="43.184799" lon="12.884401"><ele>491.66666666666663</ele><time>2026-04-25T08:25:25.127Z</time></trkpt><trkpt lat="43.1847415" lon="12.8841783"><ele>492.0</ele><time>2026-04-25T08:25:26.149Z</time></trkpt><trkpt lat="43.1847205" lon="12.883969"><ele>490.66666666666663</ele><time>2026-04-25T08:25:27.133Z</time></trkpt><trkpt lat="43.1847482" lon="12.8837664"><ele>489.3333333333333</ele><time>2026-04-25T08:25:28.133Z</time></trkpt><trkpt lat="43.1848377" lon="12.8835514"><ele>488.0</ele><time>2026-04-25T08:25:29.122Z</time></trkpt><trkpt lat="43.184913" lon="12.8833283"><ele>487.0</ele><time>2026-04-25T08:25:30.124Z</time></trkpt><trkpt lat="43.184965" lon="12.883083"><ele>486.0</ele><time>2026-04-25T08:25:31.131Z</time></trkpt><trkpt lat="43.1849717" lon="12.8828062"><ele>485.0</ele><time>2026-04-25T08:25:32.137Z</time></trkpt><trkpt lat="43.1849773" lon="12.8825123"><ele>484.66666666666663</ele><time>2026-04-25T08:25:33.13Z</time></trkpt><trkpt lat="43.1849919" lon="12.8822297"><ele>484.33333333333337</ele><time>2026-04-25T08:25:34.138Z</time></trkpt><trkpt lat="43.1849894" lon="12.881979"><ele>484.0</ele><time>2026-04-25T08:25:35.124Z</time></trkpt><trkpt lat="43.1849637" lon="12.8817442"><ele>483.0</ele><time>2026-04-25T08:25:36.129Z</time></trkpt><trkpt lat="43.184885" lon="12.8815235"><ele>482.0</ele><time>2026-04-25T08:25:37.131Z</time></trkpt><trkpt lat="43.184786" lon="12.8812905"><ele>481.0</ele><time>2026-04-25T08:25:38.12Z</time></trkpt><trkpt lat="43.184669" lon="12.8810376"><ele>480.6666666666667</ele><time>2026-04-25T08:25:39.13Z</time></trkpt><trkpt lat="43.18454" lon="12.8807927"><ele>480.33333333333337</ele><time>2026-04-25T08:25:40.13Z</time></trkpt><trkpt lat="43.1843885" lon="12.8805604"><ele>480.0</ele><time>2026-04-25T08:25:41.125Z</time></trkpt><trkpt lat="43.184198" lon="12.8803243"><ele>479.5</ele><time>2026-04-25T08:25:42.128Z</time></trkpt><trkpt lat="43.1840127" lon="12.8800941"><ele>479.0</ele><time>2026-04-25T08:25:43.134Z</time></trkpt><trkpt lat="43.1838272" lon="12.8798745"><ele>479.0</ele><time>2026-04-25T08:25:44.131Z</time></trkpt><trkpt lat="43.183645" lon="12.8796623"><ele>479.0</ele><time>2026-04-25T08:25:45.133Z</time></trkpt><trkpt lat="43.1834532" lon="12.8794592"><ele>479.0</ele><time>2026-04-25T08:25:46.125Z</time></trkpt><trkpt lat="43.1832389" lon="12.8792664"><ele>479.0</ele><time>2026-04-25T08:25:47.135Z</time></trkpt><trkpt lat="43.1830007" lon="12.8790756"><ele>479.0</ele><time>2026-04-25T08:25:48.132Z</time></trkpt><trkpt lat="43.1827531" lon="12.8788832"><ele>479.0</ele><time>2026-04-25T08:25:49.137Z</time></trkpt><trkpt lat="43.1825239" lon="12.8786945"><ele>481.5</ele><time>2026-04-25T08:25:50.123Z</time></trkpt><trkpt lat="43.1823163" lon="12.8785262"><ele>484.0</ele><time>2026-04-25T08:25:51.137Z</time></trkpt><trkpt lat="43.1821268" lon="12.8783861"><ele>484.0</ele><time>2026-04-25T08:25:52.126Z</time></trkpt><trkpt lat="43.181972" lon="12.8782589"><ele>484.0</ele><time>2026-04-25T08:25:53.133Z</time></trkpt><trkpt lat="43.1818503" lon="12.8781212"><ele>484.0</ele><time>2026-04-25T08:25:54.131Z</time></trkpt><trkpt lat="43.1817764" lon="12.8779322"><ele>484.0</ele><time>2026-04-25T08:25:55.127Z</time></trkpt><trkpt lat="43.1817593" lon="12.877728"><ele>484.0</ele><time>2026-04-25T08:25:56.12Z</time></trkpt><trkpt lat="43.1817868" lon="12.8775138"><ele>484.0</ele><time>2026-04-25T08:25:57.129Z</time></trkpt><trkpt lat="43.1818397" lon="12.877296"><ele>485.6666666666667</ele><time>2026-04-25T08:25:58.127Z</time></trkpt><trkpt lat="43.1819002" lon="12.8770724"><ele>487.33333333333337</ele><time>2026-04-25T08:25:59.143Z</time></trkpt><trkpt lat="43.1819554" lon="12.8768329"><ele>489.0</ele><time>2026-04-25T08:26:00.128Z</time></trkpt><trkpt lat="43.1819704" lon="12.8765897"><ele>489.0</ele><time>2026-04-25T08:26:01.124Z</time></trkpt><trkpt lat="43.1819468" lon="12.8763391"><ele>489.0</ele><time>2026-04-25T08:26:02.126Z</time></trkpt><trkpt lat="43.1818823" lon="12.876095"><ele>489.0</ele><time>2026-04-25T08:26:03.127Z</time></trkpt><trkpt lat="43.1817922" lon="12.8758745"><ele>488.66666666666663</ele><time>2026-04-25T08:26:04.124Z</time></trkpt><trkpt lat="43.1816632" lon="12.8756661"><ele>488.3333333333333</ele><time>2026-04-25T08:26:05.131Z</time></trkpt><trkpt lat="43.1814845" lon="12.8754941"><ele>488.0</ele><time>2026-04-25T08:26:06.127Z</time></trkpt><trkpt lat="43.1812835" lon="12.8753169"><ele>488.0</ele><time>2026-04-25T08:26:07.123Z</time></trkpt><trkpt lat="43.1810921" lon="12.8751502"><ele>488.0</ele><time>2026-04-25T08:26:08.132Z</time></trkpt><trkpt lat="43.1809342" lon="12.8749812"><ele>488.0</ele><time>2026-04-25T08:26:09.131Z</time></trkpt><trkpt lat="43.1808013" lon="12.874778"><ele>488.66666666666663</ele><time>2026-04-25T08:26:10.135Z</time></trkpt><trkpt lat="43.1806772" lon="12.8745221"><ele>489.33333333333337</ele><time>2026-04-25T08:26:11.127Z</time></trkpt><trkpt lat="43.1805597" lon="12.8742658"><ele>490.0</ele><time>2026-04-25T08:26:12.127Z</time></trkpt><trkpt lat="43.1804263" lon="12.8740267"><ele>490.0</ele><time>2026-04-25T08:26:13.134Z</time></trkpt><trkpt lat="43.1802697" lon="12.8738217"><ele>490.0</ele><time>2026-04-25T08:26:14.134Z</time></trkpt><trkpt lat="43.1800872" lon="12.873629"><ele>490.0</ele><time>2026-04-25T08:26:15.132Z</time></trkpt><trkpt lat="43.1798991" lon="12.8734559"><ele>490.33333333333337</ele><time>2026-04-25T08:26:16.131Z</time></trkpt><trkpt lat="43.179733" lon="12.8733027"><ele>490.66666666666663</ele><time>2026-04-25T08:26:17.126Z</time></trkpt><trkpt lat="43.1795814" lon="12.8731749"><ele>491.0</ele><time>2026-04-25T08:26:18.129Z</time></trkpt><trkpt lat="43.1794105" lon="12.8730923"><ele>491.0</ele><time>2026-04-25T08:26:19.142Z</time></trkpt><trkpt lat="43.1792034" lon="12.8730867"><ele>491.0</ele><time>2026-04-25T08:26:20.137Z</time></trkpt><trkpt lat="43.1789875" lon="12.8731084"><ele>491.0</ele><time>2026-04-25T08:26:21.134Z</time></trkpt><trkpt lat="43.1787593" lon="12.8730979"><ele>495.0</ele><time>2026-04-25T08:26:22.137Z</time></trkpt><trkpt lat="43.1785246" lon="12.8730337"><ele>499.0</ele><time>2026-04-25T08:26:23.133Z</time></trkpt><trkpt lat="43.1782871" lon="12.8729344"><ele>501.0</ele><time>2026-04-25T08:26:24.136Z</time></trkpt><trkpt lat="43.1780589" lon="12.8728403"><ele>503.0</ele><time>2026-04-25T08:26:25.134Z</time></trkpt><trkpt lat="43.1778392" lon="12.8727589"><ele>503.0</ele><time>2026-04-25T08:26:26.128Z</time></trkpt><trkpt lat="43.1776255" lon="12.8727189"><ele>503.0</ele><time>2026-04-25T08:26:27.13Z</time></trkpt><trkpt lat="43.1774135" lon="12.8727344"><ele>503.0</ele><time>2026-04-25T08:26:28.138Z</time></trkpt><trkpt lat="43.1772063" lon="12.8727931"><ele>500.0</ele><time>2026-04-25T08:26:29.127Z</time></trkpt><trkpt lat="43.1769969" lon="12.8728919"><ele>497.0</ele><time>2026-04-25T08:26:30.139Z</time></trkpt><trkpt lat="43.1767761" lon="12.8730398"><ele>497.0</ele><time>2026-04-25T08:26:31.13Z</time></trkpt><trkpt lat="43.1765374" lon="12.8732153"><ele>497.0</ele><time>2026-04-25T08:26:32.134Z</time></trkpt><trkpt lat="43.1762877" lon="12.8733855"><ele>501.0</ele><time>2026-04-25T08:26:33.135Z</time></trkpt><trkpt lat="43.1760324" lon="12.8735501"><ele>505.0</ele><time>2026-04-25T08:26:34.135Z</time></trkpt><trkpt lat="43.1757791" lon="12.8737149"><ele>501.5</ele><time>2026-04-25T08:26:35.14Z</time></trkpt><trkpt lat="43.175538" lon="12.8738683"><ele>498.0</ele><time>2026-04-25T08:26:36.13Z</time></trkpt><trkpt lat="43.1753127" lon="12.8740014"><ele>498.0</ele><time>2026-04-25T08:26:37.128Z</time></trkpt><trkpt lat="43.1751195" lon="12.8741204"><ele>498.0</ele><time>2026-04-25T08:26:38.132Z</time></trkpt><trkpt lat="43.1749442" lon="12.8742406"><ele>498.0</ele><time>2026-04-25T08:26:39.135Z</time></trkpt><trkpt lat="43.1747884" lon="12.8743682"><ele>498.0</ele><time>2026-04-25T08:26:40.136Z</time></trkpt><trkpt lat="43.1746405" lon="12.874529"><ele>498.0</ele><time>2026-04-25T08:26:41.136Z</time></trkpt><trkpt lat="43.1745403" lon="12.8747303"><ele>498.0</ele><time>2026-04-25T08:26:42.132Z</time></trkpt><trkpt lat="43.1744627" lon="12.8749705"><ele>500.66666666666663</ele><time>2026-04-25T08:26:43.126Z</time></trkpt><trkpt lat="43.1743776" lon="12.8752327"><ele>503.3333333333333</ele><time>2026-04-25T08:26:44.122Z</time></trkpt><trkpt lat="43.174264" lon="12.8754461"><ele>506.0</ele><time>2026-04-25T08:26:45.128Z</time></trkpt><trkpt lat="43.1741192" lon="12.8755957"><ele>502.66666666666663</ele><time>2026-04-25T08:26:46.129Z</time></trkpt><trkpt lat="43.173962" lon="12.8757051"><ele>499.33333333333337</ele><time>2026-04-25T08:26:47.123Z</time></trkpt><trkpt lat="43.1737939" lon="12.875776"><ele>496.0</ele><time>2026-04-25T08:26:48.129Z</time></trkpt><trkpt lat="43.1736045" lon="12.875803"><ele>496.0</ele><time>2026-04-25T08:26:49.128Z</time></trkpt><trkpt lat="43.1734205" lon="12.8757948"><ele>496.0</ele><time>2026-04-25T08:26:50.128Z</time></trkpt><trkpt lat="43.1731948" lon="12.8757131"><ele>496.0</ele><time>2026-04-25T08:26:51.133Z</time></trkpt><trkpt lat="43.172986" lon="12.8756251"><ele>499.33333333333337</ele><time>2026-04-25T08:26:52.138Z</time></trkpt><trkpt lat="43.1727988" lon="12.8755357"><ele>502.66666666666663</ele><time>2026-04-25T08:26:53.121Z</time></trkpt><trkpt lat="43.1726325" lon="12.8754357"><ele>506.0</ele><time>2026-04-25T08:26:54.122Z</time></trkpt><trkpt lat="43.1724929" lon="12.8752792"><ele>506.3333333333333</ele><time>2026-04-25T08:26:55.134Z</time></trkpt><trkpt lat="43.1723853" lon="12.8750608"><ele>506.66666666666663</ele><time>2026-04-25T08:26:56.125Z</time></trkpt><trkpt lat="43.1722823" lon="12.8748108"><ele>507.0</ele><time>2026-04-25T08:26:57.124Z</time></trkpt><trkpt lat="43.1721697" lon="12.8745572"><ele>507.0</ele><time>2026-04-25T08:26:58.13Z</time></trkpt><trkpt lat="43.1720509" lon="12.8743022"><ele>507.0</ele><time>2026-04-25T08:26:59.129Z</time></trkpt><trkpt lat="43.1719183" lon="12.8740218"><ele>501.5</ele><time>2026-04-25T08:27:00.135Z</time></trkpt><trkpt lat="43.1717646" lon="12.8737414"><ele>496.0</ele><time>2026-04-25T08:27:01.127Z</time></trkpt><trkpt lat="43.1715936" lon="12.8734685"><ele>496.0</ele><time>2026-04-25T08:27:02.136Z</time></trkpt><trkpt lat="43.1714108" lon="12.8732343"><ele>496.0</ele><time>2026-04-25T08:27:03.151Z</time></trkpt><trkpt lat="43.1712371" lon="12.8730362"><ele>496.0</ele><time>2026-04-25T08:27:04.126Z</time></trkpt><trkpt lat="43.1711015" lon="12.8728589"><ele>496.0</ele><time>2026-04-25T08:27:05.133Z</time></trkpt><trkpt lat="43.1709697" lon="12.8727151"><ele>496.0</ele><time>2026-04-25T08:27:06.129Z</time></trkpt><trkpt lat="43.1708397" lon="12.8725624"><ele>497.33333333333337</ele><time>2026-04-25T08:27:07.129Z</time></trkpt><trkpt lat="43.1707093" lon="12.8724007"><ele>498.66666666666663</ele><time>2026-04-25T08:27:08.128Z</time></trkpt><trkpt lat="43.1705812" lon="12.8722381"><ele>500.0</ele><time>2026-04-25T08:27:09.136Z</time></trkpt><trkpt lat="43.1704477" lon="12.8720755"><ele>500.0</ele><time>2026-04-25T08:27:10.135Z</time></trkpt><trkpt lat="43.1703064" lon="12.8719036"><ele>500.0</ele><time>2026-04-25T08:27:11.133Z</time></trkpt><trkpt lat="43.1701396" lon="12.871706"><ele>500.0</ele><time>2026-04-25T08:27:12.134Z</time></trkpt><trkpt lat="43.1699583" lon="12.871486"><ele>500.0</ele><time>2026-04-25T08:27:13.129Z</time></trkpt><trkpt lat="43.1697682" lon="12.8712609"><ele>500.0</ele><time>2026-04-25T08:27:14.131Z</time></trkpt><trkpt lat="43.1695807" lon="12.871029"><ele>500.5</ele><time>2026-04-25T08:27:15.137Z</time></trkpt><trkpt lat="43.169411" lon="12.8707726"><ele>501.0</ele><time>2026-04-25T08:27:16.132Z</time></trkpt><trkpt lat="43.1692747" lon="12.8705104"><ele>501.0</ele><time>2026-04-25T08:27:17.141Z</time></trkpt><trkpt lat="43.1691523" lon="12.8702472"><ele>501.0</ele><time>2026-04-25T08:27:18.134Z</time></trkpt><trkpt lat="43.1690299" lon="12.8700128"><ele>501.0</ele><time>2026-04-25T08:27:19.131Z</time></trkpt><trkpt lat="43.1688757" lon="12.869828"><ele>502.0</ele><time>2026-04-25T08:27:20.142Z</time></trkpt><trkpt lat="43.1686885" lon="12.8696881"><ele>503.0</ele><time>2026-04-25T08:27:21.13Z</time></trkpt><trkpt lat="43.1684925" lon="12.8695579"><ele>504.0</ele><time>2026-04-25T08:27:22.137Z</time></trkpt><trkpt lat="43.1683028" lon="12.8694262"><ele>510.0</ele><time>2026-04-25T08:27:23.134Z</time></trkpt><trkpt lat="43.1681297" lon="12.869251"><ele>516.0</ele><time>2026-04-25T08:27:24.135Z</time></trkpt><trkpt lat="43.1679807" lon="12.8689993"><ele>516.0</ele><time>2026-04-25T08:27:25.131Z</time></trkpt><trkpt lat="43.1678239" lon="12.8687452"><ele>516.0</ele><time>2026-04-25T08:27:26.133Z</time></trkpt><trkpt lat="43.1676634" lon="12.8685025"><ele>516.3333333333334</ele><time>2026-04-25T08:27:27.135Z</time></trkpt><trkpt lat="43.1675088" lon="12.8682903"><ele>516.6666666666667</ele><time>2026-04-25T08:27:28.137Z</time></trkpt><trkpt lat="43.1673531" lon="12.8681115"><ele>517.0</ele><time>2026-04-25T08:27:29.129Z</time></trkpt><trkpt lat="43.1672027" lon="12.8679919"><ele>517.0</ele><time>2026-04-25T08:27:30.14Z</time></trkpt><trkpt lat="43.1670382" lon="12.8679369"><ele>517.0</ele><time>2026-04-25T08:27:31.127Z</time></trkpt><trkpt lat="43.1668547" lon="12.8679105"><ele>517.0</ele><time>2026-04-25T08:27:32.122Z</time></trkpt><trkpt lat="43.1666727" lon="12.8678851"><ele>525.6666666666667</ele><time>2026-04-25T08:27:33.13Z</time></trkpt><trkpt lat="43.1665043" lon="12.8678523"><ele>534.3333333333334</ele><time>2026-04-25T08:27:34.124Z</time></trkpt><trkpt lat="43.1663568" lon="12.867805"><ele>543.0</ele><time>2026-04-25T08:27:35.133Z</time></trkpt><trkpt lat="43.1662444" lon="12.8676724"><ele>537.0</ele><time>2026-04-25T08:27:36.136Z</time></trkpt><trkpt lat="43.1661729" lon="12.8674559"><ele>531.0</ele><time>2026-04-25T08:27:37.123Z</time></trkpt><trkpt lat="43.1661231" lon="12.8672026"><ele>525.0</ele><time>2026-04-25T08:27:38.124Z</time></trkpt><trkpt lat="43.1660589" lon="12.8669555"><ele>523.6666666666666</ele><time>2026-04-25T08:27:39.121Z</time></trkpt><trkpt lat="43.1659802" lon="12.866727"><ele>522.3333333333333</ele><time>2026-04-25T08:27:40.132Z</time></trkpt><trkpt lat="43.1658748" lon="12.8665351"><ele>521.0</ele><time>2026-04-25T08:27:41.129Z</time></trkpt><trkpt lat="43.1657383" lon="12.8664132"><ele>521.3333333333333</ele><time>2026-04-25T08:27:42.13Z</time></trkpt><trkpt lat="43.1655719" lon="12.8663088"><ele>521.6666666666666</ele><time>2026-04-25T08:27:43.127Z</time></trkpt><trkpt lat="43.1653651" lon="12.8662113"><ele>522.0</ele><time>2026-04-25T08:27:44.127Z</time></trkpt><trkpt lat="43.1651067" lon="12.8661196"><ele>522.0</ele><time>2026-04-25T08:27:45.127Z</time></trkpt><trkpt lat="43.1648166" lon="12.8660303"><ele>522.0</ele><time>2026-04-25T08:27:46.128Z</time></trkpt><trkpt lat="43.1645199" lon="12.8659322"><ele>522.0</ele><time>2026-04-25T08:27:47.117Z</time></trkpt><trkpt lat="43.1642353" lon="12.8658516"><ele>522.0</ele><time>2026-04-25T08:27:48.128Z</time></trkpt><trkpt lat="43.1639724" lon="12.8657826"><ele>523.0</ele><time>2026-04-25T08:27:49.124Z</time></trkpt><trkpt lat="43.1637407" lon="12.8657386"><ele>524.0</ele><time>2026-04-25T08:27:50.13Z</time></trkpt><trkpt lat="43.1635449" lon="12.8656814"><ele>525.0</ele><time>2026-04-25T08:27:51.116Z</time></trkpt><trkpt lat="43.1633713" lon="12.8656149"><ele>525.0</ele><time>2026-04-25T08:27:52.118Z</time></trkpt><trkpt lat="43.1632124" lon="12.8654988"><ele>525.0</ele><time>2026-04-25T08:27:53.138Z</time></trkpt><trkpt lat="43.1630594" lon="12.865323"><ele>525.0</ele><time>2026-04-25T08:27:54.129Z</time></trkpt><trkpt lat="43.162905" lon="12.865126"><ele>525.6666666666666</ele><time>2026-04-25T08:27:55.123Z</time></trkpt><trkpt lat="43.1627494" lon="12.8649797"><ele>526.3333333333333</ele><time>2026-04-25T08:27:56.118Z</time></trkpt><trkpt lat="43.1625619" lon="12.8648806"><ele>527.0</ele><time>2026-04-25T08:27:57.125Z</time></trkpt><trkpt lat="43.1623613" lon="12.8648283"><ele>527.0</ele><time>2026-04-25T08:27:58.116Z</time></trkpt><trkpt lat="43.1621677" lon="12.8647767"><ele>527.0</ele><time>2026-04-25T08:27:59.127Z</time></trkpt><trkpt lat="43.1619996" lon="12.8647124"><ele>527.0</ele><time>2026-04-25T08:28:00.121Z</time></trkpt><trkpt lat="43.1618483" lon="12.8646351"><ele>527.0</ele><time>2026-04-25T08:28:01.132Z</time></trkpt><trkpt lat="43.161748" lon="12.86451"><ele>527.0</ele><time>2026-04-25T08:28:02.129Z</time></trkpt><trkpt lat="43.1617098" lon="12.8643052"><ele>527.0</ele><time>2026-04-25T08:28:03.118Z</time></trkpt><trkpt lat="43.1617053" lon="12.8640615"><ele>527.0</ele><time>2026-04-25T08:28:04.124Z</time></trkpt><trkpt lat="43.1616646" lon="12.8638193"><ele>527.0</ele><time>2026-04-25T08:28:05.129Z</time></trkpt><trkpt lat="43.1615896" lon="12.8635956"><ele>527.0</ele><time>2026-04-25T08:28:06.122Z</time></trkpt><trkpt lat="43.1614529" lon="12.8634124"><ele>529.5</ele><time>2026-04-25T08:28:07.122Z</time></trkpt><trkpt lat="43.1612911" lon="12.8631987"><ele>532.0</ele><time>2026-04-25T08:28:08.12Z</time></trkpt><trkpt lat="43.1611073" lon="12.8629719"><ele>532.0</ele><time>2026-04-25T08:28:09.123Z</time></trkpt><trkpt lat="43.1609446" lon="12.8627614"><ele>532.0</ele><time>2026-04-25T08:28:10.121Z</time></trkpt><trkpt lat="43.1608029" lon="12.862562"><ele>532.0</ele><time>2026-04-25T08:28:11.13Z</time></trkpt><trkpt lat="43.1606383" lon="12.8623579"><ele>531.0</ele><time>2026-04-25T08:28:12.128Z</time></trkpt><trkpt lat="43.1604505" lon="12.8621727"><ele>530.0</ele><time>2026-04-25T08:28:13.14Z</time></trkpt><trkpt lat="43.1602373" lon="12.8620159"><ele>530.0</ele><time>2026-04-25T08:28:14.132Z</time></trkpt><trkpt lat="43.1600215" lon="12.8618528"><ele>530.0</ele><time>2026-04-25T08:28:15.137Z</time></trkpt><trkpt lat="43.1598438" lon="12.8616764"><ele>529.0</ele><time>2026-04-25T08:28:16.128Z</time></trkpt><trkpt lat="43.1596716" lon="12.8615416"><ele>528.0</ele><time>2026-04-25T08:28:17.132Z</time></trkpt><trkpt lat="43.1594968" lon="12.8614485"><ele>527.0</ele><time>2026-04-25T08:28:18.14Z</time></trkpt><trkpt lat="43.1593" lon="12.8613827"><ele>527.0</ele><time>2026-04-25T08:28:19.132Z</time></trkpt><trkpt lat="43.1590554" lon="12.8613617"><ele>527.0</ele><time>2026-04-25T08:28:20.13Z</time></trkpt><trkpt lat="43.158791" lon="12.8613365"><ele>527.0</ele><time>2026-04-25T08:28:21.134Z</time></trkpt><trkpt lat="43.1585178" lon="12.8613071"><ele>527.0</ele><time>2026-04-25T08:28:22.13Z</time></trkpt><trkpt lat="43.1582461" lon="12.8612762"><ele>526.5</ele><time>2026-04-25T08:28:23.13Z</time></trkpt><trkpt lat="43.1579917" lon="12.8612468"><ele>526.0</ele><time>2026-04-25T08:28:24.13Z</time></trkpt><trkpt lat="43.1577608" lon="12.8612171"><ele>526.0</ele><time>2026-04-25T08:28:25.13Z</time></trkpt><trkpt lat="43.1575552" lon="12.8611947"><ele>526.0</ele><time>2026-04-25T08:28:26.136Z</time></trkpt><trkpt lat="43.1573635" lon="12.8611724"><ele>526.0</ele><time>2026-04-25T08:28:27.125Z</time></trkpt><trkpt lat="43.1571934" lon="12.8611537"><ele>527.6666666666667</ele><time>2026-04-25T08:28:28.131Z</time></trkpt><trkpt lat="43.1570539" lon="12.8610943"><ele>529.3333333333334</ele><time>2026-04-25T08:28:29.126Z</time></trkpt><trkpt lat="43.1569405" lon="12.8609654"><ele>531.0</ele><time>2026-04-25T08:28:30.127Z</time></trkpt><trkpt lat="43.1568368" lon="12.8607911"><ele>531.3333333333334</ele><time>2026-04-25T08:28:31.129Z</time></trkpt><trkpt lat="43.1567518" lon="12.8606146"><ele>531.6666666666667</ele><time>2026-04-25T08:28:32.12Z</time></trkpt><trkpt lat="43.1567181" lon="12.8604338"><ele>532.0</ele><time>2026-04-25T08:28:33.133Z</time></trkpt><trkpt lat="43.156733" lon="12.8602146"><ele>533.0</ele><time>2026-04-25T08:28:34.126Z</time></trkpt><trkpt lat="43.1567458" lon="12.8600117"><ele>534.0</ele><time>2026-04-25T08:28:35.139Z</time></trkpt><trkpt lat="43.1567308" lon="12.8597966"><ele>535.0</ele><time>2026-04-25T08:28:36.136Z</time></trkpt><trkpt lat="43.1566612" lon="12.8596257"><ele>536.0</ele><time>2026-04-25T08:28:37.125Z</time></trkpt><trkpt lat="43.1565714" lon="12.8594588"><ele>535.6666666666666</ele><time>2026-04-25T08:28:38.122Z</time></trkpt><trkpt lat="43.1564202" lon="12.8592959"><ele>535.3333333333334</ele><time>2026-04-25T08:28:39.122Z</time></trkpt><trkpt lat="43.1562155" lon="12.8591218"><ele>535.0</ele><time>2026-04-25T08:28:40.122Z</time></trkpt><trkpt lat="43.1559758" lon="12.8589274"><ele>535.0</ele><time>2026-04-25T08:28:41.131Z</time></trkpt><trkpt lat="43.1557419" lon="12.8587093"><ele>535.0</ele><time>2026-04-25T08:28:42.123Z</time></trkpt><trkpt lat="43.1554919" lon="12.8584873"><ele>534.0</ele><time>2026-04-25T08:28:43.121Z</time></trkpt><trkpt lat="43.1552408" lon="12.8582739"><ele>533.0</ele><time>2026-04-25T08:28:44.131Z</time></trkpt><trkpt lat="43.1550178" lon="12.858068"><ele>535.5</ele><time>2026-04-25T08:28:45.125Z</time></trkpt><trkpt lat="43.154796" lon="12.85787"><ele>538.0</ele><time>2026-04-25T08:28:46.119Z</time></trkpt><trkpt lat="43.1545816" lon="12.8576681"><ele>538.0</ele><time>2026-04-25T08:28:47.126Z</time></trkpt><trkpt lat="43.1543638" lon="12.8574821"><ele>538.0</ele><time>2026-04-25T08:28:48.125Z</time></trkpt><trkpt lat="43.1541435" lon="12.8573379"><ele>537.0</ele><time>2026-04-25T08:28:49.114Z</time></trkpt><trkpt lat="43.1539143" lon="12.8572267"><ele>536.0</ele><time>2026-04-25T08:28:50.126Z</time></trkpt><trkpt lat="43.1536682" lon="12.857162"><ele>536.0</ele><time>2026-04-25T08:28:51.124Z</time></trkpt><trkpt lat="43.153435" lon="12.8571185"><ele>536.0</ele><time>2026-04-25T08:28:52.145Z</time></trkpt><trkpt lat="43.1532217" lon="12.8570886"><ele>537.6666666666666</ele><time>2026-04-25T08:28:53.12Z</time></trkpt><trkpt lat="43.1530434" lon="12.8570413"><ele>539.3333333333334</ele><time>2026-04-25T08:28:54.129Z</time></trkpt><trkpt lat="43.1528814" lon="12.8569412"><ele>541.0</ele><time>2026-04-25T08:28:55.129Z</time></trkpt><trkpt lat="43.1527339" lon="12.8567852"><ele>542.6666666666667</ele><time>2026-04-25T08:28:56.119Z</time></trkpt><trkpt lat="43.1525742" lon="12.8566172"><ele>544.3333333333334</ele><time>2026-04-25T08:28:57.129Z</time></trkpt><trkpt lat="43.1523959" lon="12.8565074"><ele>546.0</ele><time>2026-04-25T08:28:58.13Z</time></trkpt><trkpt lat="43.1522121" lon="12.8564601"><ele>546.3333333333334</ele><time>2026-04-25T08:28:59.124Z</time></trkpt><trkpt lat="43.1520196" lon="12.8564905"><ele>546.6666666666667</ele><time>2026-04-25T08:29:00.13Z</time></trkpt><trkpt lat="43.1518124" lon="12.8565279"><ele>547.0</ele><time>2026-04-25T08:29:01.132Z</time></trkpt><trkpt lat="43.1515922" lon="12.8565679"><ele>553.0</ele><time>2026-04-25T08:29:02.137Z</time></trkpt><trkpt lat="43.1513661" lon="12.85665"><ele>559.0</ele><time>2026-04-25T08:29:03.129Z</time></trkpt><trkpt lat="43.1511309" lon="12.8567555"><ele>551.5</ele><time>2026-04-25T08:29:04.132Z</time></trkpt><trkpt lat="43.1509044" lon="12.8568645"><ele>544.0</ele><time>2026-04-25T08:29:05.128Z</time></trkpt><trkpt lat="43.1506831" lon="12.8569592"><ele>544.0</ele><time>2026-04-25T08:29:06.13Z</time></trkpt><trkpt lat="43.1504639" lon="12.8570397"><ele>544.0</ele><time>2026-04-25T08:29:07.132Z</time></trkpt><trkpt lat="43.1502397" lon="12.8570835"><ele>544.0</ele><time>2026-04-25T08:29:08.131Z</time></trkpt><trkpt lat="43.1500255" lon="12.8571077"><ele>544.0</ele><time>2026-04-25T08:29:09.13Z</time></trkpt><trkpt lat="43.14981" lon="12.8570943"><ele>544.0</ele><time>2026-04-25T08:29:10.125Z</time></trkpt><trkpt lat="43.1495877" lon="12.8570268"><ele>544.0</ele><time>2026-04-25T08:29:11.144Z</time></trkpt><trkpt lat="43.1493782" lon="12.8569508"><ele>544.0</ele><time>2026-04-25T08:29:12.135Z</time></trkpt><trkpt lat="43.1491792" lon="12.8568788"><ele>544.0</ele><time>2026-04-25T08:29:13.116Z</time></trkpt><trkpt lat="43.1490025" lon="12.856782"><ele>544.0</ele><time>2026-04-25T08:29:14.125Z</time></trkpt><trkpt lat="43.1488273" lon="12.8566347"><ele>544.0</ele><time>2026-04-25T08:29:15.137Z</time></trkpt><trkpt lat="43.1486501" lon="12.8564575"><ele>544.0</ele><time>2026-04-25T08:29:16.129Z</time></trkpt><trkpt lat="43.1484714" lon="12.8562508"><ele>544.0</ele><time>2026-04-25T08:29:17.121Z</time></trkpt><trkpt lat="43.1482817" lon="12.8560599"><ele>544.0</ele><time>2026-04-25T08:29:18.131Z</time></trkpt><trkpt lat="43.1481028" lon="12.855887"><ele>544.6666666666667</ele><time>2026-04-25T08:29:19.125Z</time></trkpt><trkpt lat="43.1479286" lon="12.8557424"><ele>545.3333333333334</ele><time>2026-04-25T08:29:20.133Z</time></trkpt><trkpt lat="43.1477725" lon="12.8556536"><ele>546.0</ele><time>2026-04-25T08:29:21.13Z</time></trkpt><trkpt lat="43.1475876" lon="12.8556159"><ele>546.0</ele><time>2026-04-25T08:29:22.123Z</time></trkpt><trkpt lat="43.147402" lon="12.8556084"><ele>546.0</ele><time>2026-04-25T08:29:23.122Z</time></trkpt><trkpt lat="43.1472188" lon="12.8556152"><ele>546.0</ele><time>2026-04-25T08:29:24.128Z</time></trkpt><trkpt lat="43.1470597" lon="12.8555922"><ele>546.0</ele><time>2026-04-25T08:29:25.123Z</time></trkpt><trkpt lat="43.1469177" lon="12.8554924"><ele>546.0</ele><time>2026-04-25T08:29:26.145Z</time></trkpt><trkpt lat="43.1467818" lon="12.8553236"><ele>546.0</ele><time>2026-04-25T08:29:27.136Z</time></trkpt><trkpt lat="43.1466716" lon="12.8551029"><ele>548.0</ele><time>2026-04-25T08:29:28.114Z</time></trkpt><trkpt lat="43.1465689" lon="12.8548475"><ele>550.0</ele><time>2026-04-25T08:29:29.124Z</time></trkpt><trkpt lat="43.1464556" lon="12.8546178"><ele>552.0</ele><time>2026-04-25T08:29:30.124Z</time></trkpt><trkpt lat="43.1463233" lon="12.854407"><ele>554.0</ele><time>2026-04-25T08:29:31.131Z</time></trkpt><trkpt lat="43.1461629" lon="12.8542172"><ele>556.0</ele><time>2026-04-25T08:29:32.138Z</time></trkpt><trkpt lat="43.1459727" lon="12.8540405"><ele>558.0</ele><time>2026-04-25T08:29:33.13Z</time></trkpt><trkpt lat="43.1457709" lon="12.8538664"><ele>557.0</ele><time>2026-04-25T08:29:34.121Z</time></trkpt><trkpt lat="43.1455693" lon="12.8537048"><ele>556.0</ele><time>2026-04-25T08:29:35.153Z</time></trkpt><trkpt lat="43.1453674" lon="12.853579"><ele>556.0</ele><time>2026-04-25T08:29:36.122Z</time></trkpt><trkpt lat="43.145167" lon="12.8534904"><ele>556.0</ele><time>2026-04-25T08:29:37.144Z</time></trkpt><trkpt lat="43.1449548" lon="12.8534057"><ele>556.0</ele><time>2026-04-25T08:29:38.125Z</time></trkpt><trkpt lat="43.1447496" lon="12.8532812"><ele>561.0</ele><time>2026-04-25T08:29:39.126Z</time></trkpt><trkpt lat="43.1445459" lon="12.8530953"><ele>566.0</ele><time>2026-04-25T08:29:40.128Z</time></trkpt><trkpt lat="43.1443372" lon="12.8529031"><ele>566.0</ele><time>2026-04-25T08:29:41.128Z</time></trkpt><trkpt lat="43.1441014" lon="12.8527248"><ele>566.0</ele><time>2026-04-25T08:29:42.127Z</time></trkpt><trkpt lat="43.1438406" lon="12.8525603"><ele>572.0</ele><time>2026-04-25T08:29:43.129Z</time></trkpt><trkpt lat="43.1435851" lon="12.8523742"><ele>578.0</ele><time>2026-04-25T08:29:44.125Z</time></trkpt><trkpt lat="43.1433597" lon="12.8522136"><ele>577.0</ele><time>2026-04-25T08:29:45.121Z</time></trkpt><trkpt lat="43.1431472" lon="12.8520694"><ele>576.0</ele><time>2026-04-25T08:29:46.126Z</time></trkpt><trkpt lat="43.1429512" lon="12.8519208"><ele>578.3333333333334</ele><time>2026-04-25T08:29:47.121Z</time></trkpt><trkpt lat="43.1427744" lon="12.8517509"><ele>580.6666666666667</ele><time>2026-04-25T08:29:48.13Z</time></trkpt><trkpt lat="43.142596" lon="12.851549"><ele>583.0</ele><time>2026-04-25T08:29:49.127Z</time></trkpt><trkpt lat="43.1424048" lon="12.8513326"><ele>585.0</ele><time>2026-04-25T08:29:50.125Z</time></trkpt><trkpt lat="43.1422173" lon="12.8511083"><ele>587.0</ele><time>2026-04-25T08:29:51.136Z</time></trkpt><trkpt lat="43.1420304" lon="12.850897"><ele>587.0</ele><time>2026-04-25T08:29:52.134Z</time></trkpt><trkpt lat="43.1418567" lon="12.8506839"><ele>587.0</ele><time>2026-04-25T08:29:53.122Z</time></trkpt><trkpt lat="43.141701" lon="12.8504787"><ele>587.0</ele><time>2026-04-25T08:29:54.134Z</time></trkpt><trkpt lat="43.1415747" lon="12.8502437"><ele>586.0</ele><time>2026-04-25T08:29:55.125Z</time></trkpt><trkpt lat="43.1414571" lon="12.8499658"><ele>585.0</ele><time>2026-04-25T08:29:56.123Z</time></trkpt><trkpt lat="43.1413384" lon="12.8496724"><ele>585.0</ele><time>2026-04-25T08:29:57.142Z</time></trkpt><trkpt lat="43.1412138" lon="12.8493939"><ele>585.0</ele><time>2026-04-25T08:29:58.135Z</time></trkpt><trkpt lat="43.1410739" lon="12.8491461"><ele>590.0</ele><time>2026-04-25T08:29:59.135Z</time></trkpt><trkpt lat="43.140916" lon="12.8489274"><ele>595.0</ele><time>2026-04-25T08:30:00.137Z</time></trkpt><trkpt lat="43.1407391" lon="12.8487328"><ele>596.0</ele><time>2026-04-25T08:30:01.134Z</time></trkpt><trkpt lat="43.1405599" lon="12.8485713"><ele>597.0</ele><time>2026-04-25T08:30:02.127Z</time></trkpt><trkpt lat="43.1404103" lon="12.8484101"><ele>598.0</ele><time>2026-04-25T08:30:03.132Z</time></trkpt><trkpt lat="43.1403002" lon="12.8482399"><ele>598.0</ele><time>2026-04-25T08:30:04.133Z</time></trkpt><trkpt lat="43.1402563" lon="12.8480366"><ele>598.0</ele><time>2026-04-25T08:30:05.134Z</time></trkpt><trkpt lat="43.1402679" lon="12.8478533"><ele>598.0</ele><time>2026-04-25T08:30:06.129Z</time></trkpt><trkpt lat="43.140341" lon="12.8476819"><ele>598.0</ele><time>2026-04-25T08:30:07.132Z</time></trkpt><trkpt lat="43.1404414" lon="12.8475349"><ele>599.0</ele><time>2026-04-25T08:30:08.125Z</time></trkpt><trkpt lat="43.1405472" lon="12.8473732"><ele>600.0</ele><time>2026-04-25T08:30:09.122Z</time></trkpt><trkpt lat="43.140614" lon="12.8471924"><ele>601.0</ele><time>2026-04-25T08:30:10.125Z</time></trkpt><trkpt lat="43.1406484" lon="12.8469981"><ele>602.6666666666667</ele><time>2026-04-25T08:30:11.127Z</time></trkpt><trkpt lat="43.1406454" lon="12.8467575"><ele>604.3333333333334</ele><time>2026-04-25T08:30:12.117Z</time></trkpt><trkpt lat="43.1406363" lon="12.8464934"><ele>606.0</ele><time>2026-04-25T08:30:13.134Z</time></trkpt><trkpt lat="43.1406354" lon="12.8462508"><ele>606.0</ele><time>2026-04-25T08:30:14.128Z</time></trkpt><trkpt lat="43.1406366" lon="12.8460336"><ele>606.0</ele><time>2026-04-25T08:30:15.124Z</time></trkpt><trkpt lat="43.1406347" lon="12.845834"><ele>606.0</ele><time>2026-04-25T08:30:16.121Z</time></trkpt><trkpt lat="43.1406209" lon="12.845672"><ele>606.0</ele><time>2026-04-25T08:30:17.131Z</time></trkpt><trkpt lat="43.1405743" lon="12.8455378"><ele>608.75</ele><time>2026-04-25T08:30:18.138Z</time></trkpt><trkpt lat="43.1404642" lon="12.8454511"><ele>611.5</ele><time>2026-04-25T08:30:19.133Z</time></trkpt><trkpt lat="43.1403511" lon="12.8454002"><ele>614.25</ele><time>2026-04-25T08:30:20.14Z</time></trkpt><trkpt lat="43.1402251" lon="12.845396"><ele>617.0</ele><time>2026-04-25T08:30:21.126Z</time></trkpt><trkpt lat="43.1401133" lon="12.8454633"><ele>617.0</ele><time>2026-04-25T08:30:22.135Z</time></trkpt><trkpt lat="43.1399829" lon="12.8456076"><ele>617.0</ele><time>2026-04-25T08:30:23.127Z</time></trkpt><trkpt lat="43.1398463" lon="12.8458064"><ele>617.0</ele><time>2026-04-25T08:30:24.129Z</time></trkpt><trkpt lat="43.1396881" lon="12.8460025"><ele>615.3333333333333</ele><time>2026-04-25T08:30:25.132Z</time></trkpt><trkpt lat="43.139507" lon="12.846167"><ele>613.6666666666666</ele><time>2026-04-25T08:30:26.13Z</time></trkpt><trkpt lat="43.1393181" lon="12.8462832"><ele>612.0</ele><time>2026-04-25T08:30:27.135Z</time></trkpt><trkpt lat="43.1391488" lon="12.8463904"><ele>612.0</ele><time>2026-04-25T08:30:28.128Z</time></trkpt><trkpt lat="43.1389792" lon="12.8464541"><ele>612.0</ele><time>2026-04-25T08:30:29.128Z</time></trkpt><trkpt lat="43.1388203" lon="12.8464563"><ele>612.0</ele><time>2026-04-25T08:30:30.13Z</time></trkpt><trkpt lat="43.1386626" lon="12.8463836"><ele>612.0</ele><time>2026-04-25T08:30:31.127Z</time></trkpt><trkpt lat="43.1384977" lon="12.8462706"><ele>612.0</ele><time>2026-04-25T08:30:32.128Z</time></trkpt><trkpt lat="43.138304" lon="12.8461601"><ele>612.0</ele><time>2026-04-25T08:30:33.134Z</time></trkpt><trkpt lat="43.1380962" lon="12.8460509"><ele>622.6666666666666</ele><time>2026-04-25T08:30:34.131Z</time></trkpt><trkpt lat="43.1378891" lon="12.845943"><ele>633.3333333333333</ele><time>2026-04-25T08:30:35.125Z</time></trkpt><trkpt lat="43.1376769" lon="12.8458423"><ele>644.0</ele><time>2026-04-25T08:30:36.12Z</time></trkpt><trkpt lat="43.1374573" lon="12.84579"><ele>645.0</ele><time>2026-04-25T08:30:37.125Z</time></trkpt><trkpt lat="43.1372312" lon="12.845765"><ele>646.0</ele><time>2026-04-25T08:30:38.128Z</time></trkpt><trkpt lat="43.136975" lon="12.8457379"><ele>646.0</ele><time>2026-04-25T08:30:39.124Z</time></trkpt><trkpt lat="43.1367079" lon="12.845697"><ele>646.0</ele><time>2026-04-25T08:30:40.124Z</time></trkpt><trkpt lat="43.1364326" lon="12.8456451"><ele>642.0</ele><time>2026-04-25T08:30:41.129Z</time></trkpt><trkpt lat="43.1361607" lon="12.8456013"><ele>638.0</ele><time>2026-04-25T08:30:42.119Z</time></trkpt><trkpt lat="43.1359192" lon="12.845558"><ele>639.0</ele><time>2026-04-25T08:30:43.121Z</time></trkpt><trkpt lat="43.1356799" lon="12.8454984"><ele>640.0</ele><time>2026-04-25T08:30:44.13Z</time></trkpt><trkpt lat="43.1354399" lon="12.845436"><ele>640.0</ele><time>2026-04-25T08:30:45.126Z</time></trkpt><trkpt lat="43.135192" lon="12.8453684"><ele>640.0</ele><time>2026-04-25T08:30:46.123Z</time></trkpt><trkpt lat="43.1349268" lon="12.84529"><ele>641.0</ele><time>2026-04-25T08:30:47.119Z</time></trkpt><trkpt lat="43.1346554" lon="12.8452033"><ele>642.0</ele><time>2026-04-25T08:30:48.119Z</time></trkpt><trkpt lat="43.1343693" lon="12.845125"><ele>654.5</ele><time>2026-04-25T08:30:49.132Z</time></trkpt><trkpt lat="43.13407" lon="12.8450546"><ele>667.0</ele><time>2026-04-25T08:30:50.125Z</time></trkpt><trkpt lat="43.1337641" lon="12.8449877"><ele>667.0</ele><time>2026-04-25T08:30:51.128Z</time></trkpt><trkpt lat="43.1334675" lon="12.8449264"><ele>667.0</ele><time>2026-04-25T08:30:52.132Z</time></trkpt><trkpt lat="43.133184" lon="12.8448616"><ele>667.5</ele><time>2026-04-25T08:30:53.121Z</time></trkpt><trkpt lat="43.132911" lon="12.8448068"><ele>668.0</ele><time>2026-04-25T08:30:54.135Z</time></trkpt><trkpt lat="43.1326591" lon="12.8447536"><ele>668.0</ele><time>2026-04-25T08:30:55.128Z</time></trkpt><trkpt lat="43.1324153" lon="12.8446963"><ele>668.0</ele><time>2026-04-25T08:30:56.126Z</time></trkpt><trkpt lat="43.1322073" lon="12.8446488"><ele>670.0</ele><time>2026-04-25T08:30:57.127Z</time></trkpt><trkpt lat="43.1320279" lon="12.8446168"><ele>672.0</ele><time>2026-04-25T08:30:58.127Z</time></trkpt><trkpt lat="43.1318592" lon="12.8445869"><ele>674.0</ele><time>2026-04-25T08:30:59.124Z</time></trkpt><trkpt lat="43.1317028" lon="12.8445556"><ele>676.75</ele><time>2026-04-25T08:31:00.126Z</time></trkpt><trkpt lat="43.1315548" lon="12.8445477"><ele>679.5</ele><time>2026-04-25T08:31:01.122Z</time></trkpt><trkpt lat="43.1314375" lon="12.8445917"><ele>682.25</ele><time>2026-04-25T08:31:02.144Z</time></trkpt><trkpt lat="43.1313396" lon="12.8447235"><ele>685.0</ele><time>2026-04-25T08:31:03.131Z</time></trkpt><trkpt lat="43.1312502" lon="12.8448889"><ele>685.0</ele><time>2026-04-25T08:31:04.133Z</time></trkpt><trkpt lat="43.1311813" lon="12.8450729"><ele>685.0</ele><time>2026-04-25T08:31:05.142Z</time></trkpt><trkpt lat="43.131145" lon="12.8452607"><ele>685.0</ele><time>2026-04-25T08:31:06.138Z</time></trkpt><trkpt lat="43.1311581" lon="12.8454015"><ele>685.0</ele><time>2026-04-25T08:31:07.128Z</time></trkpt><trkpt lat="43.1312342" lon="12.8455565"><ele>686.0</ele><time>2026-04-25T08:31:08.125Z</time></trkpt><trkpt lat="43.1313498" lon="12.8456948"><ele>687.0</ele><time>2026-04-25T08:31:09.121Z</time></trkpt><trkpt lat="43.1315105" lon="12.8457989"><ele>688.0</ele><time>2026-04-25T08:31:10.131Z</time></trkpt><trkpt lat="43.131704" lon="12.8459076"><ele>706.0</ele><time>2026-04-25T08:31:11.13Z</time></trkpt><trkpt lat="43.1319016" lon="12.8460277"><ele>724.0</ele><time>2026-04-25T08:31:12.12Z</time></trkpt><trkpt lat="43.1321209" lon="12.8461545"><ele>724.0</ele><time>2026-04-25T08:31:13.127Z</time></trkpt><trkpt lat="43.1323426" lon="12.8462809"><ele>724.0</ele><time>2026-04-25T08:31:14.123Z</time></trkpt><trkpt lat="43.1325603" lon="12.8464065"><ele>713.0</ele><time>2026-04-25T08:31:15.128Z</time></trkpt><trkpt lat="43.1327683" lon="12.8465573"><ele>702.0</ele><time>2026-04-25T08:31:16.129Z</time></trkpt><trkpt lat="43.1329621" lon="12.8467408"><ele>708.5</ele><time>2026-04-25T08:31:17.12Z</time></trkpt><trkpt lat="43.133163" lon="12.8469403"><ele>715.0</ele><time>2026-04-25T08:31:18.119Z</time></trkpt><trkpt lat="43.1333768" lon="12.8471324"><ele>715.0</ele><time>2026-04-25T08:31:19.127Z</time></trkpt><trkpt lat="43.1335856" lon="12.8473128"><ele>715.0</ele><time>2026-04-25T08:31:20.129Z</time></trkpt><trkpt lat="43.1338019" lon="12.8474913"><ele>724.0</ele><time>2026-04-25T08:31:21.127Z</time></trkpt><trkpt lat="43.1340145" lon="12.8476601"><ele>733.0</ele><time>2026-04-25T08:31:22.126Z</time></trkpt><trkpt lat="43.1342263" lon="12.8478146"><ele>733.0</ele><time>2026-04-25T08:31:23.132Z</time></trkpt><trkpt lat="43.1344362" lon="12.8479333"><ele>733.0</ele><time>2026-04-25T08:31:24.138Z</time></trkpt><trkpt lat="43.1346333" lon="12.8480176"><ele>733.0</ele><time>2026-04-25T08:31:25.121Z</time></trkpt><trkpt lat="43.1348007" lon="12.848087"><ele>725.6666666666667</ele><time>2026-04-25T08:31:26.128Z</time></trkpt><trkpt lat="43.1349491" lon="12.848178"><ele>718.3333333333334</ele><time>2026-04-25T08:31:27.122Z</time></trkpt><trkpt lat="43.1350777" lon="12.8482809"><ele>711.0</ele><time>2026-04-25T08:31:28.123Z</time></trkpt><trkpt lat="43.1351936" lon="12.8484449"><ele>719.0</ele><time>2026-04-25T08:31:29.143Z</time></trkpt><trkpt lat="43.1352674" lon="12.8486666"><ele>727.0</ele><time>2026-04-25T08:31:30.127Z</time></trkpt><trkpt lat="43.1353244" lon="12.8489189"><ele>735.0</ele><time>2026-04-25T08:31:31.13Z</time></trkpt><trkpt lat="43.1353459" lon="12.8491937"><ele>740.0</ele><time>2026-04-25T08:31:32.121Z</time></trkpt><trkpt lat="43.1353744" lon="12.8494875"><ele>745.0</ele><time>2026-04-25T08:31:33.122Z</time></trkpt><trkpt lat="43.1354023" lon="12.8497669"><ele>750.0</ele><time>2026-04-25T08:31:34.122Z</time></trkpt><trkpt lat="43.1354385" lon="12.8500154"><ele>754.6666666666666</ele><time>2026-04-25T08:31:35.125Z</time></trkpt><trkpt lat="43.1355046" lon="12.8502504"><ele>759.3333333333333</ele><time>2026-04-25T08:31:36.135Z</time></trkpt><trkpt lat="43.1355965" lon="12.8504824"><ele>764.0</ele><time>2026-04-25T08:31:37.133Z</time></trkpt><trkpt lat="43.1357224" lon="12.8507096"><ele>752.3333333333333</ele><time>2026-04-25T08:31:38.126Z</time></trkpt><trkpt lat="43.1358433" lon="12.8509453"><ele>740.6666666666666</ele><time>2026-04-25T08:31:39.128Z</time></trkpt><trkpt lat="43.1359389" lon="12.8511781"><ele>729.0</ele><time>2026-04-25T08:31:40.123Z</time></trkpt><trkpt lat="43.1360097" lon="12.85138"><ele>729.0</ele><time>2026-04-25T08:31:41.136Z</time></trkpt><trkpt lat="43.1360482" lon="12.8515506"><ele>729.0</ele><time>2026-04-25T08:31:42.134Z</time></trkpt><trkpt lat="43.1360247" lon="12.8517123"><ele>729.0</ele><time>2026-04-25T08:31:43.126Z</time></trkpt><trkpt lat="43.1359435" lon="12.8518343"><ele>729.0</ele><time>2026-04-25T08:31:44.129Z</time></trkpt><trkpt lat="43.1357943" lon="12.8518997"><ele>731.25</ele><time>2026-04-25T08:31:45.129Z</time></trkpt><trkpt lat="43.1356447" lon="12.8518994"><ele>733.5</ele><time>2026-04-25T08:31:46.122Z</time></trkpt><trkpt lat="43.1355241" lon="12.8519065"><ele>735.75</ele><time>2026-04-25T08:31:47.127Z</time></trkpt><trkpt lat="43.1354063" lon="12.8519653"><ele>738.0</ele><time>2026-04-25T08:31:48.14Z</time></trkpt><trkpt lat="43.1353094" lon="12.8521067"><ele>738.0</ele><time>2026-04-25T08:31:49.138Z</time></trkpt><trkpt lat="43.1352246" lon="12.8522994"><ele>738.0</ele><time>2026-04-25T08:31:50.139Z</time></trkpt><trkpt lat="43.1351316" lon="12.8524752"><ele>738.0</ele><time>2026-04-25T08:31:51.131Z</time></trkpt><trkpt lat="43.1350055" lon="12.852599"><ele>737.6666666666666</ele><time>2026-04-25T08:31:52.136Z</time></trkpt><trkpt lat="43.1348372" lon="12.8526727"><ele>737.3333333333333</ele><time>2026-04-25T08:31:53.126Z</time></trkpt><trkpt lat="43.1346454" lon="12.8527258"><ele>737.0</ele><time>2026-04-25T08:31:54.121Z</time></trkpt><trkpt lat="43.1344647" lon="12.8527734"><ele>737.0</ele><time>2026-04-25T08:31:55.131Z</time></trkpt><trkpt lat="43.1343023" lon="12.8528504"><ele>737.0</ele><time>2026-04-25T08:31:56.136Z</time></trkpt><trkpt lat="43.1341501" lon="12.8529631"><ele>737.0</ele><time>2026-04-25T08:31:57.139Z</time></trkpt><trkpt lat="43.1340323" lon="12.8531151"><ele>749.0</ele><time>2026-04-25T08:31:58.134Z</time></trkpt><trkpt lat="43.1339451" lon="12.8532891"><ele>761.0</ele><time>2026-04-25T08:31:59.129Z</time></trkpt><trkpt lat="43.1338693" lon="12.8535117"><ele>773.0</ele><time>2026-04-25T08:32:00.152Z</time></trkpt><trkpt lat="43.1338019" lon="12.8537794"><ele>773.0</ele><time>2026-04-25T08:32:01.134Z</time></trkpt><trkpt lat="43.1337269" lon="12.8540508"><ele>773.0</ele><time>2026-04-25T08:32:02.13Z</time></trkpt><trkpt lat="43.1336637" lon="12.8542862"><ele>773.0</ele><time>2026-04-25T08:32:03.13Z</time></trkpt><trkpt lat="43.133613" lon="12.8544943"><ele>773.25</ele><time>2026-04-25T08:32:04.13Z</time></trkpt><trkpt lat="43.133534" lon="12.8546517"><ele>773.5</ele><time>2026-04-25T08:32:05.131Z</time></trkpt><trkpt lat="43.1334301" lon="12.8547605"><ele>773.75</ele><time>2026-04-25T08:32:06.13Z</time></trkpt><trkpt lat="43.1332758" lon="12.8548152"><ele>774.0</ele><time>2026-04-25T08:32:07.13Z</time></trkpt><trkpt lat="43.1330938" lon="12.8548357"><ele>774.0</ele><time>2026-04-25T08:32:08.127Z</time></trkpt><trkpt lat="43.1329245" lon="12.8548681"><ele>774.0</ele><time>2026-04-25T08:32:09.12Z</time></trkpt><trkpt lat="43.1327837" lon="12.8549219"><ele>774.0</ele><time>2026-04-25T08:32:10.128Z</time></trkpt><trkpt lat="43.1326514" lon="12.8550386"><ele>768.3333333333334</ele><time>2026-04-25T08:32:11.126Z</time></trkpt><trkpt lat="43.1325262" lon="12.8551981"><ele>762.6666666666667</ele><time>2026-04-25T08:32:12.13Z</time></trkpt><trkpt lat="43.1323978" lon="12.85537"><ele>757.0</ele><time>2026-04-25T08:32:13.139Z</time></trkpt><trkpt lat="43.1322571" lon="12.8555101"><ele>757.0</ele><time>2026-04-25T08:32:14.129Z</time></trkpt><trkpt lat="43.1320895" lon="12.8555658"><ele>757.0</ele><time>2026-04-25T08:32:15.133Z</time></trkpt><trkpt lat="43.1319101" lon="12.8555817"><ele>757.0</ele><time>2026-04-25T08:32:16.13Z</time></trkpt><trkpt lat="43.1317242" lon="12.855577"><ele>761.0</ele><time>2026-04-25T08:32:17.138Z</time></trkpt><trkpt lat="43.1315318" lon="12.8556001"><ele>765.0</ele><time>2026-04-25T08:32:18.129Z</time></trkpt><trkpt lat="43.1313537" lon="12.8556712"><ele>769.0</ele><time>2026-04-25T08:32:19.129Z</time></trkpt><trkpt lat="43.1311878" lon="12.8557043"><ele>769.0</ele><time>2026-04-25T08:32:20.13Z</time></trkpt><trkpt lat="43.1309922" lon="12.8556813"><ele>769.0</ele><time>2026-04-25T08:32:21.131Z</time></trkpt><trkpt lat="43.1307793" lon="12.8556675"><ele>769.0</ele><time>2026-04-25T08:32:22.139Z</time></trkpt><trkpt lat="43.1305745" lon="12.8556487"><ele>766.3333333333333</ele><time>2026-04-25T08:32:23.129Z</time></trkpt><trkpt lat="43.1303933" lon="12.8556161"><ele>763.6666666666666</ele><time>2026-04-25T08:32:24.141Z</time></trkpt><trkpt lat="43.1302297" lon="12.8555743"><ele>761.0</ele><time>2026-04-25T08:32:25.131Z</time></trkpt><trkpt lat="43.1300798" lon="12.8554663"><ele>761.0</ele><time>2026-04-25T08:32:26.138Z</time></trkpt><trkpt lat="43.1299218" lon="12.8553239"><ele>761.0</ele><time>2026-04-25T08:32:27.132Z</time></trkpt><trkpt lat="43.1297529" lon="12.8551632"><ele>761.0</ele><time>2026-04-25T08:32:28.133Z</time></trkpt><trkpt lat="43.1295506" lon="12.8549946"><ele>770.0</ele><time>2026-04-25T08:32:29.126Z</time></trkpt><trkpt lat="43.1293377" lon="12.8548354"><ele>779.0</ele><time>2026-04-25T08:32:30.121Z</time></trkpt><trkpt lat="43.1291393" lon="12.8546803"><ele>780.6666666666667</ele><time>2026-04-25T08:32:31.127Z</time></trkpt><trkpt lat="43.1289664" lon="12.8545397"><ele>782.3333333333333</ele><time>2026-04-25T08:32:32.127Z</time></trkpt><trkpt lat="43.1288062" lon="12.8544103"><ele>784.0</ele><time>2026-04-25T08:32:33.14Z</time></trkpt><trkpt lat="43.1286515" lon="12.8542907"><ele>788.75</ele><time>2026-04-25T08:32:34.125Z</time></trkpt><trkpt lat="43.1285136" lon="12.8541792"><ele>793.5</ele><time>2026-04-25T08:32:35.122Z</time></trkpt><trkpt lat="43.1283815" lon="12.8541002"><ele>798.25</ele><time>2026-04-25T08:32:36.128Z</time></trkpt><trkpt lat="43.1282575" lon="12.8540691"><ele>803.0</ele><time>2026-04-25T08:32:37.123Z</time></trkpt><trkpt lat="43.1281442" lon="12.8540938"><ele>809.0</ele><time>2026-04-25T08:32:38.131Z</time></trkpt><trkpt lat="43.1280518" lon="12.8542132"><ele>815.0</ele><time>2026-04-25T08:32:39.127Z</time></trkpt><trkpt lat="43.1279834" lon="12.8543763"><ele>821.0</ele><time>2026-04-25T08:32:40.138Z</time></trkpt><trkpt lat="43.1279234" lon="12.8546018"><ele>827.0</ele><time>2026-04-25T08:32:41.129Z</time></trkpt><trkpt lat="43.1278561" lon="12.8548379"><ele>827.0</ele><time>2026-04-25T08:32:42.133Z</time></trkpt><trkpt lat="43.1277971" lon="12.8551022"><ele>827.0</ele><time>2026-04-25T08:32:43.125Z</time></trkpt><trkpt lat="43.1277658" lon="12.8553696"><ele>827.0</ele><time>2026-04-25T08:32:44.121Z</time></trkpt><trkpt lat="43.1277711" lon="12.8556677"><ele>823.6666666666667</ele><time>2026-04-25T08:32:45.127Z</time></trkpt><trkpt lat="43.1277813" lon="12.8559671"><ele>820.3333333333333</ele><time>2026-04-25T08:32:46.127Z</time></trkpt><trkpt lat="43.1277838" lon="12.8562221"><ele>817.0</ele><time>2026-04-25T08:32:47.125Z</time></trkpt><trkpt lat="43.1277583" lon="12.8564547"><ele>817.0</ele><time>2026-04-25T08:32:48.127Z</time></trkpt><trkpt lat="43.1276841" lon="12.856671"><ele>817.0</ele><time>2026-04-25T08:32:49.125Z</time></trkpt><trkpt lat="43.1275652" lon="12.8568767"><ele>817.0</ele><time>2026-04-25T08:32:50.121Z</time></trkpt><trkpt lat="43.1274302" lon="12.8570933"><ele>818.3333333333333</ele><time>2026-04-25T08:32:51.122Z</time></trkpt><trkpt lat="43.1272919" lon="12.8573089"><ele>819.6666666666667</ele><time>2026-04-25T08:32:52.128Z</time></trkpt><trkpt lat="43.1271625" lon="12.8574938"><ele>821.0</ele><time>2026-04-25T08:32:53.13Z</time></trkpt><trkpt lat="43.1270297" lon="12.8576585"><ele>817.6666666666667</ele><time>2026-04-25T08:32:54.13Z</time></trkpt><trkpt lat="43.1269131" lon="12.8578221"><ele>814.3333333333333</ele><time>2026-04-25T08:32:55.128Z</time></trkpt><trkpt lat="43.1268137" lon="12.8579836"><ele>811.0</ele><time>2026-04-25T08:32:56.128Z</time></trkpt><trkpt lat="43.126759" lon="12.8581669"><ele>811.0</ele><time>2026-04-25T08:32:57.135Z</time></trkpt><trkpt lat="43.1267272" lon="12.8583499"><ele>811.0</ele><time>2026-04-25T08:32:58.131Z</time></trkpt><trkpt lat="43.126681" lon="12.8585269"><ele>811.0</ele><time>2026-04-25T08:32:59.131Z</time></trkpt><trkpt lat="43.1265855" lon="12.8586293"><ele>811.0</ele><time>2026-04-25T08:33:00.14Z</time></trkpt><trkpt lat="43.1264524" lon="12.8587056"><ele>810.6666666666666</ele><time>2026-04-25T08:33:01.136Z</time></trkpt><trkpt lat="43.1262911" lon="12.8587621"><ele>810.3333333333333</ele><time>2026-04-25T08:33:02.134Z</time></trkpt><trkpt lat="43.1260883" lon="12.8588304"><ele>810.0</ele><time>2026-04-25T08:33:03.136Z</time></trkpt><trkpt lat="43.1259106" lon="12.8589066"><ele>810.0</ele><time>2026-04-25T08:33:04.136Z</time></trkpt><trkpt lat="43.1257659" lon="12.8589635"><ele>810.0</ele><time>2026-04-25T08:33:05.127Z</time></trkpt><trkpt lat="43.1256564" lon="12.8589944"><ele>810.0</ele><time>2026-04-25T08:33:06.135Z</time></trkpt><trkpt lat="43.125571" lon="12.8589788"><ele>810.0</ele><time>2026-04-25T08:33:07.132Z</time></trkpt><trkpt lat="43.1254993" lon="12.8589142"><ele>810.0</ele><time>2026-04-25T08:33:08.135Z</time></trkpt><trkpt lat="43.1254348" lon="12.8588127"><ele>820.0</ele><time>2026-04-25T08:33:10.137Z</time></trkpt><trkpt lat="43.1253835" lon="12.8587274"><ele>820.0</ele><time>2026-04-25T08:33:13.132Z</time></trkpt><trkpt lat="43.1253064" lon="12.8587677"><ele>820.0</ele><time>2026-04-25T08:33:16.127Z</time></trkpt><trkpt lat="43.1252904" lon="12.8588765"><ele>820.0</ele><time>2026-04-25T08:33:19.121Z</time></trkpt></trkseg><trkseg><trkpt lat="43.1253201" lon="12.8588679"><ele>861.0</ele><time>2026-04-25T08:48:44.13Z</time></trkpt></trkseg></trk></gpx>